<?xml version="1.0" encoding="UTF-8" standalone="no" ?>
<gpx xmlns="http://www.topografix.com/GPX/1/1" xmlns:xsi="http://www.w3.org/2001/XMLSchema-instance" xsi:schemaLocation="http://www.topografix.com/GPX/1/1 http://www.topografix.com/GPX/1/1/gpx.xsd" version="1.1" creator="VisuGPX - https://www.visugpx.com">
  <metadata>
    <name>Reconaissance 25-30 du 4 mai</name>
    <desc><![CDATA[gg]]></desc>
  </metadata>
  <trk>
    <name><![CDATA[SityTrail - Reconaissance 25-30 du 4 mai]]></name>
    <desc><![CDATA[gg]]></desc>
    <trkseg>
      <trkpt lat="48.37627" lon="2.7395">
        <ele>91</ele>
        <time>2022-04-19T07:21:53.105Z</time>
      </trkpt>
      <trkpt lat="48.37627" lon="2.73952">
        <ele>91</ele>
        <time>2022-04-19T07:23:02.116Z</time>
      </trkpt>
      <trkpt lat="48.37627" lon="2.73952">
        <ele>91</ele>
        <time>2022-04-19T07:23:07.114Z</time>
      </trkpt>
      <trkpt lat="48.37627" lon="2.73956">
        <ele>91</ele>
        <time>2022-04-19T07:23:12.115Z</time>
      </trkpt>
      <trkpt lat="48.37626" lon="2.73961">
        <ele>91</ele>
        <time>2022-04-19T07:23:16.115Z</time>
      </trkpt>
      <trkpt lat="48.37627" lon="2.7397">
        <ele>91</ele>
        <time>2022-04-19T07:23:21.109Z</time>
      </trkpt>
      <trkpt lat="48.37628" lon="2.73973">
        <ele>91</ele>
        <time>2022-04-19T07:24:18.108Z</time>
      </trkpt>
      <trkpt lat="48.37629" lon="2.73975">
        <ele>91</ele>
        <time>2022-04-19T07:24:23.121Z</time>
      </trkpt>
      <trkpt lat="48.37628" lon="2.73982">
        <ele>91</ele>
        <time>2022-04-19T07:24:27.140Z</time>
      </trkpt>
      <trkpt lat="48.37624" lon="2.7399">
        <ele>93</ele>
        <time>2022-04-19T07:24:32.113Z</time>
      </trkpt>
      <trkpt lat="48.37618" lon="2.73995">
        <ele>93</ele>
        <time>2022-04-19T07:24:37.228Z</time>
      </trkpt>
      <trkpt lat="48.37612" lon="2.73999">
        <ele>93</ele>
        <time>2022-04-19T07:24:42.113Z</time>
      </trkpt>
      <trkpt lat="48.37607" lon="2.74003">
        <ele>93</ele>
        <time>2022-04-19T07:24:46.116Z</time>
      </trkpt>
      <trkpt lat="48.37601" lon="2.74008">
        <ele>93</ele>
        <time>2022-04-19T07:24:51.122Z</time>
      </trkpt>
      <trkpt lat="48.37595" lon="2.74012">
        <ele>93</ele>
        <time>2022-04-19T07:24:55.119Z</time>
      </trkpt>
      <trkpt lat="48.37589" lon="2.74019">
        <ele>91</ele>
        <time>2022-04-19T07:25:00.114Z</time>
      </trkpt>
      <trkpt lat="48.37584" lon="2.74024">
        <ele>91</ele>
        <time>2022-04-19T07:25:04.139Z</time>
      </trkpt>
      <trkpt lat="48.37576" lon="2.74029">
        <ele>91</ele>
        <time>2022-04-19T07:25:09.117Z</time>
      </trkpt>
      <trkpt lat="48.37569" lon="2.74034">
        <ele>89</ele>
        <time>2022-04-19T07:25:14.120Z</time>
      </trkpt>
      <trkpt lat="48.37563" lon="2.74038">
        <ele>89</ele>
        <time>2022-04-19T07:25:19.115Z</time>
      </trkpt>
      <trkpt lat="48.37557" lon="2.74044">
        <ele>89</ele>
        <time>2022-04-19T07:25:24.110Z</time>
      </trkpt>
      <trkpt lat="48.37551" lon="2.74048">
        <ele>89</ele>
        <time>2022-04-19T07:25:28.138Z</time>
      </trkpt>
      <trkpt lat="48.37546" lon="2.74053">
        <ele>89</ele>
        <time>2022-04-19T07:25:32.139Z</time>
      </trkpt>
      <trkpt lat="48.37539" lon="2.74059">
        <ele>87</ele>
        <time>2022-04-19T07:25:37.116Z</time>
      </trkpt>
      <trkpt lat="48.37534" lon="2.74064">
        <ele>87</ele>
        <time>2022-04-19T07:25:41.117Z</time>
      </trkpt>
      <trkpt lat="48.37527" lon="2.74069">
        <ele>87</ele>
        <time>2022-04-19T07:25:46.123Z</time>
      </trkpt>
      <trkpt lat="48.37522" lon="2.74073">
        <ele>89</ele>
        <time>2022-04-19T07:25:50.157Z</time>
      </trkpt>
      <trkpt lat="48.37515" lon="2.7408">
        <ele>89</ele>
        <time>2022-04-19T07:25:55.118Z</time>
      </trkpt>
      <trkpt lat="48.37509" lon="2.74084">
        <ele>89</ele>
        <time>2022-04-19T07:25:59.140Z</time>
      </trkpt>
      <trkpt lat="48.37502" lon="2.7409">
        <ele>89</ele>
        <time>2022-04-19T07:26:04.115Z</time>
      </trkpt>
      <trkpt lat="48.37497" lon="2.74094">
        <ele>89</ele>
        <time>2022-04-19T07:26:08.117Z</time>
      </trkpt>
      <trkpt lat="48.37491" lon="2.741">
        <ele>91</ele>
        <time>2022-04-19T07:26:13.108Z</time>
      </trkpt>
      <trkpt lat="48.37487" lon="2.74105">
        <ele>91</ele>
        <time>2022-04-19T07:26:17.118Z</time>
      </trkpt>
      <trkpt lat="48.3748" lon="2.74109">
        <ele>91</ele>
        <time>2022-04-19T07:26:22.126Z</time>
      </trkpt>
      <trkpt lat="48.37474" lon="2.74114">
        <ele>91</ele>
        <time>2022-04-19T07:26:26.140Z</time>
      </trkpt>
      <trkpt lat="48.37466" lon="2.7412">
        <ele>91</ele>
        <time>2022-04-19T07:26:31.111Z</time>
      </trkpt>
      <trkpt lat="48.3746" lon="2.74125">
        <ele>91</ele>
        <time>2022-04-19T07:26:36.119Z</time>
      </trkpt>
      <trkpt lat="48.37454" lon="2.7413">
        <ele>90</ele>
        <time>2022-04-19T07:26:41.115Z</time>
      </trkpt>
      <trkpt lat="48.37448" lon="2.74135">
        <ele>90</ele>
        <time>2022-04-19T07:26:46.139Z</time>
      </trkpt>
      <trkpt lat="48.37441" lon="2.7414">
        <ele>90</ele>
        <time>2022-04-19T07:26:51.109Z</time>
      </trkpt>
      <trkpt lat="48.37436" lon="2.74147">
        <ele>90</ele>
        <time>2022-04-19T07:26:56.116Z</time>
      </trkpt>
      <trkpt lat="48.3743" lon="2.74152">
        <ele>89</ele>
        <time>2022-04-19T07:27:01.111Z</time>
      </trkpt>
      <trkpt lat="48.37423" lon="2.74157">
        <ele>90</ele>
        <time>2022-04-19T07:27:06.112Z</time>
      </trkpt>
      <trkpt lat="48.37419" lon="2.7416">
        <ele>90</ele>
        <time>2022-04-19T07:27:10.121Z</time>
      </trkpt>
      <trkpt lat="48.37413" lon="2.74164">
        <ele>90</ele>
        <time>2022-04-19T07:27:14.122Z</time>
      </trkpt>
      <trkpt lat="48.37406" lon="2.74169">
        <ele>90</ele>
        <time>2022-04-19T07:27:19.115Z</time>
      </trkpt>
      <trkpt lat="48.374" lon="2.74175">
        <ele>91</ele>
        <time>2022-04-19T07:27:24.143Z</time>
      </trkpt>
      <trkpt lat="48.37393" lon="2.7418">
        <ele>91</ele>
        <time>2022-04-19T07:27:29.114Z</time>
      </trkpt>
      <trkpt lat="48.37387" lon="2.74184">
        <ele>92</ele>
        <time>2022-04-19T07:27:33.132Z</time>
      </trkpt>
      <trkpt lat="48.37382" lon="2.74189">
        <ele>92</ele>
        <time>2022-04-19T07:27:37.147Z</time>
      </trkpt>
      <trkpt lat="48.37376" lon="2.74195">
        <ele>92</ele>
        <time>2022-04-19T07:27:42.107Z</time>
      </trkpt>
      <trkpt lat="48.37371" lon="2.74198">
        <ele>91</ele>
        <time>2022-04-19T07:27:46.117Z</time>
      </trkpt>
      <trkpt lat="48.37363" lon="2.74205">
        <ele>91</ele>
        <time>2022-04-19T07:27:51.114Z</time>
      </trkpt>
      <trkpt lat="48.37357" lon="2.74211">
        <ele>91</ele>
        <time>2022-04-19T07:27:56.106Z</time>
      </trkpt>
      <trkpt lat="48.37351" lon="2.74216">
        <ele>91</ele>
        <time>2022-04-19T07:28:00.113Z</time>
      </trkpt>
      <trkpt lat="48.37345" lon="2.7422">
        <ele>89</ele>
        <time>2022-04-19T07:28:05.140Z</time>
      </trkpt>
      <trkpt lat="48.3734" lon="2.74225">
        <ele>89</ele>
        <time>2022-04-19T07:28:09.166Z</time>
      </trkpt>
      <trkpt lat="48.37333" lon="2.7423">
        <ele>89</ele>
        <time>2022-04-19T07:28:14.118Z</time>
      </trkpt>
      <trkpt lat="48.37326" lon="2.74235">
        <ele>89</ele>
        <time>2022-04-19T07:28:19.150Z</time>
      </trkpt>
      <trkpt lat="48.37318" lon="2.7424">
        <ele>90</ele>
        <time>2022-04-19T07:28:24.116Z</time>
      </trkpt>
      <trkpt lat="48.37313" lon="2.74245">
        <ele>90</ele>
        <time>2022-04-19T07:28:28.120Z</time>
      </trkpt>
      <trkpt lat="48.37307" lon="2.74252">
        <ele>90</ele>
        <time>2022-04-19T07:28:33.112Z</time>
      </trkpt>
      <trkpt lat="48.37303" lon="2.74257">
        <ele>90</ele>
        <time>2022-04-19T07:28:37.126Z</time>
      </trkpt>
      <trkpt lat="48.37301" lon="2.74267">
        <ele>92</ele>
        <time>2022-04-19T07:28:42.115Z</time>
      </trkpt>
      <trkpt lat="48.37301" lon="2.74275">
        <ele>92</ele>
        <time>2022-04-19T07:28:46.134Z</time>
      </trkpt>
      <trkpt lat="48.373" lon="2.74285">
        <ele>92</ele>
        <time>2022-04-19T07:28:51.118Z</time>
      </trkpt>
      <trkpt lat="48.373" lon="2.74294">
        <ele>94</ele>
        <time>2022-04-19T07:28:55.116Z</time>
      </trkpt>
      <trkpt lat="48.37306" lon="2.74308">
        <ele>94</ele>
        <time>2022-04-19T07:30:03.110Z</time>
      </trkpt>
      <trkpt lat="48.373" lon="2.74321">
        <ele>95</ele>
        <time>2022-04-19T07:30:07.110Z</time>
      </trkpt>
      <trkpt lat="48.373" lon="2.74334">
        <ele>95</ele>
        <time>2022-04-19T07:30:12.118Z</time>
      </trkpt>
      <trkpt lat="48.37299" lon="2.74346">
        <ele>95</ele>
        <time>2022-04-19T07:30:17.112Z</time>
      </trkpt>
      <trkpt lat="48.37298" lon="2.74357">
        <ele>95</ele>
        <time>2022-04-19T07:30:22.223Z</time>
      </trkpt>
      <trkpt lat="48.37297" lon="2.74368">
        <ele>95</ele>
        <time>2022-04-19T07:30:27.111Z</time>
      </trkpt>
      <trkpt lat="48.37297" lon="2.74379">
        <ele>94</ele>
        <time>2022-04-19T07:30:32.113Z</time>
      </trkpt>
      <trkpt lat="48.37296" lon="2.7439">
        <ele>94</ele>
        <time>2022-04-19T07:30:37.116Z</time>
      </trkpt>
      <trkpt lat="48.37296" lon="2.74401">
        <ele>94</ele>
        <time>2022-04-19T07:30:42.123Z</time>
      </trkpt>
      <trkpt lat="48.37296" lon="2.74412">
        <ele>94</ele>
        <time>2022-04-19T07:30:47.116Z</time>
      </trkpt>
      <trkpt lat="48.37296" lon="2.74424">
        <ele>94</ele>
        <time>2022-04-19T07:30:52.117Z</time>
      </trkpt>
      <trkpt lat="48.37296" lon="2.74435">
        <ele>94</ele>
        <time>2022-04-19T07:30:57.120Z</time>
      </trkpt>
      <trkpt lat="48.37296" lon="2.74446">
        <ele>94</ele>
        <time>2022-04-19T07:31:02.121Z</time>
      </trkpt>
      <trkpt lat="48.37296" lon="2.74458">
        <ele>94</ele>
        <time>2022-04-19T07:31:07.106Z</time>
      </trkpt>
      <trkpt lat="48.37296" lon="2.74466">
        <ele>94</ele>
        <time>2022-04-19T07:31:11.117Z</time>
      </trkpt>
      <trkpt lat="48.37294" lon="2.74477">
        <ele>94</ele>
        <time>2022-04-19T07:31:16.108Z</time>
      </trkpt>
      <trkpt lat="48.37294" lon="2.74489">
        <ele>94</ele>
        <time>2022-04-19T07:31:21.116Z</time>
      </trkpt>
      <trkpt lat="48.37294" lon="2.74498">
        <ele>94</ele>
        <time>2022-04-19T07:31:25.125Z</time>
      </trkpt>
      <trkpt lat="48.37293" lon="2.74509">
        <ele>94</ele>
        <time>2022-04-19T07:31:30.119Z</time>
      </trkpt>
      <trkpt lat="48.37293" lon="2.74518">
        <ele>94</ele>
        <time>2022-04-19T07:31:34.126Z</time>
      </trkpt>
      <trkpt lat="48.37293" lon="2.74529">
        <ele>94</ele>
        <time>2022-04-19T07:31:39.108Z</time>
      </trkpt>
      <trkpt lat="48.37292" lon="2.74539">
        <ele>94</ele>
        <time>2022-04-19T07:31:43.118Z</time>
      </trkpt>
      <trkpt lat="48.37292" lon="2.74547">
        <ele>94</ele>
        <time>2022-04-19T07:31:47.120Z</time>
      </trkpt>
      <trkpt lat="48.37291" lon="2.74556">
        <ele>93</ele>
        <time>2022-04-19T07:31:51.122Z</time>
      </trkpt>
      <trkpt lat="48.37291" lon="2.74568">
        <ele>93</ele>
        <time>2022-04-19T07:31:56.117Z</time>
      </trkpt>
      <trkpt lat="48.37292" lon="2.74577">
        <ele>92</ele>
        <time>2022-04-19T07:32:00.119Z</time>
      </trkpt>
      <trkpt lat="48.37291" lon="2.74589">
        <ele>92</ele>
        <time>2022-04-19T07:32:05.115Z</time>
      </trkpt>
      <trkpt lat="48.37291" lon="2.74598">
        <ele>92</ele>
        <time>2022-04-19T07:32:09.120Z</time>
      </trkpt>
      <trkpt lat="48.37291" lon="2.74611">
        <ele>92</ele>
        <time>2022-04-19T07:32:14.124Z</time>
      </trkpt>
      <trkpt lat="48.3729" lon="2.74622">
        <ele>92</ele>
        <time>2022-04-19T07:32:19.118Z</time>
      </trkpt>
      <trkpt lat="48.3729" lon="2.74632">
        <ele>92</ele>
        <time>2022-04-19T07:32:23.118Z</time>
      </trkpt>
      <trkpt lat="48.37291" lon="2.74641">
        <ele>92</ele>
        <time>2022-04-19T07:32:27.136Z</time>
      </trkpt>
      <trkpt lat="48.3729" lon="2.74653">
        <ele>92</ele>
        <time>2022-04-19T07:32:32.121Z</time>
      </trkpt>
      <trkpt lat="48.3729" lon="2.74662">
        <ele>92</ele>
        <time>2022-04-19T07:32:36.126Z</time>
      </trkpt>
      <trkpt lat="48.37285" lon="2.74669">
        <ele>92</ele>
        <time>2022-04-19T07:32:41.110Z</time>
      </trkpt>
      <trkpt lat="48.37278" lon="2.7467">
        <ele>92</ele>
        <time>2022-04-19T07:32:46.114Z</time>
      </trkpt>
      <trkpt lat="48.37271" lon="2.74667">
        <ele>92</ele>
        <time>2022-04-19T07:32:51.112Z</time>
      </trkpt>
      <trkpt lat="48.37264" lon="2.74665">
        <ele>92</ele>
        <time>2022-04-19T07:32:56.109Z</time>
      </trkpt>
      <trkpt lat="48.37259" lon="2.74664">
        <ele>92</ele>
        <time>2022-04-19T07:33:00.116Z</time>
      </trkpt>
      <trkpt lat="48.37253" lon="2.74663">
        <ele>92</ele>
        <time>2022-04-19T07:33:04.123Z</time>
      </trkpt>
      <trkpt lat="48.37245" lon="2.74662">
        <ele>92</ele>
        <time>2022-04-19T07:33:09.117Z</time>
      </trkpt>
      <trkpt lat="48.3724" lon="2.74663">
        <ele>92</ele>
        <time>2022-04-19T07:33:13.110Z</time>
      </trkpt>
      <trkpt lat="48.37232" lon="2.74663">
        <ele>95</ele>
        <time>2022-04-19T07:33:18.113Z</time>
      </trkpt>
      <trkpt lat="48.37227" lon="2.74663">
        <ele>95</ele>
        <time>2022-04-19T07:33:22.226Z</time>
      </trkpt>
      <trkpt lat="48.3722" lon="2.74663">
        <ele>95</ele>
        <time>2022-04-19T07:33:27.117Z</time>
      </trkpt>
      <trkpt lat="48.37212" lon="2.74664">
        <ele>95</ele>
        <time>2022-04-19T07:33:32.120Z</time>
      </trkpt>
      <trkpt lat="48.37205" lon="2.74665">
        <ele>99</ele>
        <time>2022-04-19T07:33:37.112Z</time>
      </trkpt>
      <trkpt lat="48.37198" lon="2.74667">
        <ele>99</ele>
        <time>2022-04-19T07:33:42.115Z</time>
      </trkpt>
      <trkpt lat="48.37192" lon="2.7467">
        <ele>99</ele>
        <time>2022-04-19T07:33:46.126Z</time>
      </trkpt>
      <trkpt lat="48.37185" lon="2.74671">
        <ele>99</ele>
        <time>2022-04-19T07:33:51.117Z</time>
      </trkpt>
      <trkpt lat="48.37178" lon="2.7467">
        <ele>101</ele>
        <time>2022-04-19T07:33:56.112Z</time>
      </trkpt>
      <trkpt lat="48.37172" lon="2.74672">
        <ele>101</ele>
        <time>2022-04-19T07:34:00.118Z</time>
      </trkpt>
      <trkpt lat="48.37166" lon="2.74671">
        <ele>101</ele>
        <time>2022-04-19T07:34:05.135Z</time>
      </trkpt>
      <trkpt lat="48.3716" lon="2.74668">
        <ele>101</ele>
        <time>2022-04-19T07:34:10.116Z</time>
      </trkpt>
      <trkpt lat="48.37154" lon="2.74668">
        <ele>101</ele>
        <time>2022-04-19T07:34:14.118Z</time>
      </trkpt>
      <trkpt lat="48.37148" lon="2.74673">
        <ele>104</ele>
        <time>2022-04-19T07:34:19.117Z</time>
      </trkpt>
      <trkpt lat="48.37145" lon="2.7468">
        <ele>104</ele>
        <time>2022-04-19T07:34:23.112Z</time>
      </trkpt>
      <trkpt lat="48.37143" lon="2.74691">
        <ele>105</ele>
        <time>2022-04-19T07:34:28.112Z</time>
      </trkpt>
      <trkpt lat="48.37139" lon="2.747">
        <ele>105</ele>
        <time>2022-04-19T07:34:33.114Z</time>
      </trkpt>
      <trkpt lat="48.37136" lon="2.74706">
        <ele>105</ele>
        <time>2022-04-19T07:34:37.134Z</time>
      </trkpt>
      <trkpt lat="48.37133" lon="2.74717">
        <ele>106</ele>
        <time>2022-04-19T07:34:42.112Z</time>
      </trkpt>
      <trkpt lat="48.37129" lon="2.74726">
        <ele>106</ele>
        <time>2022-04-19T07:34:47.120Z</time>
      </trkpt>
      <trkpt lat="48.37126" lon="2.74735">
        <ele>106</ele>
        <time>2022-04-19T07:34:52.123Z</time>
      </trkpt>
      <trkpt lat="48.37125" lon="2.74745">
        <ele>107</ele>
        <time>2022-04-19T07:34:57.116Z</time>
      </trkpt>
      <trkpt lat="48.37122" lon="2.74754">
        <ele>111</ele>
        <time>2022-04-19T07:35:02.122Z</time>
      </trkpt>
      <trkpt lat="48.37118" lon="2.74762">
        <ele>111</ele>
        <time>2022-04-19T07:35:07.111Z</time>
      </trkpt>
      <trkpt lat="48.37112" lon="2.74766">
        <ele>112</ele>
        <time>2022-04-19T07:35:11.122Z</time>
      </trkpt>
      <trkpt lat="48.37109" lon="2.7477">
        <ele>112</ele>
        <time>2022-04-19T07:35:15.124Z</time>
      </trkpt>
      <trkpt lat="48.37103" lon="2.74773">
        <ele>112</ele>
        <time>2022-04-19T07:35:20.121Z</time>
      </trkpt>
      <trkpt lat="48.37096" lon="2.74776">
        <ele>117</ele>
        <time>2022-04-19T07:35:25.115Z</time>
      </trkpt>
      <trkpt lat="48.3709" lon="2.74778">
        <ele>117</ele>
        <time>2022-04-19T07:35:30.115Z</time>
      </trkpt>
      <trkpt lat="48.37086" lon="2.74784">
        <ele>117</ele>
        <time>2022-04-19T07:35:34.117Z</time>
      </trkpt>
      <trkpt lat="48.37085" lon="2.74793">
        <ele>117</ele>
        <time>2022-04-19T07:35:38.122Z</time>
      </trkpt>
      <trkpt lat="48.37084" lon="2.74802">
        <ele>117</ele>
        <time>2022-04-19T07:35:42.124Z</time>
      </trkpt>
      <trkpt lat="48.37083" lon="2.74812">
        <ele>117</ele>
        <time>2022-04-19T07:35:47.115Z</time>
      </trkpt>
      <trkpt lat="48.3708" lon="2.74819">
        <ele>117</ele>
        <time>2022-04-19T07:35:51.127Z</time>
      </trkpt>
      <trkpt lat="48.37076" lon="2.74826">
        <ele>117</ele>
        <time>2022-04-19T07:35:56.124Z</time>
      </trkpt>
      <trkpt lat="48.37073" lon="2.74834">
        <ele>117</ele>
        <time>2022-04-19T07:36:00.119Z</time>
      </trkpt>
      <trkpt lat="48.37072" lon="2.74845">
        <ele>117</ele>
        <time>2022-04-19T07:36:05.118Z</time>
      </trkpt>
      <trkpt lat="48.37071" lon="2.74855">
        <ele>119</ele>
        <time>2022-04-19T07:36:10.110Z</time>
      </trkpt>
      <trkpt lat="48.37068" lon="2.74863">
        <ele>124</ele>
        <time>2022-04-19T07:36:15.116Z</time>
      </trkpt>
      <trkpt lat="48.37064" lon="2.74872">
        <ele>124</ele>
        <time>2022-04-19T07:36:20.117Z</time>
      </trkpt>
      <trkpt lat="48.37062" lon="2.74882">
        <ele>125</ele>
        <time>2022-04-19T07:36:25.116Z</time>
      </trkpt>
      <trkpt lat="48.3706" lon="2.74892">
        <ele>125</ele>
        <time>2022-04-19T07:36:30.132Z</time>
      </trkpt>
      <trkpt lat="48.37059" lon="2.74902">
        <ele>125</ele>
        <time>2022-04-19T07:36:35.119Z</time>
      </trkpt>
      <trkpt lat="48.37058" lon="2.74913">
        <ele>124</ele>
        <time>2022-04-19T07:36:40.112Z</time>
      </trkpt>
      <trkpt lat="48.37059" lon="2.74922">
        <ele>124</ele>
        <time>2022-04-19T07:36:44.113Z</time>
      </trkpt>
      <trkpt lat="48.37061" lon="2.74931">
        <ele>125</ele>
        <time>2022-04-19T07:36:49.120Z</time>
      </trkpt>
      <trkpt lat="48.37064" lon="2.74939">
        <ele>125</ele>
        <time>2022-04-19T07:36:54.112Z</time>
      </trkpt>
      <trkpt lat="48.37068" lon="2.74948">
        <ele>125</ele>
        <time>2022-04-19T07:36:59.106Z</time>
      </trkpt>
      <trkpt lat="48.3707" lon="2.74958">
        <ele>123</ele>
        <time>2022-04-19T07:37:04.107Z</time>
      </trkpt>
      <trkpt lat="48.37072" lon="2.74964">
        <ele>126</ele>
        <time>2022-04-19T07:37:08.109Z</time>
      </trkpt>
      <trkpt lat="48.37076" lon="2.74973">
        <ele>126</ele>
        <time>2022-04-19T07:37:13.120Z</time>
      </trkpt>
      <trkpt lat="48.3708" lon="2.74982">
        <ele>126</ele>
        <time>2022-04-19T07:37:18.128Z</time>
      </trkpt>
      <trkpt lat="48.37084" lon="2.74991">
        <ele>128</ele>
        <time>2022-04-19T07:37:23.117Z</time>
      </trkpt>
      <trkpt lat="48.37087" lon="2.74999">
        <ele>128</ele>
        <time>2022-04-19T07:37:28.122Z</time>
      </trkpt>
      <trkpt lat="48.37092" lon="2.75004">
        <ele>128</ele>
        <time>2022-04-19T07:37:33.109Z</time>
      </trkpt>
      <trkpt lat="48.37095" lon="2.75006">
        <ele>128</ele>
        <time>2022-04-19T07:37:57.117Z</time>
      </trkpt>
      <trkpt lat="48.37097" lon="2.75">
        <ele>128</ele>
        <time>2022-04-19T07:38:01.125Z</time>
      </trkpt>
      <trkpt lat="48.37101" lon="2.74995">
        <ele>128</ele>
        <time>2022-04-19T07:38:06.116Z</time>
      </trkpt>
      <trkpt lat="48.37105" lon="2.74993">
        <ele>128</ele>
        <time>2022-04-19T07:38:11.127Z</time>
      </trkpt>
      <trkpt lat="48.37108" lon="2.74996">
        <ele>128</ele>
        <time>2022-04-19T07:38:16.112Z</time>
      </trkpt>
      <trkpt lat="48.37111" lon="2.74997">
        <ele>128</ele>
        <time>2022-04-19T07:38:21.113Z</time>
      </trkpt>
      <trkpt lat="48.37113" lon="2.74998">
        <ele>128</ele>
        <time>2022-04-19T07:38:26.120Z</time>
      </trkpt>
      <trkpt lat="48.37115" lon="2.75002">
        <ele>128</ele>
        <time>2022-04-19T07:38:31.115Z</time>
      </trkpt>
      <trkpt lat="48.37119" lon="2.75005">
        <ele>128</ele>
        <time>2022-04-19T07:38:36.121Z</time>
      </trkpt>
      <trkpt lat="48.37127" lon="2.75015">
        <ele>122</ele>
        <time>2022-04-19T07:39:13.104Z</time>
      </trkpt>
      <trkpt lat="48.37126" lon="2.75017">
        <ele>122</ele>
        <time>2022-04-19T07:39:17.101Z</time>
      </trkpt>
      <trkpt lat="48.37122" lon="2.75025">
        <ele>129</ele>
        <time>2022-04-19T07:39:22.102Z</time>
      </trkpt>
      <trkpt lat="48.3712" lon="2.75031">
        <ele>129</ele>
        <time>2022-04-19T07:39:26.109Z</time>
      </trkpt>
      <trkpt lat="48.37115" lon="2.75036">
        <ele>129</ele>
        <time>2022-04-19T07:39:30.114Z</time>
      </trkpt>
      <trkpt lat="48.37112" lon="2.75041">
        <ele>129</ele>
        <time>2022-04-19T07:39:34.119Z</time>
      </trkpt>
      <trkpt lat="48.37108" lon="2.75043">
        <ele>128</ele>
        <time>2022-04-19T07:39:39.120Z</time>
      </trkpt>
      <trkpt lat="48.37105" lon="2.75049">
        <ele>128</ele>
        <time>2022-04-19T07:39:44.106Z</time>
      </trkpt>
      <trkpt lat="48.37104" lon="2.75053">
        <ele>128</ele>
        <time>2022-04-19T07:39:48.110Z</time>
      </trkpt>
      <trkpt lat="48.37105" lon="2.75065">
        <ele>128</ele>
        <time>2022-04-19T07:40:10.110Z</time>
      </trkpt>
      <trkpt lat="48.37105" lon="2.75066">
        <ele>128</ele>
        <time>2022-04-19T07:40:14.112Z</time>
      </trkpt>
      <trkpt lat="48.37104" lon="2.75072">
        <ele>129</ele>
        <time>2022-04-19T07:40:19.117Z</time>
      </trkpt>
      <trkpt lat="48.37102" lon="2.75076">
        <ele>129</ele>
        <time>2022-04-19T07:40:24.108Z</time>
      </trkpt>
      <trkpt lat="48.37098" lon="2.75077">
        <ele>129</ele>
        <time>2022-04-19T07:40:29.117Z</time>
      </trkpt>
      <trkpt lat="48.37094" lon="2.75079">
        <ele>129</ele>
        <time>2022-04-19T07:40:34.111Z</time>
      </trkpt>
      <trkpt lat="48.37089" lon="2.75079">
        <ele>129</ele>
        <time>2022-04-19T07:40:39.117Z</time>
      </trkpt>
      <trkpt lat="48.37087" lon="2.75085">
        <ele>129</ele>
        <time>2022-04-19T07:40:44.109Z</time>
      </trkpt>
      <trkpt lat="48.37088" lon="2.75091">
        <ele>129</ele>
        <time>2022-04-19T07:40:48.110Z</time>
      </trkpt>
      <trkpt lat="48.37088" lon="2.75099">
        <ele>129</ele>
        <time>2022-04-19T07:40:53.120Z</time>
      </trkpt>
      <trkpt lat="48.37086" lon="2.75101">
        <ele>129</ele>
        <time>2022-04-19T07:40:57.116Z</time>
      </trkpt>
      <trkpt lat="48.3708" lon="2.75102">
        <ele>129</ele>
        <time>2022-04-19T07:41:02.118Z</time>
      </trkpt>
      <trkpt lat="48.37077" lon="2.75104">
        <ele>129</ele>
        <time>2022-04-19T07:41:06.123Z</time>
      </trkpt>
      <trkpt lat="48.37076" lon="2.75111">
        <ele>129</ele>
        <time>2022-04-19T07:41:11.111Z</time>
      </trkpt>
      <trkpt lat="48.37072" lon="2.75112">
        <ele>129</ele>
        <time>2022-04-19T07:41:15.113Z</time>
      </trkpt>
      <trkpt lat="48.37068" lon="2.75116">
        <ele>129</ele>
        <time>2022-04-19T07:41:20.112Z</time>
      </trkpt>
      <trkpt lat="48.37064" lon="2.75119">
        <ele>129</ele>
        <time>2022-04-19T07:41:25.114Z</time>
      </trkpt>
      <trkpt lat="48.3706" lon="2.75124">
        <ele>129</ele>
        <time>2022-04-19T07:41:30.113Z</time>
      </trkpt>
      <trkpt lat="48.37057" lon="2.75128">
        <ele>129</ele>
        <time>2022-04-19T07:41:34.117Z</time>
      </trkpt>
      <trkpt lat="48.37054" lon="2.75135">
        <ele>129</ele>
        <time>2022-04-19T07:41:39.119Z</time>
      </trkpt>
      <trkpt lat="48.37049" lon="2.75141">
        <ele>129</ele>
        <time>2022-04-19T07:41:44.113Z</time>
      </trkpt>
      <trkpt lat="48.37046" lon="2.75146">
        <ele>129</ele>
        <time>2022-04-19T07:41:48.119Z</time>
      </trkpt>
      <trkpt lat="48.37041" lon="2.75153">
        <ele>129</ele>
        <time>2022-04-19T07:41:53.115Z</time>
      </trkpt>
      <trkpt lat="48.37037" lon="2.7516">
        <ele>129</ele>
        <time>2022-04-19T07:41:58.122Z</time>
      </trkpt>
      <trkpt lat="48.37033" lon="2.75165">
        <ele>129</ele>
        <time>2022-04-19T07:42:02.123Z</time>
      </trkpt>
      <trkpt lat="48.37029" lon="2.7517">
        <ele>129</ele>
        <time>2022-04-19T07:42:06.131Z</time>
      </trkpt>
      <trkpt lat="48.37024" lon="2.75177">
        <ele>129</ele>
        <time>2022-04-19T07:42:11.118Z</time>
      </trkpt>
      <trkpt lat="48.3702" lon="2.75185">
        <ele>128</ele>
        <time>2022-04-19T07:42:16.112Z</time>
      </trkpt>
      <trkpt lat="48.37017" lon="2.75191">
        <ele>128</ele>
        <time>2022-04-19T07:42:20.115Z</time>
      </trkpt>
      <trkpt lat="48.37014" lon="2.75198">
        <ele>128</ele>
        <time>2022-04-19T07:42:24.120Z</time>
      </trkpt>
      <trkpt lat="48.37011" lon="2.75208">
        <ele>129</ele>
        <time>2022-04-19T07:42:29.122Z</time>
      </trkpt>
      <trkpt lat="48.37008" lon="2.75218">
        <ele>128</ele>
        <time>2022-04-19T07:42:34.123Z</time>
      </trkpt>
      <trkpt lat="48.37006" lon="2.75225">
        <ele>128</ele>
        <time>2022-04-19T07:42:38.135Z</time>
      </trkpt>
      <trkpt lat="48.37003" lon="2.75234">
        <ele>128</ele>
        <time>2022-04-19T07:42:43.135Z</time>
      </trkpt>
      <trkpt lat="48.37001" lon="2.75244">
        <ele>128</ele>
        <time>2022-04-19T07:42:48.117Z</time>
      </trkpt>
      <trkpt lat="48.37" lon="2.75251">
        <ele>128</ele>
        <time>2022-04-19T07:42:52.121Z</time>
      </trkpt>
      <trkpt lat="48.36998" lon="2.75261">
        <ele>128</ele>
        <time>2022-04-19T07:42:57.106Z</time>
      </trkpt>
      <trkpt lat="48.36996" lon="2.75269">
        <ele>127</ele>
        <time>2022-04-19T07:43:02.116Z</time>
      </trkpt>
      <trkpt lat="48.36992" lon="2.75274">
        <ele>127</ele>
        <time>2022-04-19T07:43:07.111Z</time>
      </trkpt>
      <trkpt lat="48.36989" lon="2.7528">
        <ele>127</ele>
        <time>2022-04-19T07:43:11.118Z</time>
      </trkpt>
      <trkpt lat="48.36987" lon="2.7529">
        <ele>127</ele>
        <time>2022-04-19T07:43:16.126Z</time>
      </trkpt>
      <trkpt lat="48.36985" lon="2.75298">
        <ele>126</ele>
        <time>2022-04-19T07:43:21.108Z</time>
      </trkpt>
      <trkpt lat="48.36986" lon="2.75302">
        <ele>125</ele>
        <time>2022-04-19T07:43:26.106Z</time>
      </trkpt>
      <trkpt lat="48.36986" lon="2.75302">
        <ele>126</ele>
        <time>2022-04-19T07:43:30.115Z</time>
      </trkpt>
      <trkpt lat="48.36982" lon="2.75306">
        <ele>126</ele>
        <time>2022-04-19T07:43:35.105Z</time>
      </trkpt>
      <trkpt lat="48.3698" lon="2.75312">
        <ele>126</ele>
        <time>2022-04-19T07:43:39.104Z</time>
      </trkpt>
      <trkpt lat="48.36975" lon="2.75319">
        <ele>123</ele>
        <time>2022-04-19T07:43:44.110Z</time>
      </trkpt>
      <trkpt lat="48.36975" lon="2.75328">
        <ele>123</ele>
        <time>2022-04-19T07:43:49.109Z</time>
      </trkpt>
      <trkpt lat="48.36973" lon="2.75329">
        <ele>123</ele>
        <time>2022-04-19T07:43:54.110Z</time>
      </trkpt>
      <trkpt lat="48.36967" lon="2.75328">
        <ele>123</ele>
        <time>2022-04-19T07:43:59.110Z</time>
      </trkpt>
      <trkpt lat="48.36963" lon="2.75332">
        <ele>123</ele>
        <time>2022-04-19T07:44:04.115Z</time>
      </trkpt>
      <trkpt lat="48.36961" lon="2.75341">
        <ele>123</ele>
        <time>2022-04-19T07:44:09.106Z</time>
      </trkpt>
      <trkpt lat="48.36959" lon="2.75347">
        <ele>123</ele>
        <time>2022-04-19T07:44:13.111Z</time>
      </trkpt>
      <trkpt lat="48.36957" lon="2.75357">
        <ele>124</ele>
        <time>2022-04-19T07:44:18.121Z</time>
      </trkpt>
      <trkpt lat="48.36954" lon="2.75365">
        <ele>124</ele>
        <time>2022-04-19T07:44:23.113Z</time>
      </trkpt>
      <trkpt lat="48.3695" lon="2.75367">
        <ele>124</ele>
        <time>2022-04-19T07:44:27.112Z</time>
      </trkpt>
      <trkpt lat="48.36943" lon="2.75367">
        <ele>124</ele>
        <time>2022-04-19T07:44:32.120Z</time>
      </trkpt>
      <trkpt lat="48.36939" lon="2.75362">
        <ele>124</ele>
        <time>2022-04-19T07:44:37.109Z</time>
      </trkpt>
      <trkpt lat="48.3693" lon="2.75355">
        <ele>125</ele>
        <time>2022-04-19T07:45:00.122Z</time>
      </trkpt>
      <trkpt lat="48.3693" lon="2.75354">
        <ele>125</ele>
        <time>2022-04-19T07:45:05.125Z</time>
      </trkpt>
      <trkpt lat="48.36926" lon="2.75349">
        <ele>125</ele>
        <time>2022-04-19T07:45:10.117Z</time>
      </trkpt>
      <trkpt lat="48.36922" lon="2.75343">
        <ele>127</ele>
        <time>2022-04-19T07:45:15.119Z</time>
      </trkpt>
      <trkpt lat="48.36917" lon="2.75337">
        <ele>127</ele>
        <time>2022-04-19T07:45:19.111Z</time>
      </trkpt>
      <trkpt lat="48.36911" lon="2.75328">
        <ele>127</ele>
        <time>2022-04-19T07:45:24.116Z</time>
      </trkpt>
      <trkpt lat="48.36906" lon="2.75322">
        <ele>127</ele>
        <time>2022-04-19T07:45:29.119Z</time>
      </trkpt>
      <trkpt lat="48.36901" lon="2.75316">
        <ele>131</ele>
        <time>2022-04-19T07:45:34.117Z</time>
      </trkpt>
      <trkpt lat="48.36897" lon="2.75311">
        <ele>131</ele>
        <time>2022-04-19T07:45:38.118Z</time>
      </trkpt>
      <trkpt lat="48.36892" lon="2.75304">
        <ele>131</ele>
        <time>2022-04-19T07:45:43.114Z</time>
      </trkpt>
      <trkpt lat="48.36888" lon="2.75299">
        <ele>131</ele>
        <time>2022-04-19T07:45:47.110Z</time>
      </trkpt>
      <trkpt lat="48.36883" lon="2.75294">
        <ele>131</ele>
        <time>2022-04-19T07:45:52.106Z</time>
      </trkpt>
      <trkpt lat="48.3688" lon="2.75289">
        <ele>131</ele>
        <time>2022-04-19T07:45:56.112Z</time>
      </trkpt>
      <trkpt lat="48.36876" lon="2.75284">
        <ele>131</ele>
        <time>2022-04-19T07:46:00.113Z</time>
      </trkpt>
      <trkpt lat="48.3687" lon="2.7528">
        <ele>134</ele>
        <time>2022-04-19T07:46:05.115Z</time>
      </trkpt>
      <trkpt lat="48.36864" lon="2.75278">
        <ele>134</ele>
        <time>2022-04-19T07:46:10.118Z</time>
      </trkpt>
      <trkpt lat="48.36859" lon="2.75275">
        <ele>134</ele>
        <time>2022-04-19T07:46:14.126Z</time>
      </trkpt>
      <trkpt lat="48.36854" lon="2.75272">
        <ele>134</ele>
        <time>2022-04-19T07:46:18.114Z</time>
      </trkpt>
      <trkpt lat="48.36847" lon="2.7527">
        <ele>136</ele>
        <time>2022-04-19T07:46:23.112Z</time>
      </trkpt>
      <trkpt lat="48.3684" lon="2.75268">
        <ele>136</ele>
        <time>2022-04-19T07:46:28.109Z</time>
      </trkpt>
      <trkpt lat="48.36834" lon="2.75265">
        <ele>136</ele>
        <time>2022-04-19T07:46:32.115Z</time>
      </trkpt>
      <trkpt lat="48.36829" lon="2.75262">
        <ele>135</ele>
        <time>2022-04-19T07:46:36.119Z</time>
      </trkpt>
      <trkpt lat="48.36822" lon="2.7526">
        <ele>135</ele>
        <time>2022-04-19T07:46:41.118Z</time>
      </trkpt>
      <trkpt lat="48.36814" lon="2.75258">
        <ele>136</ele>
        <time>2022-04-19T07:46:45.109Z</time>
      </trkpt>
      <trkpt lat="48.36807" lon="2.75255">
        <ele>136</ele>
        <time>2022-04-19T07:46:50.117Z</time>
      </trkpt>
      <trkpt lat="48.36801" lon="2.75253">
        <ele>136</ele>
        <time>2022-04-19T07:46:54.120Z</time>
      </trkpt>
      <trkpt lat="48.36794" lon="2.7525">
        <ele>136</ele>
        <time>2022-04-19T07:46:59.116Z</time>
      </trkpt>
      <trkpt lat="48.36786" lon="2.75247">
        <ele>137</ele>
        <time>2022-04-19T07:47:04.126Z</time>
      </trkpt>
      <trkpt lat="48.36779" lon="2.75246">
        <ele>137</ele>
        <time>2022-04-19T07:47:09.110Z</time>
      </trkpt>
      <trkpt lat="48.36773" lon="2.75245">
        <ele>137</ele>
        <time>2022-04-19T07:47:13.118Z</time>
      </trkpt>
      <trkpt lat="48.36766" lon="2.75243">
        <ele>137</ele>
        <time>2022-04-19T07:47:18.114Z</time>
      </trkpt>
      <trkpt lat="48.36758" lon="2.75241">
        <ele>136</ele>
        <time>2022-04-19T07:47:23.115Z</time>
      </trkpt>
      <trkpt lat="48.36752" lon="2.7524">
        <ele>136</ele>
        <time>2022-04-19T07:47:27.120Z</time>
      </trkpt>
      <trkpt lat="48.36746" lon="2.75249">
        <ele>136</ele>
        <time>2022-04-19T07:47:32.105Z</time>
      </trkpt>
      <trkpt lat="48.36746" lon="2.75258">
        <ele>136</ele>
        <time>2022-04-19T07:47:36.106Z</time>
      </trkpt>
      <trkpt lat="48.36745" lon="2.75268">
        <ele>136</ele>
        <time>2022-04-19T07:47:40.116Z</time>
      </trkpt>
      <trkpt lat="48.36745" lon="2.7528">
        <ele>136</ele>
        <time>2022-04-19T07:47:45.116Z</time>
      </trkpt>
      <trkpt lat="48.36745" lon="2.75289">
        <ele>136</ele>
        <time>2022-04-19T07:47:49.123Z</time>
      </trkpt>
      <trkpt lat="48.36744" lon="2.753">
        <ele>136</ele>
        <time>2022-04-19T07:47:54.117Z</time>
      </trkpt>
      <trkpt lat="48.36741" lon="2.75311">
        <ele>136</ele>
        <time>2022-04-19T07:47:59.117Z</time>
      </trkpt>
      <trkpt lat="48.3674" lon="2.7532">
        <ele>137</ele>
        <time>2022-04-19T07:48:03.123Z</time>
      </trkpt>
      <trkpt lat="48.36738" lon="2.7533">
        <ele>137</ele>
        <time>2022-04-19T07:48:08.114Z</time>
      </trkpt>
      <trkpt lat="48.36736" lon="2.75339">
        <ele>137</ele>
        <time>2022-04-19T07:48:12.268Z</time>
      </trkpt>
      <trkpt lat="48.36735" lon="2.75351">
        <ele>136</ele>
        <time>2022-04-19T07:48:17.118Z</time>
      </trkpt>
      <trkpt lat="48.36735" lon="2.7536">
        <ele>136</ele>
        <time>2022-04-19T07:48:21.121Z</time>
      </trkpt>
      <trkpt lat="48.36737" lon="2.75372">
        <ele>138</ele>
        <time>2022-04-19T07:48:26.120Z</time>
      </trkpt>
      <trkpt lat="48.36736" lon="2.75384">
        <ele>138</ele>
        <time>2022-04-19T07:48:31.116Z</time>
      </trkpt>
      <trkpt lat="48.36735" lon="2.75393">
        <ele>136</ele>
        <time>2022-04-19T07:48:35.120Z</time>
      </trkpt>
      <trkpt lat="48.36734" lon="2.75404">
        <ele>136</ele>
        <time>2022-04-19T07:48:40.116Z</time>
      </trkpt>
      <trkpt lat="48.36734" lon="2.75413">
        <ele>136</ele>
        <time>2022-04-19T07:48:44.118Z</time>
      </trkpt>
      <trkpt lat="48.36733" lon="2.75421">
        <ele>136</ele>
        <time>2022-04-19T07:48:48.137Z</time>
      </trkpt>
      <trkpt lat="48.36732" lon="2.75432">
        <ele>136</ele>
        <time>2022-04-19T07:48:53.111Z</time>
      </trkpt>
      <trkpt lat="48.36731" lon="2.75441">
        <ele>136</ele>
        <time>2022-04-19T07:48:57.113Z</time>
      </trkpt>
      <trkpt lat="48.36729" lon="2.7545">
        <ele>136</ele>
        <time>2022-04-19T07:49:01.114Z</time>
      </trkpt>
      <trkpt lat="48.36727" lon="2.7546">
        <ele>136</ele>
        <time>2022-04-19T07:49:06.111Z</time>
      </trkpt>
      <trkpt lat="48.36724" lon="2.75467">
        <ele>136</ele>
        <time>2022-04-19T07:49:10.117Z</time>
      </trkpt>
      <trkpt lat="48.36721" lon="2.75475">
        <ele>136</ele>
        <time>2022-04-19T07:49:14.122Z</time>
      </trkpt>
      <trkpt lat="48.36717" lon="2.75485">
        <ele>136</ele>
        <time>2022-04-19T07:49:19.116Z</time>
      </trkpt>
      <trkpt lat="48.36714" lon="2.75495">
        <ele>136</ele>
        <time>2022-04-19T07:49:24.112Z</time>
      </trkpt>
      <trkpt lat="48.36711" lon="2.75502">
        <ele>136</ele>
        <time>2022-04-19T07:49:28.114Z</time>
      </trkpt>
      <trkpt lat="48.36708" lon="2.75511">
        <ele>136</ele>
        <time>2022-04-19T07:49:32.120Z</time>
      </trkpt>
      <trkpt lat="48.36708" lon="2.75522">
        <ele>130</ele>
        <time>2022-04-19T07:49:37.119Z</time>
      </trkpt>
      <trkpt lat="48.36708" lon="2.75533">
        <ele>130</ele>
        <time>2022-04-19T07:49:42.122Z</time>
      </trkpt>
      <trkpt lat="48.36709" lon="2.75541">
        <ele>135</ele>
        <time>2022-04-19T07:49:46.125Z</time>
      </trkpt>
      <trkpt lat="48.36711" lon="2.75551">
        <ele>134</ele>
        <time>2022-04-19T07:49:51.118Z</time>
      </trkpt>
      <trkpt lat="48.36714" lon="2.75559">
        <ele>134</ele>
        <time>2022-04-19T07:49:55.124Z</time>
      </trkpt>
      <trkpt lat="48.36715" lon="2.7557">
        <ele>133</ele>
        <time>2022-04-19T07:50:00.130Z</time>
      </trkpt>
      <trkpt lat="48.36716" lon="2.75581">
        <ele>133</ele>
        <time>2022-04-19T07:50:05.123Z</time>
      </trkpt>
      <trkpt lat="48.36718" lon="2.7559">
        <ele>133</ele>
        <time>2022-04-19T07:50:09.121Z</time>
      </trkpt>
      <trkpt lat="48.3672" lon="2.75602">
        <ele>132</ele>
        <time>2022-04-19T07:50:14.117Z</time>
      </trkpt>
      <trkpt lat="48.36721" lon="2.75613">
        <ele>132</ele>
        <time>2022-04-19T07:50:19.114Z</time>
      </trkpt>
      <trkpt lat="48.36722" lon="2.75624">
        <ele>132</ele>
        <time>2022-04-19T07:50:24.111Z</time>
      </trkpt>
      <trkpt lat="48.36724" lon="2.75633">
        <ele>132</ele>
        <time>2022-04-19T07:50:28.117Z</time>
      </trkpt>
      <trkpt lat="48.36725" lon="2.75644">
        <ele>132</ele>
        <time>2022-04-19T07:50:33.124Z</time>
      </trkpt>
      <trkpt lat="48.36725" lon="2.75656">
        <ele>131</ele>
        <time>2022-04-19T07:50:38.116Z</time>
      </trkpt>
      <trkpt lat="48.36726" lon="2.75664">
        <ele>131</ele>
        <time>2022-04-19T07:50:42.120Z</time>
      </trkpt>
      <trkpt lat="48.36729" lon="2.75674">
        <ele>131</ele>
        <time>2022-04-19T07:50:47.110Z</time>
      </trkpt>
      <trkpt lat="48.3673" lon="2.75683">
        <ele>131</ele>
        <time>2022-04-19T07:50:51.117Z</time>
      </trkpt>
      <trkpt lat="48.36733" lon="2.75694">
        <ele>131</ele>
        <time>2022-04-19T07:50:56.122Z</time>
      </trkpt>
      <trkpt lat="48.36735" lon="2.75704">
        <ele>131</ele>
        <time>2022-04-19T07:51:01.118Z</time>
      </trkpt>
      <trkpt lat="48.36736" lon="2.75714">
        <ele>133</ele>
        <time>2022-04-19T07:51:05.116Z</time>
      </trkpt>
      <trkpt lat="48.36738" lon="2.75725">
        <ele>133</ele>
        <time>2022-04-19T07:51:10.120Z</time>
      </trkpt>
      <trkpt lat="48.3674" lon="2.75733">
        <ele>133</ele>
        <time>2022-04-19T07:51:14.126Z</time>
      </trkpt>
      <trkpt lat="48.36741" lon="2.75744">
        <ele>131</ele>
        <time>2022-04-19T07:51:19.113Z</time>
      </trkpt>
      <trkpt lat="48.36741" lon="2.75755">
        <ele>131</ele>
        <time>2022-04-19T07:51:24.118Z</time>
      </trkpt>
      <trkpt lat="48.3674" lon="2.75765">
        <ele>129</ele>
        <time>2022-04-19T07:51:29.112Z</time>
      </trkpt>
      <trkpt lat="48.36738" lon="2.75775">
        <ele>129</ele>
        <time>2022-04-19T07:51:34.111Z</time>
      </trkpt>
      <trkpt lat="48.36737" lon="2.75781">
        <ele>129</ele>
        <time>2022-04-19T07:51:38.120Z</time>
      </trkpt>
      <trkpt lat="48.36736" lon="2.75789">
        <ele>129</ele>
        <time>2022-04-19T07:51:42.132Z</time>
      </trkpt>
      <trkpt lat="48.36735" lon="2.75799">
        <ele>125</ele>
        <time>2022-04-19T07:51:47.110Z</time>
      </trkpt>
      <trkpt lat="48.36733" lon="2.75806">
        <ele>125</ele>
        <time>2022-04-19T07:51:51.122Z</time>
      </trkpt>
      <trkpt lat="48.36732" lon="2.75816">
        <ele>125</ele>
        <time>2022-04-19T07:51:56.119Z</time>
      </trkpt>
      <trkpt lat="48.3673" lon="2.75826">
        <ele>125</ele>
        <time>2022-04-19T07:52:01.123Z</time>
      </trkpt>
      <trkpt lat="48.36729" lon="2.75837">
        <ele>125</ele>
        <time>2022-04-19T07:52:06.117Z</time>
      </trkpt>
      <trkpt lat="48.36728" lon="2.75846">
        <ele>125</ele>
        <time>2022-04-19T07:52:11.120Z</time>
      </trkpt>
      <trkpt lat="48.36727" lon="2.75855">
        <ele>123</ele>
        <time>2022-04-19T07:52:16.116Z</time>
      </trkpt>
      <trkpt lat="48.36725" lon="2.75865">
        <ele>123</ele>
        <time>2022-04-19T07:52:21.125Z</time>
      </trkpt>
      <trkpt lat="48.36722" lon="2.75875">
        <ele>123</ele>
        <time>2022-04-19T07:52:26.115Z</time>
      </trkpt>
      <trkpt lat="48.36722" lon="2.75883">
        <ele>119</ele>
        <time>2022-04-19T07:52:31.125Z</time>
      </trkpt>
      <trkpt lat="48.36721" lon="2.75891">
        <ele>119</ele>
        <time>2022-04-19T07:52:36.119Z</time>
      </trkpt>
      <trkpt lat="48.36721" lon="2.759">
        <ele>119</ele>
        <time>2022-04-19T07:52:41.118Z</time>
      </trkpt>
      <trkpt lat="48.36719" lon="2.75907">
        <ele>114</ele>
        <time>2022-04-19T07:52:45.124Z</time>
      </trkpt>
      <trkpt lat="48.36719" lon="2.75917">
        <ele>114</ele>
        <time>2022-04-19T07:52:50.124Z</time>
      </trkpt>
      <trkpt lat="48.36718" lon="2.75927">
        <ele>114</ele>
        <time>2022-04-19T07:52:55.118Z</time>
      </trkpt>
      <trkpt lat="48.36717" lon="2.75934">
        <ele>112</ele>
        <time>2022-04-19T07:52:59.118Z</time>
      </trkpt>
      <trkpt lat="48.36715" lon="2.75943">
        <ele>112</ele>
        <time>2022-04-19T07:53:04.113Z</time>
      </trkpt>
      <trkpt lat="48.36715" lon="2.75952">
        <ele>112</ele>
        <time>2022-04-19T07:53:08.117Z</time>
      </trkpt>
      <trkpt lat="48.36715" lon="2.75962">
        <ele>110</ele>
        <time>2022-04-19T07:53:13.114Z</time>
      </trkpt>
      <trkpt lat="48.36713" lon="2.7597">
        <ele>110</ele>
        <time>2022-04-19T07:53:17.112Z</time>
      </trkpt>
      <trkpt lat="48.36712" lon="2.7598">
        <ele>110</ele>
        <time>2022-04-19T07:53:22.113Z</time>
      </trkpt>
      <trkpt lat="48.36711" lon="2.75989">
        <ele>109</ele>
        <time>2022-04-19T07:53:26.123Z</time>
      </trkpt>
      <trkpt lat="48.36711" lon="2.75999">
        <ele>109</ele>
        <time>2022-04-19T07:53:31.122Z</time>
      </trkpt>
      <trkpt lat="48.36711" lon="2.76011">
        <ele>109</ele>
        <time>2022-04-19T07:53:36.116Z</time>
      </trkpt>
      <trkpt lat="48.36711" lon="2.76021">
        <ele>107</ele>
        <time>2022-04-19T07:53:41.118Z</time>
      </trkpt>
      <trkpt lat="48.36709" lon="2.76032">
        <ele>107</ele>
        <time>2022-04-19T07:53:46.118Z</time>
      </trkpt>
      <trkpt lat="48.36708" lon="2.76042">
        <ele>105</ele>
        <time>2022-04-19T07:53:51.114Z</time>
      </trkpt>
      <trkpt lat="48.36707" lon="2.76053">
        <ele>104</ele>
        <time>2022-04-19T07:53:56.121Z</time>
      </trkpt>
      <trkpt lat="48.36707" lon="2.76062">
        <ele>104</ele>
        <time>2022-04-19T07:54:01.116Z</time>
      </trkpt>
      <trkpt lat="48.36707" lon="2.76072">
        <ele>103</ele>
        <time>2022-04-19T07:54:06.126Z</time>
      </trkpt>
      <trkpt lat="48.36707" lon="2.7608">
        <ele>103</ele>
        <time>2022-04-19T07:54:11.111Z</time>
      </trkpt>
      <trkpt lat="48.36707" lon="2.7609">
        <ele>103</ele>
        <time>2022-04-19T07:54:16.115Z</time>
      </trkpt>
      <trkpt lat="48.36708" lon="2.76101">
        <ele>103</ele>
        <time>2022-04-19T07:54:21.127Z</time>
      </trkpt>
      <trkpt lat="48.36708" lon="2.76111">
        <ele>103</ele>
        <time>2022-04-19T07:54:26.118Z</time>
      </trkpt>
      <trkpt lat="48.36706" lon="2.76119">
        <ele>103</ele>
        <time>2022-04-19T07:54:30.120Z</time>
      </trkpt>
      <trkpt lat="48.36707" lon="2.7613">
        <ele>104</ele>
        <time>2022-04-19T07:54:35.112Z</time>
      </trkpt>
      <trkpt lat="48.36706" lon="2.76138">
        <ele>104</ele>
        <time>2022-04-19T07:54:39.124Z</time>
      </trkpt>
      <trkpt lat="48.36705" lon="2.76146">
        <ele>104</ele>
        <time>2022-04-19T07:54:43.127Z</time>
      </trkpt>
      <trkpt lat="48.36707" lon="2.76155">
        <ele>105</ele>
        <time>2022-04-19T07:54:48.119Z</time>
      </trkpt>
      <trkpt lat="48.36708" lon="2.76164">
        <ele>105</ele>
        <time>2022-04-19T07:54:52.119Z</time>
      </trkpt>
      <trkpt lat="48.36706" lon="2.76174">
        <ele>105</ele>
        <time>2022-04-19T07:54:57.114Z</time>
      </trkpt>
      <trkpt lat="48.36706" lon="2.76182">
        <ele>105</ele>
        <time>2022-04-19T07:55:01.116Z</time>
      </trkpt>
      <trkpt lat="48.36706" lon="2.76193">
        <ele>105</ele>
        <time>2022-04-19T07:55:06.118Z</time>
      </trkpt>
      <trkpt lat="48.3671" lon="2.76203">
        <ele>105</ele>
        <time>2022-04-19T07:55:11.115Z</time>
      </trkpt>
      <trkpt lat="48.36711" lon="2.76211">
        <ele>104</ele>
        <time>2022-04-19T07:55:15.121Z</time>
      </trkpt>
      <trkpt lat="48.3671" lon="2.76222">
        <ele>104</ele>
        <time>2022-04-19T07:55:20.118Z</time>
      </trkpt>
      <trkpt lat="48.3671" lon="2.76234">
        <ele>104</ele>
        <time>2022-04-19T07:55:25.112Z</time>
      </trkpt>
      <trkpt lat="48.3671" lon="2.76243">
        <ele>104</ele>
        <time>2022-04-19T07:55:29.113Z</time>
      </trkpt>
      <trkpt lat="48.36708" lon="2.76254">
        <ele>104</ele>
        <time>2022-04-19T07:55:34.107Z</time>
      </trkpt>
      <trkpt lat="48.36707" lon="2.76263">
        <ele>104</ele>
        <time>2022-04-19T07:55:38.108Z</time>
      </trkpt>
      <trkpt lat="48.36704" lon="2.76273">
        <ele>104</ele>
        <time>2022-04-19T07:55:43.116Z</time>
      </trkpt>
      <trkpt lat="48.36705" lon="2.76281">
        <ele>104</ele>
        <time>2022-04-19T07:55:47.124Z</time>
      </trkpt>
      <trkpt lat="48.36707" lon="2.76292">
        <ele>103</ele>
        <time>2022-04-19T07:55:52.117Z</time>
      </trkpt>
      <trkpt lat="48.3671" lon="2.76301">
        <ele>101</ele>
        <time>2022-04-19T07:55:56.123Z</time>
      </trkpt>
      <trkpt lat="48.36711" lon="2.76309">
        <ele>101</ele>
        <time>2022-04-19T07:56:00.121Z</time>
      </trkpt>
      <trkpt lat="48.36715" lon="2.76319">
        <ele>101</ele>
        <time>2022-04-19T07:56:05.121Z</time>
      </trkpt>
      <trkpt lat="48.36716" lon="2.76331">
        <ele>101</ele>
        <time>2022-04-19T07:56:10.116Z</time>
      </trkpt>
      <trkpt lat="48.36718" lon="2.76341">
        <ele>101</ele>
        <time>2022-04-19T07:56:15.114Z</time>
      </trkpt>
      <trkpt lat="48.3672" lon="2.7635">
        <ele>101</ele>
        <time>2022-04-19T07:56:19.122Z</time>
      </trkpt>
      <trkpt lat="48.36723" lon="2.7636">
        <ele>101</ele>
        <time>2022-04-19T07:56:24.113Z</time>
      </trkpt>
      <trkpt lat="48.36725" lon="2.76369">
        <ele>101</ele>
        <time>2022-04-19T07:56:28.111Z</time>
      </trkpt>
      <trkpt lat="48.36726" lon="2.7638">
        <ele>101</ele>
        <time>2022-04-19T07:56:33.118Z</time>
      </trkpt>
      <trkpt lat="48.3673" lon="2.76389">
        <ele>101</ele>
        <time>2022-04-19T07:56:38.118Z</time>
      </trkpt>
      <trkpt lat="48.36733" lon="2.76401">
        <ele>101</ele>
        <time>2022-04-19T07:56:43.122Z</time>
      </trkpt>
      <trkpt lat="48.36736" lon="2.76413">
        <ele>101</ele>
        <time>2022-04-19T07:56:48.114Z</time>
      </trkpt>
      <trkpt lat="48.36739" lon="2.76425">
        <ele>101</ele>
        <time>2022-04-19T07:56:53.117Z</time>
      </trkpt>
      <trkpt lat="48.36742" lon="2.76435">
        <ele>100</ele>
        <time>2022-04-19T07:56:58.140Z</time>
      </trkpt>
      <trkpt lat="48.36744" lon="2.76446">
        <ele>100</ele>
        <time>2022-04-19T07:57:03.137Z</time>
      </trkpt>
      <trkpt lat="48.36743" lon="2.76456">
        <ele>100</ele>
        <time>2022-04-19T07:57:08.142Z</time>
      </trkpt>
      <trkpt lat="48.36747" lon="2.76465">
        <ele>100</ele>
        <time>2022-04-19T07:57:13.123Z</time>
      </trkpt>
      <trkpt lat="48.3675" lon="2.76476">
        <ele>100</ele>
        <time>2022-04-19T07:57:18.121Z</time>
      </trkpt>
      <trkpt lat="48.36753" lon="2.76487">
        <ele>100</ele>
        <time>2022-04-19T07:57:23.113Z</time>
      </trkpt>
      <trkpt lat="48.36755" lon="2.76496">
        <ele>100</ele>
        <time>2022-04-19T07:57:27.117Z</time>
      </trkpt>
      <trkpt lat="48.36757" lon="2.76507">
        <ele>100</ele>
        <time>2022-04-19T07:57:32.117Z</time>
      </trkpt>
      <trkpt lat="48.3676" lon="2.76517">
        <ele>100</ele>
        <time>2022-04-19T07:57:37.112Z</time>
      </trkpt>
      <trkpt lat="48.36762" lon="2.76525">
        <ele>100</ele>
        <time>2022-04-19T07:57:41.121Z</time>
      </trkpt>
      <trkpt lat="48.36763" lon="2.76535">
        <ele>100</ele>
        <time>2022-04-19T07:57:46.120Z</time>
      </trkpt>
      <trkpt lat="48.36766" lon="2.76543">
        <ele>99</ele>
        <time>2022-04-19T07:57:50.122Z</time>
      </trkpt>
      <trkpt lat="48.36767" lon="2.76554">
        <ele>99</ele>
        <time>2022-04-19T07:57:55.115Z</time>
      </trkpt>
      <trkpt lat="48.36769" lon="2.76562">
        <ele>99</ele>
        <time>2022-04-19T07:57:59.124Z</time>
      </trkpt>
      <trkpt lat="48.36771" lon="2.76573">
        <ele>98</ele>
        <time>2022-04-19T07:58:04.122Z</time>
      </trkpt>
      <trkpt lat="48.36772" lon="2.76582">
        <ele>98</ele>
        <time>2022-04-19T07:58:08.121Z</time>
      </trkpt>
      <trkpt lat="48.36773" lon="2.76594">
        <ele>98</ele>
        <time>2022-04-19T07:58:12.122Z</time>
      </trkpt>
      <trkpt lat="48.36775" lon="2.76604">
        <ele>97</ele>
        <time>2022-04-19T07:58:17.110Z</time>
      </trkpt>
      <trkpt lat="48.36778" lon="2.76611">
        <ele>97</ele>
        <time>2022-04-19T07:58:21.116Z</time>
      </trkpt>
      <trkpt lat="48.36781" lon="2.76621">
        <ele>97</ele>
        <time>2022-04-19T07:58:26.108Z</time>
      </trkpt>
      <trkpt lat="48.36782" lon="2.76628">
        <ele>97</ele>
        <time>2022-04-19T07:58:30.118Z</time>
      </trkpt>
      <trkpt lat="48.36784" lon="2.76636">
        <ele>97</ele>
        <time>2022-04-19T07:58:34.123Z</time>
      </trkpt>
      <trkpt lat="48.36785" lon="2.76646">
        <ele>97</ele>
        <time>2022-04-19T07:58:39.130Z</time>
      </trkpt>
      <trkpt lat="48.36788" lon="2.76655">
        <ele>98</ele>
        <time>2022-04-19T07:58:44.126Z</time>
      </trkpt>
      <trkpt lat="48.3679" lon="2.76666">
        <ele>98</ele>
        <time>2022-04-19T07:58:49.117Z</time>
      </trkpt>
      <trkpt lat="48.36793" lon="2.76676">
        <ele>97</ele>
        <time>2022-04-19T07:58:54.113Z</time>
      </trkpt>
      <trkpt lat="48.36796" lon="2.76685">
        <ele>99</ele>
        <time>2022-04-19T07:58:58.125Z</time>
      </trkpt>
      <trkpt lat="48.36798" lon="2.76695">
        <ele>99</ele>
        <time>2022-04-19T07:59:03.115Z</time>
      </trkpt>
      <trkpt lat="48.368" lon="2.76704">
        <ele>99</ele>
        <time>2022-04-19T07:59:07.120Z</time>
      </trkpt>
      <trkpt lat="48.36805" lon="2.76712">
        <ele>98</ele>
        <time>2022-04-19T07:59:12.110Z</time>
      </trkpt>
      <trkpt lat="48.36808" lon="2.76718">
        <ele>98</ele>
        <time>2022-04-19T07:59:16.111Z</time>
      </trkpt>
      <trkpt lat="48.36813" lon="2.76727">
        <ele>98</ele>
        <time>2022-04-19T07:59:21.140Z</time>
      </trkpt>
      <trkpt lat="48.36818" lon="2.76737">
        <ele>99</ele>
        <time>2022-04-19T07:59:26.120Z</time>
      </trkpt>
      <trkpt lat="48.36823" lon="2.76745">
        <ele>99</ele>
        <time>2022-04-19T07:59:31.112Z</time>
      </trkpt>
      <trkpt lat="48.36826" lon="2.76746">
        <ele>99</ele>
        <time>2022-04-19T07:59:35.118Z</time>
      </trkpt>
      <trkpt lat="48.36825" lon="2.76748">
        <ele>99</ele>
        <time>2022-04-19T07:59:39.127Z</time>
      </trkpt>
      <trkpt lat="48.36826" lon="2.76754">
        <ele>99</ele>
        <time>2022-04-19T07:59:44.111Z</time>
      </trkpt>
      <trkpt lat="48.36825" lon="2.7676">
        <ele>99</ele>
        <time>2022-04-19T07:59:48.114Z</time>
      </trkpt>
      <trkpt lat="48.36826" lon="2.76769">
        <ele>100</ele>
        <time>2022-04-19T07:59:53.116Z</time>
      </trkpt>
      <trkpt lat="48.36826" lon="2.76779">
        <ele>100</ele>
        <time>2022-04-19T07:59:58.113Z</time>
      </trkpt>
      <trkpt lat="48.36827" lon="2.76786">
        <ele>100</ele>
        <time>2022-04-19T08:00:02.119Z</time>
      </trkpt>
      <trkpt lat="48.36826" lon="2.76796">
        <ele>100</ele>
        <time>2022-04-19T08:00:07.117Z</time>
      </trkpt>
      <trkpt lat="48.36826" lon="2.76803">
        <ele>100</ele>
        <time>2022-04-19T08:00:11.117Z</time>
      </trkpt>
      <trkpt lat="48.36828" lon="2.76813">
        <ele>100</ele>
        <time>2022-04-19T08:00:16.114Z</time>
      </trkpt>
      <trkpt lat="48.36832" lon="2.76826">
        <ele>101</ele>
        <time>2022-04-19T08:00:21.120Z</time>
      </trkpt>
      <trkpt lat="48.36834" lon="2.76838">
        <ele>101</ele>
        <time>2022-04-19T08:00:26.112Z</time>
      </trkpt>
      <trkpt lat="48.36835" lon="2.76848">
        <ele>101</ele>
        <time>2022-04-19T08:00:30.118Z</time>
      </trkpt>
      <trkpt lat="48.36838" lon="2.7686">
        <ele>101</ele>
        <time>2022-04-19T08:00:35.117Z</time>
      </trkpt>
      <trkpt lat="48.3684" lon="2.76872">
        <ele>101</ele>
        <time>2022-04-19T08:00:40.118Z</time>
      </trkpt>
      <trkpt lat="48.36844" lon="2.76884">
        <ele>100</ele>
        <time>2022-04-19T08:00:45.109Z</time>
      </trkpt>
      <trkpt lat="48.36847" lon="2.76893">
        <ele>100</ele>
        <time>2022-04-19T08:00:49.114Z</time>
      </trkpt>
      <trkpt lat="48.36849" lon="2.76901">
        <ele>104</ele>
        <time>2022-04-19T08:00:53.121Z</time>
      </trkpt>
      <trkpt lat="48.36853" lon="2.76911">
        <ele>103</ele>
        <time>2022-04-19T08:00:58.113Z</time>
      </trkpt>
      <trkpt lat="48.36856" lon="2.76919">
        <ele>103</ele>
        <time>2022-04-19T08:01:02.116Z</time>
      </trkpt>
      <trkpt lat="48.36859" lon="2.76931">
        <ele>102</ele>
        <time>2022-04-19T08:01:07.115Z</time>
      </trkpt>
      <trkpt lat="48.36862" lon="2.76942">
        <ele>102</ele>
        <time>2022-04-19T08:01:12.120Z</time>
      </trkpt>
      <trkpt lat="48.36865" lon="2.76952">
        <ele>102</ele>
        <time>2022-04-19T08:01:17.116Z</time>
      </trkpt>
      <trkpt lat="48.36866" lon="2.7696">
        <ele>101</ele>
        <time>2022-04-19T08:01:21.119Z</time>
      </trkpt>
      <trkpt lat="48.36866" lon="2.76972">
        <ele>101</ele>
        <time>2022-04-19T08:01:26.113Z</time>
      </trkpt>
      <trkpt lat="48.36867" lon="2.76982">
        <ele>101</ele>
        <time>2022-04-19T08:01:31.116Z</time>
      </trkpt>
      <trkpt lat="48.36872" lon="2.7699">
        <ele>101</ele>
        <time>2022-04-19T08:01:35.130Z</time>
      </trkpt>
      <trkpt lat="48.36875" lon="2.77">
        <ele>101</ele>
        <time>2022-04-19T08:01:39.127Z</time>
      </trkpt>
      <trkpt lat="48.36879" lon="2.77012">
        <ele>103</ele>
        <time>2022-04-19T08:01:44.115Z</time>
      </trkpt>
      <trkpt lat="48.36881" lon="2.77018">
        <ele>105</ele>
        <time>2022-04-19T08:01:49.130Z</time>
      </trkpt>
      <trkpt lat="48.36883" lon="2.77028">
        <ele>105</ele>
        <time>2022-04-19T08:01:54.111Z</time>
      </trkpt>
      <trkpt lat="48.36887" lon="2.77038">
        <ele>105</ele>
        <time>2022-04-19T08:01:59.123Z</time>
      </trkpt>
      <trkpt lat="48.36889" lon="2.77047">
        <ele>106</ele>
        <time>2022-04-19T08:02:04.120Z</time>
      </trkpt>
      <trkpt lat="48.36893" lon="2.77054">
        <ele>106</ele>
        <time>2022-04-19T08:02:08.122Z</time>
      </trkpt>
      <trkpt lat="48.36899" lon="2.77063">
        <ele>106</ele>
        <time>2022-04-19T08:02:13.117Z</time>
      </trkpt>
      <trkpt lat="48.36905" lon="2.77072">
        <ele>107</ele>
        <time>2022-04-19T08:02:18.118Z</time>
      </trkpt>
      <trkpt lat="48.36911" lon="2.7708">
        <ele>107</ele>
        <time>2022-04-19T08:02:23.117Z</time>
      </trkpt>
      <trkpt lat="48.36917" lon="2.77086">
        <ele>107</ele>
        <time>2022-04-19T08:02:28.118Z</time>
      </trkpt>
      <trkpt lat="48.36924" lon="2.77092">
        <ele>107</ele>
        <time>2022-04-19T08:02:33.133Z</time>
      </trkpt>
      <trkpt lat="48.36929" lon="2.771">
        <ele>107</ele>
        <time>2022-04-19T08:02:38.115Z</time>
      </trkpt>
      <trkpt lat="48.36934" lon="2.77106">
        <ele>105</ele>
        <time>2022-04-19T08:02:42.120Z</time>
      </trkpt>
      <trkpt lat="48.36939" lon="2.77114">
        <ele>105</ele>
        <time>2022-04-19T08:02:47.118Z</time>
      </trkpt>
      <trkpt lat="48.36945" lon="2.77122">
        <ele>105</ele>
        <time>2022-04-19T08:02:52.116Z</time>
      </trkpt>
      <trkpt lat="48.36949" lon="2.77128">
        <ele>104</ele>
        <time>2022-04-19T08:02:56.120Z</time>
      </trkpt>
      <trkpt lat="48.36953" lon="2.77137">
        <ele>104</ele>
        <time>2022-04-19T08:03:01.123Z</time>
      </trkpt>
      <trkpt lat="48.36957" lon="2.77145">
        <ele>104</ele>
        <time>2022-04-19T08:03:06.129Z</time>
      </trkpt>
      <trkpt lat="48.36962" lon="2.77154">
        <ele>101</ele>
        <time>2022-04-19T08:03:11.130Z</time>
      </trkpt>
      <trkpt lat="48.36966" lon="2.77163">
        <ele>101</ele>
        <time>2022-04-19T08:03:16.116Z</time>
      </trkpt>
      <trkpt lat="48.36969" lon="2.7717">
        <ele>101</ele>
        <time>2022-04-19T08:03:20.127Z</time>
      </trkpt>
      <trkpt lat="48.36973" lon="2.7718">
        <ele>101</ele>
        <time>2022-04-19T08:03:25.108Z</time>
      </trkpt>
      <trkpt lat="48.36975" lon="2.77187">
        <ele>101</ele>
        <time>2022-04-19T08:03:29.110Z</time>
      </trkpt>
      <trkpt lat="48.36977" lon="2.77195">
        <ele>101</ele>
        <time>2022-04-19T08:03:33.121Z</time>
      </trkpt>
      <trkpt lat="48.3698" lon="2.77206">
        <ele>101</ele>
        <time>2022-04-19T08:03:38.136Z</time>
      </trkpt>
      <trkpt lat="48.36981" lon="2.77214">
        <ele>101</ele>
        <time>2022-04-19T08:03:43.124Z</time>
      </trkpt>
      <trkpt lat="48.36983" lon="2.77224">
        <ele>101</ele>
        <time>2022-04-19T08:03:48.120Z</time>
      </trkpt>
      <trkpt lat="48.36985" lon="2.77232">
        <ele>101</ele>
        <time>2022-04-19T08:03:52.124Z</time>
      </trkpt>
      <trkpt lat="48.36988" lon="2.77241">
        <ele>99</ele>
        <time>2022-04-19T08:03:57.118Z</time>
      </trkpt>
      <trkpt lat="48.3699" lon="2.77251">
        <ele>99</ele>
        <time>2022-04-19T08:04:02.115Z</time>
      </trkpt>
      <trkpt lat="48.36992" lon="2.7726">
        <ele>99</ele>
        <time>2022-04-19T08:04:06.115Z</time>
      </trkpt>
      <trkpt lat="48.36994" lon="2.77269">
        <ele>99</ele>
        <time>2022-04-19T08:04:10.120Z</time>
      </trkpt>
      <trkpt lat="48.36997" lon="2.7728">
        <ele>99</ele>
        <time>2022-04-19T08:04:15.127Z</time>
      </trkpt>
      <trkpt lat="48.37" lon="2.77291">
        <ele>99</ele>
        <time>2022-04-19T08:04:20.119Z</time>
      </trkpt>
      <trkpt lat="48.37003" lon="2.77302">
        <ele>99</ele>
        <time>2022-04-19T08:04:25.125Z</time>
      </trkpt>
      <trkpt lat="48.37006" lon="2.77313">
        <ele>99</ele>
        <time>2022-04-19T08:04:30.128Z</time>
      </trkpt>
      <trkpt lat="48.37009" lon="2.77324">
        <ele>98</ele>
        <time>2022-04-19T08:04:35.124Z</time>
      </trkpt>
      <trkpt lat="48.37011" lon="2.77334">
        <ele>98</ele>
        <time>2022-04-19T08:04:40.114Z</time>
      </trkpt>
      <trkpt lat="48.37014" lon="2.77342">
        <ele>98</ele>
        <time>2022-04-19T08:04:44.117Z</time>
      </trkpt>
      <trkpt lat="48.37017" lon="2.77351">
        <ele>98</ele>
        <time>2022-04-19T08:04:49.113Z</time>
      </trkpt>
      <trkpt lat="48.37018" lon="2.77359">
        <ele>98</ele>
        <time>2022-04-19T08:04:53.118Z</time>
      </trkpt>
      <trkpt lat="48.3702" lon="2.77369">
        <ele>98</ele>
        <time>2022-04-19T08:04:58.124Z</time>
      </trkpt>
      <trkpt lat="48.37022" lon="2.77378">
        <ele>98</ele>
        <time>2022-04-19T08:05:02.121Z</time>
      </trkpt>
      <trkpt lat="48.37024" lon="2.77387">
        <ele>98</ele>
        <time>2022-04-19T08:05:07.115Z</time>
      </trkpt>
      <trkpt lat="48.37026" lon="2.77399">
        <ele>98</ele>
        <time>2022-04-19T08:05:12.115Z</time>
      </trkpt>
      <trkpt lat="48.37027" lon="2.77408">
        <ele>99</ele>
        <time>2022-04-19T08:05:16.121Z</time>
      </trkpt>
      <trkpt lat="48.37029" lon="2.77416">
        <ele>99</ele>
        <time>2022-04-19T08:05:20.124Z</time>
      </trkpt>
      <trkpt lat="48.37031" lon="2.77426">
        <ele>99</ele>
        <time>2022-04-19T08:05:25.113Z</time>
      </trkpt>
      <trkpt lat="48.37033" lon="2.77435">
        <ele>99</ele>
        <time>2022-04-19T08:05:29.117Z</time>
      </trkpt>
      <trkpt lat="48.37035" lon="2.77444">
        <ele>99</ele>
        <time>2022-04-19T08:05:33.116Z</time>
      </trkpt>
      <trkpt lat="48.37037" lon="2.77456">
        <ele>99</ele>
        <time>2022-04-19T08:05:38.124Z</time>
      </trkpt>
      <trkpt lat="48.37039" lon="2.77466">
        <ele>99</ele>
        <time>2022-04-19T08:05:43.125Z</time>
      </trkpt>
      <trkpt lat="48.37041" lon="2.77475">
        <ele>99</ele>
        <time>2022-04-19T08:05:48.120Z</time>
      </trkpt>
      <trkpt lat="48.37043" lon="2.77485">
        <ele>101</ele>
        <time>2022-04-19T08:05:53.114Z</time>
      </trkpt>
      <trkpt lat="48.37044" lon="2.77494">
        <ele>101</ele>
        <time>2022-04-19T08:05:57.118Z</time>
      </trkpt>
      <trkpt lat="48.37046" lon="2.77504">
        <ele>101</ele>
        <time>2022-04-19T08:06:01.118Z</time>
      </trkpt>
      <trkpt lat="48.3705" lon="2.77514">
        <ele>101</ele>
        <time>2022-04-19T08:06:06.119Z</time>
      </trkpt>
      <trkpt lat="48.37051" lon="2.77523">
        <ele>101</ele>
        <time>2022-04-19T08:06:10.126Z</time>
      </trkpt>
      <trkpt lat="48.37053" lon="2.77534">
        <ele>101</ele>
        <time>2022-04-19T08:06:15.128Z</time>
      </trkpt>
      <trkpt lat="48.37056" lon="2.77543">
        <ele>101</ele>
        <time>2022-04-19T08:06:19.127Z</time>
      </trkpt>
      <trkpt lat="48.37058" lon="2.77553">
        <ele>101</ele>
        <time>2022-04-19T08:06:24.111Z</time>
      </trkpt>
      <trkpt lat="48.37059" lon="2.77563">
        <ele>101</ele>
        <time>2022-04-19T08:06:28.112Z</time>
      </trkpt>
      <trkpt lat="48.37058" lon="2.77571">
        <ele>100</ele>
        <time>2022-04-19T08:06:32.121Z</time>
      </trkpt>
      <trkpt lat="48.37057" lon="2.77581">
        <ele>100</ele>
        <time>2022-04-19T08:06:37.118Z</time>
      </trkpt>
      <trkpt lat="48.37057" lon="2.77592">
        <ele>100</ele>
        <time>2022-04-19T08:06:42.120Z</time>
      </trkpt>
      <trkpt lat="48.37057" lon="2.77604">
        <ele>99</ele>
        <time>2022-04-19T08:06:47.117Z</time>
      </trkpt>
      <trkpt lat="48.37054" lon="2.77613">
        <ele>99</ele>
        <time>2022-04-19T08:06:51.122Z</time>
      </trkpt>
      <trkpt lat="48.37054" lon="2.77624">
        <ele>99</ele>
        <time>2022-04-19T08:06:56.119Z</time>
      </trkpt>
      <trkpt lat="48.37054" lon="2.77633">
        <ele>98</ele>
        <time>2022-04-19T08:07:00.122Z</time>
      </trkpt>
      <trkpt lat="48.37054" lon="2.77642">
        <ele>98</ele>
        <time>2022-04-19T08:07:05.125Z</time>
      </trkpt>
      <trkpt lat="48.37055" lon="2.77652">
        <ele>98</ele>
        <time>2022-04-19T08:07:10.121Z</time>
      </trkpt>
      <trkpt lat="48.37058" lon="2.77663">
        <ele>98</ele>
        <time>2022-04-19T08:07:15.136Z</time>
      </trkpt>
      <trkpt lat="48.37064" lon="2.77678">
        <ele>98</ele>
        <time>2022-04-19T08:07:47.122Z</time>
      </trkpt>
      <trkpt lat="48.37064" lon="2.77678">
        <ele>98</ele>
        <time>2022-04-19T08:07:52.119Z</time>
      </trkpt>
      <trkpt lat="48.37064" lon="2.7768">
        <ele>98</ele>
        <time>2022-04-19T08:07:57.112Z</time>
      </trkpt>
      <trkpt lat="48.37065" lon="2.77687">
        <ele>99</ele>
        <time>2022-04-19T08:08:01.119Z</time>
      </trkpt>
      <trkpt lat="48.37066" lon="2.77693">
        <ele>99</ele>
        <time>2022-04-19T08:08:05.121Z</time>
      </trkpt>
      <trkpt lat="48.37067" lon="2.77702">
        <ele>99</ele>
        <time>2022-04-19T08:08:10.125Z</time>
      </trkpt>
      <trkpt lat="48.37068" lon="2.7771">
        <ele>101</ele>
        <time>2022-04-19T08:08:14.137Z</time>
      </trkpt>
      <trkpt lat="48.37068" lon="2.77721">
        <ele>101</ele>
        <time>2022-04-19T08:08:19.125Z</time>
      </trkpt>
      <trkpt lat="48.37069" lon="2.77729">
        <ele>101</ele>
        <time>2022-04-19T08:08:23.124Z</time>
      </trkpt>
      <trkpt lat="48.37071" lon="2.7774">
        <ele>102</ele>
        <time>2022-04-19T08:08:28.114Z</time>
      </trkpt>
      <trkpt lat="48.3707" lon="2.77747">
        <ele>102</ele>
        <time>2022-04-19T08:08:32.127Z</time>
      </trkpt>
      <trkpt lat="48.3707" lon="2.77756">
        <ele>102</ele>
        <time>2022-04-19T08:08:37.117Z</time>
      </trkpt>
      <trkpt lat="48.37071" lon="2.77765">
        <ele>103</ele>
        <time>2022-04-19T08:08:42.113Z</time>
      </trkpt>
      <trkpt lat="48.37071" lon="2.77776">
        <ele>103</ele>
        <time>2022-04-19T08:08:47.124Z</time>
      </trkpt>
      <trkpt lat="48.37073" lon="2.77786">
        <ele>103</ele>
        <time>2022-04-19T08:08:52.121Z</time>
      </trkpt>
      <trkpt lat="48.37074" lon="2.77798">
        <ele>102</ele>
        <time>2022-04-19T08:08:57.125Z</time>
      </trkpt>
      <trkpt lat="48.37075" lon="2.77806">
        <ele>102</ele>
        <time>2022-04-19T08:09:01.142Z</time>
      </trkpt>
      <trkpt lat="48.37078" lon="2.77818">
        <ele>102</ele>
        <time>2022-04-19T08:09:06.126Z</time>
      </trkpt>
      <trkpt lat="48.3708" lon="2.77829">
        <ele>100</ele>
        <time>2022-04-19T08:09:11.115Z</time>
      </trkpt>
      <trkpt lat="48.37083" lon="2.77837">
        <ele>100</ele>
        <time>2022-04-19T08:09:15.127Z</time>
      </trkpt>
      <trkpt lat="48.37085" lon="2.77848">
        <ele>99</ele>
        <time>2022-04-19T08:09:20.111Z</time>
      </trkpt>
      <trkpt lat="48.37086" lon="2.77857">
        <ele>99</ele>
        <time>2022-04-19T08:09:24.121Z</time>
      </trkpt>
      <trkpt lat="48.37089" lon="2.77865">
        <ele>99</ele>
        <time>2022-04-19T08:09:28.145Z</time>
      </trkpt>
      <trkpt lat="48.37091" lon="2.77876">
        <ele>98</ele>
        <time>2022-04-19T08:09:33.122Z</time>
      </trkpt>
      <trkpt lat="48.37094" lon="2.77887">
        <ele>98</ele>
        <time>2022-04-19T08:09:38.119Z</time>
      </trkpt>
      <trkpt lat="48.37096" lon="2.77895">
        <ele>98</ele>
        <time>2022-04-19T08:09:42.126Z</time>
      </trkpt>
      <trkpt lat="48.37098" lon="2.77906">
        <ele>101</ele>
        <time>2022-04-19T08:09:47.123Z</time>
      </trkpt>
      <trkpt lat="48.371" lon="2.77916">
        <ele>101</ele>
        <time>2022-04-19T08:09:52.123Z</time>
      </trkpt>
      <trkpt lat="48.37102" lon="2.77927">
        <ele>101</ele>
        <time>2022-04-19T08:09:57.118Z</time>
      </trkpt>
      <trkpt lat="48.37104" lon="2.77936">
        <ele>101</ele>
        <time>2022-04-19T08:10:02.122Z</time>
      </trkpt>
      <trkpt lat="48.37108" lon="2.77947">
        <ele>101</ele>
        <time>2022-04-19T08:10:07.126Z</time>
      </trkpt>
      <trkpt lat="48.37112" lon="2.77956">
        <ele>101</ele>
        <time>2022-04-19T08:10:12.120Z</time>
      </trkpt>
      <trkpt lat="48.37114" lon="2.77965">
        <ele>102</ele>
        <time>2022-04-19T08:10:16.126Z</time>
      </trkpt>
      <trkpt lat="48.37117" lon="2.77972">
        <ele>102</ele>
        <time>2022-04-19T08:10:20.202Z</time>
      </trkpt>
      <trkpt lat="48.3712" lon="2.77982">
        <ele>102</ele>
        <time>2022-04-19T08:10:25.116Z</time>
      </trkpt>
      <trkpt lat="48.37124" lon="2.77992">
        <ele>102</ele>
        <time>2022-04-19T08:10:30.117Z</time>
      </trkpt>
      <trkpt lat="48.37127" lon="2.78002">
        <ele>101</ele>
        <time>2022-04-19T08:10:35.114Z</time>
      </trkpt>
      <trkpt lat="48.3713" lon="2.7801">
        <ele>101</ele>
        <time>2022-04-19T08:10:39.122Z</time>
      </trkpt>
      <trkpt lat="48.3713" lon="2.78021">
        <ele>102</ele>
        <time>2022-04-19T08:10:44.111Z</time>
      </trkpt>
      <trkpt lat="48.37131" lon="2.7803">
        <ele>102</ele>
        <time>2022-04-19T08:10:48.120Z</time>
      </trkpt>
      <trkpt lat="48.37134" lon="2.78042">
        <ele>102</ele>
        <time>2022-04-19T08:10:53.139Z</time>
      </trkpt>
      <trkpt lat="48.37136" lon="2.78053">
        <ele>104</ele>
        <time>2022-04-19T08:10:58.124Z</time>
      </trkpt>
      <trkpt lat="48.37138" lon="2.78065">
        <ele>104</ele>
        <time>2022-04-19T08:11:03.123Z</time>
      </trkpt>
      <trkpt lat="48.3714" lon="2.78075">
        <ele>105</ele>
        <time>2022-04-19T08:11:08.129Z</time>
      </trkpt>
      <trkpt lat="48.37143" lon="2.78086">
        <ele>105</ele>
        <time>2022-04-19T08:11:13.116Z</time>
      </trkpt>
      <trkpt lat="48.37146" lon="2.78095">
        <ele>105</ele>
        <time>2022-04-19T08:11:18.117Z</time>
      </trkpt>
      <trkpt lat="48.37149" lon="2.78107">
        <ele>104</ele>
        <time>2022-04-19T08:11:23.117Z</time>
      </trkpt>
      <trkpt lat="48.3715" lon="2.78116">
        <ele>104</ele>
        <time>2022-04-19T08:11:28.114Z</time>
      </trkpt>
      <trkpt lat="48.37153" lon="2.78124">
        <ele>104</ele>
        <time>2022-04-19T08:11:32.126Z</time>
      </trkpt>
      <trkpt lat="48.37154" lon="2.78136">
        <ele>105</ele>
        <time>2022-04-19T08:11:37.114Z</time>
      </trkpt>
      <trkpt lat="48.37156" lon="2.78147">
        <ele>105</ele>
        <time>2022-04-19T08:11:42.116Z</time>
      </trkpt>
      <trkpt lat="48.37157" lon="2.78156">
        <ele>105</ele>
        <time>2022-04-19T08:11:46.120Z</time>
      </trkpt>
      <trkpt lat="48.37159" lon="2.78166">
        <ele>105</ele>
        <time>2022-04-19T08:11:50.120Z</time>
      </trkpt>
      <trkpt lat="48.3716" lon="2.78178">
        <ele>105</ele>
        <time>2022-04-19T08:11:55.119Z</time>
      </trkpt>
      <trkpt lat="48.37162" lon="2.7819">
        <ele>104</ele>
        <time>2022-04-19T08:12:00.125Z</time>
      </trkpt>
      <trkpt lat="48.37163" lon="2.782">
        <ele>104</ele>
        <time>2022-04-19T08:12:04.123Z</time>
      </trkpt>
      <trkpt lat="48.37166" lon="2.7821">
        <ele>103</ele>
        <time>2022-04-19T08:12:09.117Z</time>
      </trkpt>
      <trkpt lat="48.3717" lon="2.7822">
        <ele>103</ele>
        <time>2022-04-19T08:12:14.124Z</time>
      </trkpt>
      <trkpt lat="48.37173" lon="2.78227">
        <ele>103</ele>
        <time>2022-04-19T08:12:18.120Z</time>
      </trkpt>
      <trkpt lat="48.37177" lon="2.78236">
        <ele>103</ele>
        <time>2022-04-19T08:12:23.119Z</time>
      </trkpt>
      <trkpt lat="48.3718" lon="2.78244">
        <ele>102</ele>
        <time>2022-04-19T08:12:27.122Z</time>
      </trkpt>
      <trkpt lat="48.37184" lon="2.78253">
        <ele>102</ele>
        <time>2022-04-19T08:12:32.116Z</time>
      </trkpt>
      <trkpt lat="48.37188" lon="2.7826">
        <ele>102</ele>
        <time>2022-04-19T08:12:36.125Z</time>
      </trkpt>
      <trkpt lat="48.37193" lon="2.7827">
        <ele>100</ele>
        <time>2022-04-19T08:12:41.123Z</time>
      </trkpt>
      <trkpt lat="48.37196" lon="2.78279">
        <ele>100</ele>
        <time>2022-04-19T08:12:46.117Z</time>
      </trkpt>
      <trkpt lat="48.372" lon="2.78286">
        <ele>100</ele>
        <time>2022-04-19T08:12:50.128Z</time>
      </trkpt>
      <trkpt lat="48.37204" lon="2.78292">
        <ele>100</ele>
        <time>2022-04-19T08:12:54.126Z</time>
      </trkpt>
      <trkpt lat="48.37208" lon="2.78302">
        <ele>100</ele>
        <time>2022-04-19T08:12:59.127Z</time>
      </trkpt>
      <trkpt lat="48.37212" lon="2.78311">
        <ele>100</ele>
        <time>2022-04-19T08:13:04.123Z</time>
      </trkpt>
      <trkpt lat="48.37216" lon="2.78318">
        <ele>100</ele>
        <time>2022-04-19T08:13:08.134Z</time>
      </trkpt>
      <trkpt lat="48.37221" lon="2.78327">
        <ele>102</ele>
        <time>2022-04-19T08:13:13.124Z</time>
      </trkpt>
      <trkpt lat="48.37225" lon="2.78336">
        <ele>102</ele>
        <time>2022-04-19T08:13:18.120Z</time>
      </trkpt>
      <trkpt lat="48.37231" lon="2.78344">
        <ele>102</ele>
        <time>2022-04-19T08:13:23.123Z</time>
      </trkpt>
      <trkpt lat="48.37236" lon="2.78352">
        <ele>103</ele>
        <time>2022-04-19T08:13:28.119Z</time>
      </trkpt>
      <trkpt lat="48.37242" lon="2.7836">
        <ele>103</ele>
        <time>2022-04-19T08:13:33.118Z</time>
      </trkpt>
      <trkpt lat="48.37246" lon="2.78365">
        <ele>103</ele>
        <time>2022-04-19T08:13:37.122Z</time>
      </trkpt>
      <trkpt lat="48.3725" lon="2.78372">
        <ele>103</ele>
        <time>2022-04-19T08:13:42.124Z</time>
      </trkpt>
      <trkpt lat="48.37255" lon="2.78379">
        <ele>101</ele>
        <time>2022-04-19T08:13:47.120Z</time>
      </trkpt>
      <trkpt lat="48.37258" lon="2.78387">
        <ele>101</ele>
        <time>2022-04-19T08:13:52.115Z</time>
      </trkpt>
      <trkpt lat="48.37261" lon="2.78393">
        <ele>101</ele>
        <time>2022-04-19T08:13:56.116Z</time>
      </trkpt>
      <trkpt lat="48.37264" lon="2.78399">
        <ele>101</ele>
        <time>2022-04-19T08:14:01.113Z</time>
      </trkpt>
      <trkpt lat="48.37266" lon="2.78407">
        <ele>100</ele>
        <time>2022-04-19T08:14:05.114Z</time>
      </trkpt>
      <trkpt lat="48.37269" lon="2.78414">
        <ele>100</ele>
        <time>2022-04-19T08:14:09.119Z</time>
      </trkpt>
      <trkpt lat="48.37272" lon="2.78421">
        <ele>100</ele>
        <time>2022-04-19T08:14:13.191Z</time>
      </trkpt>
      <trkpt lat="48.37274" lon="2.78432">
        <ele>99</ele>
        <time>2022-04-19T08:14:18.125Z</time>
      </trkpt>
      <trkpt lat="48.37275" lon="2.78443">
        <ele>99</ele>
        <time>2022-04-19T08:14:23.116Z</time>
      </trkpt>
      <trkpt lat="48.37276" lon="2.78455">
        <ele>99</ele>
        <time>2022-04-19T08:14:28.114Z</time>
      </trkpt>
      <trkpt lat="48.37277" lon="2.78466">
        <ele>99</ele>
        <time>2022-04-19T08:14:32.121Z</time>
      </trkpt>
      <trkpt lat="48.37278" lon="2.78479">
        <ele>99</ele>
        <time>2022-04-19T08:14:37.124Z</time>
      </trkpt>
      <trkpt lat="48.3728" lon="2.7849">
        <ele>100</ele>
        <time>2022-04-19T08:14:42.123Z</time>
      </trkpt>
      <trkpt lat="48.3728" lon="2.78501">
        <ele>100</ele>
        <time>2022-04-19T08:14:46.125Z</time>
      </trkpt>
      <trkpt lat="48.37283" lon="2.78511">
        <ele>100</ele>
        <time>2022-04-19T08:14:51.118Z</time>
      </trkpt>
      <trkpt lat="48.37284" lon="2.7852">
        <ele>100</ele>
        <time>2022-04-19T08:14:55.126Z</time>
      </trkpt>
      <trkpt lat="48.37284" lon="2.78529">
        <ele>100</ele>
        <time>2022-04-19T08:14:59.126Z</time>
      </trkpt>
      <trkpt lat="48.37286" lon="2.78537">
        <ele>100</ele>
        <time>2022-04-19T08:15:03.133Z</time>
      </trkpt>
      <trkpt lat="48.37287" lon="2.78546">
        <ele>100</ele>
        <time>2022-04-19T08:15:08.126Z</time>
      </trkpt>
      <trkpt lat="48.37292" lon="2.78556">
        <ele>100</ele>
        <time>2022-04-19T08:15:13.124Z</time>
      </trkpt>
      <trkpt lat="48.37294" lon="2.78565">
        <ele>101</ele>
        <time>2022-04-19T08:15:18.129Z</time>
      </trkpt>
      <trkpt lat="48.37296" lon="2.78575">
        <ele>102</ele>
        <time>2022-04-19T08:15:23.140Z</time>
      </trkpt>
      <trkpt lat="48.37298" lon="2.78586">
        <ele>102</ele>
        <time>2022-04-19T08:15:28.119Z</time>
      </trkpt>
      <trkpt lat="48.37301" lon="2.78597">
        <ele>102</ele>
        <time>2022-04-19T08:15:33.123Z</time>
      </trkpt>
      <trkpt lat="48.37303" lon="2.78605">
        <ele>102</ele>
        <time>2022-04-19T08:15:37.118Z</time>
      </trkpt>
      <trkpt lat="48.37305" lon="2.78614">
        <ele>102</ele>
        <time>2022-04-19T08:15:41.117Z</time>
      </trkpt>
      <trkpt lat="48.37306" lon="2.78626">
        <ele>102</ele>
        <time>2022-04-19T08:15:46.125Z</time>
      </trkpt>
      <trkpt lat="48.37309" lon="2.78633">
        <ele>102</ele>
        <time>2022-04-19T08:15:50.141Z</time>
      </trkpt>
      <trkpt lat="48.37311" lon="2.78643">
        <ele>102</ele>
        <time>2022-04-19T08:15:55.118Z</time>
      </trkpt>
      <trkpt lat="48.37312" lon="2.78655">
        <ele>101</ele>
        <time>2022-04-19T08:16:00.123Z</time>
      </trkpt>
      <trkpt lat="48.37314" lon="2.78662">
        <ele>101</ele>
        <time>2022-04-19T08:16:04.136Z</time>
      </trkpt>
      <trkpt lat="48.37316" lon="2.78671">
        <ele>101</ele>
        <time>2022-04-19T08:16:09.118Z</time>
      </trkpt>
      <trkpt lat="48.37319" lon="2.78679">
        <ele>101</ele>
        <time>2022-04-19T08:16:13.128Z</time>
      </trkpt>
      <trkpt lat="48.37322" lon="2.78689">
        <ele>98</ele>
        <time>2022-04-19T08:16:18.116Z</time>
      </trkpt>
      <trkpt lat="48.37324" lon="2.78697">
        <ele>98</ele>
        <time>2022-04-19T08:16:22.118Z</time>
      </trkpt>
      <trkpt lat="48.37327" lon="2.78705">
        <ele>98</ele>
        <time>2022-04-19T08:16:26.123Z</time>
      </trkpt>
      <trkpt lat="48.37329" lon="2.78715">
        <ele>96</ele>
        <time>2022-04-19T08:16:31.122Z</time>
      </trkpt>
      <trkpt lat="48.37331" lon="2.78724">
        <ele>96</ele>
        <time>2022-04-19T08:16:35.121Z</time>
      </trkpt>
      <trkpt lat="48.37334" lon="2.78734">
        <ele>96</ele>
        <time>2022-04-19T08:16:40.119Z</time>
      </trkpt>
      <trkpt lat="48.37336" lon="2.78744">
        <ele>95</ele>
        <time>2022-04-19T08:16:45.136Z</time>
      </trkpt>
      <trkpt lat="48.37333" lon="2.78752">
        <ele>95</ele>
        <time>2022-04-19T08:16:50.121Z</time>
      </trkpt>
      <trkpt lat="48.37328" lon="2.78756">
        <ele>95</ele>
        <time>2022-04-19T08:16:54.121Z</time>
      </trkpt>
      <trkpt lat="48.37325" lon="2.78763">
        <ele>95</ele>
        <time>2022-04-19T08:16:59.116Z</time>
      </trkpt>
      <trkpt lat="48.3733" lon="2.7877">
        <ele>94</ele>
        <time>2022-04-19T08:17:04.114Z</time>
      </trkpt>
      <trkpt lat="48.37334" lon="2.78775">
        <ele>94</ele>
        <time>2022-04-19T08:17:08.119Z</time>
      </trkpt>
      <trkpt lat="48.37339" lon="2.78783">
        <ele>94</ele>
        <time>2022-04-19T08:17:13.120Z</time>
      </trkpt>
      <trkpt lat="48.37345" lon="2.7879">
        <ele>94</ele>
        <time>2022-04-19T08:17:18.115Z</time>
      </trkpt>
      <trkpt lat="48.37351" lon="2.78789">
        <ele>92</ele>
        <time>2022-04-19T08:17:23.117Z</time>
      </trkpt>
      <trkpt lat="48.37355" lon="2.78788">
        <ele>92</ele>
        <time>2022-04-19T08:17:27.121Z</time>
      </trkpt>
      <trkpt lat="48.3736" lon="2.78794">
        <ele>92</ele>
        <time>2022-04-19T08:17:31.119Z</time>
      </trkpt>
      <trkpt lat="48.37363" lon="2.788">
        <ele>92</ele>
        <time>2022-04-19T08:17:35.120Z</time>
      </trkpt>
      <trkpt lat="48.37369" lon="2.78809">
        <ele>92</ele>
        <time>2022-04-19T08:17:40.118Z</time>
      </trkpt>
      <trkpt lat="48.37373" lon="2.78816">
        <ele>92</ele>
        <time>2022-04-19T08:17:44.133Z</time>
      </trkpt>
      <trkpt lat="48.37377" lon="2.78824">
        <ele>91</ele>
        <time>2022-04-19T08:17:49.122Z</time>
      </trkpt>
      <trkpt lat="48.37382" lon="2.78832">
        <ele>91</ele>
        <time>2022-04-19T08:17:54.119Z</time>
      </trkpt>
      <trkpt lat="48.37387" lon="2.78841">
        <ele>91</ele>
        <time>2022-04-19T08:17:59.119Z</time>
      </trkpt>
      <trkpt lat="48.37392" lon="2.7885">
        <ele>92</ele>
        <time>2022-04-19T08:18:04.121Z</time>
      </trkpt>
      <trkpt lat="48.37396" lon="2.78857">
        <ele>92</ele>
        <time>2022-04-19T08:18:08.122Z</time>
      </trkpt>
      <trkpt lat="48.37401" lon="2.78866">
        <ele>92</ele>
        <time>2022-04-19T08:18:13.123Z</time>
      </trkpt>
      <trkpt lat="48.37406" lon="2.78874">
        <ele>92</ele>
        <time>2022-04-19T08:18:18.123Z</time>
      </trkpt>
      <trkpt lat="48.3741" lon="2.78881">
        <ele>92</ele>
        <time>2022-04-19T08:18:22.225Z</time>
      </trkpt>
      <trkpt lat="48.37416" lon="2.7889">
        <ele>92</ele>
        <time>2022-04-19T08:18:27.122Z</time>
      </trkpt>
      <trkpt lat="48.37419" lon="2.78898">
        <ele>92</ele>
        <time>2022-04-19T08:18:31.122Z</time>
      </trkpt>
      <trkpt lat="48.37425" lon="2.78907">
        <ele>93</ele>
        <time>2022-04-19T08:18:36.122Z</time>
      </trkpt>
      <trkpt lat="48.3743" lon="2.78916">
        <ele>93</ele>
        <time>2022-04-19T08:18:41.115Z</time>
      </trkpt>
      <trkpt lat="48.37435" lon="2.78924">
        <ele>91</ele>
        <time>2022-04-19T08:18:46.128Z</time>
      </trkpt>
      <trkpt lat="48.3744" lon="2.78932">
        <ele>91</ele>
        <time>2022-04-19T08:18:51.118Z</time>
      </trkpt>
      <trkpt lat="48.37444" lon="2.78939">
        <ele>91</ele>
        <time>2022-04-19T08:18:55.116Z</time>
      </trkpt>
      <trkpt lat="48.37449" lon="2.78947">
        <ele>91</ele>
        <time>2022-04-19T08:19:00.123Z</time>
      </trkpt>
      <trkpt lat="48.37454" lon="2.78955">
        <ele>91</ele>
        <time>2022-04-19T08:19:05.118Z</time>
      </trkpt>
      <trkpt lat="48.37458" lon="2.78962">
        <ele>92</ele>
        <time>2022-04-19T08:19:09.124Z</time>
      </trkpt>
      <trkpt lat="48.37463" lon="2.78971">
        <ele>90</ele>
        <time>2022-04-19T08:19:14.121Z</time>
      </trkpt>
      <trkpt lat="48.37469" lon="2.7898">
        <ele>90</ele>
        <time>2022-04-19T08:19:19.114Z</time>
      </trkpt>
      <trkpt lat="48.37473" lon="2.78987">
        <ele>90</ele>
        <time>2022-04-19T08:19:23.119Z</time>
      </trkpt>
      <trkpt lat="48.37478" lon="2.78996">
        <ele>90</ele>
        <time>2022-04-19T08:19:28.127Z</time>
      </trkpt>
      <trkpt lat="48.37483" lon="2.79005">
        <ele>90</ele>
        <time>2022-04-19T08:19:33.121Z</time>
      </trkpt>
      <trkpt lat="48.37487" lon="2.79013">
        <ele>89</ele>
        <time>2022-04-19T08:19:37.132Z</time>
      </trkpt>
      <trkpt lat="48.37493" lon="2.79022">
        <ele>90</ele>
        <time>2022-04-19T08:19:42.121Z</time>
      </trkpt>
      <trkpt lat="48.37499" lon="2.7903">
        <ele>90</ele>
        <time>2022-04-19T08:19:47.123Z</time>
      </trkpt>
      <trkpt lat="48.37502" lon="2.79036">
        <ele>90</ele>
        <time>2022-04-19T08:19:51.120Z</time>
      </trkpt>
      <trkpt lat="48.37506" lon="2.79043">
        <ele>90</ele>
        <time>2022-04-19T08:19:55.125Z</time>
      </trkpt>
      <trkpt lat="48.37511" lon="2.7905">
        <ele>90</ele>
        <time>2022-04-19T08:20:00.124Z</time>
      </trkpt>
      <trkpt lat="48.37516" lon="2.79057">
        <ele>90</ele>
        <time>2022-04-19T08:20:04.124Z</time>
      </trkpt>
      <trkpt lat="48.3752" lon="2.79066">
        <ele>90</ele>
        <time>2022-04-19T08:20:09.120Z</time>
      </trkpt>
      <trkpt lat="48.37525" lon="2.79073">
        <ele>90</ele>
        <time>2022-04-19T08:20:13.121Z</time>
      </trkpt>
      <trkpt lat="48.37527" lon="2.79081">
        <ele>90</ele>
        <time>2022-04-19T08:20:18.122Z</time>
      </trkpt>
      <trkpt lat="48.3753" lon="2.79088">
        <ele>90</ele>
        <time>2022-04-19T08:20:22.122Z</time>
      </trkpt>
      <trkpt lat="48.37536" lon="2.79096">
        <ele>90</ele>
        <time>2022-04-19T08:20:27.126Z</time>
      </trkpt>
      <trkpt lat="48.37542" lon="2.79104">
        <ele>89</ele>
        <time>2022-04-19T08:20:32.125Z</time>
      </trkpt>
      <trkpt lat="48.37547" lon="2.79112">
        <ele>89</ele>
        <time>2022-04-19T08:20:37.121Z</time>
      </trkpt>
      <trkpt lat="48.3755" lon="2.79122">
        <ele>89</ele>
        <time>2022-04-19T08:20:42.121Z</time>
      </trkpt>
      <trkpt lat="48.37547" lon="2.79129">
        <ele>89</ele>
        <time>2022-04-19T08:20:46.121Z</time>
      </trkpt>
      <trkpt lat="48.37542" lon="2.79135">
        <ele>89</ele>
        <time>2022-04-19T08:20:50.132Z</time>
      </trkpt>
      <trkpt lat="48.37537" lon="2.79144">
        <ele>90</ele>
        <time>2022-04-19T08:20:55.122Z</time>
      </trkpt>
      <trkpt lat="48.37534" lon="2.79154">
        <ele>89</ele>
        <time>2022-04-19T08:21:00.124Z</time>
      </trkpt>
      <trkpt lat="48.37533" lon="2.79166">
        <ele>89</ele>
        <time>2022-04-19T08:21:05.123Z</time>
      </trkpt>
      <trkpt lat="48.37536" lon="2.79177">
        <ele>89</ele>
        <time>2022-04-19T08:21:10.117Z</time>
      </trkpt>
      <trkpt lat="48.37539" lon="2.79187">
        <ele>90</ele>
        <time>2022-04-19T08:21:15.110Z</time>
      </trkpt>
      <trkpt lat="48.37542" lon="2.79197">
        <ele>90</ele>
        <time>2022-04-19T08:21:20.119Z</time>
      </trkpt>
      <trkpt lat="48.37544" lon="2.79204">
        <ele>90</ele>
        <time>2022-04-19T08:21:24.124Z</time>
      </trkpt>
      <trkpt lat="48.37543" lon="2.79211">
        <ele>90</ele>
        <time>2022-04-19T08:21:28.127Z</time>
      </trkpt>
      <trkpt lat="48.3754" lon="2.79212">
        <ele>90</ele>
        <time>2022-04-19T08:21:33.124Z</time>
      </trkpt>
      <trkpt lat="48.37539" lon="2.79212">
        <ele>90</ele>
        <time>2022-04-19T08:21:37.128Z</time>
      </trkpt>
      <trkpt lat="48.37534" lon="2.79216">
        <ele>90</ele>
        <time>2022-04-19T08:21:41.133Z</time>
      </trkpt>
      <trkpt lat="48.37529" lon="2.79223">
        <ele>90</ele>
        <time>2022-04-19T08:21:46.123Z</time>
      </trkpt>
      <trkpt lat="48.37524" lon="2.79231">
        <ele>90</ele>
        <time>2022-04-19T08:21:51.127Z</time>
      </trkpt>
      <trkpt lat="48.37517" lon="2.79238">
        <ele>91</ele>
        <time>2022-04-19T08:21:56.123Z</time>
      </trkpt>
      <trkpt lat="48.37512" lon="2.79243">
        <ele>91</ele>
        <time>2022-04-19T08:22:00.124Z</time>
      </trkpt>
      <trkpt lat="48.37508" lon="2.79251">
        <ele>91</ele>
        <time>2022-04-19T08:22:05.125Z</time>
      </trkpt>
      <trkpt lat="48.37502" lon="2.79258">
        <ele>91</ele>
        <time>2022-04-19T08:22:10.126Z</time>
      </trkpt>
      <trkpt lat="48.37496" lon="2.79266">
        <ele>91</ele>
        <time>2022-04-19T08:22:15.123Z</time>
      </trkpt>
      <trkpt lat="48.37492" lon="2.79274">
        <ele>91</ele>
        <time>2022-04-19T08:22:20.125Z</time>
      </trkpt>
      <trkpt lat="48.37487" lon="2.79281">
        <ele>91</ele>
        <time>2022-04-19T08:22:24.133Z</time>
      </trkpt>
      <trkpt lat="48.37483" lon="2.7929">
        <ele>91</ele>
        <time>2022-04-19T08:22:29.124Z</time>
      </trkpt>
      <trkpt lat="48.37477" lon="2.79297">
        <ele>91</ele>
        <time>2022-04-19T08:22:34.142Z</time>
      </trkpt>
      <trkpt lat="48.37472" lon="2.79306">
        <ele>91</ele>
        <time>2022-04-19T08:22:39.120Z</time>
      </trkpt>
      <trkpt lat="48.37467" lon="2.79313">
        <ele>91</ele>
        <time>2022-04-19T08:22:44.122Z</time>
      </trkpt>
      <trkpt lat="48.37463" lon="2.79319">
        <ele>91</ele>
        <time>2022-04-19T08:22:48.119Z</time>
      </trkpt>
      <trkpt lat="48.37458" lon="2.79327">
        <ele>92</ele>
        <time>2022-04-19T08:22:53.116Z</time>
      </trkpt>
      <trkpt lat="48.37453" lon="2.79325">
        <ele>92</ele>
        <time>2022-04-19T08:22:57.127Z</time>
      </trkpt>
      <trkpt lat="48.37449" lon="2.79317">
        <ele>93</ele>
        <time>2022-04-19T08:23:02.113Z</time>
      </trkpt>
      <trkpt lat="48.37445" lon="2.7931">
        <ele>93</ele>
        <time>2022-04-19T08:23:06.123Z</time>
      </trkpt>
      <trkpt lat="48.3744" lon="2.79302">
        <ele>93</ele>
        <time>2022-04-19T08:23:11.120Z</time>
      </trkpt>
      <trkpt lat="48.37436" lon="2.79295">
        <ele>93</ele>
        <time>2022-04-19T08:23:15.130Z</time>
      </trkpt>
      <trkpt lat="48.37432" lon="2.79287">
        <ele>92</ele>
        <time>2022-04-19T08:23:20.117Z</time>
      </trkpt>
      <trkpt lat="48.37427" lon="2.79278">
        <ele>94</ele>
        <time>2022-04-19T08:23:25.114Z</time>
      </trkpt>
      <trkpt lat="48.37423" lon="2.7927">
        <ele>94</ele>
        <time>2022-04-19T08:23:29.123Z</time>
      </trkpt>
      <trkpt lat="48.37418" lon="2.79263">
        <ele>93</ele>
        <time>2022-04-19T08:23:34.116Z</time>
      </trkpt>
      <trkpt lat="48.37415" lon="2.79253">
        <ele>93</ele>
        <time>2022-04-19T08:23:39.123Z</time>
      </trkpt>
      <trkpt lat="48.37409" lon="2.79245">
        <ele>93</ele>
        <time>2022-04-19T08:23:44.117Z</time>
      </trkpt>
      <trkpt lat="48.37404" lon="2.79237">
        <ele>93</ele>
        <time>2022-04-19T08:23:49.120Z</time>
      </trkpt>
      <trkpt lat="48.37402" lon="2.79229">
        <ele>95</ele>
        <time>2022-04-19T08:23:53.121Z</time>
      </trkpt>
      <trkpt lat="48.37397" lon="2.79219">
        <ele>95</ele>
        <time>2022-04-19T08:23:58.122Z</time>
      </trkpt>
      <trkpt lat="48.37392" lon="2.79211">
        <ele>95</ele>
        <time>2022-04-19T08:24:03.130Z</time>
      </trkpt>
      <trkpt lat="48.37387" lon="2.79203">
        <ele>95</ele>
        <time>2022-04-19T08:24:08.118Z</time>
      </trkpt>
      <trkpt lat="48.37381" lon="2.79194">
        <ele>95</ele>
        <time>2022-04-19T08:24:13.119Z</time>
      </trkpt>
      <trkpt lat="48.37377" lon="2.79185">
        <ele>95</ele>
        <time>2022-04-19T08:24:18.126Z</time>
      </trkpt>
      <trkpt lat="48.37373" lon="2.79176">
        <ele>95</ele>
        <time>2022-04-19T08:24:23.117Z</time>
      </trkpt>
      <trkpt lat="48.37367" lon="2.79169">
        <ele>95</ele>
        <time>2022-04-19T08:24:28.119Z</time>
      </trkpt>
      <trkpt lat="48.37363" lon="2.79177">
        <ele>95</ele>
        <time>2022-04-19T08:24:33.115Z</time>
      </trkpt>
      <trkpt lat="48.37358" lon="2.79187">
        <ele>94</ele>
        <time>2022-04-19T08:24:38.114Z</time>
      </trkpt>
      <trkpt lat="48.37354" lon="2.79195">
        <ele>94</ele>
        <time>2022-04-19T08:24:42.120Z</time>
      </trkpt>
      <trkpt lat="48.3735" lon="2.79201">
        <ele>94</ele>
        <time>2022-04-19T08:24:46.140Z</time>
      </trkpt>
      <trkpt lat="48.37345" lon="2.79208">
        <ele>93</ele>
        <time>2022-04-19T08:24:51.110Z</time>
      </trkpt>
      <trkpt lat="48.37341" lon="2.79215">
        <ele>93</ele>
        <time>2022-04-19T08:24:55.117Z</time>
      </trkpt>
      <trkpt lat="48.37335" lon="2.79223">
        <ele>93</ele>
        <time>2022-04-19T08:25:00.123Z</time>
      </trkpt>
      <trkpt lat="48.3733" lon="2.79231">
        <ele>93</ele>
        <time>2022-04-19T08:25:05.123Z</time>
      </trkpt>
      <trkpt lat="48.37325" lon="2.79237">
        <ele>94</ele>
        <time>2022-04-19T08:25:09.123Z</time>
      </trkpt>
      <trkpt lat="48.3732" lon="2.79244">
        <ele>94</ele>
        <time>2022-04-19T08:25:14.121Z</time>
      </trkpt>
      <trkpt lat="48.37316" lon="2.7925">
        <ele>94</ele>
        <time>2022-04-19T08:25:18.130Z</time>
      </trkpt>
      <trkpt lat="48.37311" lon="2.79256">
        <ele>94</ele>
        <time>2022-04-19T08:25:22.138Z</time>
      </trkpt>
      <trkpt lat="48.37305" lon="2.79263">
        <ele>94</ele>
        <time>2022-04-19T08:25:27.120Z</time>
      </trkpt>
      <trkpt lat="48.37299" lon="2.79281">
        <ele>94</ele>
        <time>2022-04-19T08:25:37.138Z</time>
      </trkpt>
      <trkpt lat="48.37301" lon="2.79284">
        <ele>94</ele>
        <time>2022-04-19T08:25:42.123Z</time>
      </trkpt>
      <trkpt lat="48.37301" lon="2.79284">
        <ele>94</ele>
        <time>2022-04-19T08:25:47.128Z</time>
      </trkpt>
      <trkpt lat="48.37301" lon="2.79284">
        <ele>94</ele>
        <time>2022-04-19T08:25:52.122Z</time>
      </trkpt>
      <trkpt lat="48.37303" lon="2.79288">
        <ele>94</ele>
        <time>2022-04-19T08:25:56.129Z</time>
      </trkpt>
      <trkpt lat="48.37308" lon="2.79299">
        <ele>93</ele>
        <time>2022-04-19T08:26:01.132Z</time>
      </trkpt>
      <trkpt lat="48.37312" lon="2.79308">
        <ele>93</ele>
        <time>2022-04-19T08:26:06.123Z</time>
      </trkpt>
      <trkpt lat="48.37316" lon="2.79315">
        <ele>93</ele>
        <time>2022-04-19T08:26:10.118Z</time>
      </trkpt>
      <trkpt lat="48.3732" lon="2.79322">
        <ele>94</ele>
        <time>2022-04-19T08:26:14.120Z</time>
      </trkpt>
      <trkpt lat="48.37325" lon="2.79332">
        <ele>94</ele>
        <time>2022-04-19T08:26:19.120Z</time>
      </trkpt>
      <trkpt lat="48.37329" lon="2.79339">
        <ele>94</ele>
        <time>2022-04-19T08:26:23.128Z</time>
      </trkpt>
      <trkpt lat="48.37334" lon="2.79348">
        <ele>94</ele>
        <time>2022-04-19T08:26:28.122Z</time>
      </trkpt>
      <trkpt lat="48.37338" lon="2.79357">
        <ele>94</ele>
        <time>2022-04-19T08:26:33.122Z</time>
      </trkpt>
      <trkpt lat="48.37344" lon="2.79365">
        <ele>94</ele>
        <time>2022-04-19T08:26:38.114Z</time>
      </trkpt>
      <trkpt lat="48.37349" lon="2.79374">
        <ele>94</ele>
        <time>2022-04-19T08:26:43.123Z</time>
      </trkpt>
      <trkpt lat="48.37353" lon="2.79384">
        <ele>93</ele>
        <time>2022-04-19T08:26:48.114Z</time>
      </trkpt>
      <trkpt lat="48.37354" lon="2.79393">
        <ele>93</ele>
        <time>2022-04-19T08:26:52.145Z</time>
      </trkpt>
      <trkpt lat="48.37353" lon="2.79405">
        <ele>93</ele>
        <time>2022-04-19T08:26:57.114Z</time>
      </trkpt>
      <trkpt lat="48.37354" lon="2.79414">
        <ele>93</ele>
        <time>2022-04-19T08:27:01.126Z</time>
      </trkpt>
      <trkpt lat="48.37357" lon="2.79425">
        <ele>93</ele>
        <time>2022-04-19T08:27:06.121Z</time>
      </trkpt>
      <trkpt lat="48.37362" lon="2.79433">
        <ele>93</ele>
        <time>2022-04-19T08:27:11.121Z</time>
      </trkpt>
      <trkpt lat="48.37365" lon="2.79441">
        <ele>93</ele>
        <time>2022-04-19T08:27:15.122Z</time>
      </trkpt>
      <trkpt lat="48.37369" lon="2.7945">
        <ele>93</ele>
        <time>2022-04-19T08:27:20.120Z</time>
      </trkpt>
      <trkpt lat="48.37373" lon="2.79457">
        <ele>93</ele>
        <time>2022-04-19T08:27:24.128Z</time>
      </trkpt>
      <trkpt lat="48.37376" lon="2.79464">
        <ele>92</ele>
        <time>2022-04-19T08:27:28.139Z</time>
      </trkpt>
      <trkpt lat="48.3738" lon="2.79474">
        <ele>92</ele>
        <time>2022-04-19T08:27:33.117Z</time>
      </trkpt>
      <trkpt lat="48.37385" lon="2.79482">
        <ele>92</ele>
        <time>2022-04-19T08:27:38.127Z</time>
      </trkpt>
      <trkpt lat="48.37389" lon="2.79489">
        <ele>92</ele>
        <time>2022-04-19T08:27:42.122Z</time>
      </trkpt>
      <trkpt lat="48.37391" lon="2.79499">
        <ele>92</ele>
        <time>2022-04-19T08:27:47.116Z</time>
      </trkpt>
      <trkpt lat="48.37393" lon="2.79508">
        <ele>92</ele>
        <time>2022-04-19T08:27:51.124Z</time>
      </trkpt>
      <trkpt lat="48.37393" lon="2.79519">
        <ele>91</ele>
        <time>2022-04-19T08:27:56.125Z</time>
      </trkpt>
      <trkpt lat="48.37393" lon="2.7953">
        <ele>91</ele>
        <time>2022-04-19T08:28:01.119Z</time>
      </trkpt>
      <trkpt lat="48.37396" lon="2.79539">
        <ele>91</ele>
        <time>2022-04-19T08:28:05.131Z</time>
      </trkpt>
      <trkpt lat="48.37404" lon="2.79547">
        <ele>90</ele>
        <time>2022-04-19T08:28:43.123Z</time>
      </trkpt>
      <trkpt lat="48.37404" lon="2.79557">
        <ele>90</ele>
        <time>2022-04-19T08:28:48.113Z</time>
      </trkpt>
      <trkpt lat="48.37408" lon="2.79565">
        <ele>90</ele>
        <time>2022-04-19T08:28:52.122Z</time>
      </trkpt>
      <trkpt lat="48.37411" lon="2.79574">
        <ele>89</ele>
        <time>2022-04-19T08:28:57.127Z</time>
      </trkpt>
      <trkpt lat="48.37415" lon="2.79575">
        <ele>89</ele>
        <time>2022-04-19T08:29:01.134Z</time>
      </trkpt>
      <trkpt lat="48.37419" lon="2.79573">
        <ele>89</ele>
        <time>2022-04-19T08:29:19.117Z</time>
      </trkpt>
      <trkpt lat="48.3742" lon="2.79573">
        <ele>89</ele>
        <time>2022-04-19T08:29:23.117Z</time>
      </trkpt>
      <trkpt lat="48.3742" lon="2.79573">
        <ele>89</ele>
        <time>2022-04-19T08:29:28.123Z</time>
      </trkpt>
      <trkpt lat="48.3742" lon="2.79573">
        <ele>89</ele>
        <time>2022-04-19T08:29:33.120Z</time>
      </trkpt>
      <trkpt lat="48.37424" lon="2.79569">
        <ele>90</ele>
        <time>2022-04-19T08:29:38.123Z</time>
      </trkpt>
      <trkpt lat="48.37429" lon="2.79563">
        <ele>90</ele>
        <time>2022-04-19T08:29:42.115Z</time>
      </trkpt>
      <trkpt lat="48.37434" lon="2.79555">
        <ele>89</ele>
        <time>2022-04-19T08:29:47.113Z</time>
      </trkpt>
      <trkpt lat="48.3744" lon="2.79548">
        <ele>89</ele>
        <time>2022-04-19T08:29:52.125Z</time>
      </trkpt>
      <trkpt lat="48.37443" lon="2.79542">
        <ele>89</ele>
        <time>2022-04-19T08:29:56.123Z</time>
      </trkpt>
      <trkpt lat="48.3745" lon="2.79526">
        <ele>90</ele>
        <time>2022-04-19T08:30:19.130Z</time>
      </trkpt>
      <trkpt lat="48.37456" lon="2.79532">
        <ele>90</ele>
        <time>2022-04-19T08:30:24.125Z</time>
      </trkpt>
      <trkpt lat="48.37461" lon="2.79538">
        <ele>89</ele>
        <time>2022-04-19T08:30:29.125Z</time>
      </trkpt>
      <trkpt lat="48.37465" lon="2.79543">
        <ele>89</ele>
        <time>2022-04-19T08:30:33.127Z</time>
      </trkpt>
      <trkpt lat="48.3747" lon="2.7955">
        <ele>89</ele>
        <time>2022-04-19T08:30:38.133Z</time>
      </trkpt>
      <trkpt lat="48.37474" lon="2.79557">
        <ele>89</ele>
        <time>2022-04-19T08:30:43.123Z</time>
      </trkpt>
      <trkpt lat="48.37479" lon="2.79563">
        <ele>89</ele>
        <time>2022-04-19T08:30:48.125Z</time>
      </trkpt>
      <trkpt lat="48.37484" lon="2.79571">
        <ele>89</ele>
        <time>2022-04-19T08:30:53.125Z</time>
      </trkpt>
      <trkpt lat="48.37488" lon="2.79576">
        <ele>89</ele>
        <time>2022-04-19T08:30:57.131Z</time>
      </trkpt>
      <trkpt lat="48.37492" lon="2.79582">
        <ele>89</ele>
        <time>2022-04-19T08:31:01.129Z</time>
      </trkpt>
      <trkpt lat="48.37498" lon="2.7959">
        <ele>89</ele>
        <time>2022-04-19T08:31:06.129Z</time>
      </trkpt>
      <trkpt lat="48.37504" lon="2.79597">
        <ele>89</ele>
        <time>2022-04-19T08:31:11.124Z</time>
      </trkpt>
      <trkpt lat="48.37509" lon="2.796">
        <ele>89</ele>
        <time>2022-04-19T08:31:15.126Z</time>
      </trkpt>
      <trkpt lat="48.37513" lon="2.79593">
        <ele>89</ele>
        <time>2022-04-19T08:31:47.132Z</time>
      </trkpt>
      <trkpt lat="48.37516" lon="2.79589">
        <ele>90</ele>
        <time>2022-04-19T08:31:51.131Z</time>
      </trkpt>
      <trkpt lat="48.3752" lon="2.79582">
        <ele>90</ele>
        <time>2022-04-19T08:31:56.124Z</time>
      </trkpt>
      <trkpt lat="48.37523" lon="2.79577">
        <ele>90</ele>
        <time>2022-04-19T08:32:00.127Z</time>
      </trkpt>
      <trkpt lat="48.37528" lon="2.79571">
        <ele>90</ele>
        <time>2022-04-19T08:32:05.128Z</time>
      </trkpt>
      <trkpt lat="48.37534" lon="2.79564">
        <ele>90</ele>
        <time>2022-04-19T08:32:10.124Z</time>
      </trkpt>
      <trkpt lat="48.37539" lon="2.79556">
        <ele>90</ele>
        <time>2022-04-19T08:32:15.131Z</time>
      </trkpt>
      <trkpt lat="48.37544" lon="2.79549">
        <ele>91</ele>
        <time>2022-04-19T08:32:20.128Z</time>
      </trkpt>
      <trkpt lat="48.37549" lon="2.79541">
        <ele>92</ele>
        <time>2022-04-19T08:32:25.119Z</time>
      </trkpt>
      <trkpt lat="48.37553" lon="2.79533">
        <ele>92</ele>
        <time>2022-04-19T08:32:30.117Z</time>
      </trkpt>
      <trkpt lat="48.37557" lon="2.79528">
        <ele>92</ele>
        <time>2022-04-19T08:32:34.130Z</time>
      </trkpt>
      <trkpt lat="48.37561" lon="2.7952">
        <ele>92</ele>
        <time>2022-04-19T08:32:39.123Z</time>
      </trkpt>
      <trkpt lat="48.37564" lon="2.79514">
        <ele>91</ele>
        <time>2022-04-19T08:32:43.123Z</time>
      </trkpt>
      <trkpt lat="48.37569" lon="2.79506">
        <ele>91</ele>
        <time>2022-04-19T08:32:48.115Z</time>
      </trkpt>
      <trkpt lat="48.37574" lon="2.795">
        <ele>91</ele>
        <time>2022-04-19T08:32:53.125Z</time>
      </trkpt>
      <trkpt lat="48.37578" lon="2.79492">
        <ele>91</ele>
        <time>2022-04-19T08:32:58.113Z</time>
      </trkpt>
      <trkpt lat="48.37582" lon="2.79492">
        <ele>91</ele>
        <time>2022-04-19T08:33:02.119Z</time>
      </trkpt>
      <trkpt lat="48.37586" lon="2.79497">
        <ele>91</ele>
        <time>2022-04-19T08:33:07.122Z</time>
      </trkpt>
      <trkpt lat="48.3759" lon="2.79502">
        <ele>91</ele>
        <time>2022-04-19T08:33:11.122Z</time>
      </trkpt>
      <trkpt lat="48.37594" lon="2.79508">
        <ele>91</ele>
        <time>2022-04-19T08:33:16.127Z</time>
      </trkpt>
      <trkpt lat="48.37599" lon="2.79514">
        <ele>90</ele>
        <time>2022-04-19T08:33:21.116Z</time>
      </trkpt>
      <trkpt lat="48.37604" lon="2.79519">
        <ele>90</ele>
        <time>2022-04-19T08:33:26.117Z</time>
      </trkpt>
      <trkpt lat="48.37607" lon="2.79524">
        <ele>90</ele>
        <time>2022-04-19T08:33:30.126Z</time>
      </trkpt>
      <trkpt lat="48.37613" lon="2.79529">
        <ele>90</ele>
        <time>2022-04-19T08:33:35.122Z</time>
      </trkpt>
      <trkpt lat="48.37619" lon="2.79533">
        <ele>90</ele>
        <time>2022-04-19T08:33:40.121Z</time>
      </trkpt>
      <trkpt lat="48.37624" lon="2.7954">
        <ele>90</ele>
        <time>2022-04-19T08:33:45.122Z</time>
      </trkpt>
      <trkpt lat="48.37628" lon="2.79545">
        <ele>89</ele>
        <time>2022-04-19T08:33:49.119Z</time>
      </trkpt>
      <trkpt lat="48.37633" lon="2.79552">
        <ele>89</ele>
        <time>2022-04-19T08:33:54.122Z</time>
      </trkpt>
      <trkpt lat="48.37638" lon="2.79557">
        <ele>89</ele>
        <time>2022-04-19T08:33:58.126Z</time>
      </trkpt>
      <trkpt lat="48.37645" lon="2.79563">
        <ele>89</ele>
        <time>2022-04-19T08:34:03.125Z</time>
      </trkpt>
      <trkpt lat="48.37649" lon="2.79567">
        <ele>89</ele>
        <time>2022-04-19T08:34:07.128Z</time>
      </trkpt>
      <trkpt lat="48.37655" lon="2.79572">
        <ele>86</ele>
        <time>2022-04-19T08:34:12.124Z</time>
      </trkpt>
      <trkpt lat="48.3766" lon="2.79577">
        <ele>86</ele>
        <time>2022-04-19T08:34:16.139Z</time>
      </trkpt>
      <trkpt lat="48.37666" lon="2.79582">
        <ele>86</ele>
        <time>2022-04-19T08:34:21.121Z</time>
      </trkpt>
      <trkpt lat="48.3767" lon="2.79586">
        <ele>86</ele>
        <time>2022-04-19T08:34:26.121Z</time>
      </trkpt>
      <trkpt lat="48.37675" lon="2.79591">
        <ele>86</ele>
        <time>2022-04-19T08:34:30.129Z</time>
      </trkpt>
      <trkpt lat="48.37682" lon="2.79597">
        <ele>84</ele>
        <time>2022-04-19T08:34:35.125Z</time>
      </trkpt>
      <trkpt lat="48.37688" lon="2.79598">
        <ele>83</ele>
        <time>2022-04-19T08:34:39.124Z</time>
      </trkpt>
      <trkpt lat="48.37695" lon="2.796">
        <ele>83</ele>
        <time>2022-04-19T08:34:44.124Z</time>
      </trkpt>
      <trkpt lat="48.37701" lon="2.79603">
        <ele>83</ele>
        <time>2022-04-19T08:34:48.124Z</time>
      </trkpt>
      <trkpt lat="48.37707" lon="2.79607">
        <ele>83</ele>
        <time>2022-04-19T08:34:53.128Z</time>
      </trkpt>
      <trkpt lat="48.37707" lon="2.79618">
        <ele>83</ele>
        <time>2022-04-19T08:34:58.121Z</time>
      </trkpt>
      <trkpt lat="48.37706" lon="2.79627">
        <ele>83</ele>
        <time>2022-04-19T08:35:03.121Z</time>
      </trkpt>
      <trkpt lat="48.37706" lon="2.79636">
        <ele>83</ele>
        <time>2022-04-19T08:35:07.126Z</time>
      </trkpt>
      <trkpt lat="48.37705" lon="2.79646">
        <ele>83</ele>
        <time>2022-04-19T08:35:12.120Z</time>
      </trkpt>
      <trkpt lat="48.37705" lon="2.79655">
        <ele>83</ele>
        <time>2022-04-19T08:35:17.122Z</time>
      </trkpt>
      <trkpt lat="48.37707" lon="2.79657">
        <ele>83</ele>
        <time>2022-04-19T08:35:21.125Z</time>
      </trkpt>
      <trkpt lat="48.37706" lon="2.79661">
        <ele>83</ele>
        <time>2022-04-19T08:35:26.122Z</time>
      </trkpt>
      <trkpt lat="48.37705" lon="2.79669">
        <ele>83</ele>
        <time>2022-04-19T08:35:30.123Z</time>
      </trkpt>
      <trkpt lat="48.37705" lon="2.79679">
        <ele>83</ele>
        <time>2022-04-19T08:35:35.118Z</time>
      </trkpt>
      <trkpt lat="48.37705" lon="2.79687">
        <ele>83</ele>
        <time>2022-04-19T08:35:39.127Z</time>
      </trkpt>
      <trkpt lat="48.37706" lon="2.79696">
        <ele>83</ele>
        <time>2022-04-19T08:35:43.124Z</time>
      </trkpt>
      <trkpt lat="48.37704" lon="2.79706">
        <ele>83</ele>
        <time>2022-04-19T08:35:48.126Z</time>
      </trkpt>
      <trkpt lat="48.37707" lon="2.79712">
        <ele>82</ele>
        <time>2022-04-19T08:35:53.130Z</time>
      </trkpt>
      <trkpt lat="48.37711" lon="2.79702">
        <ele>82</ele>
        <time>2022-04-19T08:35:58.119Z</time>
      </trkpt>
      <trkpt lat="48.37713" lon="2.79693">
        <ele>82</ele>
        <time>2022-04-19T08:36:02.127Z</time>
      </trkpt>
      <trkpt lat="48.37717" lon="2.79683">
        <ele>82</ele>
        <time>2022-04-19T08:36:07.123Z</time>
      </trkpt>
      <trkpt lat="48.3772" lon="2.79676">
        <ele>83</ele>
        <time>2022-04-19T08:36:11.125Z</time>
      </trkpt>
      <trkpt lat="48.37725" lon="2.7967">
        <ele>83</ele>
        <time>2022-04-19T08:36:16.125Z</time>
      </trkpt>
      <trkpt lat="48.3773" lon="2.79669">
        <ele>83</ele>
        <time>2022-04-19T08:36:21.120Z</time>
      </trkpt>
      <trkpt lat="48.37734" lon="2.79672">
        <ele>83</ele>
        <time>2022-04-19T08:36:25.128Z</time>
      </trkpt>
      <trkpt lat="48.3774" lon="2.79675">
        <ele>83</ele>
        <time>2022-04-19T08:36:30.117Z</time>
      </trkpt>
      <trkpt lat="48.37745" lon="2.79678">
        <ele>83</ele>
        <time>2022-04-19T08:36:34.123Z</time>
      </trkpt>
      <trkpt lat="48.37752" lon="2.79681">
        <ele>81</ele>
        <time>2022-04-19T08:36:39.118Z</time>
      </trkpt>
      <trkpt lat="48.37757" lon="2.79685">
        <ele>81</ele>
        <time>2022-04-19T08:36:43.128Z</time>
      </trkpt>
      <trkpt lat="48.37764" lon="2.79688">
        <ele>81</ele>
        <time>2022-04-19T08:36:48.125Z</time>
      </trkpt>
      <trkpt lat="48.3777" lon="2.79691">
        <ele>79</ele>
        <time>2022-04-19T08:36:52.124Z</time>
      </trkpt>
      <trkpt lat="48.37776" lon="2.79694">
        <ele>79</ele>
        <time>2022-04-19T08:36:57.116Z</time>
      </trkpt>
      <trkpt lat="48.37783" lon="2.79698">
        <ele>79</ele>
        <time>2022-04-19T08:37:02.116Z</time>
      </trkpt>
      <trkpt lat="48.37788" lon="2.79701">
        <ele>79</ele>
        <time>2022-04-19T08:37:06.123Z</time>
      </trkpt>
      <trkpt lat="48.37789" lon="2.7971">
        <ele>77</ele>
        <time>2022-04-19T08:37:11.123Z</time>
      </trkpt>
      <trkpt lat="48.37789" lon="2.79718">
        <ele>77</ele>
        <time>2022-04-19T08:37:15.123Z</time>
      </trkpt>
      <trkpt lat="48.37788" lon="2.79729">
        <ele>77</ele>
        <time>2022-04-19T08:37:20.128Z</time>
      </trkpt>
      <trkpt lat="48.37787" lon="2.79737">
        <ele>76</ele>
        <time>2022-04-19T08:37:24.129Z</time>
      </trkpt>
      <trkpt lat="48.37787" lon="2.79749">
        <ele>76</ele>
        <time>2022-04-19T08:37:29.129Z</time>
      </trkpt>
      <trkpt lat="48.37791" lon="2.79755">
        <ele>76</ele>
        <time>2022-04-19T08:37:33.130Z</time>
      </trkpt>
      <trkpt lat="48.37797" lon="2.79761">
        <ele>75</ele>
        <time>2022-04-19T08:37:38.122Z</time>
      </trkpt>
      <trkpt lat="48.37803" lon="2.79767">
        <ele>73</ele>
        <time>2022-04-19T08:37:43.118Z</time>
      </trkpt>
      <trkpt lat="48.37807" lon="2.79772">
        <ele>73</ele>
        <time>2022-04-19T08:37:47.129Z</time>
      </trkpt>
      <trkpt lat="48.37811" lon="2.79782">
        <ele>73</ele>
        <time>2022-04-19T08:37:52.130Z</time>
      </trkpt>
      <trkpt lat="48.37815" lon="2.79789">
        <ele>73</ele>
        <time>2022-04-19T08:37:57.147Z</time>
      </trkpt>
      <trkpt lat="48.37819" lon="2.79792">
        <ele>73</ele>
        <time>2022-04-19T08:38:02.130Z</time>
      </trkpt>
      <trkpt lat="48.37825" lon="2.79796">
        <ele>69</ele>
        <time>2022-04-19T08:38:07.130Z</time>
      </trkpt>
      <trkpt lat="48.37829" lon="2.798">
        <ele>69</ele>
        <time>2022-04-19T08:38:12.125Z</time>
      </trkpt>
      <trkpt lat="48.37834" lon="2.79808">
        <ele>69</ele>
        <time>2022-04-19T08:38:17.127Z</time>
      </trkpt>
      <trkpt lat="48.37836" lon="2.79811">
        <ele>69</ele>
        <time>2022-04-19T08:38:22.123Z</time>
      </trkpt>
      <trkpt lat="48.3784" lon="2.79818">
        <ele>69</ele>
        <time>2022-04-19T08:38:27.121Z</time>
      </trkpt>
      <trkpt lat="48.37844" lon="2.79824">
        <ele>68</ele>
        <time>2022-04-19T08:38:31.119Z</time>
      </trkpt>
      <trkpt lat="48.37842" lon="2.79833">
        <ele>68</ele>
        <time>2022-04-19T08:38:36.121Z</time>
      </trkpt>
      <trkpt lat="48.37837" lon="2.79836">
        <ele>68</ele>
        <time>2022-04-19T08:38:41.121Z</time>
      </trkpt>
      <trkpt lat="48.37832" lon="2.7984">
        <ele>68</ele>
        <time>2022-04-19T08:38:45.123Z</time>
      </trkpt>
      <trkpt lat="48.37831" lon="2.79851">
        <ele>68</ele>
        <time>2022-04-19T08:38:50.121Z</time>
      </trkpt>
      <trkpt lat="48.37834" lon="2.79858">
        <ele>68</ele>
        <time>2022-04-19T08:38:54.124Z</time>
      </trkpt>
      <trkpt lat="48.37836" lon="2.79868">
        <ele>68</ele>
        <time>2022-04-19T08:38:59.126Z</time>
      </trkpt>
      <trkpt lat="48.37839" lon="2.79877">
        <ele>69</ele>
        <time>2022-04-19T08:39:04.125Z</time>
      </trkpt>
      <trkpt lat="48.37842" lon="2.79886">
        <ele>69</ele>
        <time>2022-04-19T08:39:09.113Z</time>
      </trkpt>
      <trkpt lat="48.37845" lon="2.79893">
        <ele>69</ele>
        <time>2022-04-19T08:39:13.123Z</time>
      </trkpt>
      <trkpt lat="48.37847" lon="2.79903">
        <ele>69</ele>
        <time>2022-04-19T08:39:18.123Z</time>
      </trkpt>
      <trkpt lat="48.3785" lon="2.7991">
        <ele>69</ele>
        <time>2022-04-19T08:39:22.127Z</time>
      </trkpt>
      <trkpt lat="48.37856" lon="2.79915">
        <ele>69</ele>
        <time>2022-04-19T08:39:27.122Z</time>
      </trkpt>
      <trkpt lat="48.3786" lon="2.79918">
        <ele>69</ele>
        <time>2022-04-19T08:39:31.117Z</time>
      </trkpt>
      <trkpt lat="48.3786" lon="2.79929">
        <ele>69</ele>
        <time>2022-04-19T08:39:50.121Z</time>
      </trkpt>
      <trkpt lat="48.37861" lon="2.7992">
        <ele>69</ele>
        <time>2022-04-19T08:39:54.126Z</time>
      </trkpt>
      <trkpt lat="48.37866" lon="2.79911">
        <ele>69</ele>
        <time>2022-04-19T08:39:59.126Z</time>
      </trkpt>
      <trkpt lat="48.37871" lon="2.79904">
        <ele>69</ele>
        <time>2022-04-19T08:40:04.132Z</time>
      </trkpt>
      <trkpt lat="48.37877" lon="2.79906">
        <ele>69</ele>
        <time>2022-04-19T08:40:09.131Z</time>
      </trkpt>
      <trkpt lat="48.37881" lon="2.79904">
        <ele>69</ele>
        <time>2022-04-19T08:40:14.118Z</time>
      </trkpt>
      <trkpt lat="48.37886" lon="2.79908">
        <ele>69</ele>
        <time>2022-04-19T08:40:19.123Z</time>
      </trkpt>
      <trkpt lat="48.37891" lon="2.79914">
        <ele>69</ele>
        <time>2022-04-19T08:40:24.116Z</time>
      </trkpt>
      <trkpt lat="48.37895" lon="2.79919">
        <ele>69</ele>
        <time>2022-04-19T08:40:28.118Z</time>
      </trkpt>
      <trkpt lat="48.37899" lon="2.79926">
        <ele>69</ele>
        <time>2022-04-19T08:40:33.125Z</time>
      </trkpt>
      <trkpt lat="48.37903" lon="2.79931">
        <ele>65</ele>
        <time>2022-04-19T08:40:37.128Z</time>
      </trkpt>
      <trkpt lat="48.37909" lon="2.79938">
        <ele>65</ele>
        <time>2022-04-19T08:40:42.121Z</time>
      </trkpt>
      <trkpt lat="48.37914" lon="2.79945">
        <ele>65</ele>
        <time>2022-04-19T08:40:47.124Z</time>
      </trkpt>
      <trkpt lat="48.37916" lon="2.79956">
        <ele>65</ele>
        <time>2022-04-19T08:40:52.121Z</time>
      </trkpt>
      <trkpt lat="48.37917" lon="2.79966">
        <ele>62</ele>
        <time>2022-04-19T08:40:56.125Z</time>
      </trkpt>
      <trkpt lat="48.37922" lon="2.79974">
        <ele>62</ele>
        <time>2022-04-19T08:41:01.126Z</time>
      </trkpt>
      <trkpt lat="48.37927" lon="2.79979">
        <ele>62</ele>
        <time>2022-04-19T08:41:05.118Z</time>
      </trkpt>
      <trkpt lat="48.37933" lon="2.79987">
        <ele>54</ele>
        <time>2022-04-19T08:41:10.123Z</time>
      </trkpt>
      <trkpt lat="48.37937" lon="2.79995">
        <ele>54</ele>
        <time>2022-04-19T08:41:15.125Z</time>
      </trkpt>
      <trkpt lat="48.37941" lon="2.80002">
        <ele>54</ele>
        <time>2022-04-19T08:41:19.129Z</time>
      </trkpt>
      <trkpt lat="48.37941" lon="2.80012">
        <ele>54</ele>
        <time>2022-04-19T08:41:24.133Z</time>
      </trkpt>
      <trkpt lat="48.37938" lon="2.80023">
        <ele>53</ele>
        <time>2022-04-19T08:41:29.116Z</time>
      </trkpt>
      <trkpt lat="48.37934" lon="2.8003">
        <ele>53</ele>
        <time>2022-04-19T08:41:33.125Z</time>
      </trkpt>
      <trkpt lat="48.37929" lon="2.80038">
        <ele>54</ele>
        <time>2022-04-19T08:41:38.126Z</time>
      </trkpt>
      <trkpt lat="48.37925" lon="2.80044">
        <ele>54</ele>
        <time>2022-04-19T08:41:42.128Z</time>
      </trkpt>
      <trkpt lat="48.37919" lon="2.80052">
        <ele>54</ele>
        <time>2022-04-19T08:41:47.111Z</time>
      </trkpt>
      <trkpt lat="48.37914" lon="2.80058">
        <ele>54</ele>
        <time>2022-04-19T08:41:51.126Z</time>
      </trkpt>
      <trkpt lat="48.37907" lon="2.80065">
        <ele>54</ele>
        <time>2022-04-19T08:41:56.125Z</time>
      </trkpt>
      <trkpt lat="48.37902" lon="2.80073">
        <ele>57</ele>
        <time>2022-04-19T08:42:01.121Z</time>
      </trkpt>
      <trkpt lat="48.37897" lon="2.8008">
        <ele>57</ele>
        <time>2022-04-19T08:42:06.117Z</time>
      </trkpt>
      <trkpt lat="48.37891" lon="2.80088">
        <ele>57</ele>
        <time>2022-04-19T08:42:11.125Z</time>
      </trkpt>
      <trkpt lat="48.37886" lon="2.80097">
        <ele>57</ele>
        <time>2022-04-19T08:42:16.131Z</time>
      </trkpt>
      <trkpt lat="48.37882" lon="2.80104">
        <ele>56</ele>
        <time>2022-04-19T08:42:20.126Z</time>
      </trkpt>
      <trkpt lat="48.37876" lon="2.80113">
        <ele>56</ele>
        <time>2022-04-19T08:42:25.125Z</time>
      </trkpt>
      <trkpt lat="48.3787" lon="2.80121">
        <ele>62</ele>
        <time>2022-04-19T08:42:30.129Z</time>
      </trkpt>
      <trkpt lat="48.37865" lon="2.8013">
        <ele>58</ele>
        <time>2022-04-19T08:42:35.127Z</time>
      </trkpt>
      <trkpt lat="48.37861" lon="2.8014">
        <ele>58</ele>
        <time>2022-04-19T08:42:40.115Z</time>
      </trkpt>
      <trkpt lat="48.37858" lon="2.80149">
        <ele>58</ele>
        <time>2022-04-19T08:42:44.122Z</time>
      </trkpt>
      <trkpt lat="48.37856" lon="2.80161">
        <ele>56</ele>
        <time>2022-04-19T08:42:49.128Z</time>
      </trkpt>
      <trkpt lat="48.37855" lon="2.80173">
        <ele>56</ele>
        <time>2022-04-19T08:42:54.134Z</time>
      </trkpt>
      <trkpt lat="48.37855" lon="2.80184">
        <ele>55</ele>
        <time>2022-04-19T08:42:59.123Z</time>
      </trkpt>
      <trkpt lat="48.37854" lon="2.80193">
        <ele>55</ele>
        <time>2022-04-19T08:43:03.137Z</time>
      </trkpt>
      <trkpt lat="48.37854" lon="2.80205">
        <ele>55</ele>
        <time>2022-04-19T08:43:08.128Z</time>
      </trkpt>
      <trkpt lat="48.37854" lon="2.80217">
        <ele>55</ele>
        <time>2022-04-19T08:43:13.123Z</time>
      </trkpt>
      <trkpt lat="48.37854" lon="2.80225">
        <ele>55</ele>
        <time>2022-04-19T08:43:17.145Z</time>
      </trkpt>
      <trkpt lat="48.37855" lon="2.80236">
        <ele>54</ele>
        <time>2022-04-19T08:43:22.120Z</time>
      </trkpt>
      <trkpt lat="48.37855" lon="2.80245">
        <ele>54</ele>
        <time>2022-04-19T08:43:26.127Z</time>
      </trkpt>
      <trkpt lat="48.37856" lon="2.80256">
        <ele>54</ele>
        <time>2022-04-19T08:43:31.121Z</time>
      </trkpt>
      <trkpt lat="48.37856" lon="2.80265">
        <ele>54</ele>
        <time>2022-04-19T08:43:35.125Z</time>
      </trkpt>
      <trkpt lat="48.37857" lon="2.80277">
        <ele>54</ele>
        <time>2022-04-19T08:43:40.123Z</time>
      </trkpt>
      <trkpt lat="48.37855" lon="2.80288">
        <ele>54</ele>
        <time>2022-04-19T08:43:44.125Z</time>
      </trkpt>
      <trkpt lat="48.37854" lon="2.80299">
        <ele>53</ele>
        <time>2022-04-19T08:43:49.121Z</time>
      </trkpt>
      <trkpt lat="48.37856" lon="2.80311">
        <ele>53</ele>
        <time>2022-04-19T08:43:54.127Z</time>
      </trkpt>
      <trkpt lat="48.37856" lon="2.80322">
        <ele>52</ele>
        <time>2022-04-19T08:43:59.128Z</time>
      </trkpt>
      <trkpt lat="48.37855" lon="2.80331">
        <ele>52</ele>
        <time>2022-04-19T08:44:04.124Z</time>
      </trkpt>
      <trkpt lat="48.37856" lon="2.8034">
        <ele>52</ele>
        <time>2022-04-19T08:44:08.125Z</time>
      </trkpt>
      <trkpt lat="48.37857" lon="2.8035">
        <ele>50</ele>
        <time>2022-04-19T08:44:12.132Z</time>
      </trkpt>
      <trkpt lat="48.37856" lon="2.80358">
        <ele>50</ele>
        <time>2022-04-19T08:44:16.135Z</time>
      </trkpt>
      <trkpt lat="48.37856" lon="2.80369">
        <ele>50</ele>
        <time>2022-04-19T08:44:21.122Z</time>
      </trkpt>
      <trkpt lat="48.37856" lon="2.80378">
        <ele>50</ele>
        <time>2022-04-19T08:44:25.141Z</time>
      </trkpt>
      <trkpt lat="48.37857" lon="2.8039">
        <ele>50</ele>
        <time>2022-04-19T08:44:30.129Z</time>
      </trkpt>
      <trkpt lat="48.37857" lon="2.80401">
        <ele>50</ele>
        <time>2022-04-19T08:44:35.124Z</time>
      </trkpt>
      <trkpt lat="48.37857" lon="2.80412">
        <ele>50</ele>
        <time>2022-04-19T08:44:40.123Z</time>
      </trkpt>
      <trkpt lat="48.37858" lon="2.80422">
        <ele>50</ele>
        <time>2022-04-19T08:44:44.125Z</time>
      </trkpt>
      <trkpt lat="48.37859" lon="2.80433">
        <ele>50</ele>
        <time>2022-04-19T08:44:49.126Z</time>
      </trkpt>
      <trkpt lat="48.37861" lon="2.80444">
        <ele>50</ele>
        <time>2022-04-19T08:44:54.126Z</time>
      </trkpt>
      <trkpt lat="48.37862" lon="2.80456">
        <ele>50</ele>
        <time>2022-04-19T08:44:59.132Z</time>
      </trkpt>
      <trkpt lat="48.37863" lon="2.80465">
        <ele>49</ele>
        <time>2022-04-19T08:45:03.132Z</time>
      </trkpt>
      <trkpt lat="48.37863" lon="2.80474">
        <ele>49</ele>
        <time>2022-04-19T08:45:07.131Z</time>
      </trkpt>
      <trkpt lat="48.37864" lon="2.80485">
        <ele>49</ele>
        <time>2022-04-19T08:45:12.122Z</time>
      </trkpt>
      <trkpt lat="48.37865" lon="2.80496">
        <ele>50</ele>
        <time>2022-04-19T08:45:17.121Z</time>
      </trkpt>
      <trkpt lat="48.37866" lon="2.80506">
        <ele>50</ele>
        <time>2022-04-19T08:45:22.122Z</time>
      </trkpt>
      <trkpt lat="48.37867" lon="2.80518">
        <ele>50</ele>
        <time>2022-04-19T08:45:27.125Z</time>
      </trkpt>
      <trkpt lat="48.37868" lon="2.8053">
        <ele>50</ele>
        <time>2022-04-19T08:45:32.130Z</time>
      </trkpt>
      <trkpt lat="48.37869" lon="2.80541">
        <ele>50</ele>
        <time>2022-04-19T08:45:37.119Z</time>
      </trkpt>
      <trkpt lat="48.3787" lon="2.80552">
        <ele>51</ele>
        <time>2022-04-19T08:45:42.121Z</time>
      </trkpt>
      <trkpt lat="48.3787" lon="2.80561">
        <ele>51</ele>
        <time>2022-04-19T08:45:46.129Z</time>
      </trkpt>
      <trkpt lat="48.37871" lon="2.80573">
        <ele>54</ele>
        <time>2022-04-19T08:45:51.119Z</time>
      </trkpt>
      <trkpt lat="48.37873" lon="2.80581">
        <ele>54</ele>
        <time>2022-04-19T08:45:55.125Z</time>
      </trkpt>
      <trkpt lat="48.37874" lon="2.80592">
        <ele>54</ele>
        <time>2022-04-19T08:46:00.126Z</time>
      </trkpt>
      <trkpt lat="48.37875" lon="2.80601">
        <ele>56</ele>
        <time>2022-04-19T08:46:04.132Z</time>
      </trkpt>
      <trkpt lat="48.37877" lon="2.80613">
        <ele>48</ele>
        <time>2022-04-19T08:46:09.129Z</time>
      </trkpt>
      <trkpt lat="48.37879" lon="2.80626">
        <ele>51</ele>
        <time>2022-04-19T08:46:14.124Z</time>
      </trkpt>
      <trkpt lat="48.3788" lon="2.80634">
        <ele>51</ele>
        <time>2022-04-19T08:46:18.118Z</time>
      </trkpt>
      <trkpt lat="48.37874" lon="2.80636">
        <ele>56</ele>
        <time>2022-04-19T08:46:23.123Z</time>
      </trkpt>
      <trkpt lat="48.37875" lon="2.80644">
        <ele>51</ele>
        <time>2022-04-19T08:46:27.126Z</time>
      </trkpt>
      <trkpt lat="48.37876" lon="2.80652">
        <ele>51</ele>
        <time>2022-04-19T08:46:31.121Z</time>
      </trkpt>
      <trkpt lat="48.37879" lon="2.80665">
        <ele>53</ele>
        <time>2022-04-19T08:46:36.122Z</time>
      </trkpt>
      <trkpt lat="48.3788" lon="2.80673">
        <ele>53</ele>
        <time>2022-04-19T08:46:40.126Z</time>
      </trkpt>
      <trkpt lat="48.37882" lon="2.80684">
        <ele>55</ele>
        <time>2022-04-19T08:46:45.123Z</time>
      </trkpt>
      <trkpt lat="48.37883" lon="2.80693">
        <ele>55</ele>
        <time>2022-04-19T08:46:49.123Z</time>
      </trkpt>
      <trkpt lat="48.37885" lon="2.80703">
        <ele>55</ele>
        <time>2022-04-19T08:46:54.124Z</time>
      </trkpt>
      <trkpt lat="48.37888" lon="2.80716">
        <ele>54</ele>
        <time>2022-04-19T08:46:59.123Z</time>
      </trkpt>
      <trkpt lat="48.3789" lon="2.80727">
        <ele>54</ele>
        <time>2022-04-19T08:47:04.126Z</time>
      </trkpt>
      <trkpt lat="48.37892" lon="2.80737">
        <ele>53</ele>
        <time>2022-04-19T08:47:09.120Z</time>
      </trkpt>
      <trkpt lat="48.37893" lon="2.80745">
        <ele>53</ele>
        <time>2022-04-19T08:47:13.127Z</time>
      </trkpt>
      <trkpt lat="48.37894" lon="2.80755">
        <ele>53</ele>
        <time>2022-04-19T08:47:18.119Z</time>
      </trkpt>
      <trkpt lat="48.37895" lon="2.80766">
        <ele>52</ele>
        <time>2022-04-19T08:47:23.118Z</time>
      </trkpt>
      <trkpt lat="48.37898" lon="2.80774">
        <ele>52</ele>
        <time>2022-04-19T08:47:27.118Z</time>
      </trkpt>
      <trkpt lat="48.37898" lon="2.80785">
        <ele>52</ele>
        <time>2022-04-19T08:47:32.125Z</time>
      </trkpt>
      <trkpt lat="48.37901" lon="2.80794">
        <ele>51</ele>
        <time>2022-04-19T08:47:37.124Z</time>
      </trkpt>
      <trkpt lat="48.37898" lon="2.80804">
        <ele>51</ele>
        <time>2022-04-19T08:47:42.114Z</time>
      </trkpt>
      <trkpt lat="48.37898" lon="2.80813">
        <ele>51</ele>
        <time>2022-04-19T08:47:46.130Z</time>
      </trkpt>
      <trkpt lat="48.37898" lon="2.80824">
        <ele>51</ele>
        <time>2022-04-19T08:47:51.117Z</time>
      </trkpt>
      <trkpt lat="48.37899" lon="2.80835">
        <ele>51</ele>
        <time>2022-04-19T08:47:56.129Z</time>
      </trkpt>
      <trkpt lat="48.37899" lon="2.80847">
        <ele>51</ele>
        <time>2022-04-19T08:48:01.124Z</time>
      </trkpt>
      <trkpt lat="48.37899" lon="2.80856">
        <ele>50</ele>
        <time>2022-04-19T08:48:05.125Z</time>
      </trkpt>
      <trkpt lat="48.37901" lon="2.80867">
        <ele>50</ele>
        <time>2022-04-19T08:48:10.122Z</time>
      </trkpt>
      <trkpt lat="48.37902" lon="2.80877">
        <ele>50</ele>
        <time>2022-04-19T08:48:15.122Z</time>
      </trkpt>
      <trkpt lat="48.37904" lon="2.80885">
        <ele>49</ele>
        <time>2022-04-19T08:48:19.124Z</time>
      </trkpt>
      <trkpt lat="48.37905" lon="2.80893">
        <ele>49</ele>
        <time>2022-04-19T08:48:23.139Z</time>
      </trkpt>
      <trkpt lat="48.37908" lon="2.80903">
        <ele>49</ele>
        <time>2022-04-19T08:48:28.117Z</time>
      </trkpt>
      <trkpt lat="48.37911" lon="2.80911">
        <ele>49</ele>
        <time>2022-04-19T08:48:32.124Z</time>
      </trkpt>
      <trkpt lat="48.37913" lon="2.80919">
        <ele>49</ele>
        <time>2022-04-19T08:48:36.140Z</time>
      </trkpt>
      <trkpt lat="48.37917" lon="2.80928">
        <ele>49</ele>
        <time>2022-04-19T08:48:41.125Z</time>
      </trkpt>
      <trkpt lat="48.37921" lon="2.80937">
        <ele>49</ele>
        <time>2022-04-19T08:48:46.117Z</time>
      </trkpt>
      <trkpt lat="48.37924" lon="2.80947">
        <ele>49</ele>
        <time>2022-04-19T08:48:51.115Z</time>
      </trkpt>
      <trkpt lat="48.37927" lon="2.80955">
        <ele>49</ele>
        <time>2022-04-19T08:48:55.115Z</time>
      </trkpt>
      <trkpt lat="48.3793" lon="2.80963">
        <ele>49</ele>
        <time>2022-04-19T08:48:59.118Z</time>
      </trkpt>
      <trkpt lat="48.37934" lon="2.80972">
        <ele>47</ele>
        <time>2022-04-19T08:49:04.118Z</time>
      </trkpt>
      <trkpt lat="48.37939" lon="2.80981">
        <ele>47</ele>
        <time>2022-04-19T08:49:09.116Z</time>
      </trkpt>
      <trkpt lat="48.37941" lon="2.80989">
        <ele>47</ele>
        <time>2022-04-19T08:49:13.123Z</time>
      </trkpt>
      <trkpt lat="48.37946" lon="2.81001">
        <ele>47</ele>
        <time>2022-04-19T08:49:18.136Z</time>
      </trkpt>
      <trkpt lat="48.37949" lon="2.81009">
        <ele>47</ele>
        <time>2022-04-19T08:49:23.124Z</time>
      </trkpt>
      <trkpt lat="48.37953" lon="2.81019">
        <ele>48</ele>
        <time>2022-04-19T08:49:28.130Z</time>
      </trkpt>
      <trkpt lat="48.37954" lon="2.81028">
        <ele>48</ele>
        <time>2022-04-19T08:49:33.119Z</time>
      </trkpt>
      <trkpt lat="48.37955" lon="2.81035">
        <ele>48</ele>
        <time>2022-04-19T08:49:37.128Z</time>
      </trkpt>
      <trkpt lat="48.37959" lon="2.81044">
        <ele>47</ele>
        <time>2022-04-19T08:49:42.123Z</time>
      </trkpt>
      <trkpt lat="48.37961" lon="2.81051">
        <ele>47</ele>
        <time>2022-04-19T08:49:46.133Z</time>
      </trkpt>
      <trkpt lat="48.37965" lon="2.81058">
        <ele>47</ele>
        <time>2022-04-19T08:49:51.121Z</time>
      </trkpt>
      <trkpt lat="48.37969" lon="2.81067">
        <ele>47</ele>
        <time>2022-04-19T08:49:56.137Z</time>
      </trkpt>
      <trkpt lat="48.37974" lon="2.81076">
        <ele>48</ele>
        <time>2022-04-19T08:50:01.131Z</time>
      </trkpt>
      <trkpt lat="48.37978" lon="2.81085">
        <ele>48</ele>
        <time>2022-04-19T08:50:06.118Z</time>
      </trkpt>
      <trkpt lat="48.37981" lon="2.81093">
        <ele>48</ele>
        <time>2022-04-19T08:50:10.118Z</time>
      </trkpt>
      <trkpt lat="48.37985" lon="2.81102">
        <ele>49</ele>
        <time>2022-04-19T08:50:15.119Z</time>
      </trkpt>
      <trkpt lat="48.3799" lon="2.81112">
        <ele>48</ele>
        <time>2022-04-19T08:50:20.121Z</time>
      </trkpt>
      <trkpt lat="48.37994" lon="2.81119">
        <ele>48</ele>
        <time>2022-04-19T08:50:24.124Z</time>
      </trkpt>
      <trkpt lat="48.37997" lon="2.81126">
        <ele>50</ele>
        <time>2022-04-19T08:50:28.126Z</time>
      </trkpt>
      <trkpt lat="48.38" lon="2.81134">
        <ele>50</ele>
        <time>2022-04-19T08:50:33.133Z</time>
      </trkpt>
      <trkpt lat="48.37998" lon="2.81136">
        <ele>50</ele>
        <time>2022-04-19T08:50:38.132Z</time>
      </trkpt>
      <trkpt lat="48.38001" lon="2.81141">
        <ele>50</ele>
        <time>2022-04-19T08:50:43.117Z</time>
      </trkpt>
      <trkpt lat="48.38006" lon="2.81149">
        <ele>50</ele>
        <time>2022-04-19T08:50:48.121Z</time>
      </trkpt>
      <trkpt lat="48.3801" lon="2.81156">
        <ele>52</ele>
        <time>2022-04-19T08:50:52.124Z</time>
      </trkpt>
      <trkpt lat="48.38014" lon="2.81163">
        <ele>50</ele>
        <time>2022-04-19T08:50:56.122Z</time>
      </trkpt>
      <trkpt lat="48.38019" lon="2.81171">
        <ele>50</ele>
        <time>2022-04-19T08:51:01.112Z</time>
      </trkpt>
      <trkpt lat="48.38023" lon="2.81177">
        <ele>50</ele>
        <time>2022-04-19T08:51:05.117Z</time>
      </trkpt>
      <trkpt lat="48.38028" lon="2.81184">
        <ele>51</ele>
        <time>2022-04-19T08:51:09.137Z</time>
      </trkpt>
      <trkpt lat="48.38032" lon="2.81189">
        <ele>51</ele>
        <time>2022-04-19T08:51:13.128Z</time>
      </trkpt>
      <trkpt lat="48.38034" lon="2.81198">
        <ele>51</ele>
        <time>2022-04-19T08:51:18.121Z</time>
      </trkpt>
      <trkpt lat="48.38033" lon="2.81209">
        <ele>52</ele>
        <time>2022-04-19T08:51:23.118Z</time>
      </trkpt>
      <trkpt lat="48.38029" lon="2.81216">
        <ele>52</ele>
        <time>2022-04-19T08:51:27.123Z</time>
      </trkpt>
      <trkpt lat="48.38027" lon="2.81223">
        <ele>52</ele>
        <time>2022-04-19T08:51:31.120Z</time>
      </trkpt>
      <trkpt lat="48.38023" lon="2.81233">
        <ele>52</ele>
        <time>2022-04-19T08:51:36.130Z</time>
      </trkpt>
      <trkpt lat="48.3802" lon="2.81244">
        <ele>53</ele>
        <time>2022-04-19T08:51:41.130Z</time>
      </trkpt>
      <trkpt lat="48.38016" lon="2.81254">
        <ele>53</ele>
        <time>2022-04-19T08:51:46.130Z</time>
      </trkpt>
      <trkpt lat="48.38013" lon="2.81265">
        <ele>50</ele>
        <time>2022-04-19T08:51:51.121Z</time>
      </trkpt>
      <trkpt lat="48.38011" lon="2.81272">
        <ele>50</ele>
        <time>2022-04-19T08:51:55.125Z</time>
      </trkpt>
      <trkpt lat="48.38007" lon="2.81281">
        <ele>50</ele>
        <time>2022-04-19T08:52:00.127Z</time>
      </trkpt>
      <trkpt lat="48.38002" lon="2.81292">
        <ele>50</ele>
        <time>2022-04-19T08:52:05.123Z</time>
      </trkpt>
      <trkpt lat="48.37999" lon="2.813">
        <ele>50</ele>
        <time>2022-04-19T08:52:09.130Z</time>
      </trkpt>
      <trkpt lat="48.37996" lon="2.81308">
        <ele>50</ele>
        <time>2022-04-19T08:52:13.128Z</time>
      </trkpt>
      <trkpt lat="48.37991" lon="2.81318">
        <ele>50</ele>
        <time>2022-04-19T08:52:18.126Z</time>
      </trkpt>
      <trkpt lat="48.37987" lon="2.81328">
        <ele>51</ele>
        <time>2022-04-19T08:52:23.131Z</time>
      </trkpt>
      <trkpt lat="48.37983" lon="2.81337">
        <ele>49</ele>
        <time>2022-04-19T08:52:28.129Z</time>
      </trkpt>
      <trkpt lat="48.37979" lon="2.81346">
        <ele>49</ele>
        <time>2022-04-19T08:52:33.130Z</time>
      </trkpt>
      <trkpt lat="48.37976" lon="2.81354">
        <ele>49</ele>
        <time>2022-04-19T08:52:37.135Z</time>
      </trkpt>
      <trkpt lat="48.37972" lon="2.81363">
        <ele>49</ele>
        <time>2022-04-19T08:52:42.126Z</time>
      </trkpt>
      <trkpt lat="48.37968" lon="2.81373">
        <ele>49</ele>
        <time>2022-04-19T08:52:47.124Z</time>
      </trkpt>
      <trkpt lat="48.37965" lon="2.8138">
        <ele>49</ele>
        <time>2022-04-19T08:52:51.127Z</time>
      </trkpt>
      <trkpt lat="48.37961" lon="2.8139">
        <ele>49</ele>
        <time>2022-04-19T08:52:56.123Z</time>
      </trkpt>
      <trkpt lat="48.37958" lon="2.81401">
        <ele>48</ele>
        <time>2022-04-19T08:53:01.123Z</time>
      </trkpt>
      <trkpt lat="48.37955" lon="2.81409">
        <ele>48</ele>
        <time>2022-04-19T08:53:05.130Z</time>
      </trkpt>
      <trkpt lat="48.37951" lon="2.81419">
        <ele>48</ele>
        <time>2022-04-19T08:53:10.123Z</time>
      </trkpt>
      <trkpt lat="48.37947" lon="2.81429">
        <ele>48</ele>
        <time>2022-04-19T08:53:15.120Z</time>
      </trkpt>
      <trkpt lat="48.37944" lon="2.81436">
        <ele>47</ele>
        <time>2022-04-19T08:53:19.129Z</time>
      </trkpt>
      <trkpt lat="48.3794" lon="2.81446">
        <ele>47</ele>
        <time>2022-04-19T08:53:24.127Z</time>
      </trkpt>
      <trkpt lat="48.37936" lon="2.81454">
        <ele>47</ele>
        <time>2022-04-19T08:53:29.114Z</time>
      </trkpt>
      <trkpt lat="48.37934" lon="2.8146">
        <ele>47</ele>
        <time>2022-04-19T08:53:33.146Z</time>
      </trkpt>
      <trkpt lat="48.3793" lon="2.8147">
        <ele>48</ele>
        <time>2022-04-19T08:53:38.124Z</time>
      </trkpt>
      <trkpt lat="48.37926" lon="2.81478">
        <ele>48</ele>
        <time>2022-04-19T08:53:43.122Z</time>
      </trkpt>
      <trkpt lat="48.37922" lon="2.81486">
        <ele>47</ele>
        <time>2022-04-19T08:53:48.128Z</time>
      </trkpt>
      <trkpt lat="48.37919" lon="2.81493">
        <ele>47</ele>
        <time>2022-04-19T08:53:52.128Z</time>
      </trkpt>
      <trkpt lat="48.37916" lon="2.815">
        <ele>47</ele>
        <time>2022-04-19T08:53:56.137Z</time>
      </trkpt>
      <trkpt lat="48.37912" lon="2.8151">
        <ele>47</ele>
        <time>2022-04-19T08:54:01.126Z</time>
      </trkpt>
      <trkpt lat="48.3791" lon="2.81517">
        <ele>47</ele>
        <time>2022-04-19T08:54:05.133Z</time>
      </trkpt>
      <trkpt lat="48.37907" lon="2.81524">
        <ele>47</ele>
        <time>2022-04-19T08:54:09.131Z</time>
      </trkpt>
      <trkpt lat="48.37903" lon="2.81533">
        <ele>49</ele>
        <time>2022-04-19T08:54:14.125Z</time>
      </trkpt>
      <trkpt lat="48.37899" lon="2.81541">
        <ele>49</ele>
        <time>2022-04-19T08:54:18.127Z</time>
      </trkpt>
      <trkpt lat="48.37895" lon="2.8155">
        <ele>49</ele>
        <time>2022-04-19T08:54:23.131Z</time>
      </trkpt>
      <trkpt lat="48.37892" lon="2.81558">
        <ele>49</ele>
        <time>2022-04-19T08:54:27.126Z</time>
      </trkpt>
      <trkpt lat="48.37889" lon="2.81565">
        <ele>49</ele>
        <time>2022-04-19T08:54:31.132Z</time>
      </trkpt>
      <trkpt lat="48.37887" lon="2.81573">
        <ele>49</ele>
        <time>2022-04-19T08:54:35.147Z</time>
      </trkpt>
      <trkpt lat="48.37883" lon="2.81583">
        <ele>49</ele>
        <time>2022-04-19T08:54:40.132Z</time>
      </trkpt>
      <trkpt lat="48.37879" lon="2.81592">
        <ele>49</ele>
        <time>2022-04-19T08:54:45.133Z</time>
      </trkpt>
      <trkpt lat="48.37876" lon="2.816">
        <ele>49</ele>
        <time>2022-04-19T08:54:50.126Z</time>
      </trkpt>
      <trkpt lat="48.37871" lon="2.81609">
        <ele>52</ele>
        <time>2022-04-19T08:54:55.122Z</time>
      </trkpt>
      <trkpt lat="48.37868" lon="2.81616">
        <ele>52</ele>
        <time>2022-04-19T08:54:59.131Z</time>
      </trkpt>
      <trkpt lat="48.37864" lon="2.81625">
        <ele>51</ele>
        <time>2022-04-19T08:55:04.123Z</time>
      </trkpt>
      <trkpt lat="48.3786" lon="2.81635">
        <ele>51</ele>
        <time>2022-04-19T08:55:09.134Z</time>
      </trkpt>
      <trkpt lat="48.37857" lon="2.81644">
        <ele>51</ele>
        <time>2022-04-19T08:55:14.118Z</time>
      </trkpt>
      <trkpt lat="48.37855" lon="2.81653">
        <ele>51</ele>
        <time>2022-04-19T08:55:18.127Z</time>
      </trkpt>
      <trkpt lat="48.37852" lon="2.81664">
        <ele>50</ele>
        <time>2022-04-19T08:55:23.124Z</time>
      </trkpt>
      <trkpt lat="48.37847" lon="2.8167">
        <ele>50</ele>
        <time>2022-04-19T08:55:27.129Z</time>
      </trkpt>
      <trkpt lat="48.37843" lon="2.81677">
        <ele>50</ele>
        <time>2022-04-19T08:55:31.128Z</time>
      </trkpt>
      <trkpt lat="48.37838" lon="2.81685">
        <ele>49</ele>
        <time>2022-04-19T08:55:36.129Z</time>
      </trkpt>
      <trkpt lat="48.37834" lon="2.81692">
        <ele>49</ele>
        <time>2022-04-19T08:55:40.131Z</time>
      </trkpt>
      <trkpt lat="48.37829" lon="2.817">
        <ele>49</ele>
        <time>2022-04-19T08:55:45.133Z</time>
      </trkpt>
      <trkpt lat="48.37825" lon="2.8171">
        <ele>47</ele>
        <time>2022-04-19T08:55:50.126Z</time>
      </trkpt>
      <trkpt lat="48.37821" lon="2.81718">
        <ele>47</ele>
        <time>2022-04-19T08:55:55.126Z</time>
      </trkpt>
      <trkpt lat="48.37815" lon="2.81725">
        <ele>48</ele>
        <time>2022-04-19T08:56:00.134Z</time>
      </trkpt>
      <trkpt lat="48.3781" lon="2.81733">
        <ele>48</ele>
        <time>2022-04-19T08:56:05.129Z</time>
      </trkpt>
      <trkpt lat="48.37804" lon="2.81741">
        <ele>48</ele>
        <time>2022-04-19T08:56:10.118Z</time>
      </trkpt>
      <trkpt lat="48.378" lon="2.81748">
        <ele>48</ele>
        <time>2022-04-19T08:56:14.133Z</time>
      </trkpt>
      <trkpt lat="48.37795" lon="2.81754">
        <ele>48</ele>
        <time>2022-04-19T08:56:19.124Z</time>
      </trkpt>
      <trkpt lat="48.3779" lon="2.81761">
        <ele>48</ele>
        <time>2022-04-19T08:56:24.130Z</time>
      </trkpt>
      <trkpt lat="48.37786" lon="2.81768">
        <ele>49</ele>
        <time>2022-04-19T08:56:29.117Z</time>
      </trkpt>
      <trkpt lat="48.37779" lon="2.81776">
        <ele>49</ele>
        <time>2022-04-19T08:56:34.117Z</time>
      </trkpt>
      <trkpt lat="48.37774" lon="2.81783">
        <ele>49</ele>
        <time>2022-04-19T08:56:39.117Z</time>
      </trkpt>
      <trkpt lat="48.37769" lon="2.81788">
        <ele>49</ele>
        <time>2022-04-19T08:56:43.112Z</time>
      </trkpt>
      <trkpt lat="48.37764" lon="2.81794">
        <ele>53</ele>
        <time>2022-04-19T08:56:48.120Z</time>
      </trkpt>
      <trkpt lat="48.37759" lon="2.81799">
        <ele>53</ele>
        <time>2022-04-19T08:56:52.125Z</time>
      </trkpt>
      <trkpt lat="48.37754" lon="2.81804">
        <ele>53</ele>
        <time>2022-04-19T08:56:56.213Z</time>
      </trkpt>
      <trkpt lat="48.37748" lon="2.81808">
        <ele>53</ele>
        <time>2022-04-19T08:57:01.131Z</time>
      </trkpt>
      <trkpt lat="48.37741" lon="2.81808">
        <ele>53</ele>
        <time>2022-04-19T08:57:06.125Z</time>
      </trkpt>
      <trkpt lat="48.37735" lon="2.81815">
        <ele>54</ele>
        <time>2022-04-19T08:57:11.115Z</time>
      </trkpt>
      <trkpt lat="48.37733" lon="2.81818">
        <ele>54</ele>
        <time>2022-04-19T08:57:15.121Z</time>
      </trkpt>
      <trkpt lat="48.37726" lon="2.8182">
        <ele>54</ele>
        <time>2022-04-19T08:57:20.126Z</time>
      </trkpt>
      <trkpt lat="48.3772" lon="2.81824">
        <ele>54</ele>
        <time>2022-04-19T08:57:24.126Z</time>
      </trkpt>
      <trkpt lat="48.37714" lon="2.81828">
        <ele>54</ele>
        <time>2022-04-19T08:57:29.117Z</time>
      </trkpt>
      <trkpt lat="48.37708" lon="2.81831">
        <ele>52</ele>
        <time>2022-04-19T08:57:33.122Z</time>
      </trkpt>
      <trkpt lat="48.37702" lon="2.81837">
        <ele>52</ele>
        <time>2022-04-19T08:57:38.130Z</time>
      </trkpt>
      <trkpt lat="48.37697" lon="2.81841">
        <ele>52</ele>
        <time>2022-04-19T08:57:42.133Z</time>
      </trkpt>
      <trkpt lat="48.37689" lon="2.81845">
        <ele>52</ele>
        <time>2022-04-19T08:57:47.118Z</time>
      </trkpt>
      <trkpt lat="48.37684" lon="2.81848">
        <ele>51</ele>
        <time>2022-04-19T08:57:51.124Z</time>
      </trkpt>
      <trkpt lat="48.37678" lon="2.81851">
        <ele>50</ele>
        <time>2022-04-19T08:57:55.125Z</time>
      </trkpt>
      <trkpt lat="48.37671" lon="2.81853">
        <ele>50</ele>
        <time>2022-04-19T08:58:00.123Z</time>
      </trkpt>
      <trkpt lat="48.37664" lon="2.81855">
        <ele>50</ele>
        <time>2022-04-19T08:58:05.134Z</time>
      </trkpt>
      <trkpt lat="48.37656" lon="2.81857">
        <ele>50</ele>
        <time>2022-04-19T08:58:10.128Z</time>
      </trkpt>
      <trkpt lat="48.37649" lon="2.8186">
        <ele>49</ele>
        <time>2022-04-19T08:58:15.138Z</time>
      </trkpt>
      <trkpt lat="48.37642" lon="2.81862">
        <ele>49</ele>
        <time>2022-04-19T08:58:20.130Z</time>
      </trkpt>
      <trkpt lat="48.37636" lon="2.81863">
        <ele>49</ele>
        <time>2022-04-19T08:58:24.127Z</time>
      </trkpt>
      <trkpt lat="48.37629" lon="2.81865">
        <ele>49</ele>
        <time>2022-04-19T08:58:29.124Z</time>
      </trkpt>
      <trkpt lat="48.37622" lon="2.81866">
        <ele>49</ele>
        <time>2022-04-19T08:58:34.126Z</time>
      </trkpt>
      <trkpt lat="48.37617" lon="2.81867">
        <ele>49</ele>
        <time>2022-04-19T08:58:38.125Z</time>
      </trkpt>
      <trkpt lat="48.37611" lon="2.81868">
        <ele>49</ele>
        <time>2022-04-19T08:58:42.128Z</time>
      </trkpt>
      <trkpt lat="48.37603" lon="2.81869">
        <ele>49</ele>
        <time>2022-04-19T08:58:47.124Z</time>
      </trkpt>
      <trkpt lat="48.37597" lon="2.8187">
        <ele>48</ele>
        <time>2022-04-19T08:58:52.124Z</time>
      </trkpt>
      <trkpt lat="48.37591" lon="2.81871">
        <ele>48</ele>
        <time>2022-04-19T08:58:56.127Z</time>
      </trkpt>
      <trkpt lat="48.37584" lon="2.81871">
        <ele>48</ele>
        <time>2022-04-19T08:59:01.126Z</time>
      </trkpt>
      <trkpt lat="48.37578" lon="2.8187">
        <ele>48</ele>
        <time>2022-04-19T08:59:05.132Z</time>
      </trkpt>
      <trkpt lat="48.3757" lon="2.8187">
        <ele>48</ele>
        <time>2022-04-19T08:59:10.125Z</time>
      </trkpt>
      <trkpt lat="48.37563" lon="2.8187">
        <ele>46</ele>
        <time>2022-04-19T08:59:15.126Z</time>
      </trkpt>
      <trkpt lat="48.37556" lon="2.8187">
        <ele>46</ele>
        <time>2022-04-19T08:59:20.122Z</time>
      </trkpt>
      <trkpt lat="48.37549" lon="2.81871">
        <ele>46</ele>
        <time>2022-04-19T08:59:25.131Z</time>
      </trkpt>
      <trkpt lat="48.37542" lon="2.8187">
        <ele>45</ele>
        <time>2022-04-19T08:59:30.121Z</time>
      </trkpt>
      <trkpt lat="48.37536" lon="2.81871">
        <ele>45</ele>
        <time>2022-04-19T08:59:34.123Z</time>
      </trkpt>
      <trkpt lat="48.37529" lon="2.81869">
        <ele>45</ele>
        <time>2022-04-19T08:59:39.119Z</time>
      </trkpt>
      <trkpt lat="48.37523" lon="2.81869">
        <ele>45</ele>
        <time>2022-04-19T08:59:43.127Z</time>
      </trkpt>
      <trkpt lat="48.37516" lon="2.81868">
        <ele>45</ele>
        <time>2022-04-19T08:59:48.128Z</time>
      </trkpt>
      <trkpt lat="48.37509" lon="2.81865">
        <ele>46</ele>
        <time>2022-04-19T08:59:53.128Z</time>
      </trkpt>
      <trkpt lat="48.37503" lon="2.81867">
        <ele>46</ele>
        <time>2022-04-19T08:59:57.131Z</time>
      </trkpt>
      <trkpt lat="48.37496" lon="2.81868">
        <ele>46</ele>
        <time>2022-04-19T09:00:02.123Z</time>
      </trkpt>
      <trkpt lat="48.3749" lon="2.81869">
        <ele>46</ele>
        <time>2022-04-19T09:00:07.126Z</time>
      </trkpt>
      <trkpt lat="48.37484" lon="2.8187">
        <ele>48</ele>
        <time>2022-04-19T09:00:11.122Z</time>
      </trkpt>
      <trkpt lat="48.37477" lon="2.81872">
        <ele>48</ele>
        <time>2022-04-19T09:00:16.132Z</time>
      </trkpt>
      <trkpt lat="48.37471" lon="2.81873">
        <ele>48</ele>
        <time>2022-04-19T09:00:20.132Z</time>
      </trkpt>
      <trkpt lat="48.37465" lon="2.81874">
        <ele>48</ele>
        <time>2022-04-19T09:00:25.130Z</time>
      </trkpt>
      <trkpt lat="48.37458" lon="2.81874">
        <ele>50</ele>
        <time>2022-04-19T09:00:30.123Z</time>
      </trkpt>
      <trkpt lat="48.37453" lon="2.81875">
        <ele>50</ele>
        <time>2022-04-19T09:00:34.140Z</time>
      </trkpt>
      <trkpt lat="48.37447" lon="2.81879">
        <ele>50</ele>
        <time>2022-04-19T09:00:39.130Z</time>
      </trkpt>
      <trkpt lat="48.37442" lon="2.81885">
        <ele>50</ele>
        <time>2022-04-19T09:00:44.116Z</time>
      </trkpt>
      <trkpt lat="48.37436" lon="2.81888">
        <ele>50</ele>
        <time>2022-04-19T09:00:48.119Z</time>
      </trkpt>
      <trkpt lat="48.3743" lon="2.81887">
        <ele>50</ele>
        <time>2022-04-19T09:00:53.118Z</time>
      </trkpt>
      <trkpt lat="48.37425" lon="2.81887">
        <ele>50</ele>
        <time>2022-04-19T09:00:58.124Z</time>
      </trkpt>
      <trkpt lat="48.37417" lon="2.81886">
        <ele>50</ele>
        <time>2022-04-19T09:01:03.119Z</time>
      </trkpt>
      <trkpt lat="48.37409" lon="2.8189">
        <ele>50</ele>
        <time>2022-04-19T09:01:08.123Z</time>
      </trkpt>
      <trkpt lat="48.37402" lon="2.81893">
        <ele>50</ele>
        <time>2022-04-19T09:01:13.135Z</time>
      </trkpt>
      <trkpt lat="48.37394" lon="2.81895">
        <ele>50</ele>
        <time>2022-04-19T09:01:18.122Z</time>
      </trkpt>
      <trkpt lat="48.37388" lon="2.81898">
        <ele>50</ele>
        <time>2022-04-19T09:01:22.122Z</time>
      </trkpt>
      <trkpt lat="48.37383" lon="2.81899">
        <ele>50</ele>
        <time>2022-04-19T09:01:26.131Z</time>
      </trkpt>
      <trkpt lat="48.37375" lon="2.81901">
        <ele>49</ele>
        <time>2022-04-19T09:01:31.123Z</time>
      </trkpt>
      <trkpt lat="48.37368" lon="2.81903">
        <ele>49</ele>
        <time>2022-04-19T09:01:36.124Z</time>
      </trkpt>
      <trkpt lat="48.37362" lon="2.81905">
        <ele>49</ele>
        <time>2022-04-19T09:01:40.127Z</time>
      </trkpt>
      <trkpt lat="48.37357" lon="2.81906">
        <ele>49</ele>
        <time>2022-04-19T09:01:44.126Z</time>
      </trkpt>
      <trkpt lat="48.3735" lon="2.81907">
        <ele>49</ele>
        <time>2022-04-19T09:01:49.120Z</time>
      </trkpt>
      <trkpt lat="48.37343" lon="2.81908">
        <ele>49</ele>
        <time>2022-04-19T09:01:54.128Z</time>
      </trkpt>
      <trkpt lat="48.37338" lon="2.81909">
        <ele>49</ele>
        <time>2022-04-19T09:01:58.132Z</time>
      </trkpt>
      <trkpt lat="48.37331" lon="2.81911">
        <ele>49</ele>
        <time>2022-04-19T09:02:03.125Z</time>
      </trkpt>
      <trkpt lat="48.37323" lon="2.81911">
        <ele>49</ele>
        <time>2022-04-19T09:02:08.132Z</time>
      </trkpt>
      <trkpt lat="48.37316" lon="2.8191">
        <ele>47</ele>
        <time>2022-04-19T09:02:13.124Z</time>
      </trkpt>
      <trkpt lat="48.37309" lon="2.8191">
        <ele>47</ele>
        <time>2022-04-19T09:02:18.121Z</time>
      </trkpt>
      <trkpt lat="48.37303" lon="2.8191">
        <ele>47</ele>
        <time>2022-04-19T09:02:23.121Z</time>
      </trkpt>
      <trkpt lat="48.37301" lon="2.8191">
        <ele>47</ele>
        <time>2022-04-19T09:02:27.151Z</time>
      </trkpt>
      <trkpt lat="48.37302" lon="2.8191">
        <ele>47</ele>
        <time>2022-04-19T09:02:32.121Z</time>
      </trkpt>
      <trkpt lat="48.37297" lon="2.81904">
        <ele>47</ele>
        <time>2022-04-19T09:02:37.122Z</time>
      </trkpt>
      <trkpt lat="48.37293" lon="2.819">
        <ele>49</ele>
        <time>2022-04-19T09:02:41.128Z</time>
      </trkpt>
      <trkpt lat="48.37289" lon="2.81895">
        <ele>49</ele>
        <time>2022-04-19T09:02:46.119Z</time>
      </trkpt>
      <trkpt lat="48.37289" lon="2.81895">
        <ele>49</ele>
        <time>2022-04-19T09:02:50.145Z</time>
      </trkpt>
      <trkpt lat="48.37289" lon="2.81895">
        <ele>49</ele>
        <time>2022-04-19T09:02:55.122Z</time>
      </trkpt>
      <trkpt lat="48.37285" lon="2.81892">
        <ele>49</ele>
        <time>2022-04-19T09:02:59.126Z</time>
      </trkpt>
      <trkpt lat="48.37278" lon="2.8189">
        <ele>49</ele>
        <time>2022-04-19T09:03:04.119Z</time>
      </trkpt>
      <trkpt lat="48.37273" lon="2.81883">
        <ele>49</ele>
        <time>2022-04-19T09:03:09.120Z</time>
      </trkpt>
      <trkpt lat="48.37268" lon="2.81881">
        <ele>49</ele>
        <time>2022-04-19T09:03:13.125Z</time>
      </trkpt>
      <trkpt lat="48.37263" lon="2.81882">
        <ele>50</ele>
        <time>2022-04-19T09:03:17.135Z</time>
      </trkpt>
      <trkpt lat="48.37258" lon="2.81882">
        <ele>50</ele>
        <time>2022-04-19T09:03:22.121Z</time>
      </trkpt>
      <trkpt lat="48.37255" lon="2.81877">
        <ele>50</ele>
        <time>2022-04-19T09:03:26.129Z</time>
      </trkpt>
      <trkpt lat="48.37253" lon="2.81868">
        <ele>51</ele>
        <time>2022-04-19T09:03:31.129Z</time>
      </trkpt>
      <trkpt lat="48.37254" lon="2.8186">
        <ele>51</ele>
        <time>2022-04-19T09:03:36.121Z</time>
      </trkpt>
      <trkpt lat="48.37257" lon="2.81857">
        <ele>51</ele>
        <time>2022-04-19T09:03:40.140Z</time>
      </trkpt>
      <trkpt lat="48.37264" lon="2.81862">
        <ele>51</ele>
        <time>2022-04-19T09:03:53.127Z</time>
      </trkpt>
      <trkpt lat="48.37267" lon="2.81857">
        <ele>50</ele>
        <time>2022-04-19T09:03:58.123Z</time>
      </trkpt>
      <trkpt lat="48.3727" lon="2.81847">
        <ele>51</ele>
        <time>2022-04-19T09:04:03.128Z</time>
      </trkpt>
      <trkpt lat="48.37273" lon="2.81836">
        <ele>51</ele>
        <time>2022-04-19T09:04:08.131Z</time>
      </trkpt>
      <trkpt lat="48.37274" lon="2.81825">
        <ele>51</ele>
        <time>2022-04-19T09:04:13.122Z</time>
      </trkpt>
      <trkpt lat="48.37275" lon="2.81817">
        <ele>52</ele>
        <time>2022-04-19T09:04:17.126Z</time>
      </trkpt>
      <trkpt lat="48.37278" lon="2.81808">
        <ele>52</ele>
        <time>2022-04-19T09:04:22.121Z</time>
      </trkpt>
      <trkpt lat="48.3728" lon="2.81801">
        <ele>52</ele>
        <time>2022-04-19T09:04:26.129Z</time>
      </trkpt>
      <trkpt lat="48.37284" lon="2.81792">
        <ele>52</ele>
        <time>2022-04-19T09:04:31.126Z</time>
      </trkpt>
      <trkpt lat="48.37287" lon="2.81786">
        <ele>53</ele>
        <time>2022-04-19T09:04:36.125Z</time>
      </trkpt>
      <trkpt lat="48.3729" lon="2.81778">
        <ele>53</ele>
        <time>2022-04-19T09:04:41.130Z</time>
      </trkpt>
      <trkpt lat="48.37293" lon="2.81772">
        <ele>53</ele>
        <time>2022-04-19T09:04:45.141Z</time>
      </trkpt>
      <trkpt lat="48.37293" lon="2.81764">
        <ele>53</ele>
        <time>2022-04-19T09:04:50.122Z</time>
      </trkpt>
      <trkpt lat="48.3729" lon="2.81765">
        <ele>53</ele>
        <time>2022-04-19T09:04:54.132Z</time>
      </trkpt>
      <trkpt lat="48.37289" lon="2.81761">
        <ele>55</ele>
        <time>2022-04-19T09:04:58.138Z</time>
      </trkpt>
      <trkpt lat="48.3729" lon="2.81757">
        <ele>55</ele>
        <time>2022-04-19T09:05:03.133Z</time>
      </trkpt>
      <trkpt lat="48.37293" lon="2.8175">
        <ele>55</ele>
        <time>2022-04-19T09:05:08.123Z</time>
      </trkpt>
      <trkpt lat="48.37297" lon="2.81741">
        <ele>55</ele>
        <time>2022-04-19T09:05:13.127Z</time>
      </trkpt>
      <trkpt lat="48.373" lon="2.81735">
        <ele>56</ele>
        <time>2022-04-19T09:05:17.274Z</time>
      </trkpt>
      <trkpt lat="48.37304" lon="2.81726">
        <ele>56</ele>
        <time>2022-04-19T09:05:22.121Z</time>
      </trkpt>
      <trkpt lat="48.37306" lon="2.81719">
        <ele>56</ele>
        <time>2022-04-19T09:05:26.123Z</time>
      </trkpt>
      <trkpt lat="48.37308" lon="2.8171">
        <ele>56</ele>
        <time>2022-04-19T09:05:31.120Z</time>
      </trkpt>
      <trkpt lat="48.37311" lon="2.81702">
        <ele>58</ele>
        <time>2022-04-19T09:05:35.125Z</time>
      </trkpt>
      <trkpt lat="48.37312" lon="2.81695">
        <ele>58</ele>
        <time>2022-04-19T09:05:39.125Z</time>
      </trkpt>
      <trkpt lat="48.37312" lon="2.81687">
        <ele>58</ele>
        <time>2022-04-19T09:05:43.133Z</time>
      </trkpt>
      <trkpt lat="48.37315" lon="2.81677">
        <ele>57</ele>
        <time>2022-04-19T09:05:48.126Z</time>
      </trkpt>
      <trkpt lat="48.37318" lon="2.81667">
        <ele>57</ele>
        <time>2022-04-19T09:05:53.123Z</time>
      </trkpt>
      <trkpt lat="48.3732" lon="2.81661">
        <ele>56</ele>
        <time>2022-04-19T09:05:57.130Z</time>
      </trkpt>
      <trkpt lat="48.37323" lon="2.81659">
        <ele>56</ele>
        <time>2022-04-19T09:06:01.123Z</time>
      </trkpt>
      <trkpt lat="48.37328" lon="2.81657">
        <ele>56</ele>
        <time>2022-04-19T09:06:06.125Z</time>
      </trkpt>
      <trkpt lat="48.37333" lon="2.81655">
        <ele>56</ele>
        <time>2022-04-19T09:06:10.123Z</time>
      </trkpt>
      <trkpt lat="48.37336" lon="2.81651">
        <ele>55</ele>
        <time>2022-04-19T09:06:15.119Z</time>
      </trkpt>
      <trkpt lat="48.37341" lon="2.81651">
        <ele>55</ele>
        <time>2022-04-19T09:06:20.117Z</time>
      </trkpt>
      <trkpt lat="48.37339" lon="2.81651">
        <ele>55</ele>
        <time>2022-04-19T09:17:54.117Z</time>
      </trkpt>
      <trkpt lat="48.37339" lon="2.81651">
        <ele>55</ele>
        <time>2022-04-19T09:17:59.128Z</time>
      </trkpt>
      <trkpt lat="48.37339" lon="2.81651">
        <ele>55</ele>
        <time>2022-04-19T09:18:04.127Z</time>
      </trkpt>
      <trkpt lat="48.37334" lon="2.81652">
        <ele>55</ele>
        <time>2022-04-19T09:18:09.121Z</time>
      </trkpt>
      <trkpt lat="48.3733" lon="2.81652">
        <ele>55</ele>
        <time>2022-04-19T09:18:13.128Z</time>
      </trkpt>
      <trkpt lat="48.37324" lon="2.81648">
        <ele>55</ele>
        <time>2022-04-19T09:18:17.123Z</time>
      </trkpt>
      <trkpt lat="48.37327" lon="2.81637">
        <ele>55</ele>
        <time>2022-04-19T09:18:22.119Z</time>
      </trkpt>
      <trkpt lat="48.37331" lon="2.81627">
        <ele>55</ele>
        <time>2022-04-19T09:18:27.130Z</time>
      </trkpt>
      <trkpt lat="48.37333" lon="2.81617">
        <ele>54</ele>
        <time>2022-04-19T09:18:32.126Z</time>
      </trkpt>
      <trkpt lat="48.37334" lon="2.81617">
        <ele>54</ele>
        <time>2022-04-19T09:18:41.135Z</time>
      </trkpt>
      <trkpt lat="48.37334" lon="2.81617">
        <ele>54</ele>
        <time>2022-04-19T09:18:46.125Z</time>
      </trkpt>
      <trkpt lat="48.37335" lon="2.8161">
        <ele>54</ele>
        <time>2022-04-19T09:18:51.120Z</time>
      </trkpt>
      <trkpt lat="48.37338" lon="2.81603">
        <ele>54</ele>
        <time>2022-04-19T09:18:56.124Z</time>
      </trkpt>
      <trkpt lat="48.37341" lon="2.81595">
        <ele>55</ele>
        <time>2022-04-19T09:19:00.125Z</time>
      </trkpt>
      <trkpt lat="48.37343" lon="2.81586">
        <ele>55</ele>
        <time>2022-04-19T09:19:05.129Z</time>
      </trkpt>
      <trkpt lat="48.37346" lon="2.81578">
        <ele>55</ele>
        <time>2022-04-19T09:19:09.136Z</time>
      </trkpt>
      <trkpt lat="48.37348" lon="2.81567">
        <ele>54</ele>
        <time>2022-04-19T09:19:14.135Z</time>
      </trkpt>
      <trkpt lat="48.3735" lon="2.8156">
        <ele>54</ele>
        <time>2022-04-19T09:19:18.125Z</time>
      </trkpt>
      <trkpt lat="48.37353" lon="2.81551">
        <ele>54</ele>
        <time>2022-04-19T09:19:23.118Z</time>
      </trkpt>
      <trkpt lat="48.37355" lon="2.81543">
        <ele>54</ele>
        <time>2022-04-19T09:19:27.118Z</time>
      </trkpt>
      <trkpt lat="48.37352" lon="2.81535">
        <ele>55</ele>
        <time>2022-04-19T09:19:32.123Z</time>
      </trkpt>
      <trkpt lat="48.37349" lon="2.81526">
        <ele>55</ele>
        <time>2022-04-19T09:19:37.127Z</time>
      </trkpt>
      <trkpt lat="48.37345" lon="2.81522">
        <ele>56</ele>
        <time>2022-04-19T09:19:42.114Z</time>
      </trkpt>
      <trkpt lat="48.37346" lon="2.81522">
        <ele>56</ele>
        <time>2022-04-19T09:19:46.119Z</time>
      </trkpt>
      <trkpt lat="48.37347" lon="2.81521">
        <ele>56</ele>
        <time>2022-04-19T09:19:51.123Z</time>
      </trkpt>
      <trkpt lat="48.3735" lon="2.81515">
        <ele>55</ele>
        <time>2022-04-19T09:19:55.128Z</time>
      </trkpt>
      <trkpt lat="48.3735" lon="2.81508">
        <ele>55</ele>
        <time>2022-04-19T09:20:00.122Z</time>
      </trkpt>
      <trkpt lat="48.37348" lon="2.81503">
        <ele>55</ele>
        <time>2022-04-19T09:20:05.127Z</time>
      </trkpt>
      <trkpt lat="48.3735" lon="2.81497">
        <ele>55</ele>
        <time>2022-04-19T09:20:09.136Z</time>
      </trkpt>
      <trkpt lat="48.37352" lon="2.81489">
        <ele>55</ele>
        <time>2022-04-19T09:20:14.125Z</time>
      </trkpt>
      <trkpt lat="48.37353" lon="2.81479">
        <ele>54</ele>
        <time>2022-04-19T09:20:19.130Z</time>
      </trkpt>
      <trkpt lat="48.37355" lon="2.81469">
        <ele>54</ele>
        <time>2022-04-19T09:20:24.128Z</time>
      </trkpt>
      <trkpt lat="48.37358" lon="2.81462">
        <ele>54</ele>
        <time>2022-04-19T09:20:29.123Z</time>
      </trkpt>
      <trkpt lat="48.37359" lon="2.81454">
        <ele>54</ele>
        <time>2022-04-19T09:20:34.129Z</time>
      </trkpt>
      <trkpt lat="48.37362" lon="2.81451">
        <ele>54</ele>
        <time>2022-04-19T09:20:39.120Z</time>
      </trkpt>
      <trkpt lat="48.37355" lon="2.8145">
        <ele>54</ele>
        <time>2022-04-19T09:20:44.125Z</time>
      </trkpt>
      <trkpt lat="48.37348" lon="2.81453">
        <ele>54</ele>
        <time>2022-04-19T09:20:49.124Z</time>
      </trkpt>
      <trkpt lat="48.37342" lon="2.81455">
        <ele>57</ele>
        <time>2022-04-19T09:20:53.133Z</time>
      </trkpt>
      <trkpt lat="48.37336" lon="2.81457">
        <ele>57</ele>
        <time>2022-04-19T09:20:57.131Z</time>
      </trkpt>
      <trkpt lat="48.37329" lon="2.81459">
        <ele>57</ele>
        <time>2022-04-19T09:21:02.126Z</time>
      </trkpt>
      <trkpt lat="48.37323" lon="2.8146">
        <ele>57</ele>
        <time>2022-04-19T09:21:07.130Z</time>
      </trkpt>
      <trkpt lat="48.37316" lon="2.81459">
        <ele>58</ele>
        <time>2022-04-19T09:21:12.123Z</time>
      </trkpt>
      <trkpt lat="48.37311" lon="2.81456">
        <ele>59</ele>
        <time>2022-04-19T09:21:16.118Z</time>
      </trkpt>
      <trkpt lat="48.37303" lon="2.81455">
        <ele>59</ele>
        <time>2022-04-19T09:21:21.128Z</time>
      </trkpt>
      <trkpt lat="48.37296" lon="2.81454">
        <ele>59</ele>
        <time>2022-04-19T09:21:26.129Z</time>
      </trkpt>
      <trkpt lat="48.37289" lon="2.81454">
        <ele>59</ele>
        <time>2022-04-19T09:21:31.120Z</time>
      </trkpt>
      <trkpt lat="48.37282" lon="2.81454">
        <ele>59</ele>
        <time>2022-04-19T09:21:36.119Z</time>
      </trkpt>
      <trkpt lat="48.37276" lon="2.81456">
        <ele>59</ele>
        <time>2022-04-19T09:21:40.128Z</time>
      </trkpt>
      <trkpt lat="48.3727" lon="2.81457">
        <ele>59</ele>
        <time>2022-04-19T09:21:44.128Z</time>
      </trkpt>
      <trkpt lat="48.37264" lon="2.81458">
        <ele>59</ele>
        <time>2022-04-19T09:21:49.127Z</time>
      </trkpt>
      <trkpt lat="48.37257" lon="2.81459">
        <ele>59</ele>
        <time>2022-04-19T09:21:54.127Z</time>
      </trkpt>
      <trkpt lat="48.37251" lon="2.81461">
        <ele>59</ele>
        <time>2022-04-19T09:21:58.124Z</time>
      </trkpt>
      <trkpt lat="48.37244" lon="2.81464">
        <ele>59</ele>
        <time>2022-04-19T09:22:03.123Z</time>
      </trkpt>
      <trkpt lat="48.37239" lon="2.81466">
        <ele>59</ele>
        <time>2022-04-19T09:22:07.129Z</time>
      </trkpt>
      <trkpt lat="48.37232" lon="2.81467">
        <ele>61</ele>
        <time>2022-04-19T09:22:12.118Z</time>
      </trkpt>
      <trkpt lat="48.37228" lon="2.81469">
        <ele>61</ele>
        <time>2022-04-19T09:22:16.125Z</time>
      </trkpt>
      <trkpt lat="48.37225" lon="2.81474">
        <ele>61</ele>
        <time>2022-04-19T09:22:20.116Z</time>
      </trkpt>
      <trkpt lat="48.37225" lon="2.8148">
        <ele>61</ele>
        <time>2022-04-19T09:22:25.134Z</time>
      </trkpt>
      <trkpt lat="48.37226" lon="2.81488">
        <ele>60</ele>
        <time>2022-04-19T09:22:29.123Z</time>
      </trkpt>
      <trkpt lat="48.3723" lon="2.81497">
        <ele>60</ele>
        <time>2022-04-19T09:22:34.125Z</time>
      </trkpt>
      <trkpt lat="48.37232" lon="2.81505">
        <ele>60</ele>
        <time>2022-04-19T09:22:38.123Z</time>
      </trkpt>
      <trkpt lat="48.37234" lon="2.81513">
        <ele>60</ele>
        <time>2022-04-19T09:22:42.130Z</time>
      </trkpt>
      <trkpt lat="48.37234" lon="2.81522">
        <ele>59</ele>
        <time>2022-04-19T09:22:47.128Z</time>
      </trkpt>
      <trkpt lat="48.37235" lon="2.81529">
        <ele>59</ele>
        <time>2022-04-19T09:22:52.117Z</time>
      </trkpt>
      <trkpt lat="48.3724" lon="2.81533">
        <ele>59</ele>
        <time>2022-04-19T09:22:56.126Z</time>
      </trkpt>
      <trkpt lat="48.37237" lon="2.81539">
        <ele>59</ele>
        <time>2022-04-19T09:23:01.119Z</time>
      </trkpt>
      <trkpt lat="48.37232" lon="2.8154">
        <ele>59</ele>
        <time>2022-04-19T09:23:06.125Z</time>
      </trkpt>
      <trkpt lat="48.37229" lon="2.81547">
        <ele>59</ele>
        <time>2022-04-19T09:23:11.130Z</time>
      </trkpt>
      <trkpt lat="48.37226" lon="2.81553">
        <ele>59</ele>
        <time>2022-04-19T09:23:15.127Z</time>
      </trkpt>
      <trkpt lat="48.37225" lon="2.81562">
        <ele>59</ele>
        <time>2022-04-19T09:23:20.123Z</time>
      </trkpt>
      <trkpt lat="48.3723" lon="2.81565">
        <ele>59</ele>
        <time>2022-04-19T09:23:25.119Z</time>
      </trkpt>
      <trkpt lat="48.37234" lon="2.8157">
        <ele>59</ele>
        <time>2022-04-19T09:23:30.118Z</time>
      </trkpt>
      <trkpt lat="48.3724" lon="2.81574">
        <ele>59</ele>
        <time>2022-04-19T09:23:35.123Z</time>
      </trkpt>
      <trkpt lat="48.37245" lon="2.81579">
        <ele>59</ele>
        <time>2022-04-19T09:23:39.128Z</time>
      </trkpt>
      <trkpt lat="48.37252" lon="2.81583">
        <ele>59</ele>
        <time>2022-04-19T09:23:44.131Z</time>
      </trkpt>
      <trkpt lat="48.37258" lon="2.81588">
        <ele>59</ele>
        <time>2022-04-19T09:23:49.119Z</time>
      </trkpt>
      <trkpt lat="48.37263" lon="2.81591">
        <ele>59</ele>
        <time>2022-04-19T09:23:53.116Z</time>
      </trkpt>
      <trkpt lat="48.37268" lon="2.81595">
        <ele>58</ele>
        <time>2022-04-19T09:23:57.120Z</time>
      </trkpt>
      <trkpt lat="48.37274" lon="2.816">
        <ele>58</ele>
        <time>2022-04-19T09:24:01.125Z</time>
      </trkpt>
      <trkpt lat="48.37279" lon="2.81607">
        <ele>58</ele>
        <time>2022-04-19T09:24:06.125Z</time>
      </trkpt>
      <trkpt lat="48.3728" lon="2.81619">
        <ele>58</ele>
        <time>2022-04-19T09:24:20.117Z</time>
      </trkpt>
      <trkpt lat="48.37282" lon="2.81621">
        <ele>58</ele>
        <time>2022-04-19T09:24:25.137Z</time>
      </trkpt>
      <trkpt lat="48.37277" lon="2.81627">
        <ele>58</ele>
        <time>2022-04-19T09:24:29.122Z</time>
      </trkpt>
      <trkpt lat="48.37274" lon="2.81635">
        <ele>58</ele>
        <time>2022-04-19T09:24:34.132Z</time>
      </trkpt>
      <trkpt lat="48.37272" lon="2.81644">
        <ele>58</ele>
        <time>2022-04-19T09:24:39.122Z</time>
      </trkpt>
      <trkpt lat="48.37271" lon="2.81652">
        <ele>58</ele>
        <time>2022-04-19T09:24:43.125Z</time>
      </trkpt>
      <trkpt lat="48.37268" lon="2.81661">
        <ele>58</ele>
        <time>2022-04-19T09:24:48.115Z</time>
      </trkpt>
      <trkpt lat="48.37268" lon="2.81669">
        <ele>58</ele>
        <time>2022-04-19T09:24:52.123Z</time>
      </trkpt>
      <trkpt lat="48.37264" lon="2.81678">
        <ele>58</ele>
        <time>2022-04-19T09:24:57.123Z</time>
      </trkpt>
      <trkpt lat="48.37262" lon="2.81686">
        <ele>57</ele>
        <time>2022-04-19T09:25:01.127Z</time>
      </trkpt>
      <trkpt lat="48.37259" lon="2.81696">
        <ele>57</ele>
        <time>2022-04-19T09:25:06.127Z</time>
      </trkpt>
      <trkpt lat="48.37254" lon="2.81698">
        <ele>57</ele>
        <time>2022-04-19T09:25:11.125Z</time>
      </trkpt>
      <trkpt lat="48.37248" lon="2.81697">
        <ele>57</ele>
        <time>2022-04-19T09:25:16.115Z</time>
      </trkpt>
      <trkpt lat="48.3724" lon="2.81697">
        <ele>57</ele>
        <time>2022-04-19T09:25:21.118Z</time>
      </trkpt>
      <trkpt lat="48.37236" lon="2.81696">
        <ele>59</ele>
        <time>2022-04-19T09:25:25.125Z</time>
      </trkpt>
      <trkpt lat="48.37232" lon="2.81703">
        <ele>59</ele>
        <time>2022-04-19T09:25:29.126Z</time>
      </trkpt>
      <trkpt lat="48.3723" lon="2.81714">
        <ele>58</ele>
        <time>2022-04-19T09:25:34.123Z</time>
      </trkpt>
      <trkpt lat="48.37227" lon="2.81721">
        <ele>58</ele>
        <time>2022-04-19T09:25:38.129Z</time>
      </trkpt>
      <trkpt lat="48.37224" lon="2.81731">
        <ele>58</ele>
        <time>2022-04-19T09:25:43.124Z</time>
      </trkpt>
      <trkpt lat="48.3722" lon="2.81741">
        <ele>56</ele>
        <time>2022-04-19T09:25:48.121Z</time>
      </trkpt>
      <trkpt lat="48.37217" lon="2.81751">
        <ele>56</ele>
        <time>2022-04-19T09:25:53.130Z</time>
      </trkpt>
      <trkpt lat="48.37215" lon="2.81761">
        <ele>56</ele>
        <time>2022-04-19T09:25:58.117Z</time>
      </trkpt>
      <trkpt lat="48.37211" lon="2.81771">
        <ele>53</ele>
        <time>2022-04-19T09:26:03.127Z</time>
      </trkpt>
      <trkpt lat="48.37208" lon="2.81774">
        <ele>57</ele>
        <time>2022-04-19T09:26:08.120Z</time>
      </trkpt>
      <trkpt lat="48.37204" lon="2.81772">
        <ele>57</ele>
        <time>2022-04-19T09:26:12.119Z</time>
      </trkpt>
      <trkpt lat="48.372" lon="2.81773">
        <ele>57</ele>
        <time>2022-04-19T09:26:16.123Z</time>
      </trkpt>
      <trkpt lat="48.37196" lon="2.81774">
        <ele>57</ele>
        <time>2022-04-19T09:26:21.127Z</time>
      </trkpt>
      <trkpt lat="48.37191" lon="2.81772">
        <ele>57</ele>
        <time>2022-04-19T09:26:26.118Z</time>
      </trkpt>
      <trkpt lat="48.37187" lon="2.81771">
        <ele>57</ele>
        <time>2022-04-19T09:26:30.129Z</time>
      </trkpt>
      <trkpt lat="48.37178" lon="2.81771">
        <ele>59</ele>
        <time>2022-04-19T09:26:59.132Z</time>
      </trkpt>
      <trkpt lat="48.37175" lon="2.8177">
        <ele>59</ele>
        <time>2022-04-19T09:27:04.130Z</time>
      </trkpt>
      <trkpt lat="48.37169" lon="2.81771">
        <ele>59</ele>
        <time>2022-04-19T09:27:09.123Z</time>
      </trkpt>
      <trkpt lat="48.37162" lon="2.81767">
        <ele>59</ele>
        <time>2022-04-19T09:27:14.127Z</time>
      </trkpt>
      <trkpt lat="48.37156" lon="2.81763">
        <ele>60</ele>
        <time>2022-04-19T09:27:19.124Z</time>
      </trkpt>
      <trkpt lat="48.37149" lon="2.8176">
        <ele>59</ele>
        <time>2022-04-19T09:27:24.122Z</time>
      </trkpt>
      <trkpt lat="48.37152" lon="2.81764">
        <ele>58</ele>
        <time>2022-04-19T09:27:29.121Z</time>
      </trkpt>
      <trkpt lat="48.3716" lon="2.81763">
        <ele>60</ele>
        <time>2022-04-19T09:27:33.122Z</time>
      </trkpt>
      <trkpt lat="48.37166" lon="2.81766">
        <ele>59</ele>
        <time>2022-04-19T09:27:37.117Z</time>
      </trkpt>
      <trkpt lat="48.37172" lon="2.81768">
        <ele>59</ele>
        <time>2022-04-19T09:27:42.125Z</time>
      </trkpt>
      <trkpt lat="48.37176" lon="2.81774">
        <ele>59</ele>
        <time>2022-04-19T09:27:47.127Z</time>
      </trkpt>
      <trkpt lat="48.37176" lon="2.81784">
        <ele>59</ele>
        <time>2022-04-19T09:27:52.120Z</time>
      </trkpt>
      <trkpt lat="48.37175" lon="2.81791">
        <ele>59</ele>
        <time>2022-04-19T09:27:56.124Z</time>
      </trkpt>
      <trkpt lat="48.37174" lon="2.81801">
        <ele>58</ele>
        <time>2022-04-19T09:28:01.122Z</time>
      </trkpt>
      <trkpt lat="48.37173" lon="2.8181">
        <ele>58</ele>
        <time>2022-04-19T09:28:05.131Z</time>
      </trkpt>
      <trkpt lat="48.37171" lon="2.81817">
        <ele>58</ele>
        <time>2022-04-19T09:28:09.136Z</time>
      </trkpt>
      <trkpt lat="48.3717" lon="2.81827">
        <ele>57</ele>
        <time>2022-04-19T09:28:14.124Z</time>
      </trkpt>
      <trkpt lat="48.37168" lon="2.81831">
        <ele>57</ele>
        <time>2022-04-19T09:28:18.127Z</time>
      </trkpt>
      <trkpt lat="48.37167" lon="2.81834">
        <ele>57</ele>
        <time>2022-04-19T09:28:23.131Z</time>
      </trkpt>
      <trkpt lat="48.37165" lon="2.81842">
        <ele>57</ele>
        <time>2022-04-19T09:28:28.123Z</time>
      </trkpt>
      <trkpt lat="48.37164" lon="2.81845">
        <ele>57</ele>
        <time>2022-04-19T09:28:33.116Z</time>
      </trkpt>
      <trkpt lat="48.37164" lon="2.81845">
        <ele>57</ele>
        <time>2022-04-19T09:28:37.131Z</time>
      </trkpt>
      <trkpt lat="48.37165" lon="2.81847">
        <ele>57</ele>
        <time>2022-04-19T09:28:41.126Z</time>
      </trkpt>
      <trkpt lat="48.37166" lon="2.8185">
        <ele>56</ele>
        <time>2022-04-19T09:28:45.135Z</time>
      </trkpt>
      <trkpt lat="48.37161" lon="2.81856">
        <ele>56</ele>
        <time>2022-04-19T09:28:50.130Z</time>
      </trkpt>
      <trkpt lat="48.37155" lon="2.8186">
        <ele>56</ele>
        <time>2022-04-19T09:28:55.140Z</time>
      </trkpt>
      <trkpt lat="48.37149" lon="2.81865">
        <ele>56</ele>
        <time>2022-04-19T09:29:00.116Z</time>
      </trkpt>
      <trkpt lat="48.37144" lon="2.81869">
        <ele>56</ele>
        <time>2022-04-19T09:29:04.129Z</time>
      </trkpt>
      <trkpt lat="48.37138" lon="2.81873">
        <ele>56</ele>
        <time>2022-04-19T09:29:09.121Z</time>
      </trkpt>
      <trkpt lat="48.37131" lon="2.81873">
        <ele>56</ele>
        <time>2022-04-19T09:29:14.118Z</time>
      </trkpt>
      <trkpt lat="48.37126" lon="2.81876">
        <ele>56</ele>
        <time>2022-04-19T09:29:18.123Z</time>
      </trkpt>
      <trkpt lat="48.37122" lon="2.81877">
        <ele>56</ele>
        <time>2022-04-19T09:29:22.126Z</time>
      </trkpt>
      <trkpt lat="48.37116" lon="2.81876">
        <ele>56</ele>
        <time>2022-04-19T09:29:27.134Z</time>
      </trkpt>
      <trkpt lat="48.37109" lon="2.81876">
        <ele>56</ele>
        <time>2022-04-19T09:29:32.126Z</time>
      </trkpt>
      <trkpt lat="48.37104" lon="2.81876">
        <ele>56</ele>
        <time>2022-04-19T09:29:36.125Z</time>
      </trkpt>
      <trkpt lat="48.37098" lon="2.81878">
        <ele>56</ele>
        <time>2022-04-19T09:29:41.133Z</time>
      </trkpt>
      <trkpt lat="48.37093" lon="2.8188">
        <ele>59</ele>
        <time>2022-04-19T09:29:46.123Z</time>
      </trkpt>
      <trkpt lat="48.37087" lon="2.81881">
        <ele>59</ele>
        <time>2022-04-19T09:29:51.122Z</time>
      </trkpt>
      <trkpt lat="48.37081" lon="2.81883">
        <ele>59</ele>
        <time>2022-04-19T09:29:55.122Z</time>
      </trkpt>
      <trkpt lat="48.37075" lon="2.81884">
        <ele>59</ele>
        <time>2022-04-19T09:29:59.127Z</time>
      </trkpt>
      <trkpt lat="48.37069" lon="2.81886">
        <ele>59</ele>
        <time>2022-04-19T09:30:04.127Z</time>
      </trkpt>
      <trkpt lat="48.37064" lon="2.81891">
        <ele>59</ele>
        <time>2022-04-19T09:30:09.122Z</time>
      </trkpt>
      <trkpt lat="48.37059" lon="2.81891">
        <ele>59</ele>
        <time>2022-04-19T09:30:13.131Z</time>
      </trkpt>
      <trkpt lat="48.37055" lon="2.81892">
        <ele>59</ele>
        <time>2022-04-19T09:30:18.119Z</time>
      </trkpt>
      <trkpt lat="48.37052" lon="2.81896">
        <ele>59</ele>
        <time>2022-04-19T09:30:22.133Z</time>
      </trkpt>
      <trkpt lat="48.37046" lon="2.81891">
        <ele>59</ele>
        <time>2022-04-19T09:30:27.121Z</time>
      </trkpt>
      <trkpt lat="48.3704" lon="2.81894">
        <ele>60</ele>
        <time>2022-04-19T09:30:32.126Z</time>
      </trkpt>
      <trkpt lat="48.37033" lon="2.819">
        <ele>60</ele>
        <time>2022-04-19T09:30:37.127Z</time>
      </trkpt>
      <trkpt lat="48.37026" lon="2.81903">
        <ele>59</ele>
        <time>2022-04-19T09:30:42.124Z</time>
      </trkpt>
      <trkpt lat="48.3702" lon="2.81906">
        <ele>59</ele>
        <time>2022-04-19T09:30:46.129Z</time>
      </trkpt>
      <trkpt lat="48.37015" lon="2.81908">
        <ele>59</ele>
        <time>2022-04-19T09:30:50.130Z</time>
      </trkpt>
      <trkpt lat="48.37008" lon="2.81913">
        <ele>59</ele>
        <time>2022-04-19T09:30:55.115Z</time>
      </trkpt>
      <trkpt lat="48.37002" lon="2.81914">
        <ele>59</ele>
        <time>2022-04-19T09:30:59.126Z</time>
      </trkpt>
      <trkpt lat="48.36996" lon="2.81908">
        <ele>59</ele>
        <time>2022-04-19T09:31:04.122Z</time>
      </trkpt>
      <trkpt lat="48.36995" lon="2.81898">
        <ele>60</ele>
        <time>2022-04-19T09:31:09.132Z</time>
      </trkpt>
      <trkpt lat="48.36994" lon="2.81887">
        <ele>60</ele>
        <time>2022-04-19T09:31:14.124Z</time>
      </trkpt>
      <trkpt lat="48.36992" lon="2.81877">
        <ele>60</ele>
        <time>2022-04-19T09:31:19.134Z</time>
      </trkpt>
      <trkpt lat="48.36991" lon="2.81867">
        <ele>60</ele>
        <time>2022-04-19T09:31:24.121Z</time>
      </trkpt>
      <trkpt lat="48.3699" lon="2.81858">
        <ele>60</ele>
        <time>2022-04-19T09:31:28.272Z</time>
      </trkpt>
      <trkpt lat="48.3699" lon="2.81847">
        <ele>59</ele>
        <time>2022-04-19T09:31:33.127Z</time>
      </trkpt>
      <trkpt lat="48.3699" lon="2.81839">
        <ele>59</ele>
        <time>2022-04-19T09:31:37.125Z</time>
      </trkpt>
      <trkpt lat="48.36991" lon="2.81828">
        <ele>59</ele>
        <time>2022-04-19T09:31:42.122Z</time>
      </trkpt>
      <trkpt lat="48.36991" lon="2.81817">
        <ele>59</ele>
        <time>2022-04-19T09:31:47.123Z</time>
      </trkpt>
      <trkpt lat="48.36992" lon="2.81808">
        <ele>59</ele>
        <time>2022-04-19T09:31:51.131Z</time>
      </trkpt>
      <trkpt lat="48.36993" lon="2.81797">
        <ele>59</ele>
        <time>2022-04-19T09:31:56.123Z</time>
      </trkpt>
      <trkpt lat="48.36993" lon="2.81789">
        <ele>59</ele>
        <time>2022-04-19T09:32:00.125Z</time>
      </trkpt>
      <trkpt lat="48.36986" lon="2.81794">
        <ele>59</ele>
        <time>2022-04-19T09:32:05.121Z</time>
      </trkpt>
      <trkpt lat="48.3698" lon="2.81793">
        <ele>59</ele>
        <time>2022-04-19T09:32:09.125Z</time>
      </trkpt>
      <trkpt lat="48.36975" lon="2.81799">
        <ele>59</ele>
        <time>2022-04-19T09:32:13.127Z</time>
      </trkpt>
      <trkpt lat="48.3697" lon="2.81806">
        <ele>59</ele>
        <time>2022-04-19T09:32:18.120Z</time>
      </trkpt>
      <trkpt lat="48.36966" lon="2.81812">
        <ele>59</ele>
        <time>2022-04-19T09:32:22.127Z</time>
      </trkpt>
      <trkpt lat="48.3696" lon="2.81819">
        <ele>59</ele>
        <time>2022-04-19T09:32:27.121Z</time>
      </trkpt>
      <trkpt lat="48.36956" lon="2.81825">
        <ele>60</ele>
        <time>2022-04-19T09:32:31.117Z</time>
      </trkpt>
      <trkpt lat="48.36952" lon="2.81831">
        <ele>60</ele>
        <time>2022-04-19T09:32:35.121Z</time>
      </trkpt>
      <trkpt lat="48.36947" lon="2.81838">
        <ele>60</ele>
        <time>2022-04-19T09:32:39.123Z</time>
      </trkpt>
      <trkpt lat="48.36942" lon="2.81845">
        <ele>60</ele>
        <time>2022-04-19T09:32:44.126Z</time>
      </trkpt>
      <trkpt lat="48.36936" lon="2.81853">
        <ele>59</ele>
        <time>2022-04-19T09:32:49.124Z</time>
      </trkpt>
      <trkpt lat="48.36932" lon="2.8186">
        <ele>59</ele>
        <time>2022-04-19T09:32:53.145Z</time>
      </trkpt>
      <trkpt lat="48.36927" lon="2.81868">
        <ele>62</ele>
        <time>2022-04-19T09:32:58.119Z</time>
      </trkpt>
      <trkpt lat="48.36921" lon="2.81875">
        <ele>60</ele>
        <time>2022-04-19T09:33:03.125Z</time>
      </trkpt>
      <trkpt lat="48.36915" lon="2.81882">
        <ele>60</ele>
        <time>2022-04-19T09:33:08.125Z</time>
      </trkpt>
      <trkpt lat="48.3691" lon="2.81887">
        <ele>60</ele>
        <time>2022-04-19T09:33:12.124Z</time>
      </trkpt>
      <trkpt lat="48.36903" lon="2.81892">
        <ele>60</ele>
        <time>2022-04-19T09:33:17.123Z</time>
      </trkpt>
      <trkpt lat="48.36896" lon="2.81897">
        <ele>62</ele>
        <time>2022-04-19T09:33:22.123Z</time>
      </trkpt>
      <trkpt lat="48.3689" lon="2.819">
        <ele>62</ele>
        <time>2022-04-19T09:33:26.123Z</time>
      </trkpt>
      <trkpt lat="48.36883" lon="2.81906">
        <ele>59</ele>
        <time>2022-04-19T09:33:31.123Z</time>
      </trkpt>
      <trkpt lat="48.36876" lon="2.81911">
        <ele>59</ele>
        <time>2022-04-19T09:33:36.122Z</time>
      </trkpt>
      <trkpt lat="48.36869" lon="2.81917">
        <ele>60</ele>
        <time>2022-04-19T09:33:41.126Z</time>
      </trkpt>
      <trkpt lat="48.36865" lon="2.81921">
        <ele>60</ele>
        <time>2022-04-19T09:33:46.118Z</time>
      </trkpt>
      <trkpt lat="48.36857" lon="2.81925">
        <ele>60</ele>
        <time>2022-04-19T09:33:51.128Z</time>
      </trkpt>
      <trkpt lat="48.3685" lon="2.8193">
        <ele>60</ele>
        <time>2022-04-19T09:33:56.118Z</time>
      </trkpt>
      <trkpt lat="48.36843" lon="2.81935">
        <ele>58</ele>
        <time>2022-04-19T09:34:01.131Z</time>
      </trkpt>
      <trkpt lat="48.36837" lon="2.81938">
        <ele>58</ele>
        <time>2022-04-19T09:34:05.129Z</time>
      </trkpt>
      <trkpt lat="48.36829" lon="2.81942">
        <ele>58</ele>
        <time>2022-04-19T09:34:10.124Z</time>
      </trkpt>
      <trkpt lat="48.36824" lon="2.81944">
        <ele>58</ele>
        <time>2022-04-19T09:34:14.127Z</time>
      </trkpt>
      <trkpt lat="48.36816" lon="2.81945">
        <ele>59</ele>
        <time>2022-04-19T09:34:19.123Z</time>
      </trkpt>
      <trkpt lat="48.3681" lon="2.81947">
        <ele>59</ele>
        <time>2022-04-19T09:34:23.120Z</time>
      </trkpt>
      <trkpt lat="48.36804" lon="2.8195">
        <ele>59</ele>
        <time>2022-04-19T09:34:28.123Z</time>
      </trkpt>
      <trkpt lat="48.36803" lon="2.81956">
        <ele>59</ele>
        <time>2022-04-19T09:34:33.124Z</time>
      </trkpt>
      <trkpt lat="48.36802" lon="2.81956">
        <ele>59</ele>
        <time>2022-04-19T09:34:37.135Z</time>
      </trkpt>
      <trkpt lat="48.36792" lon="2.81951">
        <ele>59</ele>
        <time>2022-04-19T09:34:42.129Z</time>
      </trkpt>
      <trkpt lat="48.36785" lon="2.81952">
        <ele>58</ele>
        <time>2022-04-19T09:34:47.124Z</time>
      </trkpt>
      <trkpt lat="48.36777" lon="2.81955">
        <ele>58</ele>
        <time>2022-04-19T09:34:52.121Z</time>
      </trkpt>
      <trkpt lat="48.36771" lon="2.81957">
        <ele>58</ele>
        <time>2022-04-19T09:34:56.129Z</time>
      </trkpt>
      <trkpt lat="48.36764" lon="2.8196">
        <ele>56</ele>
        <time>2022-04-19T09:35:01.126Z</time>
      </trkpt>
      <trkpt lat="48.36758" lon="2.81962">
        <ele>56</ele>
        <time>2022-04-19T09:35:05.125Z</time>
      </trkpt>
      <trkpt lat="48.36751" lon="2.81964">
        <ele>56</ele>
        <time>2022-04-19T09:35:10.114Z</time>
      </trkpt>
      <trkpt lat="48.36745" lon="2.81964">
        <ele>56</ele>
        <time>2022-04-19T09:35:14.142Z</time>
      </trkpt>
      <trkpt lat="48.36737" lon="2.81967">
        <ele>56</ele>
        <time>2022-04-19T09:35:19.130Z</time>
      </trkpt>
      <trkpt lat="48.3673" lon="2.8197">
        <ele>56</ele>
        <time>2022-04-19T09:35:24.119Z</time>
      </trkpt>
      <trkpt lat="48.36724" lon="2.81972">
        <ele>56</ele>
        <time>2022-04-19T09:35:28.123Z</time>
      </trkpt>
      <trkpt lat="48.36718" lon="2.81973">
        <ele>56</ele>
        <time>2022-04-19T09:35:32.119Z</time>
      </trkpt>
      <trkpt lat="48.36711" lon="2.81975">
        <ele>56</ele>
        <time>2022-04-19T09:35:37.116Z</time>
      </trkpt>
      <trkpt lat="48.36705" lon="2.81978">
        <ele>56</ele>
        <time>2022-04-19T09:35:41.132Z</time>
      </trkpt>
      <trkpt lat="48.36697" lon="2.8198">
        <ele>56</ele>
        <time>2022-04-19T09:35:46.114Z</time>
      </trkpt>
      <trkpt lat="48.36691" lon="2.81979">
        <ele>56</ele>
        <time>2022-04-19T09:35:50.121Z</time>
      </trkpt>
      <trkpt lat="48.36684" lon="2.8198">
        <ele>56</ele>
        <time>2022-04-19T09:35:55.118Z</time>
      </trkpt>
      <trkpt lat="48.36678" lon="2.81981">
        <ele>55</ele>
        <time>2022-04-19T09:35:59.130Z</time>
      </trkpt>
      <trkpt lat="48.36673" lon="2.81983">
        <ele>55</ele>
        <time>2022-04-19T09:36:04.122Z</time>
      </trkpt>
      <trkpt lat="48.36666" lon="2.81984">
        <ele>55</ele>
        <time>2022-04-19T09:36:09.126Z</time>
      </trkpt>
      <trkpt lat="48.3666" lon="2.81985">
        <ele>55</ele>
        <time>2022-04-19T09:36:13.115Z</time>
      </trkpt>
      <trkpt lat="48.36654" lon="2.81986">
        <ele>55</ele>
        <time>2022-04-19T09:36:17.125Z</time>
      </trkpt>
      <trkpt lat="48.36646" lon="2.81986">
        <ele>56</ele>
        <time>2022-04-19T09:36:22.130Z</time>
      </trkpt>
      <trkpt lat="48.36639" lon="2.81989">
        <ele>56</ele>
        <time>2022-04-19T09:36:27.118Z</time>
      </trkpt>
      <trkpt lat="48.36631" lon="2.8199">
        <ele>56</ele>
        <time>2022-04-19T09:36:32.125Z</time>
      </trkpt>
      <trkpt lat="48.36624" lon="2.81991">
        <ele>57</ele>
        <time>2022-04-19T09:36:37.122Z</time>
      </trkpt>
      <trkpt lat="48.36616" lon="2.81992">
        <ele>57</ele>
        <time>2022-04-19T09:36:42.118Z</time>
      </trkpt>
      <trkpt lat="48.3661" lon="2.81993">
        <ele>57</ele>
        <time>2022-04-19T09:36:47.120Z</time>
      </trkpt>
      <trkpt lat="48.36604" lon="2.81993">
        <ele>57</ele>
        <time>2022-04-19T09:36:51.116Z</time>
      </trkpt>
      <trkpt lat="48.366" lon="2.81998">
        <ele>57</ele>
        <time>2022-04-19T09:36:55.130Z</time>
      </trkpt>
      <trkpt lat="48.36608" lon="2.82004">
        <ele>57</ele>
        <time>2022-04-19T09:37:00.117Z</time>
      </trkpt>
      <trkpt lat="48.36613" lon="2.82013">
        <ele>57</ele>
        <time>2022-04-19T09:37:05.126Z</time>
      </trkpt>
      <trkpt lat="48.36618" lon="2.8202">
        <ele>55</ele>
        <time>2022-04-19T09:37:10.122Z</time>
      </trkpt>
      <trkpt lat="48.3662" lon="2.82032">
        <ele>55</ele>
        <time>2022-04-19T09:37:15.117Z</time>
      </trkpt>
      <trkpt lat="48.36622" lon="2.82044">
        <ele>53</ele>
        <time>2022-04-19T09:37:20.123Z</time>
      </trkpt>
      <trkpt lat="48.36624" lon="2.82053">
        <ele>53</ele>
        <time>2022-04-19T09:37:24.127Z</time>
      </trkpt>
      <trkpt lat="48.36626" lon="2.82064">
        <ele>53</ele>
        <time>2022-04-19T09:37:29.150Z</time>
      </trkpt>
      <trkpt lat="48.36628" lon="2.82075">
        <ele>52</ele>
        <time>2022-04-19T09:37:34.114Z</time>
      </trkpt>
      <trkpt lat="48.3663" lon="2.82086">
        <ele>52</ele>
        <time>2022-04-19T09:37:39.118Z</time>
      </trkpt>
      <trkpt lat="48.36633" lon="2.82096">
        <ele>52</ele>
        <time>2022-04-19T09:37:44.134Z</time>
      </trkpt>
      <trkpt lat="48.36636" lon="2.82107">
        <ele>52</ele>
        <time>2022-04-19T09:37:49.123Z</time>
      </trkpt>
      <trkpt lat="48.36638" lon="2.82117">
        <ele>52</ele>
        <time>2022-04-19T09:37:54.124Z</time>
      </trkpt>
      <trkpt lat="48.36641" lon="2.82128">
        <ele>51</ele>
        <time>2022-04-19T09:37:59.121Z</time>
      </trkpt>
      <trkpt lat="48.36643" lon="2.82136">
        <ele>51</ele>
        <time>2022-04-19T09:38:03.118Z</time>
      </trkpt>
      <trkpt lat="48.36644" lon="2.82145">
        <ele>51</ele>
        <time>2022-04-19T09:38:07.120Z</time>
      </trkpt>
      <trkpt lat="48.36646" lon="2.82153">
        <ele>50</ele>
        <time>2022-04-19T09:38:11.130Z</time>
      </trkpt>
      <trkpt lat="48.36647" lon="2.82164">
        <ele>50</ele>
        <time>2022-04-19T09:38:16.118Z</time>
      </trkpt>
      <trkpt lat="48.36648" lon="2.82175">
        <ele>50</ele>
        <time>2022-04-19T09:38:21.122Z</time>
      </trkpt>
      <trkpt lat="48.36651" lon="2.82185">
        <ele>48</ele>
        <time>2022-04-19T09:38:26.115Z</time>
      </trkpt>
      <trkpt lat="48.36651" lon="2.82196">
        <ele>48</ele>
        <time>2022-04-19T09:38:31.126Z</time>
      </trkpt>
      <trkpt lat="48.36653" lon="2.82205">
        <ele>48</ele>
        <time>2022-04-19T09:38:35.126Z</time>
      </trkpt>
      <trkpt lat="48.36653" lon="2.82216">
        <ele>46</ele>
        <time>2022-04-19T09:38:40.118Z</time>
      </trkpt>
      <trkpt lat="48.36655" lon="2.82227">
        <ele>46</ele>
        <time>2022-04-19T09:38:45.127Z</time>
      </trkpt>
      <trkpt lat="48.36657" lon="2.8224">
        <ele>44</ele>
        <time>2022-04-19T09:38:50.123Z</time>
      </trkpt>
      <trkpt lat="48.36659" lon="2.82249">
        <ele>44</ele>
        <time>2022-04-19T09:38:55.117Z</time>
      </trkpt>
      <trkpt lat="48.36659" lon="2.82258">
        <ele>44</ele>
        <time>2022-04-19T09:38:59.118Z</time>
      </trkpt>
      <trkpt lat="48.36661" lon="2.82267">
        <ele>45</ele>
        <time>2022-04-19T09:39:03.125Z</time>
      </trkpt>
      <trkpt lat="48.36663" lon="2.82276">
        <ele>45</ele>
        <time>2022-04-19T09:39:07.127Z</time>
      </trkpt>
      <trkpt lat="48.36673" lon="2.82285">
        <ele>45</ele>
        <time>2022-04-19T09:39:21.120Z</time>
      </trkpt>
      <trkpt lat="48.36672" lon="2.82296">
        <ele>47</ele>
        <time>2022-04-19T09:39:26.120Z</time>
      </trkpt>
      <trkpt lat="48.36672" lon="2.82309">
        <ele>47</ele>
        <time>2022-04-19T09:39:31.114Z</time>
      </trkpt>
      <trkpt lat="48.3667" lon="2.8232">
        <ele>49</ele>
        <time>2022-04-19T09:39:36.121Z</time>
      </trkpt>
      <trkpt lat="48.36669" lon="2.82325">
        <ele>49</ele>
        <time>2022-04-19T09:39:40.123Z</time>
      </trkpt>
      <trkpt lat="48.36667" lon="2.82327">
        <ele>49</ele>
        <time>2022-04-19T09:41:00.124Z</time>
      </trkpt>
      <trkpt lat="48.36667" lon="2.82327">
        <ele>49</ele>
        <time>2022-04-19T09:41:05.128Z</time>
      </trkpt>
      <trkpt lat="48.36664" lon="2.82321">
        <ele>49</ele>
        <time>2022-04-19T09:41:10.119Z</time>
      </trkpt>
      <trkpt lat="48.36671" lon="2.82313">
        <ele>47</ele>
        <time>2022-04-19T09:41:14.118Z</time>
      </trkpt>
      <trkpt lat="48.36671" lon="2.82303">
        <ele>47</ele>
        <time>2022-04-19T09:41:19.120Z</time>
      </trkpt>
      <trkpt lat="48.36671" lon="2.82295">
        <ele>47</ele>
        <time>2022-04-19T09:41:23.127Z</time>
      </trkpt>
      <trkpt lat="48.36669" lon="2.82286">
        <ele>45</ele>
        <time>2022-04-19T09:41:28.117Z</time>
      </trkpt>
      <trkpt lat="48.36665" lon="2.82278">
        <ele>45</ele>
        <time>2022-04-19T09:41:33.124Z</time>
      </trkpt>
      <trkpt lat="48.36663" lon="2.82272">
        <ele>45</ele>
        <time>2022-04-19T09:41:38.121Z</time>
      </trkpt>
      <trkpt lat="48.36663" lon="2.82272">
        <ele>45</ele>
        <time>2022-04-19T09:41:42.125Z</time>
      </trkpt>
      <trkpt lat="48.36663" lon="2.82272">
        <ele>45</ele>
        <time>2022-04-19T09:41:47.120Z</time>
      </trkpt>
      <trkpt lat="48.36659" lon="2.82273">
        <ele>45</ele>
        <time>2022-04-19T09:41:51.123Z</time>
      </trkpt>
      <trkpt lat="48.36653" lon="2.82274">
        <ele>45</ele>
        <time>2022-04-19T09:41:56.117Z</time>
      </trkpt>
      <trkpt lat="48.3666" lon="2.8226">
        <ele>44</ele>
        <time>2022-04-19T09:43:13.123Z</time>
      </trkpt>
      <trkpt lat="48.36659" lon="2.82249">
        <ele>44</ele>
        <time>2022-04-19T09:43:18.130Z</time>
      </trkpt>
      <trkpt lat="48.36658" lon="2.82238">
        <ele>44</ele>
        <time>2022-04-19T09:43:23.128Z</time>
      </trkpt>
      <trkpt lat="48.36656" lon="2.82227">
        <ele>46</ele>
        <time>2022-04-19T09:43:28.131Z</time>
      </trkpt>
      <trkpt lat="48.36655" lon="2.82215">
        <ele>46</ele>
        <time>2022-04-19T09:43:33.134Z</time>
      </trkpt>
      <trkpt lat="48.36652" lon="2.82205">
        <ele>48</ele>
        <time>2022-04-19T09:43:38.119Z</time>
      </trkpt>
      <trkpt lat="48.3665" lon="2.82196">
        <ele>48</ele>
        <time>2022-04-19T09:43:42.136Z</time>
      </trkpt>
      <trkpt lat="48.36649" lon="2.82185">
        <ele>48</ele>
        <time>2022-04-19T09:43:47.133Z</time>
      </trkpt>
      <trkpt lat="48.36647" lon="2.82175">
        <ele>50</ele>
        <time>2022-04-19T09:43:52.126Z</time>
      </trkpt>
      <trkpt lat="48.36645" lon="2.82164">
        <ele>50</ele>
        <time>2022-04-19T09:43:57.125Z</time>
      </trkpt>
      <trkpt lat="48.36644" lon="2.82153">
        <ele>50</ele>
        <time>2022-04-19T09:44:02.132Z</time>
      </trkpt>
      <trkpt lat="48.36642" lon="2.82144">
        <ele>51</ele>
        <time>2022-04-19T09:44:07.131Z</time>
      </trkpt>
      <trkpt lat="48.3664" lon="2.82133">
        <ele>51</ele>
        <time>2022-04-19T09:44:12.128Z</time>
      </trkpt>
      <trkpt lat="48.36638" lon="2.82124">
        <ele>52</ele>
        <time>2022-04-19T09:44:16.127Z</time>
      </trkpt>
      <trkpt lat="48.36636" lon="2.82113">
        <ele>52</ele>
        <time>2022-04-19T09:44:21.122Z</time>
      </trkpt>
      <trkpt lat="48.36634" lon="2.82102">
        <ele>52</ele>
        <time>2022-04-19T09:44:26.120Z</time>
      </trkpt>
      <trkpt lat="48.36633" lon="2.82093">
        <ele>52</ele>
        <time>2022-04-19T09:44:30.114Z</time>
      </trkpt>
      <trkpt lat="48.36631" lon="2.82083">
        <ele>52</ele>
        <time>2022-04-19T09:44:35.155Z</time>
      </trkpt>
      <trkpt lat="48.36629" lon="2.82072">
        <ele>52</ele>
        <time>2022-04-19T09:44:40.120Z</time>
      </trkpt>
      <trkpt lat="48.36628" lon="2.82061">
        <ele>53</ele>
        <time>2022-04-19T09:44:45.129Z</time>
      </trkpt>
      <trkpt lat="48.36629" lon="2.8205">
        <ele>53</ele>
        <time>2022-04-19T09:44:50.118Z</time>
      </trkpt>
      <trkpt lat="48.36624" lon="2.82042">
        <ele>53</ele>
        <time>2022-04-19T09:44:55.124Z</time>
      </trkpt>
      <trkpt lat="48.36621" lon="2.82032">
        <ele>55</ele>
        <time>2022-04-19T09:45:00.123Z</time>
      </trkpt>
      <trkpt lat="48.36618" lon="2.82024">
        <ele>55</ele>
        <time>2022-04-19T09:45:04.124Z</time>
      </trkpt>
      <trkpt lat="48.36617" lon="2.82015">
        <ele>55</ele>
        <time>2022-04-19T09:45:08.121Z</time>
      </trkpt>
      <trkpt lat="48.36615" lon="2.82005">
        <ele>57</ele>
        <time>2022-04-19T09:45:13.123Z</time>
      </trkpt>
      <trkpt lat="48.36611" lon="2.81996">
        <ele>57</ele>
        <time>2022-04-19T09:45:18.138Z</time>
      </trkpt>
      <trkpt lat="48.36603" lon="2.81994">
        <ele>57</ele>
        <time>2022-04-19T09:45:23.114Z</time>
      </trkpt>
      <trkpt lat="48.36596" lon="2.81995">
        <ele>54</ele>
        <time>2022-04-19T09:45:28.121Z</time>
      </trkpt>
      <trkpt lat="48.36589" lon="2.81993">
        <ele>54</ele>
        <time>2022-04-19T09:45:33.127Z</time>
      </trkpt>
      <trkpt lat="48.36583" lon="2.81993">
        <ele>54</ele>
        <time>2022-04-19T09:45:37.127Z</time>
      </trkpt>
      <trkpt lat="48.36577" lon="2.81994">
        <ele>54</ele>
        <time>2022-04-19T09:45:41.132Z</time>
      </trkpt>
      <trkpt lat="48.36572" lon="2.81994">
        <ele>54</ele>
        <time>2022-04-19T09:45:46.117Z</time>
      </trkpt>
      <trkpt lat="48.36572" lon="2.81994">
        <ele>54</ele>
        <time>2022-04-19T09:46:18.122Z</time>
      </trkpt>
      <trkpt lat="48.36572" lon="2.81994">
        <ele>54</ele>
        <time>2022-04-19T09:46:23.119Z</time>
      </trkpt>
      <trkpt lat="48.36572" lon="2.81994">
        <ele>54</ele>
        <time>2022-04-19T09:46:27.122Z</time>
      </trkpt>
      <trkpt lat="48.36573" lon="2.81999">
        <ele>54</ele>
        <time>2022-04-19T09:46:32.124Z</time>
      </trkpt>
      <trkpt lat="48.36575" lon="2.82009">
        <ele>54</ele>
        <time>2022-04-19T09:46:36.118Z</time>
      </trkpt>
      <trkpt lat="48.36575" lon="2.8202">
        <ele>52</ele>
        <time>2022-04-19T09:46:41.119Z</time>
      </trkpt>
      <trkpt lat="48.36574" lon="2.82028">
        <ele>52</ele>
        <time>2022-04-19T09:46:45.118Z</time>
      </trkpt>
      <trkpt lat="48.36572" lon="2.8204">
        <ele>52</ele>
        <time>2022-04-19T09:46:50.125Z</time>
      </trkpt>
      <trkpt lat="48.36571" lon="2.82052">
        <ele>51</ele>
        <time>2022-04-19T09:46:55.141Z</time>
      </trkpt>
      <trkpt lat="48.36569" lon="2.82063">
        <ele>49</ele>
        <time>2022-04-19T09:47:00.126Z</time>
      </trkpt>
      <trkpt lat="48.36568" lon="2.82073">
        <ele>50</ele>
        <time>2022-04-19T09:47:04.122Z</time>
      </trkpt>
      <trkpt lat="48.36571" lon="2.82083">
        <ele>50</ele>
        <time>2022-04-19T09:47:09.114Z</time>
      </trkpt>
      <trkpt lat="48.3657" lon="2.82092">
        <ele>50</ele>
        <time>2022-04-19T09:47:14.123Z</time>
      </trkpt>
      <trkpt lat="48.36567" lon="2.82103">
        <ele>50</ele>
        <time>2022-04-19T09:47:19.123Z</time>
      </trkpt>
      <trkpt lat="48.36561" lon="2.82111">
        <ele>50</ele>
        <time>2022-04-19T09:47:24.122Z</time>
      </trkpt>
      <trkpt lat="48.36556" lon="2.82117">
        <ele>50</ele>
        <time>2022-04-19T09:47:28.133Z</time>
      </trkpt>
      <trkpt lat="48.36549" lon="2.82119">
        <ele>50</ele>
        <time>2022-04-19T09:47:33.123Z</time>
      </trkpt>
      <trkpt lat="48.36542" lon="2.82124">
        <ele>50</ele>
        <time>2022-04-19T09:47:38.129Z</time>
      </trkpt>
      <trkpt lat="48.36535" lon="2.8213">
        <ele>47</ele>
        <time>2022-04-19T09:47:43.117Z</time>
      </trkpt>
      <trkpt lat="48.36529" lon="2.82133">
        <ele>47</ele>
        <time>2022-04-19T09:47:47.119Z</time>
      </trkpt>
      <trkpt lat="48.36522" lon="2.82136">
        <ele>47</ele>
        <time>2022-04-19T09:47:51.114Z</time>
      </trkpt>
      <trkpt lat="48.36514" lon="2.82141">
        <ele>47</ele>
        <time>2022-04-19T09:47:56.118Z</time>
      </trkpt>
      <trkpt lat="48.36509" lon="2.82145">
        <ele>47</ele>
        <time>2022-04-19T09:48:00.124Z</time>
      </trkpt>
      <trkpt lat="48.36501" lon="2.82148">
        <ele>47</ele>
        <time>2022-04-19T09:48:05.271Z</time>
      </trkpt>
      <trkpt lat="48.36498" lon="2.82151">
        <ele>47</ele>
        <time>2022-04-19T09:48:10.128Z</time>
      </trkpt>
      <trkpt lat="48.36492" lon="2.82156">
        <ele>47</ele>
        <time>2022-04-19T09:48:15.132Z</time>
      </trkpt>
      <trkpt lat="48.36485" lon="2.82162">
        <ele>48</ele>
        <time>2022-04-19T09:48:20.123Z</time>
      </trkpt>
      <trkpt lat="48.3648" lon="2.82167">
        <ele>48</ele>
        <time>2022-04-19T09:48:24.139Z</time>
      </trkpt>
      <trkpt lat="48.36474" lon="2.82173">
        <ele>48</ele>
        <time>2022-04-19T09:48:29.119Z</time>
      </trkpt>
      <trkpt lat="48.36469" lon="2.82178">
        <ele>48</ele>
        <time>2022-04-19T09:48:33.124Z</time>
      </trkpt>
      <trkpt lat="48.36462" lon="2.82184">
        <ele>49</ele>
        <time>2022-04-19T09:48:37.130Z</time>
      </trkpt>
      <trkpt lat="48.36456" lon="2.8219">
        <ele>49</ele>
        <time>2022-04-19T09:48:42.126Z</time>
      </trkpt>
      <trkpt lat="48.36451" lon="2.82195">
        <ele>49</ele>
        <time>2022-04-19T09:48:46.129Z</time>
      </trkpt>
      <trkpt lat="48.36445" lon="2.82201">
        <ele>49</ele>
        <time>2022-04-19T09:48:51.120Z</time>
      </trkpt>
      <trkpt lat="48.36438" lon="2.82203">
        <ele>49</ele>
        <time>2022-04-19T09:48:56.122Z</time>
      </trkpt>
      <trkpt lat="48.36431" lon="2.82203">
        <ele>50</ele>
        <time>2022-04-19T09:49:01.132Z</time>
      </trkpt>
      <trkpt lat="48.36424" lon="2.82201">
        <ele>50</ele>
        <time>2022-04-19T09:49:05.121Z</time>
      </trkpt>
      <trkpt lat="48.3642" lon="2.82197">
        <ele>50</ele>
        <time>2022-04-19T09:49:09.119Z</time>
      </trkpt>
      <trkpt lat="48.36414" lon="2.82191">
        <ele>50</ele>
        <time>2022-04-19T09:49:14.121Z</time>
      </trkpt>
      <trkpt lat="48.36407" lon="2.82187">
        <ele>50</ele>
        <time>2022-04-19T09:49:19.129Z</time>
      </trkpt>
      <trkpt lat="48.36401" lon="2.82184">
        <ele>50</ele>
        <time>2022-04-19T09:49:24.121Z</time>
      </trkpt>
      <trkpt lat="48.36395" lon="2.82182">
        <ele>50</ele>
        <time>2022-04-19T09:49:29.124Z</time>
      </trkpt>
      <trkpt lat="48.36389" lon="2.82182">
        <ele>50</ele>
        <time>2022-04-19T09:49:34.130Z</time>
      </trkpt>
      <trkpt lat="48.36384" lon="2.82176">
        <ele>49</ele>
        <time>2022-04-19T09:49:39.127Z</time>
      </trkpt>
      <trkpt lat="48.36379" lon="2.8217">
        <ele>49</ele>
        <time>2022-04-19T09:49:43.118Z</time>
      </trkpt>
      <trkpt lat="48.36376" lon="2.82162">
        <ele>49</ele>
        <time>2022-04-19T09:49:47.129Z</time>
      </trkpt>
      <trkpt lat="48.36374" lon="2.82151">
        <ele>48</ele>
        <time>2022-04-19T09:49:52.126Z</time>
      </trkpt>
      <trkpt lat="48.36372" lon="2.82142">
        <ele>48</ele>
        <time>2022-04-19T09:49:56.133Z</time>
      </trkpt>
      <trkpt lat="48.36369" lon="2.82131">
        <ele>48</ele>
        <time>2022-04-19T09:50:01.114Z</time>
      </trkpt>
      <trkpt lat="48.36369" lon="2.82123">
        <ele>48</ele>
        <time>2022-04-19T09:50:05.121Z</time>
      </trkpt>
      <trkpt lat="48.36364" lon="2.82113">
        <ele>48</ele>
        <time>2022-04-19T09:50:10.131Z</time>
      </trkpt>
      <trkpt lat="48.36361" lon="2.82105">
        <ele>48</ele>
        <time>2022-04-19T09:50:14.124Z</time>
      </trkpt>
      <trkpt lat="48.36356" lon="2.82098">
        <ele>48</ele>
        <time>2022-04-19T09:50:19.120Z</time>
      </trkpt>
      <trkpt lat="48.36351" lon="2.82095">
        <ele>49</ele>
        <time>2022-04-19T09:50:23.127Z</time>
      </trkpt>
      <trkpt lat="48.36345" lon="2.82094">
        <ele>48</ele>
        <time>2022-04-19T09:50:28.126Z</time>
      </trkpt>
      <trkpt lat="48.36339" lon="2.82096">
        <ele>48</ele>
        <time>2022-04-19T09:50:33.126Z</time>
      </trkpt>
      <trkpt lat="48.36332" lon="2.82098">
        <ele>48</ele>
        <time>2022-04-19T09:50:38.119Z</time>
      </trkpt>
      <trkpt lat="48.36327" lon="2.82099">
        <ele>48</ele>
        <time>2022-04-19T09:50:42.126Z</time>
      </trkpt>
      <trkpt lat="48.3632" lon="2.82096">
        <ele>48</ele>
        <time>2022-04-19T09:50:47.115Z</time>
      </trkpt>
      <trkpt lat="48.36316" lon="2.82091">
        <ele>46</ele>
        <time>2022-04-19T09:50:51.124Z</time>
      </trkpt>
      <trkpt lat="48.36311" lon="2.82084">
        <ele>46</ele>
        <time>2022-04-19T09:50:56.132Z</time>
      </trkpt>
      <trkpt lat="48.36298" lon="2.82069">
        <ele>46</ele>
        <time>2022-04-19T09:51:15.131Z</time>
      </trkpt>
      <trkpt lat="48.36298" lon="2.82069">
        <ele>46</ele>
        <time>2022-04-19T09:51:19.134Z</time>
      </trkpt>
      <trkpt lat="48.36298" lon="2.82069">
        <ele>46</ele>
        <time>2022-04-19T09:51:24.129Z</time>
      </trkpt>
      <trkpt lat="48.36298" lon="2.82069">
        <ele>46</ele>
        <time>2022-04-19T09:51:29.120Z</time>
      </trkpt>
      <trkpt lat="48.36298" lon="2.82069">
        <ele>46</ele>
        <time>2022-04-19T09:51:33.121Z</time>
      </trkpt>
      <trkpt lat="48.36298" lon="2.82073">
        <ele>46</ele>
        <time>2022-04-19T09:51:38.144Z</time>
      </trkpt>
      <trkpt lat="48.36306" lon="2.82081">
        <ele>46</ele>
        <time>2022-04-19T09:51:43.119Z</time>
      </trkpt>
      <trkpt lat="48.36311" lon="2.82086">
        <ele>46</ele>
        <time>2022-04-19T09:51:47.119Z</time>
      </trkpt>
      <trkpt lat="48.36317" lon="2.82093">
        <ele>46</ele>
        <time>2022-04-19T09:51:52.139Z</time>
      </trkpt>
      <trkpt lat="48.36323" lon="2.82099">
        <ele>48</ele>
        <time>2022-04-19T09:51:57.128Z</time>
      </trkpt>
      <trkpt lat="48.3633" lon="2.82099">
        <ele>48</ele>
        <time>2022-04-19T09:52:02.119Z</time>
      </trkpt>
      <trkpt lat="48.36335" lon="2.82096">
        <ele>48</ele>
        <time>2022-04-19T09:52:06.134Z</time>
      </trkpt>
      <trkpt lat="48.36341" lon="2.82092">
        <ele>48</ele>
        <time>2022-04-19T09:52:11.128Z</time>
      </trkpt>
      <trkpt lat="48.36344" lon="2.82092">
        <ele>48</ele>
        <time>2022-04-19T09:52:16.118Z</time>
      </trkpt>
      <trkpt lat="48.36347" lon="2.82094">
        <ele>48</ele>
        <time>2022-04-19T09:52:20.133Z</time>
      </trkpt>
      <trkpt lat="48.36353" lon="2.82099">
        <ele>48</ele>
        <time>2022-04-19T09:52:25.123Z</time>
      </trkpt>
      <trkpt lat="48.36359" lon="2.82106">
        <ele>48</ele>
        <time>2022-04-19T09:52:30.124Z</time>
      </trkpt>
      <trkpt lat="48.36362" lon="2.82115">
        <ele>48</ele>
        <time>2022-04-19T09:52:35.127Z</time>
      </trkpt>
      <trkpt lat="48.36366" lon="2.82126">
        <ele>48</ele>
        <time>2022-04-19T09:52:40.128Z</time>
      </trkpt>
      <trkpt lat="48.36369" lon="2.82135">
        <ele>48</ele>
        <time>2022-04-19T09:52:45.126Z</time>
      </trkpt>
      <trkpt lat="48.36372" lon="2.82146">
        <ele>48</ele>
        <time>2022-04-19T09:52:50.116Z</time>
      </trkpt>
      <trkpt lat="48.36374" lon="2.82155">
        <ele>48</ele>
        <time>2022-04-19T09:52:54.134Z</time>
      </trkpt>
      <trkpt lat="48.36378" lon="2.82165">
        <ele>49</ele>
        <time>2022-04-19T09:52:59.122Z</time>
      </trkpt>
      <trkpt lat="48.36382" lon="2.82172">
        <ele>49</ele>
        <time>2022-04-19T09:53:03.117Z</time>
      </trkpt>
      <trkpt lat="48.36388" lon="2.82179">
        <ele>49</ele>
        <time>2022-04-19T09:53:08.123Z</time>
      </trkpt>
      <trkpt lat="48.36393" lon="2.82183">
        <ele>50</ele>
        <time>2022-04-19T09:53:12.130Z</time>
      </trkpt>
      <trkpt lat="48.36398" lon="2.82185">
        <ele>50</ele>
        <time>2022-04-19T09:53:16.135Z</time>
      </trkpt>
      <trkpt lat="48.36406" lon="2.82188">
        <ele>50</ele>
        <time>2022-04-19T09:53:21.119Z</time>
      </trkpt>
      <trkpt lat="48.36412" lon="2.82193">
        <ele>50</ele>
        <time>2022-04-19T09:53:26.129Z</time>
      </trkpt>
      <trkpt lat="48.36422" lon="2.82194">
        <ele>50</ele>
        <time>2022-04-19T09:53:54.121Z</time>
      </trkpt>
      <trkpt lat="48.36426" lon="2.82199">
        <ele>50</ele>
        <time>2022-04-19T09:53:58.129Z</time>
      </trkpt>
      <trkpt lat="48.36432" lon="2.82202">
        <ele>49</ele>
        <time>2022-04-19T09:54:02.123Z</time>
      </trkpt>
      <trkpt lat="48.36437" lon="2.82202">
        <ele>49</ele>
        <time>2022-04-19T09:54:06.129Z</time>
      </trkpt>
      <trkpt lat="48.36445" lon="2.82201">
        <ele>49</ele>
        <time>2022-04-19T09:54:11.113Z</time>
      </trkpt>
      <trkpt lat="48.3645" lon="2.82197">
        <ele>49</ele>
        <time>2022-04-19T09:54:15.120Z</time>
      </trkpt>
      <trkpt lat="48.36457" lon="2.82192">
        <ele>49</ele>
        <time>2022-04-19T09:54:20.128Z</time>
      </trkpt>
      <trkpt lat="48.36465" lon="2.82186">
        <ele>49</ele>
        <time>2022-04-19T09:54:25.136Z</time>
      </trkpt>
      <trkpt lat="48.3647" lon="2.82181">
        <ele>49</ele>
        <time>2022-04-19T09:54:30.123Z</time>
      </trkpt>
      <trkpt lat="48.36475" lon="2.82176">
        <ele>48</ele>
        <time>2022-04-19T09:54:34.141Z</time>
      </trkpt>
      <trkpt lat="48.36481" lon="2.82171">
        <ele>48</ele>
        <time>2022-04-19T09:54:39.119Z</time>
      </trkpt>
      <trkpt lat="48.36487" lon="2.82165">
        <ele>47</ele>
        <time>2022-04-19T09:54:44.123Z</time>
      </trkpt>
      <trkpt lat="48.36493" lon="2.82158">
        <ele>47</ele>
        <time>2022-04-19T09:54:49.121Z</time>
      </trkpt>
      <trkpt lat="48.36498" lon="2.82152">
        <ele>47</ele>
        <time>2022-04-19T09:54:53.124Z</time>
      </trkpt>
      <trkpt lat="48.36505" lon="2.82148">
        <ele>47</ele>
        <time>2022-04-19T09:54:58.122Z</time>
      </trkpt>
      <trkpt lat="48.3651" lon="2.82144">
        <ele>47</ele>
        <time>2022-04-19T09:55:02.118Z</time>
      </trkpt>
      <trkpt lat="48.36515" lon="2.8214">
        <ele>47</ele>
        <time>2022-04-19T09:55:06.134Z</time>
      </trkpt>
      <trkpt lat="48.36523" lon="2.82135">
        <ele>47</ele>
        <time>2022-04-19T09:55:11.125Z</time>
      </trkpt>
      <trkpt lat="48.3653" lon="2.82132">
        <ele>47</ele>
        <time>2022-04-19T09:55:16.115Z</time>
      </trkpt>
      <trkpt lat="48.36536" lon="2.82128">
        <ele>47</ele>
        <time>2022-04-19T09:55:20.126Z</time>
      </trkpt>
      <trkpt lat="48.36543" lon="2.82124">
        <ele>50</ele>
        <time>2022-04-19T09:55:25.121Z</time>
      </trkpt>
      <trkpt lat="48.3655" lon="2.82119">
        <ele>50</ele>
        <time>2022-04-19T09:55:30.125Z</time>
      </trkpt>
      <trkpt lat="48.36557" lon="2.82113">
        <ele>50</ele>
        <time>2022-04-19T09:55:35.122Z</time>
      </trkpt>
      <trkpt lat="48.36561" lon="2.82106">
        <ele>50</ele>
        <time>2022-04-19T09:55:40.119Z</time>
      </trkpt>
      <trkpt lat="48.36563" lon="2.82103">
        <ele>50</ele>
        <time>2022-04-19T09:55:44.124Z</time>
      </trkpt>
      <trkpt lat="48.36562" lon="2.82104">
        <ele>50</ele>
        <time>2022-04-19T09:55:48.122Z</time>
      </trkpt>
      <trkpt lat="48.36564" lon="2.82099">
        <ele>50</ele>
        <time>2022-04-19T09:55:53.118Z</time>
      </trkpt>
      <trkpt lat="48.36565" lon="2.82091">
        <ele>50</ele>
        <time>2022-04-19T09:55:57.126Z</time>
      </trkpt>
      <trkpt lat="48.36567" lon="2.82078">
        <ele>50</ele>
        <time>2022-04-19T09:56:02.122Z</time>
      </trkpt>
      <trkpt lat="48.36568" lon="2.82067">
        <ele>49</ele>
        <time>2022-04-19T09:56:07.121Z</time>
      </trkpt>
      <trkpt lat="48.36569" lon="2.82058">
        <ele>49</ele>
        <time>2022-04-19T09:56:11.116Z</time>
      </trkpt>
      <trkpt lat="48.36571" lon="2.82049">
        <ele>51</ele>
        <time>2022-04-19T09:56:15.122Z</time>
      </trkpt>
      <trkpt lat="48.36572" lon="2.8204">
        <ele>52</ele>
        <time>2022-04-19T09:56:19.124Z</time>
      </trkpt>
      <trkpt lat="48.36568" lon="2.82021">
        <ele>50</ele>
        <time>2022-04-19T09:57:11.117Z</time>
      </trkpt>
      <trkpt lat="48.36569" lon="2.82018">
        <ele>50</ele>
        <time>2022-04-19T09:57:15.130Z</time>
      </trkpt>
      <trkpt lat="48.36571" lon="2.82007">
        <ele>54</ele>
        <time>2022-04-19T09:57:20.123Z</time>
      </trkpt>
      <trkpt lat="48.36567" lon="2.81998">
        <ele>51</ele>
        <time>2022-04-19T09:57:25.116Z</time>
      </trkpt>
      <trkpt lat="48.36562" lon="2.81996">
        <ele>51</ele>
        <time>2022-04-19T09:57:29.119Z</time>
      </trkpt>
      <trkpt lat="48.36557" lon="2.81995">
        <ele>51</ele>
        <time>2022-04-19T09:57:33.121Z</time>
      </trkpt>
      <trkpt lat="48.36551" lon="2.81992">
        <ele>51</ele>
        <time>2022-04-19T09:57:38.122Z</time>
      </trkpt>
      <trkpt lat="48.36546" lon="2.81989">
        <ele>51</ele>
        <time>2022-04-19T09:57:42.135Z</time>
      </trkpt>
      <trkpt lat="48.3654" lon="2.81984">
        <ele>54</ele>
        <time>2022-04-19T09:57:47.114Z</time>
      </trkpt>
      <trkpt lat="48.36535" lon="2.8198">
        <ele>54</ele>
        <time>2022-04-19T09:57:51.132Z</time>
      </trkpt>
      <trkpt lat="48.36528" lon="2.81977">
        <ele>54</ele>
        <time>2022-04-19T09:57:56.127Z</time>
      </trkpt>
      <trkpt lat="48.36521" lon="2.81974">
        <ele>54</ele>
        <time>2022-04-19T09:58:01.121Z</time>
      </trkpt>
      <trkpt lat="48.36514" lon="2.8197">
        <ele>54</ele>
        <time>2022-04-19T09:58:06.121Z</time>
      </trkpt>
      <trkpt lat="48.36508" lon="2.81968">
        <ele>54</ele>
        <time>2022-04-19T09:58:10.125Z</time>
      </trkpt>
      <trkpt lat="48.36501" lon="2.81965">
        <ele>54</ele>
        <time>2022-04-19T09:58:15.121Z</time>
      </trkpt>
      <trkpt lat="48.36494" lon="2.81961">
        <ele>54</ele>
        <time>2022-04-19T09:58:20.126Z</time>
      </trkpt>
      <trkpt lat="48.36489" lon="2.81959">
        <ele>54</ele>
        <time>2022-04-19T09:58:24.127Z</time>
      </trkpt>
      <trkpt lat="48.36481" lon="2.81956">
        <ele>52</ele>
        <time>2022-04-19T09:58:29.128Z</time>
      </trkpt>
      <trkpt lat="48.36473" lon="2.81953">
        <ele>52</ele>
        <time>2022-04-19T09:58:34.127Z</time>
      </trkpt>
      <trkpt lat="48.36466" lon="2.81949">
        <ele>52</ele>
        <time>2022-04-19T09:58:39.130Z</time>
      </trkpt>
      <trkpt lat="48.36459" lon="2.81945">
        <ele>52</ele>
        <time>2022-04-19T09:58:44.126Z</time>
      </trkpt>
      <trkpt lat="48.36452" lon="2.81941">
        <ele>50</ele>
        <time>2022-04-19T09:58:49.120Z</time>
      </trkpt>
      <trkpt lat="48.36447" lon="2.81938">
        <ele>50</ele>
        <time>2022-04-19T09:58:53.123Z</time>
      </trkpt>
      <trkpt lat="48.36441" lon="2.81935">
        <ele>50</ele>
        <time>2022-04-19T09:58:57.144Z</time>
      </trkpt>
      <trkpt lat="48.36442" lon="2.81927">
        <ele>52</ele>
        <time>2022-04-19T09:59:02.116Z</time>
      </trkpt>
      <trkpt lat="48.36437" lon="2.81926">
        <ele>52</ele>
        <time>2022-04-19T09:59:34.128Z</time>
      </trkpt>
      <trkpt lat="48.36431" lon="2.81927">
        <ele>52</ele>
        <time>2022-04-19T09:59:39.119Z</time>
      </trkpt>
      <trkpt lat="48.36424" lon="2.81928">
        <ele>51</ele>
        <time>2022-04-19T09:59:44.113Z</time>
      </trkpt>
      <trkpt lat="48.3642" lon="2.81925">
        <ele>51</ele>
        <time>2022-04-19T09:59:48.124Z</time>
      </trkpt>
      <trkpt lat="48.36413" lon="2.81922">
        <ele>51</ele>
        <time>2022-04-19T09:59:53.128Z</time>
      </trkpt>
      <trkpt lat="48.36408" lon="2.8192">
        <ele>51</ele>
        <time>2022-04-19T09:59:58.115Z</time>
      </trkpt>
      <trkpt lat="48.36403" lon="2.81918">
        <ele>51</ele>
        <time>2022-04-19T10:00:02.132Z</time>
      </trkpt>
      <trkpt lat="48.36396" lon="2.81916">
        <ele>51</ele>
        <time>2022-04-19T10:00:07.120Z</time>
      </trkpt>
      <trkpt lat="48.36391" lon="2.8191">
        <ele>51</ele>
        <time>2022-04-19T10:00:12.123Z</time>
      </trkpt>
      <trkpt lat="48.36385" lon="2.81905">
        <ele>51</ele>
        <time>2022-04-19T10:00:17.118Z</time>
      </trkpt>
      <trkpt lat="48.36379" lon="2.81901">
        <ele>53</ele>
        <time>2022-04-19T10:00:21.125Z</time>
      </trkpt>
      <trkpt lat="48.36374" lon="2.81895">
        <ele>53</ele>
        <time>2022-04-19T10:00:25.123Z</time>
      </trkpt>
      <trkpt lat="48.36368" lon="2.81887">
        <ele>53</ele>
        <time>2022-04-19T10:00:30.122Z</time>
      </trkpt>
      <trkpt lat="48.36361" lon="2.81879">
        <ele>53</ele>
        <time>2022-04-19T10:00:35.127Z</time>
      </trkpt>
      <trkpt lat="48.36356" lon="2.81871">
        <ele>54</ele>
        <time>2022-04-19T10:00:40.129Z</time>
      </trkpt>
      <trkpt lat="48.36352" lon="2.81864">
        <ele>54</ele>
        <time>2022-04-19T10:00:44.126Z</time>
      </trkpt>
      <trkpt lat="48.36347" lon="2.81854">
        <ele>54</ele>
        <time>2022-04-19T10:00:49.125Z</time>
      </trkpt>
      <trkpt lat="48.36344" lon="2.81847">
        <ele>54</ele>
        <time>2022-04-19T10:00:53.128Z</time>
      </trkpt>
      <trkpt lat="48.36341" lon="2.81836">
        <ele>54</ele>
        <time>2022-04-19T10:00:58.144Z</time>
      </trkpt>
      <trkpt lat="48.36337" lon="2.81827">
        <ele>54</ele>
        <time>2022-04-19T10:01:03.123Z</time>
      </trkpt>
      <trkpt lat="48.36336" lon="2.81818">
        <ele>54</ele>
        <time>2022-04-19T10:01:07.128Z</time>
      </trkpt>
      <trkpt lat="48.36332" lon="2.81809">
        <ele>54</ele>
        <time>2022-04-19T10:01:12.136Z</time>
      </trkpt>
      <trkpt lat="48.36328" lon="2.818">
        <ele>54</ele>
        <time>2022-04-19T10:01:17.126Z</time>
      </trkpt>
      <trkpt lat="48.36324" lon="2.8179">
        <ele>55</ele>
        <time>2022-04-19T10:01:22.123Z</time>
      </trkpt>
      <trkpt lat="48.3632" lon="2.81779">
        <ele>55</ele>
        <time>2022-04-19T10:01:27.122Z</time>
      </trkpt>
      <trkpt lat="48.36315" lon="2.8177">
        <ele>53</ele>
        <time>2022-04-19T10:01:32.127Z</time>
      </trkpt>
      <trkpt lat="48.36312" lon="2.8176">
        <ele>53</ele>
        <time>2022-04-19T10:01:37.118Z</time>
      </trkpt>
      <trkpt lat="48.36307" lon="2.81751">
        <ele>53</ele>
        <time>2022-04-19T10:01:42.118Z</time>
      </trkpt>
      <trkpt lat="48.36304" lon="2.81744">
        <ele>53</ele>
        <time>2022-04-19T10:01:46.123Z</time>
      </trkpt>
      <trkpt lat="48.36302" lon="2.81736">
        <ele>53</ele>
        <time>2022-04-19T10:01:50.128Z</time>
      </trkpt>
      <trkpt lat="48.36298" lon="2.81726">
        <ele>54</ele>
        <time>2022-04-19T10:01:55.115Z</time>
      </trkpt>
      <trkpt lat="48.36296" lon="2.81718">
        <ele>54</ele>
        <time>2022-04-19T10:01:59.122Z</time>
      </trkpt>
      <trkpt lat="48.36293" lon="2.81707">
        <ele>56</ele>
        <time>2022-04-19T10:02:04.124Z</time>
      </trkpt>
      <trkpt lat="48.36289" lon="2.81697">
        <ele>53</ele>
        <time>2022-04-19T10:02:09.128Z</time>
      </trkpt>
      <trkpt lat="48.36287" lon="2.81686">
        <ele>53</ele>
        <time>2022-04-19T10:02:14.123Z</time>
      </trkpt>
      <trkpt lat="48.36283" lon="2.81675">
        <ele>53</ele>
        <time>2022-04-19T10:02:19.117Z</time>
      </trkpt>
      <trkpt lat="48.36279" lon="2.81668">
        <ele>53</ele>
        <time>2022-04-19T10:02:23.119Z</time>
      </trkpt>
      <trkpt lat="48.36276" lon="2.81657">
        <ele>53</ele>
        <time>2022-04-19T10:02:28.129Z</time>
      </trkpt>
      <trkpt lat="48.36273" lon="2.81649">
        <ele>53</ele>
        <time>2022-04-19T10:02:32.125Z</time>
      </trkpt>
      <trkpt lat="48.3627" lon="2.81639">
        <ele>53</ele>
        <time>2022-04-19T10:02:37.122Z</time>
      </trkpt>
      <trkpt lat="48.36266" lon="2.81629">
        <ele>53</ele>
        <time>2022-04-19T10:02:42.129Z</time>
      </trkpt>
      <trkpt lat="48.36264" lon="2.81621">
        <ele>53</ele>
        <time>2022-04-19T10:02:46.132Z</time>
      </trkpt>
      <trkpt lat="48.36261" lon="2.8161">
        <ele>53</ele>
        <time>2022-04-19T10:02:51.125Z</time>
      </trkpt>
      <trkpt lat="48.36258" lon="2.816">
        <ele>53</ele>
        <time>2022-04-19T10:02:56.225Z</time>
      </trkpt>
      <trkpt lat="48.36255" lon="2.8159">
        <ele>54</ele>
        <time>2022-04-19T10:03:01.122Z</time>
      </trkpt>
      <trkpt lat="48.36252" lon="2.81581">
        <ele>54</ele>
        <time>2022-04-19T10:03:06.124Z</time>
      </trkpt>
      <trkpt lat="48.36249" lon="2.81573">
        <ele>54</ele>
        <time>2022-04-19T10:03:10.126Z</time>
      </trkpt>
      <trkpt lat="48.36246" lon="2.81565">
        <ele>55</ele>
        <time>2022-04-19T10:03:14.132Z</time>
      </trkpt>
      <trkpt lat="48.36243" lon="2.81557">
        <ele>55</ele>
        <time>2022-04-19T10:03:18.130Z</time>
      </trkpt>
      <trkpt lat="48.3624" lon="2.81546">
        <ele>55</ele>
        <time>2022-04-19T10:03:23.132Z</time>
      </trkpt>
      <trkpt lat="48.36236" lon="2.81539">
        <ele>54</ele>
        <time>2022-04-19T10:03:27.141Z</time>
      </trkpt>
      <trkpt lat="48.36232" lon="2.8153">
        <ele>54</ele>
        <time>2022-04-19T10:03:32.124Z</time>
      </trkpt>
      <trkpt lat="48.36228" lon="2.81519">
        <ele>54</ele>
        <time>2022-04-19T10:03:37.133Z</time>
      </trkpt>
      <trkpt lat="48.36225" lon="2.81511">
        <ele>54</ele>
        <time>2022-04-19T10:03:41.128Z</time>
      </trkpt>
      <trkpt lat="48.36221" lon="2.81502">
        <ele>54</ele>
        <time>2022-04-19T10:03:46.127Z</time>
      </trkpt>
      <trkpt lat="48.36218" lon="2.81491">
        <ele>54</ele>
        <time>2022-04-19T10:03:51.120Z</time>
      </trkpt>
      <trkpt lat="48.36214" lon="2.81482">
        <ele>54</ele>
        <time>2022-04-19T10:03:56.119Z</time>
      </trkpt>
      <trkpt lat="48.36209" lon="2.81473">
        <ele>54</ele>
        <time>2022-04-19T10:04:01.125Z</time>
      </trkpt>
      <trkpt lat="48.36206" lon="2.81465">
        <ele>53</ele>
        <time>2022-04-19T10:04:05.129Z</time>
      </trkpt>
      <trkpt lat="48.36201" lon="2.81455">
        <ele>53</ele>
        <time>2022-04-19T10:04:10.123Z</time>
      </trkpt>
      <trkpt lat="48.36197" lon="2.81446">
        <ele>53</ele>
        <time>2022-04-19T10:04:15.129Z</time>
      </trkpt>
      <trkpt lat="48.36194" lon="2.81438">
        <ele>53</ele>
        <time>2022-04-19T10:04:19.125Z</time>
      </trkpt>
      <trkpt lat="48.3619" lon="2.81427">
        <ele>54</ele>
        <time>2022-04-19T10:04:24.129Z</time>
      </trkpt>
      <trkpt lat="48.36186" lon="2.81417">
        <ele>54</ele>
        <time>2022-04-19T10:04:29.128Z</time>
      </trkpt>
      <trkpt lat="48.36182" lon="2.81407">
        <ele>54</ele>
        <time>2022-04-19T10:04:34.124Z</time>
      </trkpt>
      <trkpt lat="48.36179" lon="2.81398">
        <ele>54</ele>
        <time>2022-04-19T10:04:38.124Z</time>
      </trkpt>
      <trkpt lat="48.36176" lon="2.81388">
        <ele>54</ele>
        <time>2022-04-19T10:04:43.118Z</time>
      </trkpt>
      <trkpt lat="48.36173" lon="2.81381">
        <ele>54</ele>
        <time>2022-04-19T10:04:47.130Z</time>
      </trkpt>
      <trkpt lat="48.36169" lon="2.81374">
        <ele>55</ele>
        <time>2022-04-19T10:04:51.149Z</time>
      </trkpt>
      <trkpt lat="48.36165" lon="2.81364">
        <ele>55</ele>
        <time>2022-04-19T10:04:56.118Z</time>
      </trkpt>
      <trkpt lat="48.36162" lon="2.81356">
        <ele>55</ele>
        <time>2022-04-19T10:05:00.115Z</time>
      </trkpt>
      <trkpt lat="48.36156" lon="2.81348">
        <ele>55</ele>
        <time>2022-04-19T10:05:05.123Z</time>
      </trkpt>
      <trkpt lat="48.36152" lon="2.81341">
        <ele>55</ele>
        <time>2022-04-19T10:05:09.125Z</time>
      </trkpt>
      <trkpt lat="48.36148" lon="2.81333">
        <ele>55</ele>
        <time>2022-04-19T10:05:14.121Z</time>
      </trkpt>
      <trkpt lat="48.36144" lon="2.81325">
        <ele>55</ele>
        <time>2022-04-19T10:05:19.121Z</time>
      </trkpt>
      <trkpt lat="48.36137" lon="2.81317">
        <ele>54</ele>
        <time>2022-04-19T10:05:24.129Z</time>
      </trkpt>
      <trkpt lat="48.36131" lon="2.81307">
        <ele>54</ele>
        <time>2022-04-19T10:05:29.130Z</time>
      </trkpt>
      <trkpt lat="48.36125" lon="2.81297">
        <ele>54</ele>
        <time>2022-04-19T10:05:34.139Z</time>
      </trkpt>
      <trkpt lat="48.36119" lon="2.81289">
        <ele>55</ele>
        <time>2022-04-19T10:05:39.132Z</time>
      </trkpt>
      <trkpt lat="48.36114" lon="2.81281">
        <ele>55</ele>
        <time>2022-04-19T10:05:44.127Z</time>
      </trkpt>
      <trkpt lat="48.3611" lon="2.81275">
        <ele>55</ele>
        <time>2022-04-19T10:05:48.125Z</time>
      </trkpt>
      <trkpt lat="48.36105" lon="2.81266">
        <ele>55</ele>
        <time>2022-04-19T10:05:53.114Z</time>
      </trkpt>
      <trkpt lat="48.361" lon="2.81259">
        <ele>56</ele>
        <time>2022-04-19T10:05:58.120Z</time>
      </trkpt>
      <trkpt lat="48.36095" lon="2.81254">
        <ele>57</ele>
        <time>2022-04-19T10:06:02.126Z</time>
      </trkpt>
      <trkpt lat="48.36089" lon="2.81245">
        <ele>57</ele>
        <time>2022-04-19T10:06:07.120Z</time>
      </trkpt>
      <trkpt lat="48.36085" lon="2.81238">
        <ele>57</ele>
        <time>2022-04-19T10:06:11.128Z</time>
      </trkpt>
      <trkpt lat="48.36079" lon="2.81229">
        <ele>59</ele>
        <time>2022-04-19T10:06:16.123Z</time>
      </trkpt>
      <trkpt lat="48.36074" lon="2.81219">
        <ele>59</ele>
        <time>2022-04-19T10:06:21.122Z</time>
      </trkpt>
      <trkpt lat="48.36068" lon="2.81212">
        <ele>57</ele>
        <time>2022-04-19T10:06:26.126Z</time>
      </trkpt>
      <trkpt lat="48.36064" lon="2.81203">
        <ele>58</ele>
        <time>2022-04-19T10:06:31.123Z</time>
      </trkpt>
      <trkpt lat="48.3606" lon="2.81198">
        <ele>58</ele>
        <time>2022-04-19T10:06:35.127Z</time>
      </trkpt>
      <trkpt lat="48.36053" lon="2.81191">
        <ele>58</ele>
        <time>2022-04-19T10:06:40.112Z</time>
      </trkpt>
      <trkpt lat="48.36048" lon="2.81185">
        <ele>58</ele>
        <time>2022-04-19T10:06:44.121Z</time>
      </trkpt>
      <trkpt lat="48.36043" lon="2.81178">
        <ele>58</ele>
        <time>2022-04-19T10:06:49.123Z</time>
      </trkpt>
      <trkpt lat="48.36036" lon="2.81172">
        <ele>57</ele>
        <time>2022-04-19T10:06:54.127Z</time>
      </trkpt>
      <trkpt lat="48.3603" lon="2.81166">
        <ele>57</ele>
        <time>2022-04-19T10:06:59.125Z</time>
      </trkpt>
      <trkpt lat="48.36025" lon="2.81162">
        <ele>57</ele>
        <time>2022-04-19T10:07:03.144Z</time>
      </trkpt>
      <trkpt lat="48.36019" lon="2.81155">
        <ele>57</ele>
        <time>2022-04-19T10:07:08.128Z</time>
      </trkpt>
      <trkpt lat="48.36012" lon="2.81148">
        <ele>56</ele>
        <time>2022-04-19T10:07:13.117Z</time>
      </trkpt>
      <trkpt lat="48.36008" lon="2.81143">
        <ele>56</ele>
        <time>2022-04-19T10:07:17.121Z</time>
      </trkpt>
      <trkpt lat="48.36001" lon="2.81137">
        <ele>56</ele>
        <time>2022-04-19T10:07:22.118Z</time>
      </trkpt>
      <trkpt lat="48.35996" lon="2.81133">
        <ele>56</ele>
        <time>2022-04-19T10:07:26.123Z</time>
      </trkpt>
      <trkpt lat="48.35989" lon="2.81128">
        <ele>56</ele>
        <time>2022-04-19T10:07:31.113Z</time>
      </trkpt>
      <trkpt lat="48.35983" lon="2.81125">
        <ele>57</ele>
        <time>2022-04-19T10:07:35.132Z</time>
      </trkpt>
      <trkpt lat="48.35977" lon="2.8112">
        <ele>57</ele>
        <time>2022-04-19T10:07:40.131Z</time>
      </trkpt>
      <trkpt lat="48.35971" lon="2.81114">
        <ele>57</ele>
        <time>2022-04-19T10:07:45.128Z</time>
      </trkpt>
      <trkpt lat="48.35966" lon="2.8111">
        <ele>57</ele>
        <time>2022-04-19T10:07:49.136Z</time>
      </trkpt>
      <trkpt lat="48.3596" lon="2.81107">
        <ele>57</ele>
        <time>2022-04-19T10:07:53.144Z</time>
      </trkpt>
      <trkpt lat="48.35953" lon="2.81104">
        <ele>59</ele>
        <time>2022-04-19T10:07:58.124Z</time>
      </trkpt>
      <trkpt lat="48.35949" lon="2.81101">
        <ele>59</ele>
        <time>2022-04-19T10:08:02.129Z</time>
      </trkpt>
      <trkpt lat="48.35941" lon="2.81098">
        <ele>59</ele>
        <time>2022-04-19T10:08:07.128Z</time>
      </trkpt>
      <trkpt lat="48.35933" lon="2.81096">
        <ele>60</ele>
        <time>2022-04-19T10:08:12.120Z</time>
      </trkpt>
      <trkpt lat="48.35927" lon="2.81092">
        <ele>61</ele>
        <time>2022-04-19T10:08:16.126Z</time>
      </trkpt>
      <trkpt lat="48.3592" lon="2.81088">
        <ele>61</ele>
        <time>2022-04-19T10:08:21.118Z</time>
      </trkpt>
      <trkpt lat="48.35915" lon="2.81083">
        <ele>61</ele>
        <time>2022-04-19T10:08:25.131Z</time>
      </trkpt>
      <trkpt lat="48.3591" lon="2.81076">
        <ele>61</ele>
        <time>2022-04-19T10:08:29.123Z</time>
      </trkpt>
      <trkpt lat="48.35904" lon="2.81069">
        <ele>60</ele>
        <time>2022-04-19T10:08:34.125Z</time>
      </trkpt>
      <trkpt lat="48.35899" lon="2.81061">
        <ele>59</ele>
        <time>2022-04-19T10:08:39.123Z</time>
      </trkpt>
      <trkpt lat="48.35895" lon="2.81056">
        <ele>59</ele>
        <time>2022-04-19T10:08:43.133Z</time>
      </trkpt>
      <trkpt lat="48.3589" lon="2.8105">
        <ele>59</ele>
        <time>2022-04-19T10:08:48.116Z</time>
      </trkpt>
      <trkpt lat="48.35884" lon="2.81043">
        <ele>59</ele>
        <time>2022-04-19T10:08:53.112Z</time>
      </trkpt>
      <trkpt lat="48.3588" lon="2.81038">
        <ele>58</ele>
        <time>2022-04-19T10:08:57.121Z</time>
      </trkpt>
      <trkpt lat="48.35874" lon="2.81031">
        <ele>56</ele>
        <time>2022-04-19T10:09:02.126Z</time>
      </trkpt>
      <trkpt lat="48.35868" lon="2.81023">
        <ele>56</ele>
        <time>2022-04-19T10:09:07.124Z</time>
      </trkpt>
      <trkpt lat="48.35863" lon="2.81017">
        <ele>56</ele>
        <time>2022-04-19T10:09:12.123Z</time>
      </trkpt>
      <trkpt lat="48.35858" lon="2.81009">
        <ele>56</ele>
        <time>2022-04-19T10:09:17.107Z</time>
      </trkpt>
      <trkpt lat="48.35853" lon="2.81003">
        <ele>56</ele>
        <time>2022-04-19T10:09:21.121Z</time>
      </trkpt>
      <trkpt lat="48.35848" lon="2.80995">
        <ele>56</ele>
        <time>2022-04-19T10:09:26.118Z</time>
      </trkpt>
      <trkpt lat="48.35842" lon="2.80988">
        <ele>55</ele>
        <time>2022-04-19T10:09:31.133Z</time>
      </trkpt>
      <trkpt lat="48.35834" lon="2.80983">
        <ele>56</ele>
        <time>2022-04-19T10:09:36.125Z</time>
      </trkpt>
      <trkpt lat="48.35829" lon="2.80978">
        <ele>56</ele>
        <time>2022-04-19T10:09:40.119Z</time>
      </trkpt>
      <trkpt lat="48.35823" lon="2.80972">
        <ele>56</ele>
        <time>2022-04-19T10:09:45.142Z</time>
      </trkpt>
      <trkpt lat="48.35816" lon="2.80968">
        <ele>55</ele>
        <time>2022-04-19T10:09:50.126Z</time>
      </trkpt>
      <trkpt lat="48.35808" lon="2.80963">
        <ele>55</ele>
        <time>2022-04-19T10:09:55.117Z</time>
      </trkpt>
      <trkpt lat="48.358" lon="2.80958">
        <ele>56</ele>
        <time>2022-04-19T10:10:00.123Z</time>
      </trkpt>
      <trkpt lat="48.35794" lon="2.80951">
        <ele>56</ele>
        <time>2022-04-19T10:10:05.126Z</time>
      </trkpt>
      <trkpt lat="48.35788" lon="2.80946">
        <ele>57</ele>
        <time>2022-04-19T10:10:10.128Z</time>
      </trkpt>
      <trkpt lat="48.35783" lon="2.80941">
        <ele>57</ele>
        <time>2022-04-19T10:10:14.119Z</time>
      </trkpt>
      <trkpt lat="48.35779" lon="2.80936">
        <ele>57</ele>
        <time>2022-04-19T10:10:18.137Z</time>
      </trkpt>
      <trkpt lat="48.35773" lon="2.8093">
        <ele>58</ele>
        <time>2022-04-19T10:10:23.127Z</time>
      </trkpt>
      <trkpt lat="48.35767" lon="2.80925">
        <ele>58</ele>
        <time>2022-04-19T10:10:28.110Z</time>
      </trkpt>
      <trkpt lat="48.35762" lon="2.8092">
        <ele>57</ele>
        <time>2022-04-19T10:10:32.129Z</time>
      </trkpt>
      <trkpt lat="48.35758" lon="2.80913">
        <ele>57</ele>
        <time>2022-04-19T10:10:36.129Z</time>
      </trkpt>
      <trkpt lat="48.35753" lon="2.80905">
        <ele>57</ele>
        <time>2022-04-19T10:10:41.119Z</time>
      </trkpt>
      <trkpt lat="48.35749" lon="2.809">
        <ele>56</ele>
        <time>2022-04-19T10:10:45.127Z</time>
      </trkpt>
      <trkpt lat="48.35743" lon="2.80894">
        <ele>56</ele>
        <time>2022-04-19T10:10:50.126Z</time>
      </trkpt>
      <trkpt lat="48.35737" lon="2.80888">
        <ele>56</ele>
        <time>2022-04-19T10:10:54.138Z</time>
      </trkpt>
      <trkpt lat="48.3573" lon="2.8088">
        <ele>54</ele>
        <time>2022-04-19T10:10:59.120Z</time>
      </trkpt>
      <trkpt lat="48.35724" lon="2.80872">
        <ele>53</ele>
        <time>2022-04-19T10:11:04.119Z</time>
      </trkpt>
      <trkpt lat="48.35719" lon="2.80863">
        <ele>53</ele>
        <time>2022-04-19T10:11:09.119Z</time>
      </trkpt>
      <trkpt lat="48.35715" lon="2.80857">
        <ele>53</ele>
        <time>2022-04-19T10:11:13.128Z</time>
      </trkpt>
      <trkpt lat="48.35711" lon="2.80849">
        <ele>53</ele>
        <time>2022-04-19T10:11:18.141Z</time>
      </trkpt>
      <trkpt lat="48.35706" lon="2.8084">
        <ele>51</ele>
        <time>2022-04-19T10:11:23.125Z</time>
      </trkpt>
      <trkpt lat="48.35701" lon="2.80834">
        <ele>51</ele>
        <time>2022-04-19T10:11:27.139Z</time>
      </trkpt>
      <trkpt lat="48.35696" lon="2.80826">
        <ele>51</ele>
        <time>2022-04-19T10:11:32.119Z</time>
      </trkpt>
      <trkpt lat="48.35693" lon="2.80818">
        <ele>51</ele>
        <time>2022-04-19T10:11:36.119Z</time>
      </trkpt>
      <trkpt lat="48.35687" lon="2.80811">
        <ele>51</ele>
        <time>2022-04-19T10:11:41.125Z</time>
      </trkpt>
      <trkpt lat="48.35683" lon="2.80801">
        <ele>51</ele>
        <time>2022-04-19T10:11:46.117Z</time>
      </trkpt>
      <trkpt lat="48.35679" lon="2.80792">
        <ele>51</ele>
        <time>2022-04-19T10:11:51.137Z</time>
      </trkpt>
      <trkpt lat="48.35674" lon="2.80784">
        <ele>52</ele>
        <time>2022-04-19T10:11:56.118Z</time>
      </trkpt>
      <trkpt lat="48.35669" lon="2.80776">
        <ele>52</ele>
        <time>2022-04-19T10:12:01.126Z</time>
      </trkpt>
      <trkpt lat="48.35665" lon="2.80769">
        <ele>52</ele>
        <time>2022-04-19T10:12:05.125Z</time>
      </trkpt>
      <trkpt lat="48.35659" lon="2.8076">
        <ele>54</ele>
        <time>2022-04-19T10:12:10.144Z</time>
      </trkpt>
      <trkpt lat="48.35653" lon="2.80753">
        <ele>54</ele>
        <time>2022-04-19T10:12:15.122Z</time>
      </trkpt>
      <trkpt lat="48.35648" lon="2.80747">
        <ele>55</ele>
        <time>2022-04-19T10:12:19.128Z</time>
      </trkpt>
      <trkpt lat="48.35642" lon="2.80739">
        <ele>55</ele>
        <time>2022-04-19T10:12:24.118Z</time>
      </trkpt>
      <trkpt lat="48.35637" lon="2.8073">
        <ele>56</ele>
        <time>2022-04-19T10:12:29.121Z</time>
      </trkpt>
      <trkpt lat="48.35633" lon="2.80723">
        <ele>56</ele>
        <time>2022-04-19T10:12:33.118Z</time>
      </trkpt>
      <trkpt lat="48.3563" lon="2.80715">
        <ele>56</ele>
        <time>2022-04-19T10:12:37.125Z</time>
      </trkpt>
      <trkpt lat="48.35626" lon="2.80707">
        <ele>57</ele>
        <time>2022-04-19T10:12:42.126Z</time>
      </trkpt>
      <trkpt lat="48.35622" lon="2.807">
        <ele>55</ele>
        <time>2022-04-19T10:12:46.126Z</time>
      </trkpt>
      <trkpt lat="48.35617" lon="2.80691">
        <ele>55</ele>
        <time>2022-04-19T10:12:51.119Z</time>
      </trkpt>
      <trkpt lat="48.35613" lon="2.8068">
        <ele>56</ele>
        <time>2022-04-19T10:12:56.125Z</time>
      </trkpt>
      <trkpt lat="48.35609" lon="2.8067">
        <ele>56</ele>
        <time>2022-04-19T10:13:01.142Z</time>
      </trkpt>
      <trkpt lat="48.35604" lon="2.8066">
        <ele>56</ele>
        <time>2022-04-19T10:13:06.140Z</time>
      </trkpt>
      <trkpt lat="48.35599" lon="2.80652">
        <ele>57</ele>
        <time>2022-04-19T10:13:11.132Z</time>
      </trkpt>
      <trkpt lat="48.35596" lon="2.80644">
        <ele>54</ele>
        <time>2022-04-19T10:13:16.115Z</time>
      </trkpt>
      <trkpt lat="48.35591" lon="2.80636">
        <ele>54</ele>
        <time>2022-04-19T10:13:21.119Z</time>
      </trkpt>
      <trkpt lat="48.35588" lon="2.80628">
        <ele>54</ele>
        <time>2022-04-19T10:13:25.118Z</time>
      </trkpt>
      <trkpt lat="48.35582" lon="2.80618">
        <ele>54</ele>
        <time>2022-04-19T10:13:30.125Z</time>
      </trkpt>
      <trkpt lat="48.3558" lon="2.80609">
        <ele>54</ele>
        <time>2022-04-19T10:13:34.126Z</time>
      </trkpt>
      <trkpt lat="48.35576" lon="2.806">
        <ele>54</ele>
        <time>2022-04-19T10:13:39.124Z</time>
      </trkpt>
      <trkpt lat="48.35571" lon="2.80591">
        <ele>55</ele>
        <time>2022-04-19T10:13:44.124Z</time>
      </trkpt>
      <trkpt lat="48.35568" lon="2.80585">
        <ele>51</ele>
        <time>2022-04-19T10:13:48.130Z</time>
      </trkpt>
      <trkpt lat="48.35564" lon="2.80577">
        <ele>51</ele>
        <time>2022-04-19T10:13:53.126Z</time>
      </trkpt>
      <trkpt lat="48.3556" lon="2.80568">
        <ele>54</ele>
        <time>2022-04-19T10:13:58.120Z</time>
      </trkpt>
      <trkpt lat="48.35556" lon="2.80561">
        <ele>54</ele>
        <time>2022-04-19T10:14:02.128Z</time>
      </trkpt>
      <trkpt lat="48.35553" lon="2.80553">
        <ele>54</ele>
        <time>2022-04-19T10:14:06.128Z</time>
      </trkpt>
      <trkpt lat="48.35548" lon="2.80543">
        <ele>54</ele>
        <time>2022-04-19T10:14:11.122Z</time>
      </trkpt>
      <trkpt lat="48.35544" lon="2.80535">
        <ele>56</ele>
        <time>2022-04-19T10:14:15.125Z</time>
      </trkpt>
      <trkpt lat="48.35541" lon="2.80531">
        <ele>54</ele>
        <time>2022-04-19T10:14:20.123Z</time>
      </trkpt>
      <trkpt lat="48.35541" lon="2.80531">
        <ele>54</ele>
        <time>2022-04-19T10:14:25.122Z</time>
      </trkpt>
      <trkpt lat="48.3554" lon="2.80529">
        <ele>54</ele>
        <time>2022-04-19T10:14:29.137Z</time>
      </trkpt>
      <trkpt lat="48.35539" lon="2.8052">
        <ele>54</ele>
        <time>2022-04-19T10:14:34.124Z</time>
      </trkpt>
      <trkpt lat="48.35536" lon="2.80513">
        <ele>55</ele>
        <time>2022-04-19T10:14:38.135Z</time>
      </trkpt>
      <trkpt lat="48.35531" lon="2.80504">
        <ele>55</ele>
        <time>2022-04-19T10:14:43.125Z</time>
      </trkpt>
      <trkpt lat="48.35527" lon="2.80498">
        <ele>55</ele>
        <time>2022-04-19T10:14:47.122Z</time>
      </trkpt>
      <trkpt lat="48.35521" lon="2.80498">
        <ele>55</ele>
        <time>2022-04-19T10:14:52.126Z</time>
      </trkpt>
      <trkpt lat="48.35512" lon="2.80502">
        <ele>53</ele>
        <time>2022-04-19T10:15:23.121Z</time>
      </trkpt>
      <trkpt lat="48.35521" lon="2.80504">
        <ele>55</ele>
        <time>2022-04-19T10:15:27.117Z</time>
      </trkpt>
      <trkpt lat="48.35526" lon="2.80498">
        <ele>55</ele>
        <time>2022-04-19T10:15:31.117Z</time>
      </trkpt>
      <trkpt lat="48.35525" lon="2.80489">
        <ele>55</ele>
        <time>2022-04-19T10:15:35.130Z</time>
      </trkpt>
      <trkpt lat="48.3552" lon="2.80481">
        <ele>57</ele>
        <time>2022-04-19T10:15:40.122Z</time>
      </trkpt>
      <trkpt lat="48.35517" lon="2.80476">
        <ele>57</ele>
        <time>2022-04-19T10:15:44.124Z</time>
      </trkpt>
      <trkpt lat="48.35513" lon="2.80466">
        <ele>55</ele>
        <time>2022-04-19T10:15:49.111Z</time>
      </trkpt>
      <trkpt lat="48.35509" lon="2.80459">
        <ele>55</ele>
        <time>2022-04-19T10:15:53.116Z</time>
      </trkpt>
      <trkpt lat="48.35506" lon="2.8045">
        <ele>56</ele>
        <time>2022-04-19T10:15:57.146Z</time>
      </trkpt>
      <trkpt lat="48.35503" lon="2.8044">
        <ele>56</ele>
        <time>2022-04-19T10:16:02.123Z</time>
      </trkpt>
      <trkpt lat="48.355" lon="2.80432">
        <ele>56</ele>
        <time>2022-04-19T10:16:06.119Z</time>
      </trkpt>
      <trkpt lat="48.35494" lon="2.80423">
        <ele>57</ele>
        <time>2022-04-19T10:16:11.125Z</time>
      </trkpt>
      <trkpt lat="48.3549" lon="2.80414">
        <ele>57</ele>
        <time>2022-04-19T10:16:15.136Z</time>
      </trkpt>
      <trkpt lat="48.35486" lon="2.80403">
        <ele>55</ele>
        <time>2022-04-19T10:16:20.121Z</time>
      </trkpt>
      <trkpt lat="48.35482" lon="2.80393">
        <ele>54</ele>
        <time>2022-04-19T10:16:25.125Z</time>
      </trkpt>
      <trkpt lat="48.35479" lon="2.80382">
        <ele>54</ele>
        <time>2022-04-19T10:16:30.125Z</time>
      </trkpt>
      <trkpt lat="48.35477" lon="2.80373">
        <ele>54</ele>
        <time>2022-04-19T10:16:35.123Z</time>
      </trkpt>
      <trkpt lat="48.35473" lon="2.80366">
        <ele>54</ele>
        <time>2022-04-19T10:16:39.123Z</time>
      </trkpt>
      <trkpt lat="48.3547" lon="2.80355">
        <ele>54</ele>
        <time>2022-04-19T10:16:44.112Z</time>
      </trkpt>
      <trkpt lat="48.35465" lon="2.80345">
        <ele>53</ele>
        <time>2022-04-19T10:16:49.120Z</time>
      </trkpt>
      <trkpt lat="48.35461" lon="2.80338">
        <ele>53</ele>
        <time>2022-04-19T10:16:53.129Z</time>
      </trkpt>
      <trkpt lat="48.35457" lon="2.80328">
        <ele>53</ele>
        <time>2022-04-19T10:16:58.122Z</time>
      </trkpt>
      <trkpt lat="48.35453" lon="2.80319">
        <ele>54</ele>
        <time>2022-04-19T10:17:03.133Z</time>
      </trkpt>
      <trkpt lat="48.35448" lon="2.8031">
        <ele>54</ele>
        <time>2022-04-19T10:17:08.125Z</time>
      </trkpt>
      <trkpt lat="48.35446" lon="2.80302">
        <ele>54</ele>
        <time>2022-04-19T10:17:12.139Z</time>
      </trkpt>
      <trkpt lat="48.35443" lon="2.80292">
        <ele>54</ele>
        <time>2022-04-19T10:17:17.123Z</time>
      </trkpt>
      <trkpt lat="48.35439" lon="2.80286">
        <ele>55</ele>
        <time>2022-04-19T10:17:21.130Z</time>
      </trkpt>
      <trkpt lat="48.35437" lon="2.80282">
        <ele>55</ele>
        <time>2022-04-19T10:17:26.136Z</time>
      </trkpt>
      <trkpt lat="48.35433" lon="2.80272">
        <ele>55</ele>
        <time>2022-04-19T10:17:31.117Z</time>
      </trkpt>
      <trkpt lat="48.35431" lon="2.80261">
        <ele>57</ele>
        <time>2022-04-19T10:17:36.122Z</time>
      </trkpt>
      <trkpt lat="48.35428" lon="2.80252">
        <ele>57</ele>
        <time>2022-04-19T10:17:40.125Z</time>
      </trkpt>
      <trkpt lat="48.35424" lon="2.8024">
        <ele>57</ele>
        <time>2022-04-19T10:17:45.118Z</time>
      </trkpt>
      <trkpt lat="48.3542" lon="2.80233">
        <ele>57</ele>
        <time>2022-04-19T10:17:50.118Z</time>
      </trkpt>
      <trkpt lat="48.35416" lon="2.80227">
        <ele>57</ele>
        <time>2022-04-19T10:17:54.139Z</time>
      </trkpt>
      <trkpt lat="48.3541" lon="2.8022">
        <ele>57</ele>
        <time>2022-04-19T10:17:59.118Z</time>
      </trkpt>
      <trkpt lat="48.35405" lon="2.80214">
        <ele>57</ele>
        <time>2022-04-19T10:18:03.123Z</time>
      </trkpt>
      <trkpt lat="48.35401" lon="2.80205">
        <ele>57</ele>
        <time>2022-04-19T10:18:08.123Z</time>
      </trkpt>
      <trkpt lat="48.35395" lon="2.80197">
        <ele>57</ele>
        <time>2022-04-19T10:18:13.119Z</time>
      </trkpt>
      <trkpt lat="48.3539" lon="2.80191">
        <ele>57</ele>
        <time>2022-04-19T10:18:17.120Z</time>
      </trkpt>
      <trkpt lat="48.35386" lon="2.80184">
        <ele>57</ele>
        <time>2022-04-19T10:18:21.122Z</time>
      </trkpt>
      <trkpt lat="48.3538" lon="2.80176">
        <ele>57</ele>
        <time>2022-04-19T10:18:26.119Z</time>
      </trkpt>
      <trkpt lat="48.35377" lon="2.80167">
        <ele>57</ele>
        <time>2022-04-19T10:18:30.128Z</time>
      </trkpt>
      <trkpt lat="48.35372" lon="2.80158">
        <ele>59</ele>
        <time>2022-04-19T10:18:35.122Z</time>
      </trkpt>
      <trkpt lat="48.35368" lon="2.80147">
        <ele>59</ele>
        <time>2022-04-19T10:18:40.126Z</time>
      </trkpt>
      <trkpt lat="48.35364" lon="2.80137">
        <ele>59</ele>
        <time>2022-04-19T10:18:45.115Z</time>
      </trkpt>
      <trkpt lat="48.35359" lon="2.80128">
        <ele>59</ele>
        <time>2022-04-19T10:18:50.119Z</time>
      </trkpt>
      <trkpt lat="48.35354" lon="2.8012">
        <ele>58</ele>
        <time>2022-04-19T10:18:54.123Z</time>
      </trkpt>
      <trkpt lat="48.35349" lon="2.80111">
        <ele>58</ele>
        <time>2022-04-19T10:18:59.121Z</time>
      </trkpt>
      <trkpt lat="48.35343" lon="2.80102">
        <ele>60</ele>
        <time>2022-04-19T10:19:04.119Z</time>
      </trkpt>
      <trkpt lat="48.35339" lon="2.80095">
        <ele>59</ele>
        <time>2022-04-19T10:19:08.124Z</time>
      </trkpt>
      <trkpt lat="48.35334" lon="2.80087">
        <ele>59</ele>
        <time>2022-04-19T10:19:13.118Z</time>
      </trkpt>
      <trkpt lat="48.35329" lon="2.8008">
        <ele>59</ele>
        <time>2022-04-19T10:19:18.118Z</time>
      </trkpt>
      <trkpt lat="48.35324" lon="2.80074">
        <ele>59</ele>
        <time>2022-04-19T10:19:22.126Z</time>
      </trkpt>
      <trkpt lat="48.3532" lon="2.80068">
        <ele>58</ele>
        <time>2022-04-19T10:19:26.123Z</time>
      </trkpt>
      <trkpt lat="48.35314" lon="2.80059">
        <ele>55</ele>
        <time>2022-04-19T10:19:31.117Z</time>
      </trkpt>
      <trkpt lat="48.35309" lon="2.8005">
        <ele>55</ele>
        <time>2022-04-19T10:19:36.123Z</time>
      </trkpt>
      <trkpt lat="48.35303" lon="2.80042">
        <ele>55</ele>
        <time>2022-04-19T10:19:40.122Z</time>
      </trkpt>
      <trkpt lat="48.35298" lon="2.80036">
        <ele>55</ele>
        <time>2022-04-19T10:19:44.123Z</time>
      </trkpt>
      <trkpt lat="48.35291" lon="2.8003">
        <ele>54</ele>
        <time>2022-04-19T10:19:49.122Z</time>
      </trkpt>
      <trkpt lat="48.35285" lon="2.80023">
        <ele>54</ele>
        <time>2022-04-19T10:19:54.126Z</time>
      </trkpt>
      <trkpt lat="48.35279" lon="2.80016">
        <ele>54</ele>
        <time>2022-04-19T10:19:59.126Z</time>
      </trkpt>
      <trkpt lat="48.35274" lon="2.80011">
        <ele>56</ele>
        <time>2022-04-19T10:20:03.129Z</time>
      </trkpt>
      <trkpt lat="48.35268" lon="2.80005">
        <ele>56</ele>
        <time>2022-04-19T10:20:08.121Z</time>
      </trkpt>
      <trkpt lat="48.35263" lon="2.80002">
        <ele>56</ele>
        <time>2022-04-19T10:20:12.125Z</time>
      </trkpt>
      <trkpt lat="48.35257" lon="2.79997">
        <ele>56</ele>
        <time>2022-04-19T10:20:17.125Z</time>
      </trkpt>
      <trkpt lat="48.35249" lon="2.79993">
        <ele>56</ele>
        <time>2022-04-19T10:20:22.115Z</time>
      </trkpt>
      <trkpt lat="48.35245" lon="2.79987">
        <ele>56</ele>
        <time>2022-04-19T10:20:26.125Z</time>
      </trkpt>
      <trkpt lat="48.3524" lon="2.7998">
        <ele>58</ele>
        <time>2022-04-19T10:20:31.113Z</time>
      </trkpt>
      <trkpt lat="48.35236" lon="2.79973">
        <ele>56</ele>
        <time>2022-04-19T10:20:35.119Z</time>
      </trkpt>
      <trkpt lat="48.35237" lon="2.79962">
        <ele>58</ele>
        <time>2022-04-19T10:20:40.124Z</time>
      </trkpt>
      <trkpt lat="48.35241" lon="2.79959">
        <ele>58</ele>
        <time>2022-04-19T10:20:44.123Z</time>
      </trkpt>
      <trkpt lat="48.35248" lon="2.79957">
        <ele>60</ele>
        <time>2022-04-19T10:20:49.124Z</time>
      </trkpt>
      <trkpt lat="48.35256" lon="2.79954">
        <ele>60</ele>
        <time>2022-04-19T10:20:54.132Z</time>
      </trkpt>
      <trkpt lat="48.35263" lon="2.79951">
        <ele>60</ele>
        <time>2022-04-19T10:20:58.124Z</time>
      </trkpt>
      <trkpt lat="48.3527" lon="2.79949">
        <ele>59</ele>
        <time>2022-04-19T10:21:03.123Z</time>
      </trkpt>
      <trkpt lat="48.35277" lon="2.79947">
        <ele>59</ele>
        <time>2022-04-19T10:21:08.118Z</time>
      </trkpt>
      <trkpt lat="48.35284" lon="2.79944">
        <ele>59</ele>
        <time>2022-04-19T10:21:13.116Z</time>
      </trkpt>
      <trkpt lat="48.35289" lon="2.79941">
        <ele>59</ele>
        <time>2022-04-19T10:21:17.114Z</time>
      </trkpt>
      <trkpt lat="48.35295" lon="2.79938">
        <ele>58</ele>
        <time>2022-04-19T10:21:21.128Z</time>
      </trkpt>
      <trkpt lat="48.35301" lon="2.79937">
        <ele>58</ele>
        <time>2022-04-19T10:21:25.122Z</time>
      </trkpt>
      <trkpt lat="48.35309" lon="2.79936">
        <ele>58</ele>
        <time>2022-04-19T10:21:30.127Z</time>
      </trkpt>
      <trkpt lat="48.35315" lon="2.79931">
        <ele>58</ele>
        <time>2022-04-19T10:21:35.116Z</time>
      </trkpt>
      <trkpt lat="48.35321" lon="2.79928">
        <ele>57</ele>
        <time>2022-04-19T10:21:39.130Z</time>
      </trkpt>
      <trkpt lat="48.35329" lon="2.79925">
        <ele>57</ele>
        <time>2022-04-19T10:21:44.118Z</time>
      </trkpt>
      <trkpt lat="48.35335" lon="2.79922">
        <ele>57</ele>
        <time>2022-04-19T10:21:48.119Z</time>
      </trkpt>
      <trkpt lat="48.35341" lon="2.7992">
        <ele>57</ele>
        <time>2022-04-19T10:21:52.127Z</time>
      </trkpt>
      <trkpt lat="48.35349" lon="2.79919">
        <ele>55</ele>
        <time>2022-04-19T10:21:57.119Z</time>
      </trkpt>
      <trkpt lat="48.35356" lon="2.79919">
        <ele>55</ele>
        <time>2022-04-19T10:22:01.117Z</time>
      </trkpt>
      <trkpt lat="48.35364" lon="2.7992">
        <ele>55</ele>
        <time>2022-04-19T10:22:06.119Z</time>
      </trkpt>
      <trkpt lat="48.35372" lon="2.79918">
        <ele>55</ele>
        <time>2022-04-19T10:22:11.117Z</time>
      </trkpt>
      <trkpt lat="48.35382" lon="2.79918">
        <ele>55</ele>
        <time>2022-04-19T10:22:16.124Z</time>
      </trkpt>
      <trkpt lat="48.35389" lon="2.79918">
        <ele>55</ele>
        <time>2022-04-19T10:22:21.115Z</time>
      </trkpt>
      <trkpt lat="48.35397" lon="2.79919">
        <ele>55</ele>
        <time>2022-04-19T10:22:26.131Z</time>
      </trkpt>
      <trkpt lat="48.35404" lon="2.7992">
        <ele>56</ele>
        <time>2022-04-19T10:22:31.120Z</time>
      </trkpt>
      <trkpt lat="48.35412" lon="2.79922">
        <ele>56</ele>
        <time>2022-04-19T10:22:36.120Z</time>
      </trkpt>
      <trkpt lat="48.35419" lon="2.79922">
        <ele>56</ele>
        <time>2022-04-19T10:22:40.125Z</time>
      </trkpt>
      <trkpt lat="48.35427" lon="2.79922">
        <ele>56</ele>
        <time>2022-04-19T10:22:45.123Z</time>
      </trkpt>
      <trkpt lat="48.35434" lon="2.79922">
        <ele>57</ele>
        <time>2022-04-19T10:22:50.122Z</time>
      </trkpt>
      <trkpt lat="48.35443" lon="2.79923">
        <ele>57</ele>
        <time>2022-04-19T10:22:55.120Z</time>
      </trkpt>
      <trkpt lat="48.3545" lon="2.79926">
        <ele>57</ele>
        <time>2022-04-19T10:22:59.121Z</time>
      </trkpt>
      <trkpt lat="48.35457" lon="2.79928">
        <ele>57</ele>
        <time>2022-04-19T10:23:04.126Z</time>
      </trkpt>
      <trkpt lat="48.35465" lon="2.79931">
        <ele>58</ele>
        <time>2022-04-19T10:23:09.123Z</time>
      </trkpt>
      <trkpt lat="48.35473" lon="2.79932">
        <ele>58</ele>
        <time>2022-04-19T10:23:14.121Z</time>
      </trkpt>
      <trkpt lat="48.3548" lon="2.79933">
        <ele>58</ele>
        <time>2022-04-19T10:23:19.120Z</time>
      </trkpt>
      <trkpt lat="48.35488" lon="2.79934">
        <ele>61</ele>
        <time>2022-04-19T10:23:24.123Z</time>
      </trkpt>
      <trkpt lat="48.35496" lon="2.79936">
        <ele>61</ele>
        <time>2022-04-19T10:23:29.121Z</time>
      </trkpt>
      <trkpt lat="48.35504" lon="2.79938">
        <ele>61</ele>
        <time>2022-04-19T10:23:34.122Z</time>
      </trkpt>
      <trkpt lat="48.35512" lon="2.79937">
        <ele>61</ele>
        <time>2022-04-19T10:23:39.123Z</time>
      </trkpt>
      <trkpt lat="48.35519" lon="2.79937">
        <ele>62</ele>
        <time>2022-04-19T10:23:43.128Z</time>
      </trkpt>
      <trkpt lat="48.35526" lon="2.79938">
        <ele>62</ele>
        <time>2022-04-19T10:23:48.121Z</time>
      </trkpt>
      <trkpt lat="48.35532" lon="2.7994">
        <ele>62</ele>
        <time>2022-04-19T10:23:52.123Z</time>
      </trkpt>
      <trkpt lat="48.3554" lon="2.79941">
        <ele>62</ele>
        <time>2022-04-19T10:23:57.273Z</time>
      </trkpt>
      <trkpt lat="48.35547" lon="2.7994">
        <ele>60</ele>
        <time>2022-04-19T10:24:02.123Z</time>
      </trkpt>
      <trkpt lat="48.35553" lon="2.7994">
        <ele>60</ele>
        <time>2022-04-19T10:24:06.124Z</time>
      </trkpt>
      <trkpt lat="48.35561" lon="2.79938">
        <ele>60</ele>
        <time>2022-04-19T10:24:11.137Z</time>
      </trkpt>
      <trkpt lat="48.35569" lon="2.79938">
        <ele>60</ele>
        <time>2022-04-19T10:24:16.133Z</time>
      </trkpt>
      <trkpt lat="48.35577" lon="2.79938">
        <ele>58</ele>
        <time>2022-04-19T10:24:21.115Z</time>
      </trkpt>
      <trkpt lat="48.35583" lon="2.79938">
        <ele>58</ele>
        <time>2022-04-19T10:24:25.122Z</time>
      </trkpt>
      <trkpt lat="48.35591" lon="2.79938">
        <ele>58</ele>
        <time>2022-04-19T10:24:30.127Z</time>
      </trkpt>
      <trkpt lat="48.35598" lon="2.79938">
        <ele>57</ele>
        <time>2022-04-19T10:24:34.129Z</time>
      </trkpt>
      <trkpt lat="48.35606" lon="2.79938">
        <ele>57</ele>
        <time>2022-04-19T10:24:39.121Z</time>
      </trkpt>
      <trkpt lat="48.35613" lon="2.79938">
        <ele>57</ele>
        <time>2022-04-19T10:24:43.132Z</time>
      </trkpt>
      <trkpt lat="48.35621" lon="2.79938">
        <ele>57</ele>
        <time>2022-04-19T10:24:48.120Z</time>
      </trkpt>
      <trkpt lat="48.35628" lon="2.79935">
        <ele>56</ele>
        <time>2022-04-19T10:24:52.123Z</time>
      </trkpt>
      <trkpt lat="48.35634" lon="2.79927">
        <ele>58</ele>
        <time>2022-04-19T10:24:57.128Z</time>
      </trkpt>
      <trkpt lat="48.35639" lon="2.79918">
        <ele>58</ele>
        <time>2022-04-19T10:25:02.122Z</time>
      </trkpt>
      <trkpt lat="48.35643" lon="2.79912">
        <ele>58</ele>
        <time>2022-04-19T10:25:06.125Z</time>
      </trkpt>
      <trkpt lat="48.3565" lon="2.79907">
        <ele>58</ele>
        <time>2022-04-19T10:25:11.119Z</time>
      </trkpt>
      <trkpt lat="48.35655" lon="2.79901">
        <ele>60</ele>
        <time>2022-04-19T10:25:15.136Z</time>
      </trkpt>
      <trkpt lat="48.35659" lon="2.79893">
        <ele>60</ele>
        <time>2022-04-19T10:25:19.130Z</time>
      </trkpt>
      <trkpt lat="48.35667" lon="2.79889">
        <ele>60</ele>
        <time>2022-04-19T10:25:24.115Z</time>
      </trkpt>
      <trkpt lat="48.35673" lon="2.79881">
        <ele>60</ele>
        <time>2022-04-19T10:25:29.122Z</time>
      </trkpt>
      <trkpt lat="48.35679" lon="2.79874">
        <ele>62</ele>
        <time>2022-04-19T10:25:34.123Z</time>
      </trkpt>
      <trkpt lat="48.35685" lon="2.79867">
        <ele>61</ele>
        <time>2022-04-19T10:25:39.119Z</time>
      </trkpt>
      <trkpt lat="48.35688" lon="2.7986">
        <ele>61</ele>
        <time>2022-04-19T10:25:43.126Z</time>
      </trkpt>
      <trkpt lat="48.35691" lon="2.79853">
        <ele>61</ele>
        <time>2022-04-19T10:25:47.128Z</time>
      </trkpt>
      <trkpt lat="48.35695" lon="2.79849">
        <ele>61</ele>
        <time>2022-04-19T10:25:52.142Z</time>
      </trkpt>
      <trkpt lat="48.35701" lon="2.79852">
        <ele>61</ele>
        <time>2022-04-19T10:25:57.120Z</time>
      </trkpt>
      <trkpt lat="48.35707" lon="2.79857">
        <ele>61</ele>
        <time>2022-04-19T10:26:02.121Z</time>
      </trkpt>
      <trkpt lat="48.35714" lon="2.79863">
        <ele>61</ele>
        <time>2022-04-19T10:26:07.117Z</time>
      </trkpt>
      <trkpt lat="48.35719" lon="2.79869">
        <ele>61</ele>
        <time>2022-04-19T10:26:11.124Z</time>
      </trkpt>
      <trkpt lat="48.35724" lon="2.79872">
        <ele>61</ele>
        <time>2022-04-19T10:26:15.122Z</time>
      </trkpt>
      <trkpt lat="48.35726" lon="2.79865">
        <ele>61</ele>
        <time>2022-04-19T10:26:20.126Z</time>
      </trkpt>
      <trkpt lat="48.35724" lon="2.79858">
        <ele>61</ele>
        <time>2022-04-19T10:26:24.126Z</time>
      </trkpt>
      <trkpt lat="48.35721" lon="2.79851">
        <ele>61</ele>
        <time>2022-04-19T10:26:29.112Z</time>
      </trkpt>
      <trkpt lat="48.35718" lon="2.79844">
        <ele>62</ele>
        <time>2022-04-19T10:26:33.119Z</time>
      </trkpt>
      <trkpt lat="48.35714" lon="2.79837">
        <ele>62</ele>
        <time>2022-04-19T10:26:37.119Z</time>
      </trkpt>
      <trkpt lat="48.35711" lon="2.79829">
        <ele>62</ele>
        <time>2022-04-19T10:26:42.123Z</time>
      </trkpt>
      <trkpt lat="48.35707" lon="2.7982">
        <ele>62</ele>
        <time>2022-04-19T10:26:47.117Z</time>
      </trkpt>
      <trkpt lat="48.35708" lon="2.79809">
        <ele>64</ele>
        <time>2022-04-19T10:26:56.226Z</time>
      </trkpt>
      <trkpt lat="48.35709" lon="2.79809">
        <ele>63</ele>
        <time>2022-04-19T10:27:01.119Z</time>
      </trkpt>
      <trkpt lat="48.35707" lon="2.79803">
        <ele>64</ele>
        <time>2022-04-19T10:27:06.121Z</time>
      </trkpt>
      <trkpt lat="48.35701" lon="2.798">
        <ele>64</ele>
        <time>2022-04-19T10:27:10.122Z</time>
      </trkpt>
      <trkpt lat="48.35699" lon="2.79792">
        <ele>64</ele>
        <time>2022-04-19T10:27:15.122Z</time>
      </trkpt>
      <trkpt lat="48.35697" lon="2.79785">
        <ele>66</ele>
        <time>2022-04-19T10:27:19.127Z</time>
      </trkpt>
      <trkpt lat="48.35696" lon="2.79774">
        <ele>66</ele>
        <time>2022-04-19T10:27:24.122Z</time>
      </trkpt>
      <trkpt lat="48.35695" lon="2.79764">
        <ele>68</ele>
        <time>2022-04-19T10:27:29.130Z</time>
      </trkpt>
      <trkpt lat="48.35694" lon="2.79755">
        <ele>68</ele>
        <time>2022-04-19T10:27:33.133Z</time>
      </trkpt>
      <trkpt lat="48.35693" lon="2.79744">
        <ele>68</ele>
        <time>2022-04-19T10:27:38.123Z</time>
      </trkpt>
      <trkpt lat="48.35692" lon="2.79734">
        <ele>70</ele>
        <time>2022-04-19T10:27:42.121Z</time>
      </trkpt>
      <trkpt lat="48.35691" lon="2.79725">
        <ele>70</ele>
        <time>2022-04-19T10:27:47.116Z</time>
      </trkpt>
      <trkpt lat="48.35689" lon="2.79714">
        <ele>70</ele>
        <time>2022-04-19T10:27:52.131Z</time>
      </trkpt>
      <trkpt lat="48.35688" lon="2.79706">
        <ele>73</ele>
        <time>2022-04-19T10:27:56.127Z</time>
      </trkpt>
      <trkpt lat="48.35688" lon="2.79697">
        <ele>73</ele>
        <time>2022-04-19T10:28:01.137Z</time>
      </trkpt>
      <trkpt lat="48.35687" lon="2.79689">
        <ele>73</ele>
        <time>2022-04-19T10:28:06.125Z</time>
      </trkpt>
      <trkpt lat="48.35686" lon="2.79688">
        <ele>73</ele>
        <time>2022-04-19T10:28:10.126Z</time>
      </trkpt>
      <trkpt lat="48.35687" lon="2.79686">
        <ele>73</ele>
        <time>2022-04-19T10:28:38.114Z</time>
      </trkpt>
      <trkpt lat="48.35685" lon="2.79693">
        <ele>73</ele>
        <time>2022-04-19T10:28:42.120Z</time>
      </trkpt>
      <trkpt lat="48.35683" lon="2.79697">
        <ele>73</ele>
        <time>2022-04-19T10:28:46.128Z</time>
      </trkpt>
      <trkpt lat="48.35685" lon="2.79703">
        <ele>73</ele>
        <time>2022-04-19T10:28:51.131Z</time>
      </trkpt>
      <trkpt lat="48.35688" lon="2.79712">
        <ele>70</ele>
        <time>2022-04-19T10:28:56.128Z</time>
      </trkpt>
      <trkpt lat="48.35683" lon="2.79715">
        <ele>70</ele>
        <time>2022-04-19T10:29:01.117Z</time>
      </trkpt>
      <trkpt lat="48.35683" lon="2.79715">
        <ele>70</ele>
        <time>2022-04-19T10:29:05.125Z</time>
      </trkpt>
      <trkpt lat="48.35678" lon="2.79709">
        <ele>67</ele>
        <time>2022-04-19T10:29:10.123Z</time>
      </trkpt>
      <trkpt lat="48.35676" lon="2.79701">
        <ele>71</ele>
        <time>2022-04-19T10:29:15.118Z</time>
      </trkpt>
      <trkpt lat="48.35671" lon="2.79694">
        <ele>71</ele>
        <time>2022-04-19T10:29:20.128Z</time>
      </trkpt>
      <trkpt lat="48.35668" lon="2.79688">
        <ele>71</ele>
        <time>2022-04-19T10:29:24.129Z</time>
      </trkpt>
      <trkpt lat="48.35666" lon="2.79681">
        <ele>71</ele>
        <time>2022-04-19T10:29:28.132Z</time>
      </trkpt>
      <trkpt lat="48.35662" lon="2.79673">
        <ele>75</ele>
        <time>2022-04-19T10:29:33.125Z</time>
      </trkpt>
      <trkpt lat="48.35656" lon="2.79666">
        <ele>75</ele>
        <time>2022-04-19T10:29:38.124Z</time>
      </trkpt>
      <trkpt lat="48.35651" lon="2.79658">
        <ele>70</ele>
        <time>2022-04-19T10:29:43.122Z</time>
      </trkpt>
      <trkpt lat="48.35646" lon="2.79651">
        <ele>72</ele>
        <time>2022-04-19T10:29:48.124Z</time>
      </trkpt>
      <trkpt lat="48.35642" lon="2.79646">
        <ele>72</ele>
        <time>2022-04-19T10:29:52.127Z</time>
      </trkpt>
      <trkpt lat="48.35636" lon="2.79637">
        <ele>72</ele>
        <time>2022-04-19T10:29:57.119Z</time>
      </trkpt>
      <trkpt lat="48.35632" lon="2.7963">
        <ele>72</ele>
        <time>2022-04-19T10:30:01.127Z</time>
      </trkpt>
      <trkpt lat="48.35627" lon="2.79622">
        <ele>75</ele>
        <time>2022-04-19T10:30:06.124Z</time>
      </trkpt>
      <trkpt lat="48.35622" lon="2.79614">
        <ele>69</ele>
        <time>2022-04-19T10:30:11.123Z</time>
      </trkpt>
      <trkpt lat="48.35618" lon="2.79608">
        <ele>69</ele>
        <time>2022-04-19T10:30:15.130Z</time>
      </trkpt>
      <trkpt lat="48.35612" lon="2.796">
        <ele>69</ele>
        <time>2022-04-19T10:30:20.124Z</time>
      </trkpt>
      <trkpt lat="48.35607" lon="2.79591">
        <ele>73</ele>
        <time>2022-04-19T10:30:25.122Z</time>
      </trkpt>
      <trkpt lat="48.35602" lon="2.79584">
        <ele>73</ele>
        <time>2022-04-19T10:30:30.124Z</time>
      </trkpt>
      <trkpt lat="48.35596" lon="2.79577">
        <ele>68</ele>
        <time>2022-04-19T10:30:35.129Z</time>
      </trkpt>
      <trkpt lat="48.35591" lon="2.79571">
        <ele>68</ele>
        <time>2022-04-19T10:30:39.124Z</time>
      </trkpt>
      <trkpt lat="48.35586" lon="2.79564">
        <ele>73</ele>
        <time>2022-04-19T10:30:44.118Z</time>
      </trkpt>
      <trkpt lat="48.35581" lon="2.79559">
        <ele>73</ele>
        <time>2022-04-19T10:30:48.122Z</time>
      </trkpt>
      <trkpt lat="48.35575" lon="2.79552">
        <ele>73</ele>
        <time>2022-04-19T10:30:53.116Z</time>
      </trkpt>
      <trkpt lat="48.35571" lon="2.79546">
        <ele>73</ele>
        <time>2022-04-19T10:30:57.122Z</time>
      </trkpt>
      <trkpt lat="48.35565" lon="2.79539">
        <ele>71</ele>
        <time>2022-04-19T10:31:02.122Z</time>
      </trkpt>
      <trkpt lat="48.3556" lon="2.79533">
        <ele>71</ele>
        <time>2022-04-19T10:31:07.114Z</time>
      </trkpt>
      <trkpt lat="48.35555" lon="2.79526">
        <ele>71</ele>
        <time>2022-04-19T10:31:12.120Z</time>
      </trkpt>
      <trkpt lat="48.35549" lon="2.79519">
        <ele>71</ele>
        <time>2022-04-19T10:31:17.119Z</time>
      </trkpt>
      <trkpt lat="48.35545" lon="2.79513">
        <ele>74</ele>
        <time>2022-04-19T10:31:21.116Z</time>
      </trkpt>
      <trkpt lat="48.35538" lon="2.79506">
        <ele>69</ele>
        <time>2022-04-19T10:31:26.122Z</time>
      </trkpt>
      <trkpt lat="48.35535" lon="2.79499">
        <ele>69</ele>
        <time>2022-04-19T10:31:30.127Z</time>
      </trkpt>
      <trkpt lat="48.35529" lon="2.79491">
        <ele>69</ele>
        <time>2022-04-19T10:31:35.124Z</time>
      </trkpt>
      <trkpt lat="48.35523" lon="2.79483">
        <ele>72</ele>
        <time>2022-04-19T10:31:40.126Z</time>
      </trkpt>
      <trkpt lat="48.35517" lon="2.79475">
        <ele>72</ele>
        <time>2022-04-19T10:31:45.127Z</time>
      </trkpt>
      <trkpt lat="48.35512" lon="2.79468">
        <ele>66</ele>
        <time>2022-04-19T10:31:50.124Z</time>
      </trkpt>
      <trkpt lat="48.35506" lon="2.7946">
        <ele>66</ele>
        <time>2022-04-19T10:31:55.118Z</time>
      </trkpt>
      <trkpt lat="48.35501" lon="2.79454">
        <ele>70</ele>
        <time>2022-04-19T10:31:59.129Z</time>
      </trkpt>
      <trkpt lat="48.35496" lon="2.79447">
        <ele>70</ele>
        <time>2022-04-19T10:32:04.130Z</time>
      </trkpt>
      <trkpt lat="48.3549" lon="2.79441">
        <ele>70</ele>
        <time>2022-04-19T10:32:09.133Z</time>
      </trkpt>
      <trkpt lat="48.35485" lon="2.79433">
        <ele>64</ele>
        <time>2022-04-19T10:32:14.126Z</time>
      </trkpt>
      <trkpt lat="48.35481" lon="2.79426">
        <ele>67</ele>
        <time>2022-04-19T10:32:18.125Z</time>
      </trkpt>
      <trkpt lat="48.35477" lon="2.79419">
        <ele>67</ele>
        <time>2022-04-19T10:32:22.130Z</time>
      </trkpt>
      <trkpt lat="48.35472" lon="2.79412">
        <ele>67</ele>
        <time>2022-04-19T10:32:27.121Z</time>
      </trkpt>
      <trkpt lat="48.35469" lon="2.79404">
        <ele>67</ele>
        <time>2022-04-19T10:32:31.125Z</time>
      </trkpt>
      <trkpt lat="48.35463" lon="2.79395">
        <ele>72</ele>
        <time>2022-04-19T10:32:36.122Z</time>
      </trkpt>
      <trkpt lat="48.3546" lon="2.79389">
        <ele>72</ele>
        <time>2022-04-19T10:32:40.127Z</time>
      </trkpt>
      <trkpt lat="48.35456" lon="2.79382">
        <ele>69</ele>
        <time>2022-04-19T10:32:44.121Z</time>
      </trkpt>
      <trkpt lat="48.35452" lon="2.79375">
        <ele>69</ele>
        <time>2022-04-19T10:32:48.124Z</time>
      </trkpt>
      <trkpt lat="48.35448" lon="2.79367">
        <ele>71</ele>
        <time>2022-04-19T10:32:53.114Z</time>
      </trkpt>
      <trkpt lat="48.35444" lon="2.7936">
        <ele>71</ele>
        <time>2022-04-19T10:32:57.122Z</time>
      </trkpt>
      <trkpt lat="48.3544" lon="2.79354">
        <ele>71</ele>
        <time>2022-04-19T10:33:01.130Z</time>
      </trkpt>
      <trkpt lat="48.35438" lon="2.79346">
        <ele>73</ele>
        <time>2022-04-19T10:33:05.122Z</time>
      </trkpt>
      <trkpt lat="48.35434" lon="2.79336">
        <ele>73</ele>
        <time>2022-04-19T10:33:10.126Z</time>
      </trkpt>
      <trkpt lat="48.3543" lon="2.79329">
        <ele>71</ele>
        <time>2022-04-19T10:33:15.129Z</time>
      </trkpt>
      <trkpt lat="48.35425" lon="2.79319">
        <ele>72</ele>
        <time>2022-04-19T10:33:20.125Z</time>
      </trkpt>
      <trkpt lat="48.35421" lon="2.7931">
        <ele>72</ele>
        <time>2022-04-19T10:33:25.122Z</time>
      </trkpt>
      <trkpt lat="48.35416" lon="2.79303">
        <ele>72</ele>
        <time>2022-04-19T10:33:29.129Z</time>
      </trkpt>
      <trkpt lat="48.35412" lon="2.79294">
        <ele>72</ele>
        <time>2022-04-19T10:33:34.126Z</time>
      </trkpt>
      <trkpt lat="48.35409" lon="2.79287">
        <ele>74</ele>
        <time>2022-04-19T10:33:38.126Z</time>
      </trkpt>
      <trkpt lat="48.35404" lon="2.79278">
        <ele>74</ele>
        <time>2022-04-19T10:33:43.118Z</time>
      </trkpt>
      <trkpt lat="48.35401" lon="2.79271">
        <ele>72</ele>
        <time>2022-04-19T10:33:47.117Z</time>
      </trkpt>
      <trkpt lat="48.35397" lon="2.79263">
        <ele>75</ele>
        <time>2022-04-19T10:33:51.119Z</time>
      </trkpt>
      <trkpt lat="48.35394" lon="2.79256">
        <ele>75</ele>
        <time>2022-04-19T10:33:55.133Z</time>
      </trkpt>
      <trkpt lat="48.3539" lon="2.79247">
        <ele>75</ele>
        <time>2022-04-19T10:34:00.129Z</time>
      </trkpt>
      <trkpt lat="48.35385" lon="2.7924">
        <ele>75</ele>
        <time>2022-04-19T10:34:05.122Z</time>
      </trkpt>
      <trkpt lat="48.3538" lon="2.79232">
        <ele>76</ele>
        <time>2022-04-19T10:34:10.120Z</time>
      </trkpt>
      <trkpt lat="48.35376" lon="2.79226">
        <ele>76</ele>
        <time>2022-04-19T10:34:14.128Z</time>
      </trkpt>
      <trkpt lat="48.35372" lon="2.79219">
        <ele>74</ele>
        <time>2022-04-19T10:34:18.118Z</time>
      </trkpt>
      <trkpt lat="48.35367" lon="2.79211">
        <ele>74</ele>
        <time>2022-04-19T10:34:23.122Z</time>
      </trkpt>
      <trkpt lat="48.35362" lon="2.79202">
        <ele>75</ele>
        <time>2022-04-19T10:34:28.121Z</time>
      </trkpt>
      <trkpt lat="48.35358" lon="2.79196">
        <ele>75</ele>
        <time>2022-04-19T10:34:32.130Z</time>
      </trkpt>
      <trkpt lat="48.35352" lon="2.79189">
        <ele>75</ele>
        <time>2022-04-19T10:34:37.126Z</time>
      </trkpt>
      <trkpt lat="48.35348" lon="2.79181">
        <ele>75</ele>
        <time>2022-04-19T10:34:41.138Z</time>
      </trkpt>
      <trkpt lat="48.35343" lon="2.79175">
        <ele>76</ele>
        <time>2022-04-19T10:34:46.124Z</time>
      </trkpt>
      <trkpt lat="48.35338" lon="2.79169">
        <ele>76</ele>
        <time>2022-04-19T10:34:50.126Z</time>
      </trkpt>
      <trkpt lat="48.35332" lon="2.7916">
        <ele>76</ele>
        <time>2022-04-19T10:34:55.115Z</time>
      </trkpt>
      <trkpt lat="48.3533" lon="2.79153">
        <ele>76</ele>
        <time>2022-04-19T10:34:59.116Z</time>
      </trkpt>
      <trkpt lat="48.35325" lon="2.79147">
        <ele>78</ele>
        <time>2022-04-19T10:35:03.134Z</time>
      </trkpt>
      <trkpt lat="48.35322" lon="2.7914">
        <ele>78</ele>
        <time>2022-04-19T10:35:08.124Z</time>
      </trkpt>
      <trkpt lat="48.35318" lon="2.79133">
        <ele>79</ele>
        <time>2022-04-19T10:35:13.121Z</time>
      </trkpt>
      <trkpt lat="48.35315" lon="2.79126">
        <ele>79</ele>
        <time>2022-04-19T10:35:18.120Z</time>
      </trkpt>
      <trkpt lat="48.35309" lon="2.79117">
        <ele>80</ele>
        <time>2022-04-19T10:35:23.122Z</time>
      </trkpt>
      <trkpt lat="48.35303" lon="2.79107">
        <ele>80</ele>
        <time>2022-04-19T10:35:28.119Z</time>
      </trkpt>
      <trkpt lat="48.35298" lon="2.791">
        <ele>80</ele>
        <time>2022-04-19T10:35:32.126Z</time>
      </trkpt>
      <trkpt lat="48.35292" lon="2.79092">
        <ele>80</ele>
        <time>2022-04-19T10:35:37.114Z</time>
      </trkpt>
      <trkpt lat="48.35286" lon="2.79084">
        <ele>80</ele>
        <time>2022-04-19T10:35:42.123Z</time>
      </trkpt>
      <trkpt lat="48.3528" lon="2.79075">
        <ele>80</ele>
        <time>2022-04-19T10:35:47.119Z</time>
      </trkpt>
      <trkpt lat="48.35277" lon="2.79068">
        <ele>80</ele>
        <time>2022-04-19T10:35:51.135Z</time>
      </trkpt>
      <trkpt lat="48.35273" lon="2.79061">
        <ele>80</ele>
        <time>2022-04-19T10:35:55.128Z</time>
      </trkpt>
      <trkpt lat="48.35268" lon="2.79051">
        <ele>80</ele>
        <time>2022-04-19T10:36:00.125Z</time>
      </trkpt>
      <trkpt lat="48.35264" lon="2.79044">
        <ele>79</ele>
        <time>2022-04-19T10:36:04.128Z</time>
      </trkpt>
      <trkpt lat="48.35259" lon="2.79034">
        <ele>79</ele>
        <time>2022-04-19T10:36:09.119Z</time>
      </trkpt>
      <trkpt lat="48.3525" lon="2.7903">
        <ele>79</ele>
        <time>2022-04-19T10:36:14.121Z</time>
      </trkpt>
      <trkpt lat="48.35244" lon="2.79024">
        <ele>79</ele>
        <time>2022-04-19T10:36:19.123Z</time>
      </trkpt>
      <trkpt lat="48.35241" lon="2.79015">
        <ele>79</ele>
        <time>2022-04-19T10:36:24.118Z</time>
      </trkpt>
      <trkpt lat="48.35238" lon="2.79006">
        <ele>79</ele>
        <time>2022-04-19T10:36:29.123Z</time>
      </trkpt>
      <trkpt lat="48.35233" lon="2.78999">
        <ele>77</ele>
        <time>2022-04-19T10:36:34.126Z</time>
      </trkpt>
      <trkpt lat="48.35229" lon="2.78992">
        <ele>77</ele>
        <time>2022-04-19T10:36:39.119Z</time>
      </trkpt>
      <trkpt lat="48.35226" lon="2.78986">
        <ele>78</ele>
        <time>2022-04-19T10:36:43.124Z</time>
      </trkpt>
      <trkpt lat="48.35223" lon="2.78979">
        <ele>78</ele>
        <time>2022-04-19T10:36:47.146Z</time>
      </trkpt>
      <trkpt lat="48.35219" lon="2.7897">
        <ele>78</ele>
        <time>2022-04-19T10:36:52.117Z</time>
      </trkpt>
      <trkpt lat="48.35216" lon="2.78962">
        <ele>78</ele>
        <time>2022-04-19T10:36:56.126Z</time>
      </trkpt>
      <trkpt lat="48.35213" lon="2.78953">
        <ele>79</ele>
        <time>2022-04-19T10:37:01.119Z</time>
      </trkpt>
      <trkpt lat="48.35209" lon="2.78943">
        <ele>79</ele>
        <time>2022-04-19T10:37:06.121Z</time>
      </trkpt>
      <trkpt lat="48.35206" lon="2.78935">
        <ele>78</ele>
        <time>2022-04-19T10:37:10.124Z</time>
      </trkpt>
      <trkpt lat="48.35202" lon="2.78926">
        <ele>78</ele>
        <time>2022-04-19T10:37:14.125Z</time>
      </trkpt>
      <trkpt lat="48.352" lon="2.78918">
        <ele>78</ele>
        <time>2022-04-19T10:37:18.128Z</time>
      </trkpt>
      <trkpt lat="48.35195" lon="2.78908">
        <ele>78</ele>
        <time>2022-04-19T10:37:23.128Z</time>
      </trkpt>
      <trkpt lat="48.35192" lon="2.78897">
        <ele>79</ele>
        <time>2022-04-19T10:37:28.121Z</time>
      </trkpt>
      <trkpt lat="48.35187" lon="2.78886">
        <ele>79</ele>
        <time>2022-04-19T10:37:33.122Z</time>
      </trkpt>
      <trkpt lat="48.35183" lon="2.78879">
        <ele>79</ele>
        <time>2022-04-19T10:37:37.126Z</time>
      </trkpt>
      <trkpt lat="48.35183" lon="2.78866">
        <ele>80</ele>
        <time>2022-04-19T10:37:42.134Z</time>
      </trkpt>
      <trkpt lat="48.3518" lon="2.78854">
        <ele>79</ele>
        <time>2022-04-19T10:37:47.129Z</time>
      </trkpt>
      <trkpt lat="48.35175" lon="2.78846">
        <ele>80</ele>
        <time>2022-04-19T10:37:52.122Z</time>
      </trkpt>
      <trkpt lat="48.35171" lon="2.78838">
        <ele>80</ele>
        <time>2022-04-19T10:37:57.125Z</time>
      </trkpt>
      <trkpt lat="48.35165" lon="2.78829">
        <ele>80</ele>
        <time>2022-04-19T10:38:02.120Z</time>
      </trkpt>
      <trkpt lat="48.35161" lon="2.7882">
        <ele>80</ele>
        <time>2022-04-19T10:38:07.129Z</time>
      </trkpt>
      <trkpt lat="48.35158" lon="2.78813">
        <ele>80</ele>
        <time>2022-04-19T10:38:12.136Z</time>
      </trkpt>
      <trkpt lat="48.35153" lon="2.78805">
        <ele>80</ele>
        <time>2022-04-19T10:38:17.127Z</time>
      </trkpt>
      <trkpt lat="48.35149" lon="2.78797">
        <ele>78</ele>
        <time>2022-04-19T10:38:21.133Z</time>
      </trkpt>
      <trkpt lat="48.35144" lon="2.78792">
        <ele>78</ele>
        <time>2022-04-19T10:38:25.142Z</time>
      </trkpt>
      <trkpt lat="48.35138" lon="2.78784">
        <ele>78</ele>
        <time>2022-04-19T10:38:30.124Z</time>
      </trkpt>
      <trkpt lat="48.35134" lon="2.78777">
        <ele>78</ele>
        <time>2022-04-19T10:38:34.123Z</time>
      </trkpt>
      <trkpt lat="48.35128" lon="2.78768">
        <ele>78</ele>
        <time>2022-04-19T10:38:39.126Z</time>
      </trkpt>
      <trkpt lat="48.35121" lon="2.78761">
        <ele>78</ele>
        <time>2022-04-19T10:38:44.118Z</time>
      </trkpt>
      <trkpt lat="48.35117" lon="2.78753">
        <ele>78</ele>
        <time>2022-04-19T10:38:48.127Z</time>
      </trkpt>
      <trkpt lat="48.35111" lon="2.78743">
        <ele>78</ele>
        <time>2022-04-19T10:38:53.119Z</time>
      </trkpt>
      <trkpt lat="48.35106" lon="2.78734">
        <ele>79</ele>
        <time>2022-04-19T10:38:58.117Z</time>
      </trkpt>
      <trkpt lat="48.35099" lon="2.78726">
        <ele>79</ele>
        <time>2022-04-19T10:39:03.126Z</time>
      </trkpt>
      <trkpt lat="48.35091" lon="2.78719">
        <ele>77</ele>
        <time>2022-04-19T10:39:08.122Z</time>
      </trkpt>
      <trkpt lat="48.35086" lon="2.78712">
        <ele>77</ele>
        <time>2022-04-19T10:39:13.123Z</time>
      </trkpt>
      <trkpt lat="48.35079" lon="2.78702">
        <ele>78</ele>
        <time>2022-04-19T10:39:18.141Z</time>
      </trkpt>
      <trkpt lat="48.35073" lon="2.78693">
        <ele>78</ele>
        <time>2022-04-19T10:39:23.120Z</time>
      </trkpt>
      <trkpt lat="48.35068" lon="2.78685">
        <ele>75</ele>
        <time>2022-04-19T10:39:28.127Z</time>
      </trkpt>
      <trkpt lat="48.35065" lon="2.78678">
        <ele>75</ele>
        <time>2022-04-19T10:39:32.132Z</time>
      </trkpt>
      <trkpt lat="48.35062" lon="2.7867">
        <ele>75</ele>
        <time>2022-04-19T10:39:36.147Z</time>
      </trkpt>
      <trkpt lat="48.35059" lon="2.78661">
        <ele>75</ele>
        <time>2022-04-19T10:39:41.123Z</time>
      </trkpt>
      <trkpt lat="48.35057" lon="2.78654">
        <ele>75</ele>
        <time>2022-04-19T10:39:45.125Z</time>
      </trkpt>
      <trkpt lat="48.35053" lon="2.78643">
        <ele>76</ele>
        <time>2022-04-19T10:39:50.127Z</time>
      </trkpt>
      <trkpt lat="48.35051" lon="2.78634">
        <ele>76</ele>
        <time>2022-04-19T10:39:55.118Z</time>
      </trkpt>
      <trkpt lat="48.35049" lon="2.78626">
        <ele>76</ele>
        <time>2022-04-19T10:39:59.120Z</time>
      </trkpt>
      <trkpt lat="48.35046" lon="2.78619">
        <ele>77</ele>
        <time>2022-04-19T10:40:03.122Z</time>
      </trkpt>
      <trkpt lat="48.35044" lon="2.78608">
        <ele>77</ele>
        <time>2022-04-19T10:40:08.122Z</time>
      </trkpt>
      <trkpt lat="48.35041" lon="2.78599">
        <ele>75</ele>
        <time>2022-04-19T10:40:12.127Z</time>
      </trkpt>
      <trkpt lat="48.35037" lon="2.78589">
        <ele>76</ele>
        <time>2022-04-19T10:40:17.119Z</time>
      </trkpt>
      <trkpt lat="48.35033" lon="2.78579">
        <ele>76</ele>
        <time>2022-04-19T10:40:22.121Z</time>
      </trkpt>
      <trkpt lat="48.35029" lon="2.78568">
        <ele>77</ele>
        <time>2022-04-19T10:40:27.129Z</time>
      </trkpt>
      <trkpt lat="48.35025" lon="2.78557">
        <ele>77</ele>
        <time>2022-04-19T10:40:32.125Z</time>
      </trkpt>
      <trkpt lat="48.3502" lon="2.78551">
        <ele>77</ele>
        <time>2022-04-19T10:40:36.133Z</time>
      </trkpt>
      <trkpt lat="48.35017" lon="2.78541">
        <ele>78</ele>
        <time>2022-04-19T10:40:41.117Z</time>
      </trkpt>
      <trkpt lat="48.35016" lon="2.78531">
        <ele>78</ele>
        <time>2022-04-19T10:40:45.119Z</time>
      </trkpt>
      <trkpt lat="48.35014" lon="2.78523">
        <ele>77</ele>
        <time>2022-04-19T10:40:49.115Z</time>
      </trkpt>
      <trkpt lat="48.35011" lon="2.78513">
        <ele>77</ele>
        <time>2022-04-19T10:40:54.116Z</time>
      </trkpt>
      <trkpt lat="48.35008" lon="2.78503">
        <ele>77</ele>
        <time>2022-04-19T10:40:59.123Z</time>
      </trkpt>
      <trkpt lat="48.35006" lon="2.78495">
        <ele>77</ele>
        <time>2022-04-19T10:41:03.121Z</time>
      </trkpt>
      <trkpt lat="48.35003" lon="2.78485">
        <ele>78</ele>
        <time>2022-04-19T10:41:08.118Z</time>
      </trkpt>
      <trkpt lat="48.35" lon="2.78478">
        <ele>78</ele>
        <time>2022-04-19T10:41:12.140Z</time>
      </trkpt>
      <trkpt lat="48.34995" lon="2.78469">
        <ele>78</ele>
        <time>2022-04-19T10:41:17.125Z</time>
      </trkpt>
      <trkpt lat="48.34991" lon="2.78461">
        <ele>78</ele>
        <time>2022-04-19T10:41:22.122Z</time>
      </trkpt>
      <trkpt lat="48.34988" lon="2.78453">
        <ele>80</ele>
        <time>2022-04-19T10:41:26.126Z</time>
      </trkpt>
      <trkpt lat="48.34982" lon="2.78446">
        <ele>78</ele>
        <time>2022-04-19T10:41:31.123Z</time>
      </trkpt>
      <trkpt lat="48.34974" lon="2.78439">
        <ele>78</ele>
        <time>2022-04-19T10:41:36.140Z</time>
      </trkpt>
      <trkpt lat="48.34967" lon="2.78432">
        <ele>78</ele>
        <time>2022-04-19T10:41:41.139Z</time>
      </trkpt>
      <trkpt lat="48.34964" lon="2.78426">
        <ele>79</ele>
        <time>2022-04-19T10:41:45.128Z</time>
      </trkpt>
      <trkpt lat="48.34958" lon="2.78421">
        <ele>76</ele>
        <time>2022-04-19T10:41:50.123Z</time>
      </trkpt>
      <trkpt lat="48.34953" lon="2.78413">
        <ele>76</ele>
        <time>2022-04-19T10:41:55.120Z</time>
      </trkpt>
      <trkpt lat="48.34947" lon="2.78408">
        <ele>76</ele>
        <time>2022-04-19T10:41:59.133Z</time>
      </trkpt>
      <trkpt lat="48.3494" lon="2.78401">
        <ele>78</ele>
        <time>2022-04-19T10:42:04.119Z</time>
      </trkpt>
      <trkpt lat="48.34935" lon="2.78395">
        <ele>78</ele>
        <time>2022-04-19T10:42:09.129Z</time>
      </trkpt>
      <trkpt lat="48.3493" lon="2.7839">
        <ele>76</ele>
        <time>2022-04-19T10:42:13.128Z</time>
      </trkpt>
      <trkpt lat="48.34925" lon="2.78383">
        <ele>76</ele>
        <time>2022-04-19T10:42:18.118Z</time>
      </trkpt>
      <trkpt lat="48.34922" lon="2.78378">
        <ele>76</ele>
        <time>2022-04-19T10:42:22.121Z</time>
      </trkpt>
      <trkpt lat="48.34916" lon="2.7837">
        <ele>78</ele>
        <time>2022-04-19T10:42:27.122Z</time>
      </trkpt>
      <trkpt lat="48.34913" lon="2.78364">
        <ele>78</ele>
        <time>2022-04-19T10:42:32.122Z</time>
      </trkpt>
      <trkpt lat="48.34907" lon="2.78356">
        <ele>78</ele>
        <time>2022-04-19T10:42:37.115Z</time>
      </trkpt>
      <trkpt lat="48.34902" lon="2.7835">
        <ele>74</ele>
        <time>2022-04-19T10:42:41.126Z</time>
      </trkpt>
      <trkpt lat="48.34895" lon="2.78342">
        <ele>77</ele>
        <time>2022-04-19T10:42:46.131Z</time>
      </trkpt>
      <trkpt lat="48.3489" lon="2.78336">
        <ele>77</ele>
        <time>2022-04-19T10:42:50.124Z</time>
      </trkpt>
      <trkpt lat="48.34886" lon="2.7833">
        <ele>77</ele>
        <time>2022-04-19T10:42:54.123Z</time>
      </trkpt>
      <trkpt lat="48.34882" lon="2.78322">
        <ele>77</ele>
        <time>2022-04-19T10:42:59.119Z</time>
      </trkpt>
      <trkpt lat="48.34879" lon="2.78315">
        <ele>79</ele>
        <time>2022-04-19T10:43:03.126Z</time>
      </trkpt>
      <trkpt lat="48.34873" lon="2.78308">
        <ele>76</ele>
        <time>2022-04-19T10:43:08.124Z</time>
      </trkpt>
      <trkpt lat="48.34869" lon="2.78301">
        <ele>76</ele>
        <time>2022-04-19T10:43:12.124Z</time>
      </trkpt>
      <trkpt lat="48.34865" lon="2.78293">
        <ele>76</ele>
        <time>2022-04-19T10:43:16.127Z</time>
      </trkpt>
      <trkpt lat="48.3486" lon="2.78284">
        <ele>78</ele>
        <time>2022-04-19T10:43:21.126Z</time>
      </trkpt>
      <trkpt lat="48.34856" lon="2.78277">
        <ele>78</ele>
        <time>2022-04-19T10:43:25.126Z</time>
      </trkpt>
      <trkpt lat="48.34853" lon="2.78269">
        <ele>78</ele>
        <time>2022-04-19T10:43:29.123Z</time>
      </trkpt>
      <trkpt lat="48.34849" lon="2.7826">
        <ele>79</ele>
        <time>2022-04-19T10:43:34.123Z</time>
      </trkpt>
      <trkpt lat="48.34845" lon="2.78248">
        <ele>77</ele>
        <time>2022-04-19T10:43:39.120Z</time>
      </trkpt>
      <trkpt lat="48.34842" lon="2.7824">
        <ele>77</ele>
        <time>2022-04-19T10:43:43.129Z</time>
      </trkpt>
      <trkpt lat="48.34839" lon="2.78232">
        <ele>77</ele>
        <time>2022-04-19T10:43:48.149Z</time>
      </trkpt>
      <trkpt lat="48.34835" lon="2.78223">
        <ele>77</ele>
        <time>2022-04-19T10:43:53.120Z</time>
      </trkpt>
      <trkpt lat="48.34832" lon="2.78218">
        <ele>77</ele>
        <time>2022-04-19T10:43:57.121Z</time>
      </trkpt>
      <trkpt lat="48.34832" lon="2.7821">
        <ele>77</ele>
        <time>2022-04-19T10:44:01.127Z</time>
      </trkpt>
      <trkpt lat="48.34836" lon="2.782">
        <ele>77</ele>
        <time>2022-04-19T10:44:06.130Z</time>
      </trkpt>
      <trkpt lat="48.34839" lon="2.78191">
        <ele>77</ele>
        <time>2022-04-19T10:44:11.123Z</time>
      </trkpt>
      <trkpt lat="48.34842" lon="2.78185">
        <ele>77</ele>
        <time>2022-04-19T10:44:16.122Z</time>
      </trkpt>
      <trkpt lat="48.34847" lon="2.7818">
        <ele>76</ele>
        <time>2022-04-19T10:44:20.125Z</time>
      </trkpt>
      <trkpt lat="48.3485" lon="2.78172">
        <ele>78</ele>
        <time>2022-04-19T10:44:24.122Z</time>
      </trkpt>
      <trkpt lat="48.34854" lon="2.78166">
        <ele>78</ele>
        <time>2022-04-19T10:44:28.154Z</time>
      </trkpt>
      <trkpt lat="48.3486" lon="2.78159">
        <ele>78</ele>
        <time>2022-04-19T10:44:33.119Z</time>
      </trkpt>
      <trkpt lat="48.34864" lon="2.78152">
        <ele>78</ele>
        <time>2022-04-19T10:44:37.125Z</time>
      </trkpt>
      <trkpt lat="48.34869" lon="2.78144">
        <ele>78</ele>
        <time>2022-04-19T10:44:42.153Z</time>
      </trkpt>
      <trkpt lat="48.34872" lon="2.78137">
        <ele>78</ele>
        <time>2022-04-19T10:44:46.152Z</time>
      </trkpt>
      <trkpt lat="48.34877" lon="2.7813">
        <ele>80</ele>
        <time>2022-04-19T10:44:51.122Z</time>
      </trkpt>
      <trkpt lat="48.3488" lon="2.78124">
        <ele>81</ele>
        <time>2022-04-19T10:44:55.132Z</time>
      </trkpt>
      <trkpt lat="48.34885" lon="2.78117">
        <ele>81</ele>
        <time>2022-04-19T10:45:00.159Z</time>
      </trkpt>
      <trkpt lat="48.34891" lon="2.78108">
        <ele>81</ele>
        <time>2022-04-19T10:45:05.123Z</time>
      </trkpt>
      <trkpt lat="48.34894" lon="2.78102">
        <ele>81</ele>
        <time>2022-04-19T10:45:09.161Z</time>
      </trkpt>
      <trkpt lat="48.34899" lon="2.78095">
        <ele>81</ele>
        <time>2022-04-19T10:45:14.158Z</time>
      </trkpt>
      <trkpt lat="48.34903" lon="2.78088">
        <ele>84</ele>
        <time>2022-04-19T10:45:19.120Z</time>
      </trkpt>
      <trkpt lat="48.34907" lon="2.78082">
        <ele>84</ele>
        <time>2022-04-19T10:45:23.117Z</time>
      </trkpt>
      <trkpt lat="48.3491" lon="2.78076">
        <ele>84</ele>
        <time>2022-04-19T10:45:27.122Z</time>
      </trkpt>
      <trkpt lat="48.34915" lon="2.7807">
        <ele>84</ele>
        <time>2022-04-19T10:45:32.127Z</time>
      </trkpt>
      <trkpt lat="48.34919" lon="2.78062">
        <ele>84</ele>
        <time>2022-04-19T10:45:37.125Z</time>
      </trkpt>
      <trkpt lat="48.34923" lon="2.78054">
        <ele>84</ele>
        <time>2022-04-19T10:45:42.128Z</time>
      </trkpt>
      <trkpt lat="48.34927" lon="2.78046">
        <ele>84</ele>
        <time>2022-04-19T10:45:47.115Z</time>
      </trkpt>
      <trkpt lat="48.34931" lon="2.78039">
        <ele>87</ele>
        <time>2022-04-19T10:45:52.120Z</time>
      </trkpt>
      <trkpt lat="48.34935" lon="2.78033">
        <ele>87</ele>
        <time>2022-04-19T10:45:56.119Z</time>
      </trkpt>
      <trkpt lat="48.34939" lon="2.78027">
        <ele>87</ele>
        <time>2022-04-19T10:46:00.127Z</time>
      </trkpt>
      <trkpt lat="48.34944" lon="2.78021">
        <ele>87</ele>
        <time>2022-04-19T10:46:05.125Z</time>
      </trkpt>
      <trkpt lat="48.34947" lon="2.78015">
        <ele>87</ele>
        <time>2022-04-19T10:46:09.147Z</time>
      </trkpt>
      <trkpt lat="48.34951" lon="2.78008">
        <ele>87</ele>
        <time>2022-04-19T10:46:14.125Z</time>
      </trkpt>
      <trkpt lat="48.34957" lon="2.78002">
        <ele>87</ele>
        <time>2022-04-19T10:46:19.117Z</time>
      </trkpt>
      <trkpt lat="48.3496" lon="2.77995">
        <ele>87</ele>
        <time>2022-04-19T10:46:24.144Z</time>
      </trkpt>
      <trkpt lat="48.34964" lon="2.77987">
        <ele>87</ele>
        <time>2022-04-19T10:46:29.113Z</time>
      </trkpt>
      <trkpt lat="48.34974" lon="2.77975">
        <ele>87</ele>
        <time>2022-04-19T10:47:45.119Z</time>
      </trkpt>
      <trkpt lat="48.34975" lon="2.77974">
        <ele>87</ele>
        <time>2022-04-19T10:47:49.120Z</time>
      </trkpt>
      <trkpt lat="48.34976" lon="2.77974">
        <ele>87</ele>
        <time>2022-04-19T10:47:54.131Z</time>
      </trkpt>
      <trkpt lat="48.34981" lon="2.77969">
        <ele>87</ele>
        <time>2022-04-19T10:47:58.154Z</time>
      </trkpt>
      <trkpt lat="48.34985" lon="2.77961">
        <ele>87</ele>
        <time>2022-04-19T10:48:03.123Z</time>
      </trkpt>
      <trkpt lat="48.34985" lon="2.77957">
        <ele>87</ele>
        <time>2022-04-19T10:48:08.121Z</time>
      </trkpt>
      <trkpt lat="48.34986" lon="2.77957">
        <ele>90</ele>
        <time>2022-04-19T10:48:12.154Z</time>
      </trkpt>
      <trkpt lat="48.3499" lon="2.77952">
        <ele>90</ele>
        <time>2022-04-19T10:48:17.126Z</time>
      </trkpt>
      <trkpt lat="48.34994" lon="2.77945">
        <ele>90</ele>
        <time>2022-04-19T10:48:22.200Z</time>
      </trkpt>
      <trkpt lat="48.35002" lon="2.77941">
        <ele>90</ele>
        <time>2022-04-19T10:48:27.127Z</time>
      </trkpt>
      <trkpt lat="48.35007" lon="2.77935">
        <ele>90</ele>
        <time>2022-04-19T10:48:32.169Z</time>
      </trkpt>
      <trkpt lat="48.35011" lon="2.77928">
        <ele>91</ele>
        <time>2022-04-19T10:48:37.123Z</time>
      </trkpt>
      <trkpt lat="48.35016" lon="2.7792">
        <ele>92</ele>
        <time>2022-04-19T10:48:42.126Z</time>
      </trkpt>
      <trkpt lat="48.3502" lon="2.77914">
        <ele>92</ele>
        <time>2022-04-19T10:48:46.158Z</time>
      </trkpt>
      <trkpt lat="48.35025" lon="2.77907">
        <ele>92</ele>
        <time>2022-04-19T10:48:51.117Z</time>
      </trkpt>
      <trkpt lat="48.35029" lon="2.779">
        <ele>94</ele>
        <time>2022-04-19T10:48:55.122Z</time>
      </trkpt>
      <trkpt lat="48.35035" lon="2.77894">
        <ele>94</ele>
        <time>2022-04-19T10:49:00.127Z</time>
      </trkpt>
      <trkpt lat="48.35039" lon="2.77888">
        <ele>94</ele>
        <time>2022-04-19T10:49:04.153Z</time>
      </trkpt>
      <trkpt lat="48.35044" lon="2.77881">
        <ele>94</ele>
        <time>2022-04-19T10:49:09.131Z</time>
      </trkpt>
      <trkpt lat="48.3505" lon="2.77874">
        <ele>95</ele>
        <time>2022-04-19T10:49:14.128Z</time>
      </trkpt>
      <trkpt lat="48.35055" lon="2.77868">
        <ele>95</ele>
        <time>2022-04-19T10:49:18.127Z</time>
      </trkpt>
      <trkpt lat="48.35049" lon="2.77853">
        <ele>95</ele>
        <time>2022-04-19T10:49:36.131Z</time>
      </trkpt>
      <trkpt lat="48.35048" lon="2.77856">
        <ele>95</ele>
        <time>2022-04-19T10:49:41.118Z</time>
      </trkpt>
      <trkpt lat="48.35049" lon="2.77852">
        <ele>95</ele>
        <time>2022-04-19T10:49:45.134Z</time>
      </trkpt>
      <trkpt lat="48.35047" lon="2.77842">
        <ele>97</ele>
        <time>2022-04-19T10:49:50.124Z</time>
      </trkpt>
      <trkpt lat="48.35046" lon="2.77834">
        <ele>97</ele>
        <time>2022-04-19T10:49:54.123Z</time>
      </trkpt>
      <trkpt lat="48.35047" lon="2.77827">
        <ele>97</ele>
        <time>2022-04-19T10:49:58.151Z</time>
      </trkpt>
      <trkpt lat="48.35047" lon="2.77817">
        <ele>98</ele>
        <time>2022-04-19T10:50:03.118Z</time>
      </trkpt>
      <trkpt lat="48.35042" lon="2.77808">
        <ele>98</ele>
        <time>2022-04-19T10:50:08.128Z</time>
      </trkpt>
      <trkpt lat="48.3504" lon="2.77798">
        <ele>97</ele>
        <time>2022-04-19T10:50:13.153Z</time>
      </trkpt>
      <trkpt lat="48.35037" lon="2.77789">
        <ele>97</ele>
        <time>2022-04-19T10:50:18.128Z</time>
      </trkpt>
      <trkpt lat="48.35035" lon="2.7778">
        <ele>97</ele>
        <time>2022-04-19T10:50:22.141Z</time>
      </trkpt>
      <trkpt lat="48.3503" lon="2.77771">
        <ele>97</ele>
        <time>2022-04-19T10:50:27.126Z</time>
      </trkpt>
      <trkpt lat="48.35027" lon="2.77761">
        <ele>97</ele>
        <time>2022-04-19T10:50:32.122Z</time>
      </trkpt>
      <trkpt lat="48.35025" lon="2.77753">
        <ele>97</ele>
        <time>2022-04-19T10:50:36.122Z</time>
      </trkpt>
      <trkpt lat="48.35022" lon="2.77743">
        <ele>97</ele>
        <time>2022-04-19T10:50:41.119Z</time>
      </trkpt>
      <trkpt lat="48.35019" lon="2.77736">
        <ele>97</ele>
        <time>2022-04-19T10:50:45.129Z</time>
      </trkpt>
      <trkpt lat="48.35016" lon="2.77726">
        <ele>98</ele>
        <time>2022-04-19T10:50:50.121Z</time>
      </trkpt>
      <trkpt lat="48.35012" lon="2.77716">
        <ele>98</ele>
        <time>2022-04-19T10:50:55.144Z</time>
      </trkpt>
      <trkpt lat="48.35009" lon="2.77706">
        <ele>100</ele>
        <time>2022-04-19T10:51:00.132Z</time>
      </trkpt>
      <trkpt lat="48.35007" lon="2.77695">
        <ele>100</ele>
        <time>2022-04-19T10:51:05.121Z</time>
      </trkpt>
      <trkpt lat="48.35004" lon="2.77688">
        <ele>100</ele>
        <time>2022-04-19T10:51:09.125Z</time>
      </trkpt>
      <trkpt lat="48.35001" lon="2.77681">
        <ele>100</ele>
        <time>2022-04-19T10:51:13.127Z</time>
      </trkpt>
      <trkpt lat="48.34998" lon="2.77674">
        <ele>102</ele>
        <time>2022-04-19T10:51:17.154Z</time>
      </trkpt>
      <trkpt lat="48.34994" lon="2.77665">
        <ele>102</ele>
        <time>2022-04-19T10:51:22.124Z</time>
      </trkpt>
      <trkpt lat="48.3499" lon="2.77656">
        <ele>102</ele>
        <time>2022-04-19T10:51:27.124Z</time>
      </trkpt>
      <trkpt lat="48.34987" lon="2.77649">
        <ele>101</ele>
        <time>2022-04-19T10:51:31.124Z</time>
      </trkpt>
      <trkpt lat="48.34985" lon="2.77641">
        <ele>101</ele>
        <time>2022-04-19T10:51:36.114Z</time>
      </trkpt>
      <trkpt lat="48.34981" lon="2.77634">
        <ele>101</ele>
        <time>2022-04-19T10:51:40.115Z</time>
      </trkpt>
      <trkpt lat="48.34978" lon="2.77624">
        <ele>99</ele>
        <time>2022-04-19T10:51:45.125Z</time>
      </trkpt>
      <trkpt lat="48.34976" lon="2.77614">
        <ele>99</ele>
        <time>2022-04-19T10:51:50.117Z</time>
      </trkpt>
      <trkpt lat="48.34973" lon="2.77606">
        <ele>99</ele>
        <time>2022-04-19T10:51:54.113Z</time>
      </trkpt>
      <trkpt lat="48.3497" lon="2.77596">
        <ele>98</ele>
        <time>2022-04-19T10:51:59.124Z</time>
      </trkpt>
      <trkpt lat="48.34967" lon="2.77588">
        <ele>98</ele>
        <time>2022-04-19T10:52:04.130Z</time>
      </trkpt>
      <trkpt lat="48.34964" lon="2.77577">
        <ele>98</ele>
        <time>2022-04-19T10:52:09.121Z</time>
      </trkpt>
      <trkpt lat="48.3496" lon="2.77568">
        <ele>96</ele>
        <time>2022-04-19T10:52:14.162Z</time>
      </trkpt>
      <trkpt lat="48.34956" lon="2.77559">
        <ele>96</ele>
        <time>2022-04-19T10:52:19.127Z</time>
      </trkpt>
      <trkpt lat="48.34953" lon="2.77553">
        <ele>96</ele>
        <time>2022-04-19T10:52:23.157Z</time>
      </trkpt>
      <trkpt lat="48.34952" lon="2.77544">
        <ele>96</ele>
        <time>2022-04-19T10:52:28.122Z</time>
      </trkpt>
      <trkpt lat="48.3495" lon="2.77539">
        <ele>94</ele>
        <time>2022-04-19T10:52:32.123Z</time>
      </trkpt>
      <trkpt lat="48.34948" lon="2.77533">
        <ele>94</ele>
        <time>2022-04-19T10:52:36.132Z</time>
      </trkpt>
      <trkpt lat="48.34945" lon="2.77527">
        <ele>94</ele>
        <time>2022-04-19T10:52:41.124Z</time>
      </trkpt>
      <trkpt lat="48.3494" lon="2.77518">
        <ele>94</ele>
        <time>2022-04-19T10:52:46.121Z</time>
      </trkpt>
      <trkpt lat="48.34938" lon="2.7751">
        <ele>93</ele>
        <time>2022-04-19T10:52:50.125Z</time>
      </trkpt>
      <trkpt lat="48.34935" lon="2.77502">
        <ele>93</ele>
        <time>2022-04-19T10:52:54.121Z</time>
      </trkpt>
      <trkpt lat="48.34931" lon="2.77491">
        <ele>93</ele>
        <time>2022-04-19T10:52:59.148Z</time>
      </trkpt>
      <trkpt lat="48.34928" lon="2.77481">
        <ele>88</ele>
        <time>2022-04-19T10:53:04.120Z</time>
      </trkpt>
      <trkpt lat="48.34926" lon="2.77473">
        <ele>88</ele>
        <time>2022-04-19T10:53:08.126Z</time>
      </trkpt>
      <trkpt lat="48.34924" lon="2.77465">
        <ele>88</ele>
        <time>2022-04-19T10:53:12.122Z</time>
      </trkpt>
      <trkpt lat="48.3492" lon="2.77458">
        <ele>88</ele>
        <time>2022-04-19T10:53:16.155Z</time>
      </trkpt>
      <trkpt lat="48.34916" lon="2.77448">
        <ele>88</ele>
        <time>2022-04-19T10:53:21.118Z</time>
      </trkpt>
      <trkpt lat="48.34912" lon="2.7744">
        <ele>88</ele>
        <time>2022-04-19T10:53:26.146Z</time>
      </trkpt>
      <trkpt lat="48.34909" lon="2.77431">
        <ele>88</ele>
        <time>2022-04-19T10:53:31.119Z</time>
      </trkpt>
      <trkpt lat="48.34905" lon="2.77421">
        <ele>89</ele>
        <time>2022-04-19T10:53:36.125Z</time>
      </trkpt>
      <trkpt lat="48.34903" lon="2.77414">
        <ele>88</ele>
        <time>2022-04-19T10:53:40.119Z</time>
      </trkpt>
      <trkpt lat="48.34899" lon="2.77405">
        <ele>88</ele>
        <time>2022-04-19T10:53:45.120Z</time>
      </trkpt>
      <trkpt lat="48.34896" lon="2.77398">
        <ele>89</ele>
        <time>2022-04-19T10:53:49.124Z</time>
      </trkpt>
      <trkpt lat="48.34893" lon="2.77389">
        <ele>89</ele>
        <time>2022-04-19T10:53:54.122Z</time>
      </trkpt>
      <trkpt lat="48.34891" lon="2.77381">
        <ele>89</ele>
        <time>2022-04-19T10:53:58.126Z</time>
      </trkpt>
      <trkpt lat="48.34889" lon="2.77373">
        <ele>89</ele>
        <time>2022-04-19T10:54:02.128Z</time>
      </trkpt>
      <trkpt lat="48.34885" lon="2.77365">
        <ele>89</ele>
        <time>2022-04-19T10:54:06.148Z</time>
      </trkpt>
      <trkpt lat="48.34882" lon="2.77357">
        <ele>89</ele>
        <time>2022-04-19T10:54:11.120Z</time>
      </trkpt>
      <trkpt lat="48.34879" lon="2.77349">
        <ele>89</ele>
        <time>2022-04-19T10:54:16.157Z</time>
      </trkpt>
      <trkpt lat="48.34878" lon="2.7734">
        <ele>89</ele>
        <time>2022-04-19T10:54:21.119Z</time>
      </trkpt>
      <trkpt lat="48.34875" lon="2.77332">
        <ele>89</ele>
        <time>2022-04-19T10:54:26.119Z</time>
      </trkpt>
      <trkpt lat="48.34873" lon="2.77325">
        <ele>88</ele>
        <time>2022-04-19T10:54:30.120Z</time>
      </trkpt>
      <trkpt lat="48.34871" lon="2.77317">
        <ele>90</ele>
        <time>2022-04-19T10:54:35.114Z</time>
      </trkpt>
      <trkpt lat="48.34868" lon="2.77308">
        <ele>90</ele>
        <time>2022-04-19T10:54:40.120Z</time>
      </trkpt>
      <trkpt lat="48.34872" lon="2.77299">
        <ele>90</ele>
        <time>2022-04-19T10:54:44.125Z</time>
      </trkpt>
      <trkpt lat="48.34871" lon="2.7729">
        <ele>92</ele>
        <time>2022-04-19T10:54:49.125Z</time>
      </trkpt>
      <trkpt lat="48.34871" lon="2.77282">
        <ele>92</ele>
        <time>2022-04-19T10:54:53.132Z</time>
      </trkpt>
      <trkpt lat="48.3487" lon="2.77274">
        <ele>92</ele>
        <time>2022-04-19T10:54:57.124Z</time>
      </trkpt>
      <trkpt lat="48.34869" lon="2.77263">
        <ele>93</ele>
        <time>2022-04-19T10:55:02.148Z</time>
      </trkpt>
      <trkpt lat="48.3487" lon="2.77255">
        <ele>93</ele>
        <time>2022-04-19T10:55:07.126Z</time>
      </trkpt>
      <trkpt lat="48.3487" lon="2.77247">
        <ele>93</ele>
        <time>2022-04-19T10:55:11.129Z</time>
      </trkpt>
      <trkpt lat="48.34868" lon="2.7724">
        <ele>93</ele>
        <time>2022-04-19T10:55:16.122Z</time>
      </trkpt>
      <trkpt lat="48.34868" lon="2.77239">
        <ele>93</ele>
        <time>2022-04-19T10:55:20.130Z</time>
      </trkpt>
      <trkpt lat="48.34868" lon="2.77231">
        <ele>92</ele>
        <time>2022-04-19T10:55:25.131Z</time>
      </trkpt>
      <trkpt lat="48.34867" lon="2.7722">
        <ele>92</ele>
        <time>2022-04-19T10:55:30.128Z</time>
      </trkpt>
      <trkpt lat="48.34867" lon="2.77212">
        <ele>92</ele>
        <time>2022-04-19T10:55:34.140Z</time>
      </trkpt>
      <trkpt lat="48.34867" lon="2.77202">
        <ele>91</ele>
        <time>2022-04-19T10:55:39.116Z</time>
      </trkpt>
      <trkpt lat="48.34866" lon="2.77194">
        <ele>91</ele>
        <time>2022-04-19T10:55:44.126Z</time>
      </trkpt>
      <trkpt lat="48.34864" lon="2.77186">
        <ele>91</ele>
        <time>2022-04-19T10:55:49.128Z</time>
      </trkpt>
      <trkpt lat="48.34863" lon="2.77176">
        <ele>90</ele>
        <time>2022-04-19T10:55:54.117Z</time>
      </trkpt>
      <trkpt lat="48.34863" lon="2.77167">
        <ele>90</ele>
        <time>2022-04-19T10:55:58.122Z</time>
      </trkpt>
      <trkpt lat="48.34863" lon="2.77158">
        <ele>90</ele>
        <time>2022-04-19T10:56:03.122Z</time>
      </trkpt>
      <trkpt lat="48.34862" lon="2.7715">
        <ele>91</ele>
        <time>2022-04-19T10:56:07.128Z</time>
      </trkpt>
      <trkpt lat="48.34862" lon="2.77142">
        <ele>91</ele>
        <time>2022-04-19T10:56:11.271Z</time>
      </trkpt>
      <trkpt lat="48.34861" lon="2.77132">
        <ele>91</ele>
        <time>2022-04-19T10:56:16.126Z</time>
      </trkpt>
      <trkpt lat="48.34861" lon="2.77122">
        <ele>91</ele>
        <time>2022-04-19T10:56:21.129Z</time>
      </trkpt>
      <trkpt lat="48.3486" lon="2.77113">
        <ele>91</ele>
        <time>2022-04-19T10:56:26.133Z</time>
      </trkpt>
      <trkpt lat="48.34859" lon="2.77103">
        <ele>91</ele>
        <time>2022-04-19T10:56:31.134Z</time>
      </trkpt>
      <trkpt lat="48.34859" lon="2.77093">
        <ele>92</ele>
        <time>2022-04-19T10:56:36.129Z</time>
      </trkpt>
      <trkpt lat="48.3486" lon="2.77083">
        <ele>92</ele>
        <time>2022-04-19T10:56:41.119Z</time>
      </trkpt>
      <trkpt lat="48.34859" lon="2.77074">
        <ele>92</ele>
        <time>2022-04-19T10:56:45.119Z</time>
      </trkpt>
      <trkpt lat="48.34859" lon="2.77065">
        <ele>93</ele>
        <time>2022-04-19T10:56:49.121Z</time>
      </trkpt>
      <trkpt lat="48.34858" lon="2.77057">
        <ele>93</ele>
        <time>2022-04-19T10:56:53.129Z</time>
      </trkpt>
      <trkpt lat="48.34858" lon="2.77049">
        <ele>93</ele>
        <time>2022-04-19T10:56:57.123Z</time>
      </trkpt>
      <trkpt lat="48.34857" lon="2.77038">
        <ele>94</ele>
        <time>2022-04-19T10:57:02.126Z</time>
      </trkpt>
      <trkpt lat="48.34858" lon="2.77032">
        <ele>94</ele>
        <time>2022-04-19T10:57:06.130Z</time>
      </trkpt>
      <trkpt lat="48.34862" lon="2.77028">
        <ele>94</ele>
        <time>2022-04-19T10:57:11.129Z</time>
      </trkpt>
      <trkpt lat="48.34867" lon="2.77025">
        <ele>94</ele>
        <time>2022-04-19T10:57:16.119Z</time>
      </trkpt>
      <trkpt lat="48.34865" lon="2.77017">
        <ele>94</ele>
        <time>2022-04-19T11:41:35.114Z</time>
      </trkpt>
      <trkpt lat="48.34862" lon="2.77021">
        <ele>94</ele>
        <time>2022-04-19T11:41:39.109Z</time>
      </trkpt>
      <trkpt lat="48.34858" lon="2.77025">
        <ele>94</ele>
        <time>2022-04-19T11:41:44.114Z</time>
      </trkpt>
      <trkpt lat="48.34855" lon="2.77029">
        <ele>94</ele>
        <time>2022-04-19T11:41:49.112Z</time>
      </trkpt>
      <trkpt lat="48.34854" lon="2.77023">
        <ele>94</ele>
        <time>2022-04-19T11:41:54.109Z</time>
      </trkpt>
      <trkpt lat="48.34854" lon="2.77017">
        <ele>94</ele>
        <time>2022-04-19T11:41:58.109Z</time>
      </trkpt>
      <trkpt lat="48.34853" lon="2.7701">
        <ele>95</ele>
        <time>2022-04-19T11:42:02.121Z</time>
      </trkpt>
      <trkpt lat="48.34855" lon="2.77004">
        <ele>95</ele>
        <time>2022-04-19T11:42:07.109Z</time>
      </trkpt>
      <trkpt lat="48.34856" lon="2.76999">
        <ele>95</ele>
        <time>2022-04-19T11:42:11.119Z</time>
      </trkpt>
      <trkpt lat="48.34855" lon="2.7699">
        <ele>95</ele>
        <time>2022-04-19T11:42:16.118Z</time>
      </trkpt>
      <trkpt lat="48.34854" lon="2.76982">
        <ele>95</ele>
        <time>2022-04-19T11:42:21.113Z</time>
      </trkpt>
      <trkpt lat="48.34854" lon="2.76973">
        <ele>95</ele>
        <time>2022-04-19T11:42:26.121Z</time>
      </trkpt>
      <trkpt lat="48.34854" lon="2.76965">
        <ele>95</ele>
        <time>2022-04-19T11:42:31.118Z</time>
      </trkpt>
      <trkpt lat="48.34853" lon="2.76956">
        <ele>96</ele>
        <time>2022-04-19T11:42:36.130Z</time>
      </trkpt>
      <trkpt lat="48.34852" lon="2.76948">
        <ele>96</ele>
        <time>2022-04-19T11:42:41.107Z</time>
      </trkpt>
      <trkpt lat="48.34852" lon="2.7694">
        <ele>96</ele>
        <time>2022-04-19T11:42:45.116Z</time>
      </trkpt>
      <trkpt lat="48.34852" lon="2.7693">
        <ele>97</ele>
        <time>2022-04-19T11:42:50.111Z</time>
      </trkpt>
      <trkpt lat="48.34852" lon="2.76923">
        <ele>97</ele>
        <time>2022-04-19T11:42:54.131Z</time>
      </trkpt>
      <trkpt lat="48.34851" lon="2.76913">
        <ele>97</ele>
        <time>2022-04-19T11:42:59.120Z</time>
      </trkpt>
      <trkpt lat="48.34849" lon="2.76904">
        <ele>97</ele>
        <time>2022-04-19T11:43:04.117Z</time>
      </trkpt>
      <trkpt lat="48.34849" lon="2.76894">
        <ele>97</ele>
        <time>2022-04-19T11:43:09.111Z</time>
      </trkpt>
      <trkpt lat="48.34849" lon="2.76886">
        <ele>97</ele>
        <time>2022-04-19T11:43:13.112Z</time>
      </trkpt>
      <trkpt lat="48.34849" lon="2.76877">
        <ele>97</ele>
        <time>2022-04-19T11:43:18.114Z</time>
      </trkpt>
      <trkpt lat="48.34849" lon="2.76869">
        <ele>98</ele>
        <time>2022-04-19T11:43:22.125Z</time>
      </trkpt>
      <trkpt lat="48.34849" lon="2.76858">
        <ele>98</ele>
        <time>2022-04-19T11:43:27.123Z</time>
      </trkpt>
      <trkpt lat="48.34849" lon="2.76848">
        <ele>98</ele>
        <time>2022-04-19T11:43:32.122Z</time>
      </trkpt>
      <trkpt lat="48.34847" lon="2.76839">
        <ele>97</ele>
        <time>2022-04-19T11:43:37.117Z</time>
      </trkpt>
      <trkpt lat="48.34846" lon="2.76832">
        <ele>97</ele>
        <time>2022-04-19T11:43:42.115Z</time>
      </trkpt>
      <trkpt lat="48.34845" lon="2.76828">
        <ele>97</ele>
        <time>2022-04-19T11:43:46.116Z</time>
      </trkpt>
      <trkpt lat="48.34843" lon="2.76822">
        <ele>97</ele>
        <time>2022-04-19T11:43:50.119Z</time>
      </trkpt>
      <trkpt lat="48.3484" lon="2.76816">
        <ele>97</ele>
        <time>2022-04-19T11:43:55.135Z</time>
      </trkpt>
      <trkpt lat="48.34839" lon="2.76808">
        <ele>97</ele>
        <time>2022-04-19T11:44:00.107Z</time>
      </trkpt>
      <trkpt lat="48.34839" lon="2.76804">
        <ele>97</ele>
        <time>2022-04-19T11:44:05.120Z</time>
      </trkpt>
      <trkpt lat="48.34842" lon="2.76801">
        <ele>97</ele>
        <time>2022-04-19T11:44:09.124Z</time>
      </trkpt>
      <trkpt lat="48.34846" lon="2.76798">
        <ele>97</ele>
        <time>2022-04-19T11:44:13.118Z</time>
      </trkpt>
      <trkpt lat="48.34852" lon="2.76793">
        <ele>98</ele>
        <time>2022-04-19T11:44:18.115Z</time>
      </trkpt>
      <trkpt lat="48.34857" lon="2.76789">
        <ele>98</ele>
        <time>2022-04-19T11:44:23.121Z</time>
      </trkpt>
      <trkpt lat="48.34862" lon="2.76782">
        <ele>98</ele>
        <time>2022-04-19T11:44:28.117Z</time>
      </trkpt>
      <trkpt lat="48.34867" lon="2.76776">
        <ele>98</ele>
        <time>2022-04-19T11:44:33.119Z</time>
      </trkpt>
      <trkpt lat="48.34873" lon="2.76769">
        <ele>98</ele>
        <time>2022-04-19T11:44:38.130Z</time>
      </trkpt>
      <trkpt lat="48.34874" lon="2.76763">
        <ele>100</ele>
        <time>2022-04-19T11:44:43.116Z</time>
      </trkpt>
      <trkpt lat="48.34874" lon="2.76763">
        <ele>100</ele>
        <time>2022-04-19T11:44:48.118Z</time>
      </trkpt>
      <trkpt lat="48.34875" lon="2.7676">
        <ele>100</ele>
        <time>2022-04-19T11:44:53.109Z</time>
      </trkpt>
      <trkpt lat="48.34871" lon="2.76754">
        <ele>100</ele>
        <time>2022-04-19T11:44:57.135Z</time>
      </trkpt>
      <trkpt lat="48.34872" lon="2.76744">
        <ele>100</ele>
        <time>2022-04-19T11:45:02.118Z</time>
      </trkpt>
      <trkpt lat="48.34872" lon="2.76734">
        <ele>101</ele>
        <time>2022-04-19T11:45:07.118Z</time>
      </trkpt>
      <trkpt lat="48.34872" lon="2.76725">
        <ele>101</ele>
        <time>2022-04-19T11:45:12.120Z</time>
      </trkpt>
      <trkpt lat="48.34873" lon="2.76717">
        <ele>101</ele>
        <time>2022-04-19T11:45:16.119Z</time>
      </trkpt>
      <trkpt lat="48.34873" lon="2.76706">
        <ele>101</ele>
        <time>2022-04-19T11:45:21.115Z</time>
      </trkpt>
      <trkpt lat="48.34875" lon="2.76696">
        <ele>101</ele>
        <time>2022-04-19T11:45:26.124Z</time>
      </trkpt>
      <trkpt lat="48.34876" lon="2.76686">
        <ele>101</ele>
        <time>2022-04-19T11:45:31.116Z</time>
      </trkpt>
      <trkpt lat="48.34876" lon="2.76674">
        <ele>101</ele>
        <time>2022-04-19T11:45:36.123Z</time>
      </trkpt>
      <trkpt lat="48.34876" lon="2.76665">
        <ele>101</ele>
        <time>2022-04-19T11:45:40.128Z</time>
      </trkpt>
      <trkpt lat="48.34877" lon="2.76655">
        <ele>101</ele>
        <time>2022-04-19T11:45:45.116Z</time>
      </trkpt>
      <trkpt lat="48.34876" lon="2.76645">
        <ele>101</ele>
        <time>2022-04-19T11:45:50.118Z</time>
      </trkpt>
      <trkpt lat="48.34875" lon="2.76635">
        <ele>99</ele>
        <time>2022-04-19T11:45:55.110Z</time>
      </trkpt>
      <trkpt lat="48.34871" lon="2.76632">
        <ele>99</ele>
        <time>2022-04-19T11:45:59.117Z</time>
      </trkpt>
      <trkpt lat="48.34871" lon="2.76632">
        <ele>99</ele>
        <time>2022-04-19T11:46:08.108Z</time>
      </trkpt>
      <trkpt lat="48.34871" lon="2.76631">
        <ele>99</ele>
        <time>2022-04-19T11:46:12.115Z</time>
      </trkpt>
      <trkpt lat="48.34868" lon="2.76627">
        <ele>99</ele>
        <time>2022-04-19T11:46:16.128Z</time>
      </trkpt>
      <trkpt lat="48.34868" lon="2.76624">
        <ele>100</ele>
        <time>2022-04-19T11:46:21.112Z</time>
      </trkpt>
      <trkpt lat="48.34869" lon="2.76615">
        <ele>100</ele>
        <time>2022-04-19T11:46:25.132Z</time>
      </trkpt>
      <trkpt lat="48.3487" lon="2.76607">
        <ele>100</ele>
        <time>2022-04-19T11:46:29.112Z</time>
      </trkpt>
      <trkpt lat="48.34872" lon="2.76599">
        <ele>100</ele>
        <time>2022-04-19T11:46:33.122Z</time>
      </trkpt>
      <trkpt lat="48.34873" lon="2.76588">
        <ele>100</ele>
        <time>2022-04-19T11:46:38.118Z</time>
      </trkpt>
      <trkpt lat="48.34873" lon="2.76577">
        <ele>100</ele>
        <time>2022-04-19T11:46:43.128Z</time>
      </trkpt>
      <trkpt lat="48.34872" lon="2.76567">
        <ele>100</ele>
        <time>2022-04-19T11:46:48.117Z</time>
      </trkpt>
      <trkpt lat="48.34872" lon="2.76559">
        <ele>100</ele>
        <time>2022-04-19T11:46:52.117Z</time>
      </trkpt>
      <trkpt lat="48.34872" lon="2.76548">
        <ele>100</ele>
        <time>2022-04-19T11:46:57.108Z</time>
      </trkpt>
      <trkpt lat="48.34872" lon="2.76539">
        <ele>100</ele>
        <time>2022-04-19T11:47:01.121Z</time>
      </trkpt>
      <trkpt lat="48.34872" lon="2.76528">
        <ele>100</ele>
        <time>2022-04-19T11:47:06.119Z</time>
      </trkpt>
      <trkpt lat="48.34872" lon="2.7652">
        <ele>100</ele>
        <time>2022-04-19T11:47:10.123Z</time>
      </trkpt>
      <trkpt lat="48.34872" lon="2.76512">
        <ele>101</ele>
        <time>2022-04-19T11:47:14.121Z</time>
      </trkpt>
      <trkpt lat="48.34872" lon="2.76501">
        <ele>101</ele>
        <time>2022-04-19T11:47:19.121Z</time>
      </trkpt>
      <trkpt lat="48.34873" lon="2.7649">
        <ele>101</ele>
        <time>2022-04-19T11:47:24.118Z</time>
      </trkpt>
      <trkpt lat="48.34873" lon="2.7648">
        <ele>102</ele>
        <time>2022-04-19T11:47:29.121Z</time>
      </trkpt>
      <trkpt lat="48.34873" lon="2.76469">
        <ele>102</ele>
        <time>2022-04-19T11:47:34.112Z</time>
      </trkpt>
      <trkpt lat="48.34874" lon="2.76461">
        <ele>102</ele>
        <time>2022-04-19T11:47:38.108Z</time>
      </trkpt>
      <trkpt lat="48.34874" lon="2.76453">
        <ele>104</ele>
        <time>2022-04-19T11:47:42.119Z</time>
      </trkpt>
      <trkpt lat="48.34873" lon="2.76443">
        <ele>104</ele>
        <time>2022-04-19T11:47:47.121Z</time>
      </trkpt>
      <trkpt lat="48.34874" lon="2.76434">
        <ele>104</ele>
        <time>2022-04-19T11:47:52.112Z</time>
      </trkpt>
      <trkpt lat="48.34873" lon="2.76425">
        <ele>105</ele>
        <time>2022-04-19T11:47:56.125Z</time>
      </trkpt>
      <trkpt lat="48.34873" lon="2.76416">
        <ele>105</ele>
        <time>2022-04-19T11:48:01.116Z</time>
      </trkpt>
      <trkpt lat="48.34873" lon="2.76408">
        <ele>105</ele>
        <time>2022-04-19T11:48:05.118Z</time>
      </trkpt>
      <trkpt lat="48.34868" lon="2.76403">
        <ele>105</ele>
        <time>2022-04-19T11:48:10.116Z</time>
      </trkpt>
      <trkpt lat="48.34861" lon="2.76401">
        <ele>105</ele>
        <time>2022-04-19T11:48:15.117Z</time>
      </trkpt>
      <trkpt lat="48.34855" lon="2.76399">
        <ele>105</ele>
        <time>2022-04-19T11:48:20.108Z</time>
      </trkpt>
      <trkpt lat="48.3485" lon="2.76398">
        <ele>105</ele>
        <time>2022-04-19T11:48:24.121Z</time>
      </trkpt>
      <trkpt lat="48.34845" lon="2.76398">
        <ele>103</ele>
        <time>2022-04-19T11:48:28.132Z</time>
      </trkpt>
      <trkpt lat="48.34838" lon="2.76397">
        <ele>103</ele>
        <time>2022-04-19T11:48:33.115Z</time>
      </trkpt>
      <trkpt lat="48.3483" lon="2.76396">
        <ele>103</ele>
        <time>2022-04-19T11:48:38.116Z</time>
      </trkpt>
      <trkpt lat="48.34823" lon="2.76395">
        <ele>103</ele>
        <time>2022-04-19T11:48:43.125Z</time>
      </trkpt>
      <trkpt lat="48.34815" lon="2.76394">
        <ele>103</ele>
        <time>2022-04-19T11:48:48.114Z</time>
      </trkpt>
      <trkpt lat="48.3481" lon="2.76393">
        <ele>103</ele>
        <time>2022-04-19T11:48:52.113Z</time>
      </trkpt>
      <trkpt lat="48.34803" lon="2.76388">
        <ele>103</ele>
        <time>2022-04-19T11:48:57.126Z</time>
      </trkpt>
      <trkpt lat="48.34799" lon="2.7638">
        <ele>103</ele>
        <time>2022-04-19T11:49:02.218Z</time>
      </trkpt>
      <trkpt lat="48.34795" lon="2.7637">
        <ele>103</ele>
        <time>2022-04-19T11:49:07.134Z</time>
      </trkpt>
      <trkpt lat="48.34794" lon="2.76362">
        <ele>103</ele>
        <time>2022-04-19T11:49:11.122Z</time>
      </trkpt>
      <trkpt lat="48.34791" lon="2.76353">
        <ele>104</ele>
        <time>2022-04-19T11:49:16.130Z</time>
      </trkpt>
      <trkpt lat="48.34789" lon="2.76343">
        <ele>104</ele>
        <time>2022-04-19T11:49:21.114Z</time>
      </trkpt>
      <trkpt lat="48.34786" lon="2.76336">
        <ele>104</ele>
        <time>2022-04-19T11:49:26.121Z</time>
      </trkpt>
      <trkpt lat="48.34779" lon="2.76333">
        <ele>104</ele>
        <time>2022-04-19T11:49:31.120Z</time>
      </trkpt>
      <trkpt lat="48.34773" lon="2.76329">
        <ele>104</ele>
        <time>2022-04-19T11:49:36.112Z</time>
      </trkpt>
      <trkpt lat="48.34767" lon="2.76328">
        <ele>104</ele>
        <time>2022-04-19T11:49:40.116Z</time>
      </trkpt>
      <trkpt lat="48.34761" lon="2.76326">
        <ele>102</ele>
        <time>2022-04-19T11:49:45.143Z</time>
      </trkpt>
      <trkpt lat="48.34755" lon="2.76326">
        <ele>102</ele>
        <time>2022-04-19T11:49:50.132Z</time>
      </trkpt>
      <trkpt lat="48.34748" lon="2.76327">
        <ele>102</ele>
        <time>2022-04-19T11:49:55.125Z</time>
      </trkpt>
      <trkpt lat="48.34741" lon="2.76326">
        <ele>102</ele>
        <time>2022-04-19T11:50:00.121Z</time>
      </trkpt>
      <trkpt lat="48.34735" lon="2.76326">
        <ele>101</ele>
        <time>2022-04-19T11:50:04.120Z</time>
      </trkpt>
      <trkpt lat="48.34729" lon="2.76324">
        <ele>101</ele>
        <time>2022-04-19T11:50:09.109Z</time>
      </trkpt>
      <trkpt lat="48.34721" lon="2.76325">
        <ele>101</ele>
        <time>2022-04-19T11:50:14.126Z</time>
      </trkpt>
      <trkpt lat="48.34713" lon="2.76326">
        <ele>101</ele>
        <time>2022-04-19T11:50:19.112Z</time>
      </trkpt>
      <trkpt lat="48.34706" lon="2.76328">
        <ele>102</ele>
        <time>2022-04-19T11:50:24.115Z</time>
      </trkpt>
      <trkpt lat="48.34699" lon="2.76327">
        <ele>102</ele>
        <time>2022-04-19T11:50:29.109Z</time>
      </trkpt>
      <trkpt lat="48.34693" lon="2.76326">
        <ele>102</ele>
        <time>2022-04-19T11:50:33.113Z</time>
      </trkpt>
      <trkpt lat="48.34685" lon="2.76325">
        <ele>102</ele>
        <time>2022-04-19T11:50:38.127Z</time>
      </trkpt>
      <trkpt lat="48.34678" lon="2.76325">
        <ele>102</ele>
        <time>2022-04-19T11:50:43.123Z</time>
      </trkpt>
      <trkpt lat="48.34671" lon="2.76326">
        <ele>102</ele>
        <time>2022-04-19T11:50:48.116Z</time>
      </trkpt>
      <trkpt lat="48.34663" lon="2.76326">
        <ele>102</ele>
        <time>2022-04-19T11:50:53.112Z</time>
      </trkpt>
      <trkpt lat="48.34657" lon="2.76325">
        <ele>102</ele>
        <time>2022-04-19T11:50:58.115Z</time>
      </trkpt>
      <trkpt lat="48.3465" lon="2.76323">
        <ele>103</ele>
        <time>2022-04-19T11:51:03.113Z</time>
      </trkpt>
      <trkpt lat="48.34644" lon="2.76323">
        <ele>103</ele>
        <time>2022-04-19T11:51:08.114Z</time>
      </trkpt>
      <trkpt lat="48.34638" lon="2.76323">
        <ele>103</ele>
        <time>2022-04-19T11:51:12.119Z</time>
      </trkpt>
      <trkpt lat="48.3463" lon="2.7632">
        <ele>103</ele>
        <time>2022-04-19T11:51:17.111Z</time>
      </trkpt>
      <trkpt lat="48.34626" lon="2.7632">
        <ele>103</ele>
        <time>2022-04-19T11:51:21.114Z</time>
      </trkpt>
      <trkpt lat="48.3462" lon="2.76318">
        <ele>102</ele>
        <time>2022-04-19T11:51:25.115Z</time>
      </trkpt>
      <trkpt lat="48.34614" lon="2.76316">
        <ele>102</ele>
        <time>2022-04-19T11:51:29.118Z</time>
      </trkpt>
      <trkpt lat="48.34606" lon="2.76313">
        <ele>102</ele>
        <time>2022-04-19T11:51:34.119Z</time>
      </trkpt>
      <trkpt lat="48.34599" lon="2.7631">
        <ele>102</ele>
        <time>2022-04-19T11:51:39.115Z</time>
      </trkpt>
      <trkpt lat="48.34592" lon="2.76309">
        <ele>102</ele>
        <time>2022-04-19T11:51:44.131Z</time>
      </trkpt>
      <trkpt lat="48.34586" lon="2.76304">
        <ele>102</ele>
        <time>2022-04-19T11:51:49.116Z</time>
      </trkpt>
      <trkpt lat="48.3458" lon="2.763">
        <ele>102</ele>
        <time>2022-04-19T11:51:53.117Z</time>
      </trkpt>
      <trkpt lat="48.34574" lon="2.76296">
        <ele>102</ele>
        <time>2022-04-19T11:51:58.108Z</time>
      </trkpt>
      <trkpt lat="48.34569" lon="2.76291">
        <ele>102</ele>
        <time>2022-04-19T11:52:02.113Z</time>
      </trkpt>
      <trkpt lat="48.34563" lon="2.76286">
        <ele>102</ele>
        <time>2022-04-19T11:52:07.117Z</time>
      </trkpt>
      <trkpt lat="48.34555" lon="2.76281">
        <ele>102</ele>
        <time>2022-04-19T11:52:12.113Z</time>
      </trkpt>
      <trkpt lat="48.34551" lon="2.76277">
        <ele>102</ele>
        <time>2022-04-19T11:52:16.115Z</time>
      </trkpt>
      <trkpt lat="48.34545" lon="2.76273">
        <ele>102</ele>
        <time>2022-04-19T11:52:21.114Z</time>
      </trkpt>
      <trkpt lat="48.3454" lon="2.76268">
        <ele>102</ele>
        <time>2022-04-19T11:52:25.125Z</time>
      </trkpt>
      <trkpt lat="48.34533" lon="2.76264">
        <ele>103</ele>
        <time>2022-04-19T11:52:30.120Z</time>
      </trkpt>
      <trkpt lat="48.34528" lon="2.76261">
        <ele>103</ele>
        <time>2022-04-19T11:52:34.117Z</time>
      </trkpt>
      <trkpt lat="48.3452" lon="2.76257">
        <ele>103</ele>
        <time>2022-04-19T11:52:39.118Z</time>
      </trkpt>
      <trkpt lat="48.34513" lon="2.76253">
        <ele>105</ele>
        <time>2022-04-19T11:52:44.122Z</time>
      </trkpt>
      <trkpt lat="48.34508" lon="2.76243">
        <ele>105</ele>
        <time>2022-04-19T11:52:48.118Z</time>
      </trkpt>
      <trkpt lat="48.34502" lon="2.76238">
        <ele>105</ele>
        <time>2022-04-19T11:52:53.111Z</time>
      </trkpt>
      <trkpt lat="48.34497" lon="2.76235">
        <ele>104</ele>
        <time>2022-04-19T11:52:57.117Z</time>
      </trkpt>
      <trkpt lat="48.34491" lon="2.76231">
        <ele>104</ele>
        <time>2022-04-19T11:53:01.120Z</time>
      </trkpt>
      <trkpt lat="48.34484" lon="2.76228">
        <ele>104</ele>
        <time>2022-04-19T11:53:06.124Z</time>
      </trkpt>
      <trkpt lat="48.34477" lon="2.76224">
        <ele>104</ele>
        <time>2022-04-19T11:53:11.118Z</time>
      </trkpt>
      <trkpt lat="48.34471" lon="2.76218">
        <ele>104</ele>
        <time>2022-04-19T11:53:16.112Z</time>
      </trkpt>
      <trkpt lat="48.34465" lon="2.76213">
        <ele>104</ele>
        <time>2022-04-19T11:53:21.113Z</time>
      </trkpt>
      <trkpt lat="48.34458" lon="2.76209">
        <ele>104</ele>
        <time>2022-04-19T11:53:26.114Z</time>
      </trkpt>
      <trkpt lat="48.34453" lon="2.76206">
        <ele>105</ele>
        <time>2022-04-19T11:53:30.122Z</time>
      </trkpt>
      <trkpt lat="48.34447" lon="2.76203">
        <ele>105</ele>
        <time>2022-04-19T11:53:34.121Z</time>
      </trkpt>
      <trkpt lat="48.3444" lon="2.76198">
        <ele>105</ele>
        <time>2022-04-19T11:53:39.116Z</time>
      </trkpt>
      <trkpt lat="48.34434" lon="2.76194">
        <ele>105</ele>
        <time>2022-04-19T11:53:44.113Z</time>
      </trkpt>
      <trkpt lat="48.34429" lon="2.76191">
        <ele>104</ele>
        <time>2022-04-19T11:53:48.115Z</time>
      </trkpt>
      <trkpt lat="48.34422" lon="2.76188">
        <ele>104</ele>
        <time>2022-04-19T11:53:53.114Z</time>
      </trkpt>
      <trkpt lat="48.34416" lon="2.76184">
        <ele>104</ele>
        <time>2022-04-19T11:53:58.115Z</time>
      </trkpt>
      <trkpt lat="48.34411" lon="2.76176">
        <ele>104</ele>
        <time>2022-04-19T11:54:03.109Z</time>
      </trkpt>
      <trkpt lat="48.34408" lon="2.76169">
        <ele>104</ele>
        <time>2022-04-19T11:54:07.111Z</time>
      </trkpt>
      <trkpt lat="48.34405" lon="2.76161">
        <ele>104</ele>
        <time>2022-04-19T11:54:12.108Z</time>
      </trkpt>
      <trkpt lat="48.34405" lon="2.7616">
        <ele>104</ele>
        <time>2022-04-19T11:55:01.111Z</time>
      </trkpt>
      <trkpt lat="48.34402" lon="2.76154">
        <ele>102</ele>
        <time>2022-04-19T11:55:06.119Z</time>
      </trkpt>
      <trkpt lat="48.34399" lon="2.76146">
        <ele>102</ele>
        <time>2022-04-19T11:55:11.105Z</time>
      </trkpt>
      <trkpt lat="48.34397" lon="2.76138">
        <ele>102</ele>
        <time>2022-04-19T11:55:15.111Z</time>
      </trkpt>
      <trkpt lat="48.34393" lon="2.76127">
        <ele>102</ele>
        <time>2022-04-19T11:55:20.125Z</time>
      </trkpt>
      <trkpt lat="48.3439" lon="2.76119">
        <ele>102</ele>
        <time>2022-04-19T11:55:24.120Z</time>
      </trkpt>
      <trkpt lat="48.34387" lon="2.76109">
        <ele>102</ele>
        <time>2022-04-19T11:55:29.111Z</time>
      </trkpt>
      <trkpt lat="48.34385" lon="2.761">
        <ele>102</ele>
        <time>2022-04-19T11:55:34.114Z</time>
      </trkpt>
      <trkpt lat="48.34382" lon="2.76092">
        <ele>102</ele>
        <time>2022-04-19T11:55:39.112Z</time>
      </trkpt>
      <trkpt lat="48.34377" lon="2.76081">
        <ele>102</ele>
        <time>2022-04-19T11:55:44.111Z</time>
      </trkpt>
      <trkpt lat="48.34376" lon="2.76072">
        <ele>102</ele>
        <time>2022-04-19T11:55:48.118Z</time>
      </trkpt>
      <trkpt lat="48.34379" lon="2.76063">
        <ele>102</ele>
        <time>2022-04-19T11:55:53.107Z</time>
      </trkpt>
      <trkpt lat="48.34382" lon="2.76056">
        <ele>102</ele>
        <time>2022-04-19T11:55:57.111Z</time>
      </trkpt>
      <trkpt lat="48.34386" lon="2.76048">
        <ele>102</ele>
        <time>2022-04-19T11:56:02.114Z</time>
      </trkpt>
      <trkpt lat="48.3439" lon="2.76042">
        <ele>102</ele>
        <time>2022-04-19T11:56:07.117Z</time>
      </trkpt>
      <trkpt lat="48.34393" lon="2.76037">
        <ele>101</ele>
        <time>2022-04-19T11:56:12.123Z</time>
      </trkpt>
      <trkpt lat="48.34397" lon="2.7603">
        <ele>101</ele>
        <time>2022-04-19T11:56:17.109Z</time>
      </trkpt>
      <trkpt lat="48.344" lon="2.76025">
        <ele>101</ele>
        <time>2022-04-19T11:56:21.111Z</time>
      </trkpt>
      <trkpt lat="48.34406" lon="2.76018">
        <ele>102</ele>
        <time>2022-04-19T11:56:26.118Z</time>
      </trkpt>
      <trkpt lat="48.34411" lon="2.7601">
        <ele>102</ele>
        <time>2022-04-19T11:56:31.117Z</time>
      </trkpt>
      <trkpt lat="48.34416" lon="2.76002">
        <ele>102</ele>
        <time>2022-04-19T11:56:36.115Z</time>
      </trkpt>
      <trkpt lat="48.3442" lon="2.75996">
        <ele>102</ele>
        <time>2022-04-19T11:56:40.125Z</time>
      </trkpt>
      <trkpt lat="48.34428" lon="2.75994">
        <ele>102</ele>
        <time>2022-04-19T11:56:45.114Z</time>
      </trkpt>
      <trkpt lat="48.34432" lon="2.75989">
        <ele>102</ele>
        <time>2022-04-19T11:56:49.120Z</time>
      </trkpt>
      <trkpt lat="48.34437" lon="2.75982">
        <ele>102</ele>
        <time>2022-04-19T11:56:53.117Z</time>
      </trkpt>
      <trkpt lat="48.34441" lon="2.75973">
        <ele>102</ele>
        <time>2022-04-19T11:56:58.113Z</time>
      </trkpt>
      <trkpt lat="48.34446" lon="2.75964">
        <ele>102</ele>
        <time>2022-04-19T11:57:03.135Z</time>
      </trkpt>
      <trkpt lat="48.3445" lon="2.75957">
        <ele>103</ele>
        <time>2022-04-19T11:57:08.120Z</time>
      </trkpt>
      <trkpt lat="48.34454" lon="2.7595">
        <ele>103</ele>
        <time>2022-04-19T11:57:13.118Z</time>
      </trkpt>
      <trkpt lat="48.34459" lon="2.75945">
        <ele>105</ele>
        <time>2022-04-19T11:57:17.119Z</time>
      </trkpt>
      <trkpt lat="48.34463" lon="2.75939">
        <ele>105</ele>
        <time>2022-04-19T11:57:21.122Z</time>
      </trkpt>
      <trkpt lat="48.34468" lon="2.7593">
        <ele>105</ele>
        <time>2022-04-19T11:57:26.121Z</time>
      </trkpt>
      <trkpt lat="48.34473" lon="2.75922">
        <ele>105</ele>
        <time>2022-04-19T11:57:31.118Z</time>
      </trkpt>
      <trkpt lat="48.34477" lon="2.75913">
        <ele>105</ele>
        <time>2022-04-19T11:57:36.131Z</time>
      </trkpt>
      <trkpt lat="48.34481" lon="2.75907">
        <ele>105</ele>
        <time>2022-04-19T11:57:40.126Z</time>
      </trkpt>
      <trkpt lat="48.34486" lon="2.759">
        <ele>105</ele>
        <time>2022-04-19T11:57:45.116Z</time>
      </trkpt>
      <trkpt lat="48.3449" lon="2.75894">
        <ele>106</ele>
        <time>2022-04-19T11:57:50.118Z</time>
      </trkpt>
      <trkpt lat="48.34491" lon="2.75902">
        <ele>106</ele>
        <time>2022-04-19T11:58:22.121Z</time>
      </trkpt>
      <trkpt lat="48.34493" lon="2.75894">
        <ele>106</ele>
        <time>2022-04-19T11:58:26.127Z</time>
      </trkpt>
      <trkpt lat="48.34497" lon="2.75884">
        <ele>106</ele>
        <time>2022-04-19T11:58:31.108Z</time>
      </trkpt>
      <trkpt lat="48.34502" lon="2.75877">
        <ele>106</ele>
        <time>2022-04-19T11:58:36.118Z</time>
      </trkpt>
      <trkpt lat="48.34506" lon="2.75871">
        <ele>106</ele>
        <time>2022-04-19T11:58:40.120Z</time>
      </trkpt>
      <trkpt lat="48.3451" lon="2.75864">
        <ele>106</ele>
        <time>2022-04-19T11:58:50.117Z</time>
      </trkpt>
      <trkpt lat="48.34511" lon="2.75867">
        <ele>106</ele>
        <time>2022-04-19T11:58:55.113Z</time>
      </trkpt>
      <trkpt lat="48.34513" lon="2.7587">
        <ele>106</ele>
        <time>2022-04-19T11:58:59.126Z</time>
      </trkpt>
      <trkpt lat="48.34516" lon="2.75873">
        <ele>108</ele>
        <time>2022-04-19T11:59:04.118Z</time>
      </trkpt>
      <trkpt lat="48.34518" lon="2.75877">
        <ele>107</ele>
        <time>2022-04-19T11:59:08.109Z</time>
      </trkpt>
      <trkpt lat="48.34522" lon="2.7588">
        <ele>107</ele>
        <time>2022-04-19T11:59:12.114Z</time>
      </trkpt>
      <trkpt lat="48.34527" lon="2.75882">
        <ele>107</ele>
        <time>2022-04-19T11:59:17.120Z</time>
      </trkpt>
      <trkpt lat="48.34532" lon="2.75884">
        <ele>107</ele>
        <time>2022-04-19T11:59:22.113Z</time>
      </trkpt>
      <trkpt lat="48.34537" lon="2.75888">
        <ele>107</ele>
        <time>2022-04-19T11:59:26.120Z</time>
      </trkpt>
      <trkpt lat="48.3454" lon="2.75894">
        <ele>107</ele>
        <time>2022-04-19T11:59:31.119Z</time>
      </trkpt>
      <trkpt lat="48.34544" lon="2.759">
        <ele>110</ele>
        <time>2022-04-19T11:59:36.115Z</time>
      </trkpt>
      <trkpt lat="48.34548" lon="2.75907">
        <ele>108</ele>
        <time>2022-04-19T11:59:41.112Z</time>
      </trkpt>
      <trkpt lat="48.3455" lon="2.75914">
        <ele>108</ele>
        <time>2022-04-19T11:59:45.111Z</time>
      </trkpt>
      <trkpt lat="48.34555" lon="2.75922">
        <ele>108</ele>
        <time>2022-04-19T11:59:50.121Z</time>
      </trkpt>
      <trkpt lat="48.3456" lon="2.75928">
        <ele>108</ele>
        <time>2022-04-19T11:59:55.114Z</time>
      </trkpt>
      <trkpt lat="48.34563" lon="2.75934">
        <ele>108</ele>
        <time>2022-04-19T11:59:59.116Z</time>
      </trkpt>
      <trkpt lat="48.34567" lon="2.75942">
        <ele>108</ele>
        <time>2022-04-19T12:00:04.112Z</time>
      </trkpt>
      <trkpt lat="48.34572" lon="2.75951">
        <ele>113</ele>
        <time>2022-04-19T12:00:09.115Z</time>
      </trkpt>
      <trkpt lat="48.34576" lon="2.7596">
        <ele>114</ele>
        <time>2022-04-19T12:00:14.132Z</time>
      </trkpt>
      <trkpt lat="48.34582" lon="2.75966">
        <ele>114</ele>
        <time>2022-04-19T12:00:19.114Z</time>
      </trkpt>
      <trkpt lat="48.34585" lon="2.75972">
        <ele>114</ele>
        <time>2022-04-19T12:00:23.123Z</time>
      </trkpt>
      <trkpt lat="48.3459" lon="2.75978">
        <ele>114</ele>
        <time>2022-04-19T12:00:28.115Z</time>
      </trkpt>
      <trkpt lat="48.34592" lon="2.75979">
        <ele>114</ele>
        <time>2022-04-19T12:00:33.115Z</time>
      </trkpt>
      <trkpt lat="48.34596" lon="2.75974">
        <ele>114</ele>
        <time>2022-04-19T12:00:38.127Z</time>
      </trkpt>
      <trkpt lat="48.34599" lon="2.75969">
        <ele>120</ele>
        <time>2022-04-19T12:00:42.122Z</time>
      </trkpt>
      <trkpt lat="48.34604" lon="2.75968">
        <ele>120</ele>
        <time>2022-04-19T12:00:51.113Z</time>
      </trkpt>
      <trkpt lat="48.34604" lon="2.75968">
        <ele>120</ele>
        <time>2022-04-19T12:00:55.110Z</time>
      </trkpt>
      <trkpt lat="48.34606" lon="2.75968">
        <ele>120</ele>
        <time>2022-04-19T12:00:59.115Z</time>
      </trkpt>
      <trkpt lat="48.3461" lon="2.75968">
        <ele>120</ele>
        <time>2022-04-19T12:01:03.123Z</time>
      </trkpt>
      <trkpt lat="48.34614" lon="2.75969">
        <ele>120</ele>
        <time>2022-04-19T12:01:08.120Z</time>
      </trkpt>
      <trkpt lat="48.34619" lon="2.75971">
        <ele>120</ele>
        <time>2022-04-19T12:01:13.118Z</time>
      </trkpt>
      <trkpt lat="48.34622" lon="2.75974">
        <ele>120</ele>
        <time>2022-04-19T12:01:17.121Z</time>
      </trkpt>
      <trkpt lat="48.34628" lon="2.7598">
        <ele>126</ele>
        <time>2022-04-19T12:01:22.116Z</time>
      </trkpt>
      <trkpt lat="48.3463" lon="2.75984">
        <ele>126</ele>
        <time>2022-04-19T12:01:27.120Z</time>
      </trkpt>
      <trkpt lat="48.34631" lon="2.75982">
        <ele>126</ele>
        <time>2022-04-19T12:01:36.109Z</time>
      </trkpt>
      <trkpt lat="48.34633" lon="2.7598">
        <ele>126</ele>
        <time>2022-04-19T12:01:40.110Z</time>
      </trkpt>
      <trkpt lat="48.34633" lon="2.75975">
        <ele>126</ele>
        <time>2022-04-19T12:01:45.117Z</time>
      </trkpt>
      <trkpt lat="48.34633" lon="2.7597">
        <ele>126</ele>
        <time>2022-04-19T12:01:50.113Z</time>
      </trkpt>
      <trkpt lat="48.34633" lon="2.75969">
        <ele>126</ele>
        <time>2022-04-19T12:01:55.125Z</time>
      </trkpt>
      <trkpt lat="48.34634" lon="2.75968">
        <ele>126</ele>
        <time>2022-04-19T12:02:00.109Z</time>
      </trkpt>
      <trkpt lat="48.34637" lon="2.75965">
        <ele>126</ele>
        <time>2022-04-19T12:02:04.119Z</time>
      </trkpt>
      <trkpt lat="48.34641" lon="2.75962">
        <ele>126</ele>
        <time>2022-04-19T12:02:09.112Z</time>
      </trkpt>
      <trkpt lat="48.34646" lon="2.75961">
        <ele>126</ele>
        <time>2022-04-19T12:02:14.115Z</time>
      </trkpt>
      <trkpt lat="48.34649" lon="2.75956">
        <ele>122</ele>
        <time>2022-04-19T12:02:19.113Z</time>
      </trkpt>
      <trkpt lat="48.34651" lon="2.7596">
        <ele>126</ele>
        <time>2022-04-19T12:02:24.117Z</time>
      </trkpt>
      <trkpt lat="48.34653" lon="2.75963">
        <ele>129</ele>
        <time>2022-04-19T12:02:28.119Z</time>
      </trkpt>
      <trkpt lat="48.34653" lon="2.75969">
        <ele>126</ele>
        <time>2022-04-19T12:02:33.125Z</time>
      </trkpt>
      <trkpt lat="48.3465" lon="2.75977">
        <ele>126</ele>
        <time>2022-04-19T12:02:38.116Z</time>
      </trkpt>
      <trkpt lat="48.34647" lon="2.75983">
        <ele>126</ele>
        <time>2022-04-19T12:02:42.121Z</time>
      </trkpt>
      <trkpt lat="48.34645" lon="2.75991">
        <ele>128</ele>
        <time>2022-04-19T12:02:47.121Z</time>
      </trkpt>
      <trkpt lat="48.34644" lon="2.76">
        <ele>128</ele>
        <time>2022-04-19T12:02:52.109Z</time>
      </trkpt>
      <trkpt lat="48.3464" lon="2.76007">
        <ele>128</ele>
        <time>2022-04-19T12:02:57.103Z</time>
      </trkpt>
      <trkpt lat="48.34638" lon="2.7601">
        <ele>128</ele>
        <time>2022-04-19T12:03:02.113Z</time>
      </trkpt>
      <trkpt lat="48.34635" lon="2.76017">
        <ele>127</ele>
        <time>2022-04-19T12:03:07.107Z</time>
      </trkpt>
      <trkpt lat="48.34636" lon="2.76019">
        <ele>127</ele>
        <time>2022-04-19T12:03:11.108Z</time>
      </trkpt>
      <trkpt lat="48.34637" lon="2.76017">
        <ele>127</ele>
        <time>2022-04-19T12:03:59.113Z</time>
      </trkpt>
      <trkpt lat="48.34638" lon="2.76012">
        <ele>128</ele>
        <time>2022-04-19T12:04:04.106Z</time>
      </trkpt>
      <trkpt lat="48.3464" lon="2.76008">
        <ele>128</ele>
        <time>2022-04-19T12:04:08.104Z</time>
      </trkpt>
      <trkpt lat="48.3464" lon="2.76008">
        <ele>128</ele>
        <time>2022-04-19T12:04:12.114Z</time>
      </trkpt>
      <trkpt lat="48.3464" lon="2.76006">
        <ele>128</ele>
        <time>2022-04-19T12:04:17.121Z</time>
      </trkpt>
      <trkpt lat="48.34641" lon="2.76004">
        <ele>128</ele>
        <time>2022-04-19T12:04:52.116Z</time>
      </trkpt>
      <trkpt lat="48.34641" lon="2.76005">
        <ele>128</ele>
        <time>2022-04-19T12:04:56.125Z</time>
      </trkpt>
      <trkpt lat="48.34642" lon="2.76003">
        <ele>128</ele>
        <time>2022-04-19T12:05:01.116Z</time>
      </trkpt>
      <trkpt lat="48.34644" lon="2.75999">
        <ele>128</ele>
        <time>2022-04-19T12:05:05.112Z</time>
      </trkpt>
      <trkpt lat="48.34646" lon="2.75992">
        <ele>128</ele>
        <time>2022-04-19T12:05:10.107Z</time>
      </trkpt>
      <trkpt lat="48.34649" lon="2.75984">
        <ele>126</ele>
        <time>2022-04-19T12:05:15.111Z</time>
      </trkpt>
      <trkpt lat="48.34652" lon="2.75977">
        <ele>126</ele>
        <time>2022-04-19T12:05:19.110Z</time>
      </trkpt>
      <trkpt lat="48.34653" lon="2.75968">
        <ele>129</ele>
        <time>2022-04-19T12:05:23.111Z</time>
      </trkpt>
      <trkpt lat="48.34655" lon="2.75958">
        <ele>128</ele>
        <time>2022-04-19T12:05:28.111Z</time>
      </trkpt>
      <trkpt lat="48.34658" lon="2.75949">
        <ele>128</ele>
        <time>2022-04-19T12:05:33.107Z</time>
      </trkpt>
      <trkpt lat="48.3466" lon="2.75942">
        <ele>128</ele>
        <time>2022-04-19T12:05:37.129Z</time>
      </trkpt>
      <trkpt lat="48.34662" lon="2.75932">
        <ele>128</ele>
        <time>2022-04-19T12:05:42.109Z</time>
      </trkpt>
      <trkpt lat="48.34661" lon="2.75921">
        <ele>127</ele>
        <time>2022-04-19T12:05:47.118Z</time>
      </trkpt>
      <trkpt lat="48.34663" lon="2.75915">
        <ele>127</ele>
        <time>2022-04-19T12:05:51.124Z</time>
      </trkpt>
      <trkpt lat="48.34667" lon="2.75908">
        <ele>127</ele>
        <time>2022-04-19T12:05:56.113Z</time>
      </trkpt>
      <trkpt lat="48.3467" lon="2.75899">
        <ele>127</ele>
        <time>2022-04-19T12:06:01.119Z</time>
      </trkpt>
      <trkpt lat="48.3467" lon="2.7589">
        <ele>127</ele>
        <time>2022-04-19T12:06:06.108Z</time>
      </trkpt>
      <trkpt lat="48.3467" lon="2.75882">
        <ele>127</ele>
        <time>2022-04-19T12:06:11.121Z</time>
      </trkpt>
      <trkpt lat="48.34666" lon="2.75877">
        <ele>127</ele>
        <time>2022-04-19T12:06:15.115Z</time>
      </trkpt>
      <trkpt lat="48.34665" lon="2.75868">
        <ele>129</ele>
        <time>2022-04-19T12:06:20.114Z</time>
      </trkpt>
      <trkpt lat="48.34664" lon="2.7586">
        <ele>129</ele>
        <time>2022-04-19T12:06:24.120Z</time>
      </trkpt>
      <trkpt lat="48.34662" lon="2.75851">
        <ele>129</ele>
        <time>2022-04-19T12:06:29.116Z</time>
      </trkpt>
      <trkpt lat="48.3466" lon="2.75842">
        <ele>131</ele>
        <time>2022-04-19T12:06:34.115Z</time>
      </trkpt>
      <trkpt lat="48.3466" lon="2.75832">
        <ele>131</ele>
        <time>2022-04-19T12:06:39.123Z</time>
      </trkpt>
      <trkpt lat="48.34663" lon="2.75825">
        <ele>131</ele>
        <time>2022-04-19T12:06:43.124Z</time>
      </trkpt>
      <trkpt lat="48.34665" lon="2.75815">
        <ele>131</ele>
        <time>2022-04-19T12:06:48.114Z</time>
      </trkpt>
      <trkpt lat="48.34667" lon="2.75808">
        <ele>131</ele>
        <time>2022-04-19T12:06:52.114Z</time>
      </trkpt>
      <trkpt lat="48.3467" lon="2.758">
        <ele>131</ele>
        <time>2022-04-19T12:06:57.119Z</time>
      </trkpt>
      <trkpt lat="48.34674" lon="2.75792">
        <ele>131</ele>
        <time>2022-04-19T12:07:02.107Z</time>
      </trkpt>
      <trkpt lat="48.34676" lon="2.75784">
        <ele>130</ele>
        <time>2022-04-19T12:07:06.125Z</time>
      </trkpt>
      <trkpt lat="48.34676" lon="2.75777">
        <ele>130</ele>
        <time>2022-04-19T12:07:10.113Z</time>
      </trkpt>
      <trkpt lat="48.34674" lon="2.75767">
        <ele>130</ele>
        <time>2022-04-19T12:07:15.114Z</time>
      </trkpt>
      <trkpt lat="48.34672" lon="2.75759">
        <ele>129</ele>
        <time>2022-04-19T12:07:19.115Z</time>
      </trkpt>
      <trkpt lat="48.34669" lon="2.7575">
        <ele>129</ele>
        <time>2022-04-19T12:07:24.115Z</time>
      </trkpt>
      <trkpt lat="48.34671" lon="2.75743">
        <ele>129</ele>
        <time>2022-04-19T12:07:28.116Z</time>
      </trkpt>
      <trkpt lat="48.34673" lon="2.75735">
        <ele>131</ele>
        <time>2022-04-19T12:07:33.117Z</time>
      </trkpt>
      <trkpt lat="48.34675" lon="2.75727">
        <ele>131</ele>
        <time>2022-04-19T12:07:38.112Z</time>
      </trkpt>
      <trkpt lat="48.34674" lon="2.75718">
        <ele>131</ele>
        <time>2022-04-19T12:07:43.116Z</time>
      </trkpt>
      <trkpt lat="48.34679" lon="2.75714">
        <ele>131</ele>
        <time>2022-04-19T12:07:48.111Z</time>
      </trkpt>
      <trkpt lat="48.3468" lon="2.75707">
        <ele>132</ele>
        <time>2022-04-19T12:07:53.114Z</time>
      </trkpt>
      <trkpt lat="48.34677" lon="2.757">
        <ele>132</ele>
        <time>2022-04-19T12:07:58.107Z</time>
      </trkpt>
      <trkpt lat="48.34677" lon="2.75695">
        <ele>132</ele>
        <time>2022-04-19T12:08:02.118Z</time>
      </trkpt>
      <trkpt lat="48.34678" lon="2.75687">
        <ele>132</ele>
        <time>2022-04-19T12:08:07.113Z</time>
      </trkpt>
      <trkpt lat="48.34679" lon="2.75679">
        <ele>133</ele>
        <time>2022-04-19T12:08:12.115Z</time>
      </trkpt>
      <trkpt lat="48.34677" lon="2.75672">
        <ele>133</ele>
        <time>2022-04-19T12:08:16.117Z</time>
      </trkpt>
      <trkpt lat="48.34675" lon="2.75663">
        <ele>133</ele>
        <time>2022-04-19T12:08:21.115Z</time>
      </trkpt>
      <trkpt lat="48.34672" lon="2.75655">
        <ele>133</ele>
        <time>2022-04-19T12:08:26.110Z</time>
      </trkpt>
      <trkpt lat="48.34671" lon="2.75649">
        <ele>133</ele>
        <time>2022-04-19T12:08:30.119Z</time>
      </trkpt>
      <trkpt lat="48.34672" lon="2.75641">
        <ele>133</ele>
        <time>2022-04-19T12:08:35.111Z</time>
      </trkpt>
      <trkpt lat="48.34676" lon="2.75639">
        <ele>133</ele>
        <time>2022-04-19T12:08:39.114Z</time>
      </trkpt>
      <trkpt lat="48.3468" lon="2.75637">
        <ele>133</ele>
        <time>2022-04-19T12:08:43.114Z</time>
      </trkpt>
      <trkpt lat="48.3468" lon="2.75631">
        <ele>133</ele>
        <time>2022-04-19T12:08:47.129Z</time>
      </trkpt>
      <trkpt lat="48.34675" lon="2.75628">
        <ele>133</ele>
        <time>2022-04-19T12:08:52.119Z</time>
      </trkpt>
      <trkpt lat="48.3467" lon="2.75621">
        <ele>134</ele>
        <time>2022-04-19T12:08:57.114Z</time>
      </trkpt>
      <trkpt lat="48.34673" lon="2.75617">
        <ele>134</ele>
        <time>2022-04-19T12:09:02.112Z</time>
      </trkpt>
      <trkpt lat="48.34672" lon="2.75616">
        <ele>134</ele>
        <time>2022-04-19T12:09:07.115Z</time>
      </trkpt>
      <trkpt lat="48.34673" lon="2.75615">
        <ele>134</ele>
        <time>2022-04-19T12:09:12.109Z</time>
      </trkpt>
      <trkpt lat="48.34675" lon="2.75609">
        <ele>134</ele>
        <time>2022-04-19T12:09:16.110Z</time>
      </trkpt>
      <trkpt lat="48.34678" lon="2.75602">
        <ele>134</ele>
        <time>2022-04-19T12:09:21.101Z</time>
      </trkpt>
      <trkpt lat="48.34682" lon="2.75595">
        <ele>135</ele>
        <time>2022-04-19T12:09:26.114Z</time>
      </trkpt>
      <trkpt lat="48.34686" lon="2.75588">
        <ele>135</ele>
        <time>2022-04-19T12:09:31.114Z</time>
      </trkpt>
      <trkpt lat="48.34691" lon="2.75581">
        <ele>135</ele>
        <time>2022-04-19T12:09:36.107Z</time>
      </trkpt>
      <trkpt lat="48.34694" lon="2.75575">
        <ele>135</ele>
        <time>2022-04-19T12:09:40.108Z</time>
      </trkpt>
      <trkpt lat="48.347" lon="2.75567">
        <ele>136</ele>
        <time>2022-04-19T12:09:45.107Z</time>
      </trkpt>
      <trkpt lat="48.34704" lon="2.75561">
        <ele>136</ele>
        <time>2022-04-19T12:09:49.111Z</time>
      </trkpt>
      <trkpt lat="48.34708" lon="2.75555">
        <ele>136</ele>
        <time>2022-04-19T12:09:53.123Z</time>
      </trkpt>
      <trkpt lat="48.34715" lon="2.75546">
        <ele>135</ele>
        <time>2022-04-19T12:09:58.115Z</time>
      </trkpt>
      <trkpt lat="48.34719" lon="2.7554">
        <ele>135</ele>
        <time>2022-04-19T12:10:02.129Z</time>
      </trkpt>
      <trkpt lat="48.34724" lon="2.75534">
        <ele>135</ele>
        <time>2022-04-19T12:10:07.117Z</time>
      </trkpt>
      <trkpt lat="48.34729" lon="2.75525">
        <ele>135</ele>
        <time>2022-04-19T12:10:12.103Z</time>
      </trkpt>
      <trkpt lat="48.34733" lon="2.75519">
        <ele>135</ele>
        <time>2022-04-19T12:10:16.114Z</time>
      </trkpt>
      <trkpt lat="48.34738" lon="2.75512">
        <ele>136</ele>
        <time>2022-04-19T12:10:21.113Z</time>
      </trkpt>
      <trkpt lat="48.34742" lon="2.75506">
        <ele>136</ele>
        <time>2022-04-19T12:10:25.121Z</time>
      </trkpt>
      <trkpt lat="48.34746" lon="2.75497">
        <ele>136</ele>
        <time>2022-04-19T12:10:30.115Z</time>
      </trkpt>
      <trkpt lat="48.3475" lon="2.7549">
        <ele>136</ele>
        <time>2022-04-19T12:10:35.110Z</time>
      </trkpt>
      <trkpt lat="48.34755" lon="2.75482">
        <ele>136</ele>
        <time>2022-04-19T12:10:40.113Z</time>
      </trkpt>
      <trkpt lat="48.34758" lon="2.75475">
        <ele>136</ele>
        <time>2022-04-19T12:10:44.111Z</time>
      </trkpt>
      <trkpt lat="48.34764" lon="2.75467">
        <ele>136</ele>
        <time>2022-04-19T12:10:49.119Z</time>
      </trkpt>
      <trkpt lat="48.34769" lon="2.75458">
        <ele>138</ele>
        <time>2022-04-19T12:10:54.109Z</time>
      </trkpt>
      <trkpt lat="48.34774" lon="2.75449">
        <ele>138</ele>
        <time>2022-04-19T12:10:59.117Z</time>
      </trkpt>
      <trkpt lat="48.34778" lon="2.75442">
        <ele>138</ele>
        <time>2022-04-19T12:11:03.121Z</time>
      </trkpt>
      <trkpt lat="48.34783" lon="2.75433">
        <ele>138</ele>
        <time>2022-04-19T12:11:08.106Z</time>
      </trkpt>
      <trkpt lat="48.34787" lon="2.75425">
        <ele>137</ele>
        <time>2022-04-19T12:11:12.116Z</time>
      </trkpt>
      <trkpt lat="48.34791" lon="2.75416">
        <ele>137</ele>
        <time>2022-04-19T12:11:17.110Z</time>
      </trkpt>
      <trkpt lat="48.34795" lon="2.7541">
        <ele>137</ele>
        <time>2022-04-19T12:11:21.122Z</time>
      </trkpt>
      <trkpt lat="48.34799" lon="2.75402">
        <ele>134</ele>
        <time>2022-04-19T12:11:26.113Z</time>
      </trkpt>
      <trkpt lat="48.34805" lon="2.75395">
        <ele>134</ele>
        <time>2022-04-19T12:11:31.113Z</time>
      </trkpt>
      <trkpt lat="48.3481" lon="2.75388">
        <ele>134</ele>
        <time>2022-04-19T12:11:36.114Z</time>
      </trkpt>
      <trkpt lat="48.34814" lon="2.7538">
        <ele>134</ele>
        <time>2022-04-19T12:11:41.117Z</time>
      </trkpt>
      <trkpt lat="48.34817" lon="2.75374">
        <ele>132</ele>
        <time>2022-04-19T12:11:45.126Z</time>
      </trkpt>
      <trkpt lat="48.34819" lon="2.75365">
        <ele>132</ele>
        <time>2022-04-19T12:11:50.118Z</time>
      </trkpt>
      <trkpt lat="48.34823" lon="2.75355">
        <ele>130</ele>
        <time>2022-04-19T12:11:55.126Z</time>
      </trkpt>
      <trkpt lat="48.34826" lon="2.75348">
        <ele>130</ele>
        <time>2022-04-19T12:11:59.133Z</time>
      </trkpt>
      <trkpt lat="48.34831" lon="2.75341">
        <ele>126</ele>
        <time>2022-04-19T12:12:04.118Z</time>
      </trkpt>
      <trkpt lat="48.34834" lon="2.75334">
        <ele>126</ele>
        <time>2022-04-19T12:12:09.115Z</time>
      </trkpt>
      <trkpt lat="48.34836" lon="2.75327">
        <ele>126</ele>
        <time>2022-04-19T12:12:13.121Z</time>
      </trkpt>
      <trkpt lat="48.34839" lon="2.75318">
        <ele>123</ele>
        <time>2022-04-19T12:12:18.112Z</time>
      </trkpt>
      <trkpt lat="48.34841" lon="2.75311">
        <ele>123</ele>
        <time>2022-04-19T12:12:22.115Z</time>
      </trkpt>
      <trkpt lat="48.34843" lon="2.75303">
        <ele>123</ele>
        <time>2022-04-19T12:12:27.126Z</time>
      </trkpt>
      <trkpt lat="48.34846" lon="2.75294">
        <ele>123</ele>
        <time>2022-04-19T12:12:32.126Z</time>
      </trkpt>
      <trkpt lat="48.3485" lon="2.75284">
        <ele>118</ele>
        <time>2022-04-19T12:12:37.114Z</time>
      </trkpt>
      <trkpt lat="48.34852" lon="2.75278">
        <ele>118</ele>
        <time>2022-04-19T12:12:41.131Z</time>
      </trkpt>
      <trkpt lat="48.34854" lon="2.75271">
        <ele>118</ele>
        <time>2022-04-19T12:12:45.130Z</time>
      </trkpt>
      <trkpt lat="48.34857" lon="2.75262">
        <ele>117</ele>
        <time>2022-04-19T12:12:50.123Z</time>
      </trkpt>
      <trkpt lat="48.3486" lon="2.75254">
        <ele>117</ele>
        <time>2022-04-19T12:12:55.116Z</time>
      </trkpt>
      <trkpt lat="48.34864" lon="2.75246">
        <ele>117</ele>
        <time>2022-04-19T12:13:00.116Z</time>
      </trkpt>
      <trkpt lat="48.34868" lon="2.75237">
        <ele>117</ele>
        <time>2022-04-19T12:13:05.118Z</time>
      </trkpt>
      <trkpt lat="48.34871" lon="2.75227">
        <ele>115</ele>
        <time>2022-04-19T12:13:10.111Z</time>
      </trkpt>
      <trkpt lat="48.34873" lon="2.7522">
        <ele>115</ele>
        <time>2022-04-19T12:13:14.113Z</time>
      </trkpt>
      <trkpt lat="48.34877" lon="2.7521">
        <ele>116</ele>
        <time>2022-04-19T12:13:19.110Z</time>
      </trkpt>
      <trkpt lat="48.34879" lon="2.75202">
        <ele>115</ele>
        <time>2022-04-19T12:13:23.112Z</time>
      </trkpt>
      <trkpt lat="48.34883" lon="2.75192">
        <ele>115</ele>
        <time>2022-04-19T12:13:28.111Z</time>
      </trkpt>
      <trkpt lat="48.34888" lon="2.75185">
        <ele>115</ele>
        <time>2022-04-19T12:13:33.108Z</time>
      </trkpt>
      <trkpt lat="48.34889" lon="2.75173">
        <ele>115</ele>
        <time>2022-04-19T12:13:38.107Z</time>
      </trkpt>
      <trkpt lat="48.34885" lon="2.75165">
        <ele>115</ele>
        <time>2022-04-19T12:13:43.121Z</time>
      </trkpt>
      <trkpt lat="48.34881" lon="2.75159">
        <ele>115</ele>
        <time>2022-04-19T12:13:47.112Z</time>
      </trkpt>
      <trkpt lat="48.34876" lon="2.75153">
        <ele>115</ele>
        <time>2022-04-19T12:13:52.116Z</time>
      </trkpt>
      <trkpt lat="48.3487" lon="2.75148">
        <ele>114</ele>
        <time>2022-04-19T12:13:56.121Z</time>
      </trkpt>
      <trkpt lat="48.34864" lon="2.7514">
        <ele>114</ele>
        <time>2022-04-19T12:14:01.121Z</time>
      </trkpt>
      <trkpt lat="48.34856" lon="2.75136">
        <ele>114</ele>
        <time>2022-04-19T12:14:06.104Z</time>
      </trkpt>
      <trkpt lat="48.34851" lon="2.75132">
        <ele>114</ele>
        <time>2022-04-19T12:14:11.115Z</time>
      </trkpt>
      <trkpt lat="48.34846" lon="2.75128">
        <ele>113</ele>
        <time>2022-04-19T12:14:15.118Z</time>
      </trkpt>
      <trkpt lat="48.34839" lon="2.75124">
        <ele>113</ele>
        <time>2022-04-19T12:14:20.106Z</time>
      </trkpt>
      <trkpt lat="48.34834" lon="2.75118">
        <ele>113</ele>
        <time>2022-04-19T12:14:25.112Z</time>
      </trkpt>
      <trkpt lat="48.34829" lon="2.75112">
        <ele>113</ele>
        <time>2022-04-19T12:14:30.118Z</time>
      </trkpt>
      <trkpt lat="48.34826" lon="2.75106">
        <ele>113</ele>
        <time>2022-04-19T12:14:34.107Z</time>
      </trkpt>
      <trkpt lat="48.3482" lon="2.75098">
        <ele>113</ele>
        <time>2022-04-19T12:14:39.118Z</time>
      </trkpt>
      <trkpt lat="48.34815" lon="2.75091">
        <ele>114</ele>
        <time>2022-04-19T12:14:44.110Z</time>
      </trkpt>
      <trkpt lat="48.34809" lon="2.75084">
        <ele>114</ele>
        <time>2022-04-19T12:14:49.121Z</time>
      </trkpt>
      <trkpt lat="48.34804" lon="2.75078">
        <ele>114</ele>
        <time>2022-04-19T12:14:53.125Z</time>
      </trkpt>
      <trkpt lat="48.34799" lon="2.7507">
        <ele>114</ele>
        <time>2022-04-19T12:14:58.114Z</time>
      </trkpt>
      <trkpt lat="48.34793" lon="2.75065">
        <ele>113</ele>
        <time>2022-04-19T12:15:02.115Z</time>
      </trkpt>
      <trkpt lat="48.34788" lon="2.75057">
        <ele>114</ele>
        <time>2022-04-19T12:15:07.108Z</time>
      </trkpt>
      <trkpt lat="48.34782" lon="2.7505">
        <ele>114</ele>
        <time>2022-04-19T12:15:12.114Z</time>
      </trkpt>
      <trkpt lat="48.34778" lon="2.75045">
        <ele>114</ele>
        <time>2022-04-19T12:15:16.120Z</time>
      </trkpt>
      <trkpt lat="48.34772" lon="2.75036">
        <ele>112</ele>
        <time>2022-04-19T12:15:21.114Z</time>
      </trkpt>
      <trkpt lat="48.34768" lon="2.75029">
        <ele>112</ele>
        <time>2022-04-19T12:15:25.130Z</time>
      </trkpt>
      <trkpt lat="48.34763" lon="2.75019">
        <ele>116</ele>
        <time>2022-04-19T12:15:30.122Z</time>
      </trkpt>
      <trkpt lat="48.34757" lon="2.75011">
        <ele>113</ele>
        <time>2022-04-19T12:15:35.114Z</time>
      </trkpt>
      <trkpt lat="48.34753" lon="2.75005">
        <ele>113</ele>
        <time>2022-04-19T12:15:39.122Z</time>
      </trkpt>
      <trkpt lat="48.34749" lon="2.74997">
        <ele>113</ele>
        <time>2022-04-19T12:15:43.133Z</time>
      </trkpt>
      <trkpt lat="48.34747" lon="2.74988">
        <ele>113</ele>
        <time>2022-04-19T12:15:48.114Z</time>
      </trkpt>
      <trkpt lat="48.34744" lon="2.7498">
        <ele>112</ele>
        <time>2022-04-19T12:15:52.112Z</time>
      </trkpt>
      <trkpt lat="48.34743" lon="2.74969">
        <ele>112</ele>
        <time>2022-04-19T12:15:57.113Z</time>
      </trkpt>
      <trkpt lat="48.34742" lon="2.74958">
        <ele>111</ele>
        <time>2022-04-19T12:16:02.122Z</time>
      </trkpt>
      <trkpt lat="48.34739" lon="2.74947">
        <ele>111</ele>
        <time>2022-04-19T12:16:07.106Z</time>
      </trkpt>
      <trkpt lat="48.34737" lon="2.74939">
        <ele>111</ele>
        <time>2022-04-19T12:16:11.115Z</time>
      </trkpt>
      <trkpt lat="48.34734" lon="2.74931">
        <ele>114</ele>
        <time>2022-04-19T12:16:15.122Z</time>
      </trkpt>
      <trkpt lat="48.34733" lon="2.7492">
        <ele>112</ele>
        <time>2022-04-19T12:16:20.117Z</time>
      </trkpt>
      <trkpt lat="48.3473" lon="2.7491">
        <ele>112</ele>
        <time>2022-04-19T12:16:25.113Z</time>
      </trkpt>
      <trkpt lat="48.34726" lon="2.749">
        <ele>111</ele>
        <time>2022-04-19T12:16:30.117Z</time>
      </trkpt>
      <trkpt lat="48.34722" lon="2.74892">
        <ele>111</ele>
        <time>2022-04-19T12:16:35.117Z</time>
      </trkpt>
      <trkpt lat="48.34718" lon="2.74885">
        <ele>111</ele>
        <time>2022-04-19T12:16:39.120Z</time>
      </trkpt>
      <trkpt lat="48.34714" lon="2.74876">
        <ele>111</ele>
        <time>2022-04-19T12:16:44.120Z</time>
      </trkpt>
      <trkpt lat="48.3471" lon="2.74871">
        <ele>111</ele>
        <time>2022-04-19T12:16:48.114Z</time>
      </trkpt>
      <trkpt lat="48.34703" lon="2.74865">
        <ele>110</ele>
        <time>2022-04-19T12:16:53.119Z</time>
      </trkpt>
      <trkpt lat="48.34696" lon="2.74859">
        <ele>110</ele>
        <time>2022-04-19T12:16:58.110Z</time>
      </trkpt>
      <trkpt lat="48.34691" lon="2.74856">
        <ele>110</ele>
        <time>2022-04-19T12:17:02.113Z</time>
      </trkpt>
      <trkpt lat="48.34685" lon="2.74853">
        <ele>110</ele>
        <time>2022-04-19T12:17:06.124Z</time>
      </trkpt>
      <trkpt lat="48.34679" lon="2.7485">
        <ele>109</ele>
        <time>2022-04-19T12:17:10.117Z</time>
      </trkpt>
      <trkpt lat="48.34672" lon="2.74847">
        <ele>108</ele>
        <time>2022-04-19T12:17:15.133Z</time>
      </trkpt>
      <trkpt lat="48.34665" lon="2.74843">
        <ele>108</ele>
        <time>2022-04-19T12:17:20.115Z</time>
      </trkpt>
      <trkpt lat="48.3466" lon="2.74839">
        <ele>108</ele>
        <time>2022-04-19T12:17:24.129Z</time>
      </trkpt>
      <trkpt lat="48.34655" lon="2.7483">
        <ele>108</ele>
        <time>2022-04-19T12:17:29.122Z</time>
      </trkpt>
      <trkpt lat="48.34651" lon="2.74823">
        <ele>104</ele>
        <time>2022-04-19T12:17:33.116Z</time>
      </trkpt>
      <trkpt lat="48.34647" lon="2.74816">
        <ele>104</ele>
        <time>2022-04-19T12:17:37.136Z</time>
      </trkpt>
      <trkpt lat="48.3464" lon="2.74808">
        <ele>104</ele>
        <time>2022-04-19T12:17:42.112Z</time>
      </trkpt>
      <trkpt lat="48.34636" lon="2.74801">
        <ele>104</ele>
        <time>2022-04-19T12:17:46.132Z</time>
      </trkpt>
      <trkpt lat="48.3463" lon="2.74793">
        <ele>104</ele>
        <time>2022-04-19T12:17:51.119Z</time>
      </trkpt>
      <trkpt lat="48.34625" lon="2.74787">
        <ele>101</ele>
        <time>2022-04-19T12:17:55.110Z</time>
      </trkpt>
      <trkpt lat="48.3462" lon="2.74781">
        <ele>98</ele>
        <time>2022-04-19T12:17:59.123Z</time>
      </trkpt>
      <trkpt lat="48.34613" lon="2.74776">
        <ele>98</ele>
        <time>2022-04-19T12:18:04.114Z</time>
      </trkpt>
      <trkpt lat="48.34607" lon="2.74771">
        <ele>98</ele>
        <time>2022-04-19T12:18:08.113Z</time>
      </trkpt>
      <trkpt lat="48.34601" lon="2.74765">
        <ele>98</ele>
        <time>2022-04-19T12:18:13.119Z</time>
      </trkpt>
      <trkpt lat="48.34594" lon="2.74758">
        <ele>95</ele>
        <time>2022-04-19T12:18:18.113Z</time>
      </trkpt>
      <trkpt lat="48.34589" lon="2.74754">
        <ele>95</ele>
        <time>2022-04-19T12:18:22.130Z</time>
      </trkpt>
      <trkpt lat="48.34583" lon="2.74746">
        <ele>95</ele>
        <time>2022-04-19T12:18:27.125Z</time>
      </trkpt>
      <trkpt lat="48.34576" lon="2.74739">
        <ele>95</ele>
        <time>2022-04-19T12:18:32.110Z</time>
      </trkpt>
      <trkpt lat="48.34569" lon="2.74733">
        <ele>95</ele>
        <time>2022-04-19T12:18:37.113Z</time>
      </trkpt>
      <trkpt lat="48.34562" lon="2.74727">
        <ele>95</ele>
        <time>2022-04-19T12:18:42.115Z</time>
      </trkpt>
      <trkpt lat="48.34556" lon="2.74721">
        <ele>95</ele>
        <time>2022-04-19T12:18:47.126Z</time>
      </trkpt>
      <trkpt lat="48.3455" lon="2.74715">
        <ele>95</ele>
        <time>2022-04-19T12:18:52.106Z</time>
      </trkpt>
      <trkpt lat="48.34544" lon="2.7471">
        <ele>95</ele>
        <time>2022-04-19T12:18:56.114Z</time>
      </trkpt>
      <trkpt lat="48.34537" lon="2.74703">
        <ele>97</ele>
        <time>2022-04-19T12:19:01.116Z</time>
      </trkpt>
      <trkpt lat="48.34533" lon="2.74698">
        <ele>97</ele>
        <time>2022-04-19T12:19:05.113Z</time>
      </trkpt>
      <trkpt lat="48.34526" lon="2.74692">
        <ele>97</ele>
        <time>2022-04-19T12:19:10.113Z</time>
      </trkpt>
      <trkpt lat="48.3452" lon="2.74685">
        <ele>97</ele>
        <time>2022-04-19T12:19:15.113Z</time>
      </trkpt>
      <trkpt lat="48.34515" lon="2.7468">
        <ele>98</ele>
        <time>2022-04-19T12:19:19.114Z</time>
      </trkpt>
      <trkpt lat="48.34509" lon="2.74672">
        <ele>95</ele>
        <time>2022-04-19T12:19:24.115Z</time>
      </trkpt>
      <trkpt lat="48.34504" lon="2.74667">
        <ele>95</ele>
        <time>2022-04-19T12:19:28.128Z</time>
      </trkpt>
      <trkpt lat="48.34499" lon="2.74662">
        <ele>95</ele>
        <time>2022-04-19T12:19:33.115Z</time>
      </trkpt>
      <trkpt lat="48.34493" lon="2.74655">
        <ele>95</ele>
        <time>2022-04-19T12:19:38.116Z</time>
      </trkpt>
      <trkpt lat="48.34486" lon="2.74648">
        <ele>96</ele>
        <time>2022-04-19T12:19:43.116Z</time>
      </trkpt>
      <trkpt lat="48.3448" lon="2.74641">
        <ele>94</ele>
        <time>2022-04-19T12:19:48.121Z</time>
      </trkpt>
      <trkpt lat="48.34474" lon="2.74635">
        <ele>94</ele>
        <time>2022-04-19T12:19:53.114Z</time>
      </trkpt>
      <trkpt lat="48.34468" lon="2.7463">
        <ele>94</ele>
        <time>2022-04-19T12:19:57.106Z</time>
      </trkpt>
      <trkpt lat="48.34462" lon="2.74623">
        <ele>93</ele>
        <time>2022-04-19T12:20:02.107Z</time>
      </trkpt>
      <trkpt lat="48.34456" lon="2.74617">
        <ele>93</ele>
        <time>2022-04-19T12:20:07.124Z</time>
      </trkpt>
      <trkpt lat="48.3445" lon="2.74612">
        <ele>93</ele>
        <time>2022-04-19T12:20:12.120Z</time>
      </trkpt>
      <trkpt lat="48.34445" lon="2.74606">
        <ele>93</ele>
        <time>2022-04-19T12:20:17.113Z</time>
      </trkpt>
      <trkpt lat="48.34439" lon="2.74599">
        <ele>93</ele>
        <time>2022-04-19T12:20:22.117Z</time>
      </trkpt>
      <trkpt lat="48.34434" lon="2.74593">
        <ele>92</ele>
        <time>2022-04-19T12:20:26.122Z</time>
      </trkpt>
      <trkpt lat="48.34429" lon="2.74586">
        <ele>96</ele>
        <time>2022-04-19T12:20:31.110Z</time>
      </trkpt>
      <trkpt lat="48.34423" lon="2.74577">
        <ele>96</ele>
        <time>2022-04-19T12:20:36.122Z</time>
      </trkpt>
      <trkpt lat="48.34416" lon="2.74567">
        <ele>95</ele>
        <time>2022-04-19T12:20:41.115Z</time>
      </trkpt>
      <trkpt lat="48.34411" lon="2.74561">
        <ele>95</ele>
        <time>2022-04-19T12:20:45.121Z</time>
      </trkpt>
      <trkpt lat="48.34406" lon="2.74556">
        <ele>95</ele>
        <time>2022-04-19T12:20:50.116Z</time>
      </trkpt>
      <trkpt lat="48.34401" lon="2.74549">
        <ele>99</ele>
        <time>2022-04-19T12:20:55.121Z</time>
      </trkpt>
      <trkpt lat="48.34396" lon="2.74544">
        <ele>99</ele>
        <time>2022-04-19T12:21:00.111Z</time>
      </trkpt>
      <trkpt lat="48.34391" lon="2.74539">
        <ele>96</ele>
        <time>2022-04-19T12:21:04.123Z</time>
      </trkpt>
      <trkpt lat="48.34385" lon="2.74533">
        <ele>96</ele>
        <time>2022-04-19T12:21:09.115Z</time>
      </trkpt>
      <trkpt lat="48.3438" lon="2.74526">
        <ele>96</ele>
        <time>2022-04-19T12:21:14.113Z</time>
      </trkpt>
      <trkpt lat="48.34374" lon="2.7452">
        <ele>99</ele>
        <time>2022-04-19T12:21:19.118Z</time>
      </trkpt>
      <trkpt lat="48.34368" lon="2.74512">
        <ele>95</ele>
        <time>2022-04-19T12:21:24.116Z</time>
      </trkpt>
      <trkpt lat="48.34363" lon="2.74504">
        <ele>95</ele>
        <time>2022-04-19T12:21:29.117Z</time>
      </trkpt>
      <trkpt lat="48.34357" lon="2.74498">
        <ele>95</ele>
        <time>2022-04-19T12:21:34.128Z</time>
      </trkpt>
      <trkpt lat="48.34353" lon="2.7449">
        <ele>95</ele>
        <time>2022-04-19T12:21:39.119Z</time>
      </trkpt>
      <trkpt lat="48.34349" lon="2.74485">
        <ele>94</ele>
        <time>2022-04-19T12:21:43.128Z</time>
      </trkpt>
      <trkpt lat="48.34342" lon="2.74478">
        <ele>97</ele>
        <time>2022-04-19T12:21:48.125Z</time>
      </trkpt>
      <trkpt lat="48.34337" lon="2.7447">
        <ele>97</ele>
        <time>2022-04-19T12:21:53.117Z</time>
      </trkpt>
      <trkpt lat="48.3433" lon="2.74463">
        <ele>97</ele>
        <time>2022-04-19T12:21:58.119Z</time>
      </trkpt>
      <trkpt lat="48.34324" lon="2.74455">
        <ele>95</ele>
        <time>2022-04-19T12:22:03.115Z</time>
      </trkpt>
      <trkpt lat="48.34319" lon="2.74447">
        <ele>95</ele>
        <time>2022-04-19T12:22:08.113Z</time>
      </trkpt>
      <trkpt lat="48.34313" lon="2.74441">
        <ele>95</ele>
        <time>2022-04-19T12:22:13.119Z</time>
      </trkpt>
      <trkpt lat="48.34308" lon="2.74437">
        <ele>95</ele>
        <time>2022-04-19T12:22:17.121Z</time>
      </trkpt>
      <trkpt lat="48.34303" lon="2.74433">
        <ele>95</ele>
        <time>2022-04-19T12:22:22.109Z</time>
      </trkpt>
      <trkpt lat="48.34299" lon="2.74431">
        <ele>95</ele>
        <time>2022-04-19T12:22:26.114Z</time>
      </trkpt>
      <trkpt lat="48.34294" lon="2.74426">
        <ele>94</ele>
        <time>2022-04-19T12:22:31.116Z</time>
      </trkpt>
      <trkpt lat="48.34289" lon="2.74426">
        <ele>92</ele>
        <time>2022-04-19T12:22:35.120Z</time>
      </trkpt>
      <trkpt lat="48.34282" lon="2.74426">
        <ele>92</ele>
        <time>2022-04-19T12:22:40.115Z</time>
      </trkpt>
      <trkpt lat="48.34275" lon="2.7443">
        <ele>92</ele>
        <time>2022-04-19T12:22:45.114Z</time>
      </trkpt>
      <trkpt lat="48.34269" lon="2.7443">
        <ele>92</ele>
        <time>2022-04-19T12:22:49.116Z</time>
      </trkpt>
      <trkpt lat="48.34264" lon="2.7443">
        <ele>91</ele>
        <time>2022-04-19T12:22:53.127Z</time>
      </trkpt>
      <trkpt lat="48.34256" lon="2.74431">
        <ele>92</ele>
        <time>2022-04-19T12:22:58.108Z</time>
      </trkpt>
      <trkpt lat="48.34251" lon="2.74432">
        <ele>92</ele>
        <time>2022-04-19T12:23:02.121Z</time>
      </trkpt>
      <trkpt lat="48.34243" lon="2.74434">
        <ele>92</ele>
        <time>2022-04-19T12:23:07.110Z</time>
      </trkpt>
      <trkpt lat="48.34236" lon="2.74436">
        <ele>91</ele>
        <time>2022-04-19T12:23:12.122Z</time>
      </trkpt>
      <trkpt lat="48.3423" lon="2.74436">
        <ele>91</ele>
        <time>2022-04-19T12:23:16.121Z</time>
      </trkpt>
      <trkpt lat="48.34222" lon="2.74436">
        <ele>91</ele>
        <time>2022-04-19T12:23:21.114Z</time>
      </trkpt>
      <trkpt lat="48.34219" lon="2.74436">
        <ele>91</ele>
        <time>2022-04-19T12:23:25.137Z</time>
      </trkpt>
      <trkpt lat="48.34213" lon="2.74437">
        <ele>91</ele>
        <time>2022-04-19T12:23:30.117Z</time>
      </trkpt>
      <trkpt lat="48.34205" lon="2.74438">
        <ele>90</ele>
        <time>2022-04-19T12:23:35.111Z</time>
      </trkpt>
      <trkpt lat="48.34198" lon="2.74439">
        <ele>90</ele>
        <time>2022-04-19T12:23:40.111Z</time>
      </trkpt>
      <trkpt lat="48.34192" lon="2.74439">
        <ele>90</ele>
        <time>2022-04-19T12:23:44.110Z</time>
      </trkpt>
      <trkpt lat="48.34184" lon="2.74441">
        <ele>90</ele>
        <time>2022-04-19T12:23:49.108Z</time>
      </trkpt>
      <trkpt lat="48.34177" lon="2.74442">
        <ele>91</ele>
        <time>2022-04-19T12:23:54.117Z</time>
      </trkpt>
      <trkpt lat="48.3417" lon="2.74442">
        <ele>91</ele>
        <time>2022-04-19T12:23:59.116Z</time>
      </trkpt>
      <trkpt lat="48.34164" lon="2.74443">
        <ele>91</ele>
        <time>2022-04-19T12:24:03.118Z</time>
      </trkpt>
      <trkpt lat="48.34157" lon="2.74443">
        <ele>91</ele>
        <time>2022-04-19T12:24:08.106Z</time>
      </trkpt>
      <trkpt lat="48.34151" lon="2.74444">
        <ele>91</ele>
        <time>2022-04-19T12:24:12.109Z</time>
      </trkpt>
      <trkpt lat="48.34143" lon="2.74445">
        <ele>91</ele>
        <time>2022-04-19T12:24:17.126Z</time>
      </trkpt>
      <trkpt lat="48.34136" lon="2.74443">
        <ele>91</ele>
        <time>2022-04-19T12:24:22.119Z</time>
      </trkpt>
      <trkpt lat="48.3413" lon="2.74441">
        <ele>91</ele>
        <time>2022-04-19T12:24:26.127Z</time>
      </trkpt>
      <trkpt lat="48.34123" lon="2.74439">
        <ele>89</ele>
        <time>2022-04-19T12:24:31.111Z</time>
      </trkpt>
      <trkpt lat="48.34117" lon="2.74435">
        <ele>89</ele>
        <time>2022-04-19T12:24:36.114Z</time>
      </trkpt>
      <trkpt lat="48.34112" lon="2.74435">
        <ele>89</ele>
        <time>2022-04-19T12:24:40.114Z</time>
      </trkpt>
      <trkpt lat="48.34106" lon="2.74433">
        <ele>89</ele>
        <time>2022-04-19T12:24:45.110Z</time>
      </trkpt>
      <trkpt lat="48.34098" lon="2.74433">
        <ele>89</ele>
        <time>2022-04-19T12:24:50.126Z</time>
      </trkpt>
      <trkpt lat="48.3409" lon="2.74432">
        <ele>87</ele>
        <time>2022-04-19T12:24:55.118Z</time>
      </trkpt>
      <trkpt lat="48.34084" lon="2.74431">
        <ele>87</ele>
        <time>2022-04-19T12:24:59.116Z</time>
      </trkpt>
      <trkpt lat="48.34077" lon="2.7443">
        <ele>87</ele>
        <time>2022-04-19T12:25:04.117Z</time>
      </trkpt>
      <trkpt lat="48.34072" lon="2.7443">
        <ele>87</ele>
        <time>2022-04-19T12:25:09.136Z</time>
      </trkpt>
      <trkpt lat="48.34063" lon="2.7443">
        <ele>85</ele>
        <time>2022-04-19T12:25:14.114Z</time>
      </trkpt>
      <trkpt lat="48.34055" lon="2.74431">
        <ele>85</ele>
        <time>2022-04-19T12:25:19.115Z</time>
      </trkpt>
      <trkpt lat="48.34048" lon="2.74432">
        <ele>85</ele>
        <time>2022-04-19T12:25:23.128Z</time>
      </trkpt>
      <trkpt lat="48.3404" lon="2.74432">
        <ele>84</ele>
        <time>2022-04-19T12:25:28.106Z</time>
      </trkpt>
      <trkpt lat="48.34032" lon="2.74432">
        <ele>84</ele>
        <time>2022-04-19T12:25:33.112Z</time>
      </trkpt>
      <trkpt lat="48.34026" lon="2.74432">
        <ele>84</ele>
        <time>2022-04-19T12:25:38.106Z</time>
      </trkpt>
      <trkpt lat="48.34018" lon="2.74433">
        <ele>84</ele>
        <time>2022-04-19T12:25:43.119Z</time>
      </trkpt>
      <trkpt lat="48.34012" lon="2.74433">
        <ele>83</ele>
        <time>2022-04-19T12:25:47.128Z</time>
      </trkpt>
      <trkpt lat="48.34003" lon="2.74432">
        <ele>83</ele>
        <time>2022-04-19T12:25:52.108Z</time>
      </trkpt>
      <trkpt lat="48.33997" lon="2.74434">
        <ele>83</ele>
        <time>2022-04-19T12:25:56.116Z</time>
      </trkpt>
      <trkpt lat="48.33989" lon="2.74438">
        <ele>83</ele>
        <time>2022-04-19T12:26:01.129Z</time>
      </trkpt>
      <trkpt lat="48.33983" lon="2.74441">
        <ele>82</ele>
        <time>2022-04-19T12:26:06.109Z</time>
      </trkpt>
      <trkpt lat="48.33977" lon="2.74444">
        <ele>82</ele>
        <time>2022-04-19T12:26:10.127Z</time>
      </trkpt>
      <trkpt lat="48.33969" lon="2.74447">
        <ele>82</ele>
        <time>2022-04-19T12:26:15.127Z</time>
      </trkpt>
      <trkpt lat="48.33962" lon="2.74449">
        <ele>82</ele>
        <time>2022-04-19T12:26:20.118Z</time>
      </trkpt>
      <trkpt lat="48.33955" lon="2.74452">
        <ele>79</ele>
        <time>2022-04-19T12:26:25.103Z</time>
      </trkpt>
      <trkpt lat="48.33949" lon="2.74454">
        <ele>79</ele>
        <time>2022-04-19T12:26:29.121Z</time>
      </trkpt>
      <trkpt lat="48.33941" lon="2.74455">
        <ele>79</ele>
        <time>2022-04-19T12:26:34.114Z</time>
      </trkpt>
      <trkpt lat="48.33934" lon="2.74457">
        <ele>79</ele>
        <time>2022-04-19T12:26:39.118Z</time>
      </trkpt>
      <trkpt lat="48.33928" lon="2.74457">
        <ele>78</ele>
        <time>2022-04-19T12:26:43.119Z</time>
      </trkpt>
      <trkpt lat="48.3392" lon="2.74459">
        <ele>79</ele>
        <time>2022-04-19T12:26:48.108Z</time>
      </trkpt>
      <trkpt lat="48.33912" lon="2.74461">
        <ele>79</ele>
        <time>2022-04-19T12:26:53.119Z</time>
      </trkpt>
      <trkpt lat="48.33905" lon="2.74464">
        <ele>79</ele>
        <time>2022-04-19T12:26:58.113Z</time>
      </trkpt>
      <trkpt lat="48.33898" lon="2.74465">
        <ele>79</ele>
        <time>2022-04-19T12:27:03.114Z</time>
      </trkpt>
      <trkpt lat="48.33896" lon="2.74465">
        <ele>79</ele>
        <time>2022-04-19T12:27:08.104Z</time>
      </trkpt>
      <trkpt lat="48.33891" lon="2.74464">
        <ele>79</ele>
        <time>2022-04-19T12:27:13.105Z</time>
      </trkpt>
      <trkpt lat="48.33885" lon="2.74468">
        <ele>79</ele>
        <time>2022-04-19T12:27:18.105Z</time>
      </trkpt>
      <trkpt lat="48.33877" lon="2.74471">
        <ele>79</ele>
        <time>2022-04-19T12:27:23.108Z</time>
      </trkpt>
      <trkpt lat="48.33873" lon="2.74466">
        <ele>79</ele>
        <time>2022-04-19T12:27:27.113Z</time>
      </trkpt>
      <trkpt lat="48.33872" lon="2.74454">
        <ele>78</ele>
        <time>2022-04-19T12:27:32.115Z</time>
      </trkpt>
      <trkpt lat="48.33871" lon="2.74444">
        <ele>78</ele>
        <time>2022-04-19T12:27:37.103Z</time>
      </trkpt>
      <trkpt lat="48.33871" lon="2.74435">
        <ele>78</ele>
        <time>2022-04-19T12:27:41.114Z</time>
      </trkpt>
      <trkpt lat="48.3387" lon="2.74425">
        <ele>78</ele>
        <time>2022-04-19T12:27:46.108Z</time>
      </trkpt>
      <trkpt lat="48.3387" lon="2.74415">
        <ele>78</ele>
        <time>2022-04-19T12:27:51.108Z</time>
      </trkpt>
      <trkpt lat="48.33869" lon="2.74406">
        <ele>78</ele>
        <time>2022-04-19T12:27:55.117Z</time>
      </trkpt>
      <trkpt lat="48.33869" lon="2.74395">
        <ele>79</ele>
        <time>2022-04-19T12:28:00.112Z</time>
      </trkpt>
      <trkpt lat="48.33869" lon="2.74387">
        <ele>79</ele>
        <time>2022-04-19T12:28:04.122Z</time>
      </trkpt>
      <trkpt lat="48.33869" lon="2.74378">
        <ele>79</ele>
        <time>2022-04-19T12:28:09.118Z</time>
      </trkpt>
      <trkpt lat="48.33869" lon="2.74368">
        <ele>81</ele>
        <time>2022-04-19T12:28:14.123Z</time>
      </trkpt>
      <trkpt lat="48.33869" lon="2.74358">
        <ele>81</ele>
        <time>2022-04-19T12:28:19.122Z</time>
      </trkpt>
      <trkpt lat="48.33868" lon="2.74348">
        <ele>81</ele>
        <time>2022-04-19T12:28:24.111Z</time>
      </trkpt>
      <trkpt lat="48.33869" lon="2.74339">
        <ele>83</ele>
        <time>2022-04-19T12:28:28.115Z</time>
      </trkpt>
      <trkpt lat="48.33869" lon="2.74331">
        <ele>83</ele>
        <time>2022-04-19T12:28:33.111Z</time>
      </trkpt>
      <trkpt lat="48.33867" lon="2.7433">
        <ele>83</ele>
        <time>2022-04-19T12:28:37.113Z</time>
      </trkpt>
      <trkpt lat="48.33861" lon="2.74328">
        <ele>83</ele>
        <time>2022-04-19T12:28:42.107Z</time>
      </trkpt>
      <trkpt lat="48.33856" lon="2.74328">
        <ele>83</ele>
        <time>2022-04-19T12:28:46.116Z</time>
      </trkpt>
      <trkpt lat="48.33848" lon="2.74326">
        <ele>83</ele>
        <time>2022-04-19T12:28:51.121Z</time>
      </trkpt>
      <trkpt lat="48.33841" lon="2.74323">
        <ele>82</ele>
        <time>2022-04-19T12:28:56.112Z</time>
      </trkpt>
      <trkpt lat="48.33837" lon="2.74316">
        <ele>84</ele>
        <time>2022-04-19T12:29:00.112Z</time>
      </trkpt>
      <trkpt lat="48.33835" lon="2.74307">
        <ele>84</ele>
        <time>2022-04-19T12:29:05.112Z</time>
      </trkpt>
      <trkpt lat="48.33835" lon="2.74299">
        <ele>84</ele>
        <time>2022-04-19T12:29:09.116Z</time>
      </trkpt>
      <trkpt lat="48.33833" lon="2.7429">
        <ele>84</ele>
        <time>2022-04-19T12:29:14.114Z</time>
      </trkpt>
      <trkpt lat="48.33833" lon="2.7428">
        <ele>84</ele>
        <time>2022-04-19T12:29:19.108Z</time>
      </trkpt>
      <trkpt lat="48.33831" lon="2.7427">
        <ele>84</ele>
        <time>2022-04-19T12:29:24.116Z</time>
      </trkpt>
      <trkpt lat="48.33831" lon="2.74262">
        <ele>84</ele>
        <time>2022-04-19T12:29:28.126Z</time>
      </trkpt>
      <trkpt lat="48.33831" lon="2.74251">
        <ele>84</ele>
        <time>2022-04-19T12:29:33.107Z</time>
      </trkpt>
      <trkpt lat="48.33831" lon="2.7424">
        <ele>84</ele>
        <time>2022-04-19T12:29:38.116Z</time>
      </trkpt>
      <trkpt lat="48.3383" lon="2.74229">
        <ele>85</ele>
        <time>2022-04-19T12:29:43.117Z</time>
      </trkpt>
      <trkpt lat="48.33829" lon="2.74218">
        <ele>85</ele>
        <time>2022-04-19T12:29:48.112Z</time>
      </trkpt>
      <trkpt lat="48.33829" lon="2.74209">
        <ele>85</ele>
        <time>2022-04-19T12:29:52.122Z</time>
      </trkpt>
      <trkpt lat="48.33828" lon="2.74199">
        <ele>85</ele>
        <time>2022-04-19T12:29:57.118Z</time>
      </trkpt>
      <trkpt lat="48.33829" lon="2.74193">
        <ele>85</ele>
        <time>2022-04-19T12:30:15.115Z</time>
      </trkpt>
      <trkpt lat="48.33822" lon="2.74195">
        <ele>85</ele>
        <time>2022-04-19T12:30:20.111Z</time>
      </trkpt>
      <trkpt lat="48.33815" lon="2.74196">
        <ele>86</ele>
        <time>2022-04-19T12:30:25.112Z</time>
      </trkpt>
      <trkpt lat="48.3381" lon="2.74195">
        <ele>86</ele>
        <time>2022-04-19T12:30:29.135Z</time>
      </trkpt>
      <trkpt lat="48.33803" lon="2.74195">
        <ele>86</ele>
        <time>2022-04-19T12:30:34.109Z</time>
      </trkpt>
      <trkpt lat="48.33797" lon="2.74196">
        <ele>86</ele>
        <time>2022-04-19T12:30:38.113Z</time>
      </trkpt>
      <trkpt lat="48.3379" lon="2.74196">
        <ele>85</ele>
        <time>2022-04-19T12:30:43.114Z</time>
      </trkpt>
      <trkpt lat="48.33782" lon="2.74197">
        <ele>85</ele>
        <time>2022-04-19T12:30:48.116Z</time>
      </trkpt>
      <trkpt lat="48.33776" lon="2.74197">
        <ele>85</ele>
        <time>2022-04-19T12:30:52.118Z</time>
      </trkpt>
      <trkpt lat="48.33768" lon="2.74198">
        <ele>85</ele>
        <time>2022-04-19T12:30:57.112Z</time>
      </trkpt>
      <trkpt lat="48.33762" lon="2.74199">
        <ele>83</ele>
        <time>2022-04-19T12:31:01.116Z</time>
      </trkpt>
      <trkpt lat="48.33756" lon="2.74199">
        <ele>83</ele>
        <time>2022-04-19T12:31:06.116Z</time>
      </trkpt>
      <trkpt lat="48.3375" lon="2.742">
        <ele>83</ele>
        <time>2022-04-19T12:31:10.130Z</time>
      </trkpt>
      <trkpt lat="48.33745" lon="2.74197">
        <ele>83</ele>
        <time>2022-04-19T12:31:15.109Z</time>
      </trkpt>
      <trkpt lat="48.33742" lon="2.74196">
        <ele>83</ele>
        <time>2022-04-19T12:31:20.118Z</time>
      </trkpt>
      <trkpt lat="48.33736" lon="2.74196">
        <ele>83</ele>
        <time>2022-04-19T12:31:25.115Z</time>
      </trkpt>
      <trkpt lat="48.33731" lon="2.74197">
        <ele>82</ele>
        <time>2022-04-19T12:31:30.115Z</time>
      </trkpt>
      <trkpt lat="48.33726" lon="2.74198">
        <ele>82</ele>
        <time>2022-04-19T12:31:35.109Z</time>
      </trkpt>
      <trkpt lat="48.33721" lon="2.74199">
        <ele>82</ele>
        <time>2022-04-19T12:31:39.113Z</time>
      </trkpt>
      <trkpt lat="48.33717" lon="2.74199">
        <ele>82</ele>
        <time>2022-04-19T12:31:43.121Z</time>
      </trkpt>
      <trkpt lat="48.3371" lon="2.742">
        <ele>82</ele>
        <time>2022-04-19T12:31:48.116Z</time>
      </trkpt>
      <trkpt lat="48.33703" lon="2.74199">
        <ele>80</ele>
        <time>2022-04-19T12:31:53.120Z</time>
      </trkpt>
      <trkpt lat="48.33696" lon="2.74201">
        <ele>80</ele>
        <time>2022-04-19T12:31:58.114Z</time>
      </trkpt>
      <trkpt lat="48.33689" lon="2.74201">
        <ele>80</ele>
        <time>2022-04-19T12:32:03.111Z</time>
      </trkpt>
      <trkpt lat="48.33684" lon="2.74199">
        <ele>80</ele>
        <time>2022-04-19T12:32:07.121Z</time>
      </trkpt>
      <trkpt lat="48.33684" lon="2.74191">
        <ele>80</ele>
        <time>2022-04-19T12:32:12.114Z</time>
      </trkpt>
      <trkpt lat="48.33685" lon="2.74184">
        <ele>80</ele>
        <time>2022-04-19T12:32:16.117Z</time>
      </trkpt>
      <trkpt lat="48.33686" lon="2.74175">
        <ele>81</ele>
        <time>2022-04-19T12:32:21.113Z</time>
      </trkpt>
      <trkpt lat="48.33684" lon="2.74167">
        <ele>81</ele>
        <time>2022-04-19T12:32:25.120Z</time>
      </trkpt>
      <trkpt lat="48.33679" lon="2.74166">
        <ele>80</ele>
        <time>2022-04-19T12:32:30.114Z</time>
      </trkpt>
      <trkpt lat="48.3368" lon="2.74164">
        <ele>80</ele>
        <time>2022-04-19T12:32:34.123Z</time>
      </trkpt>
      <trkpt lat="48.33681" lon="2.74154">
        <ele>81</ele>
        <time>2022-04-19T12:32:39.117Z</time>
      </trkpt>
      <trkpt lat="48.33682" lon="2.74149">
        <ele>82</ele>
        <time>2022-04-19T12:32:44.127Z</time>
      </trkpt>
      <trkpt lat="48.33688" lon="2.74143">
        <ele>82</ele>
        <time>2022-04-19T12:32:49.112Z</time>
      </trkpt>
      <trkpt lat="48.33689" lon="2.74133">
        <ele>82</ele>
        <time>2022-04-19T12:32:54.116Z</time>
      </trkpt>
      <trkpt lat="48.33691" lon="2.74122">
        <ele>82</ele>
        <time>2022-04-19T12:32:59.112Z</time>
      </trkpt>
      <trkpt lat="48.33691" lon="2.74112">
        <ele>82</ele>
        <time>2022-04-19T12:33:04.112Z</time>
      </trkpt>
      <trkpt lat="48.33692" lon="2.74103">
        <ele>82</ele>
        <time>2022-04-19T12:33:08.122Z</time>
      </trkpt>
      <trkpt lat="48.33693" lon="2.74092">
        <ele>83</ele>
        <time>2022-04-19T12:33:13.117Z</time>
      </trkpt>
      <trkpt lat="48.33693" lon="2.74082">
        <ele>83</ele>
        <time>2022-04-19T12:33:18.126Z</time>
      </trkpt>
      <trkpt lat="48.33695" lon="2.74071">
        <ele>83</ele>
        <time>2022-04-19T12:33:23.126Z</time>
      </trkpt>
      <trkpt lat="48.33695" lon="2.7406">
        <ele>84</ele>
        <time>2022-04-19T12:33:28.120Z</time>
      </trkpt>
      <trkpt lat="48.33695" lon="2.74049">
        <ele>84</ele>
        <time>2022-04-19T12:33:33.110Z</time>
      </trkpt>
      <trkpt lat="48.33693" lon="2.74041">
        <ele>84</ele>
        <time>2022-04-19T12:33:37.119Z</time>
      </trkpt>
      <trkpt lat="48.33694" lon="2.7403">
        <ele>84</ele>
        <time>2022-04-19T12:33:42.115Z</time>
      </trkpt>
      <trkpt lat="48.33694" lon="2.74018">
        <ele>84</ele>
        <time>2022-04-19T12:33:47.114Z</time>
      </trkpt>
      <trkpt lat="48.33695" lon="2.7401">
        <ele>84</ele>
        <time>2022-04-19T12:33:51.122Z</time>
      </trkpt>
      <trkpt lat="48.33696" lon="2.73998">
        <ele>84</ele>
        <time>2022-04-19T12:33:56.114Z</time>
      </trkpt>
      <trkpt lat="48.33696" lon="2.73989">
        <ele>84</ele>
        <time>2022-04-19T12:34:00.117Z</time>
      </trkpt>
      <trkpt lat="48.33697" lon="2.73977">
        <ele>84</ele>
        <time>2022-04-19T12:34:05.111Z</time>
      </trkpt>
      <trkpt lat="48.33697" lon="2.73968">
        <ele>84</ele>
        <time>2022-04-19T12:34:09.117Z</time>
      </trkpt>
      <trkpt lat="48.33698" lon="2.73956">
        <ele>84</ele>
        <time>2022-04-19T12:34:14.114Z</time>
      </trkpt>
      <trkpt lat="48.33698" lon="2.73945">
        <ele>84</ele>
        <time>2022-04-19T12:34:19.114Z</time>
      </trkpt>
      <trkpt lat="48.33698" lon="2.73934">
        <ele>84</ele>
        <time>2022-04-19T12:34:24.114Z</time>
      </trkpt>
      <trkpt lat="48.33699" lon="2.73923">
        <ele>84</ele>
        <time>2022-04-19T12:34:29.114Z</time>
      </trkpt>
      <trkpt lat="48.337" lon="2.73914">
        <ele>84</ele>
        <time>2022-04-19T12:34:33.117Z</time>
      </trkpt>
      <trkpt lat="48.33699" lon="2.73899">
        <ele>84</ele>
        <time>2022-04-19T12:34:38.117Z</time>
      </trkpt>
      <trkpt lat="48.337" lon="2.7389">
        <ele>84</ele>
        <time>2022-04-19T12:34:42.114Z</time>
      </trkpt>
      <trkpt lat="48.33701" lon="2.73879">
        <ele>84</ele>
        <time>2022-04-19T12:34:47.130Z</time>
      </trkpt>
      <trkpt lat="48.33701" lon="2.73869">
        <ele>84</ele>
        <time>2022-04-19T12:34:52.126Z</time>
      </trkpt>
      <trkpt lat="48.33701" lon="2.73858">
        <ele>84</ele>
        <time>2022-04-19T12:34:57.120Z</time>
      </trkpt>
      <trkpt lat="48.33701" lon="2.7385">
        <ele>84</ele>
        <time>2022-04-19T12:35:01.122Z</time>
      </trkpt>
      <trkpt lat="48.33696" lon="2.73847">
        <ele>84</ele>
        <time>2022-04-19T12:35:06.118Z</time>
      </trkpt>
      <trkpt lat="48.33701" lon="2.73839">
        <ele>85</ele>
        <time>2022-04-19T12:35:11.114Z</time>
      </trkpt>
      <trkpt lat="48.33702" lon="2.7383">
        <ele>85</ele>
        <time>2022-04-19T12:35:15.119Z</time>
      </trkpt>
      <trkpt lat="48.33702" lon="2.73819">
        <ele>85</ele>
        <time>2022-04-19T12:35:20.106Z</time>
      </trkpt>
      <trkpt lat="48.33703" lon="2.7381">
        <ele>85</ele>
        <time>2022-04-19T12:35:24.116Z</time>
      </trkpt>
      <trkpt lat="48.33703" lon="2.73798">
        <ele>85</ele>
        <time>2022-04-19T12:35:29.109Z</time>
      </trkpt>
      <trkpt lat="48.33704" lon="2.73787">
        <ele>85</ele>
        <time>2022-04-19T12:35:34.117Z</time>
      </trkpt>
      <trkpt lat="48.33704" lon="2.73778">
        <ele>85</ele>
        <time>2022-04-19T12:35:38.122Z</time>
      </trkpt>
      <trkpt lat="48.33704" lon="2.73767">
        <ele>85</ele>
        <time>2022-04-19T12:35:43.118Z</time>
      </trkpt>
      <trkpt lat="48.33705" lon="2.73758">
        <ele>84</ele>
        <time>2022-04-19T12:35:47.117Z</time>
      </trkpt>
      <trkpt lat="48.33705" lon="2.73747">
        <ele>84</ele>
        <time>2022-04-19T12:35:52.104Z</time>
      </trkpt>
      <trkpt lat="48.33705" lon="2.73739">
        <ele>84</ele>
        <time>2022-04-19T12:35:56.115Z</time>
      </trkpt>
      <trkpt lat="48.33705" lon="2.7373">
        <ele>84</ele>
        <time>2022-04-19T12:36:00.120Z</time>
      </trkpt>
      <trkpt lat="48.33704" lon="2.73721">
        <ele>84</ele>
        <time>2022-04-19T12:36:04.118Z</time>
      </trkpt>
      <trkpt lat="48.33704" lon="2.7371">
        <ele>84</ele>
        <time>2022-04-19T12:36:09.110Z</time>
      </trkpt>
      <trkpt lat="48.33702" lon="2.737">
        <ele>83</ele>
        <time>2022-04-19T12:36:14.116Z</time>
      </trkpt>
      <trkpt lat="48.33702" lon="2.7369">
        <ele>83</ele>
        <time>2022-04-19T12:36:19.112Z</time>
      </trkpt>
      <trkpt lat="48.33703" lon="2.7368">
        <ele>83</ele>
        <time>2022-04-19T12:36:23.113Z</time>
      </trkpt>
      <trkpt lat="48.33703" lon="2.7367">
        <ele>83</ele>
        <time>2022-04-19T12:36:28.115Z</time>
      </trkpt>
      <trkpt lat="48.33703" lon="2.73659">
        <ele>83</ele>
        <time>2022-04-19T12:36:33.107Z</time>
      </trkpt>
      <trkpt lat="48.33703" lon="2.73651">
        <ele>84</ele>
        <time>2022-04-19T12:36:37.111Z</time>
      </trkpt>
      <trkpt lat="48.33703" lon="2.7364">
        <ele>84</ele>
        <time>2022-04-19T12:36:42.113Z</time>
      </trkpt>
      <trkpt lat="48.33703" lon="2.73631">
        <ele>84</ele>
        <time>2022-04-19T12:36:46.116Z</time>
      </trkpt>
      <trkpt lat="48.33704" lon="2.7362">
        <ele>85</ele>
        <time>2022-04-19T12:36:51.123Z</time>
      </trkpt>
      <trkpt lat="48.33704" lon="2.73608">
        <ele>85</ele>
        <time>2022-04-19T12:36:56.115Z</time>
      </trkpt>
      <trkpt lat="48.33706" lon="2.73599">
        <ele>85</ele>
        <time>2022-04-19T12:37:01.117Z</time>
      </trkpt>
      <trkpt lat="48.3371" lon="2.7359">
        <ele>88</ele>
        <time>2022-04-19T12:37:06.111Z</time>
      </trkpt>
      <trkpt lat="48.33716" lon="2.73585">
        <ele>88</ele>
        <time>2022-04-19T12:37:11.114Z</time>
      </trkpt>
      <trkpt lat="48.33722" lon="2.73583">
        <ele>88</ele>
        <time>2022-04-19T12:37:16.113Z</time>
      </trkpt>
      <trkpt lat="48.3373" lon="2.73581">
        <ele>88</ele>
        <time>2022-04-19T12:37:21.115Z</time>
      </trkpt>
      <trkpt lat="48.33737" lon="2.73581">
        <ele>87</ele>
        <time>2022-04-19T12:37:26.110Z</time>
      </trkpt>
      <trkpt lat="48.33744" lon="2.73579">
        <ele>87</ele>
        <time>2022-04-19T12:37:31.118Z</time>
      </trkpt>
      <trkpt lat="48.33751" lon="2.73577">
        <ele>87</ele>
        <time>2022-04-19T12:37:36.113Z</time>
      </trkpt>
      <trkpt lat="48.33758" lon="2.73576">
        <ele>87</ele>
        <time>2022-04-19T12:37:41.103Z</time>
      </trkpt>
      <trkpt lat="48.33763" lon="2.73573">
        <ele>87</ele>
        <time>2022-04-19T12:37:45.113Z</time>
      </trkpt>
      <trkpt lat="48.33768" lon="2.73573">
        <ele>86</ele>
        <time>2022-04-19T12:37:49.126Z</time>
      </trkpt>
      <trkpt lat="48.33775" lon="2.73572">
        <ele>86</ele>
        <time>2022-04-19T12:37:54.116Z</time>
      </trkpt>
      <trkpt lat="48.33781" lon="2.73568">
        <ele>86</ele>
        <time>2022-04-19T12:37:59.118Z</time>
      </trkpt>
      <trkpt lat="48.33786" lon="2.73563">
        <ele>86</ele>
        <time>2022-04-19T12:38:03.114Z</time>
      </trkpt>
      <trkpt lat="48.33793" lon="2.73559">
        <ele>86</ele>
        <time>2022-04-19T12:38:08.114Z</time>
      </trkpt>
      <trkpt lat="48.338" lon="2.73558">
        <ele>86</ele>
        <time>2022-04-19T12:38:13.110Z</time>
      </trkpt>
      <trkpt lat="48.33806" lon="2.73556">
        <ele>86</ele>
        <time>2022-04-19T12:38:17.119Z</time>
      </trkpt>
      <trkpt lat="48.33814" lon="2.73556">
        <ele>86</ele>
        <time>2022-04-19T12:38:22.119Z</time>
      </trkpt>
      <trkpt lat="48.3382" lon="2.73554">
        <ele>88</ele>
        <time>2022-04-19T12:38:26.118Z</time>
      </trkpt>
      <trkpt lat="48.33827" lon="2.73553">
        <ele>88</ele>
        <time>2022-04-19T12:38:31.107Z</time>
      </trkpt>
      <trkpt lat="48.33833" lon="2.73553">
        <ele>88</ele>
        <time>2022-04-19T12:38:35.110Z</time>
      </trkpt>
      <trkpt lat="48.33841" lon="2.73552">
        <ele>88</ele>
        <time>2022-04-19T12:38:40.113Z</time>
      </trkpt>
      <trkpt lat="48.33848" lon="2.7355">
        <ele>90</ele>
        <time>2022-04-19T12:38:45.114Z</time>
      </trkpt>
      <trkpt lat="48.33856" lon="2.73549">
        <ele>90</ele>
        <time>2022-04-19T12:38:50.114Z</time>
      </trkpt>
      <trkpt lat="48.33864" lon="2.73547">
        <ele>90</ele>
        <time>2022-04-19T12:38:55.106Z</time>
      </trkpt>
      <trkpt lat="48.3387" lon="2.73546">
        <ele>90</ele>
        <time>2022-04-19T12:38:59.104Z</time>
      </trkpt>
      <trkpt lat="48.33876" lon="2.73545">
        <ele>91</ele>
        <time>2022-04-19T12:39:03.111Z</time>
      </trkpt>
      <trkpt lat="48.33884" lon="2.73543">
        <ele>91</ele>
        <time>2022-04-19T12:39:08.112Z</time>
      </trkpt>
      <trkpt lat="48.3389" lon="2.73542">
        <ele>91</ele>
        <time>2022-04-19T12:39:12.128Z</time>
      </trkpt>
      <trkpt lat="48.33897" lon="2.7354">
        <ele>91</ele>
        <time>2022-04-19T12:39:17.109Z</time>
      </trkpt>
      <trkpt lat="48.33905" lon="2.73538">
        <ele>91</ele>
        <time>2022-04-19T12:39:22.116Z</time>
      </trkpt>
      <trkpt lat="48.33912" lon="2.73536">
        <ele>91</ele>
        <time>2022-04-19T12:39:27.112Z</time>
      </trkpt>
      <trkpt lat="48.3392" lon="2.73535">
        <ele>91</ele>
        <time>2022-04-19T12:39:32.108Z</time>
      </trkpt>
      <trkpt lat="48.33926" lon="2.73533">
        <ele>91</ele>
        <time>2022-04-19T12:39:36.110Z</time>
      </trkpt>
      <trkpt lat="48.33933" lon="2.73532">
        <ele>92</ele>
        <time>2022-04-19T12:39:41.120Z</time>
      </trkpt>
      <trkpt lat="48.3394" lon="2.73532">
        <ele>92</ele>
        <time>2022-04-19T12:39:46.107Z</time>
      </trkpt>
      <trkpt lat="48.33946" lon="2.73533">
        <ele>92</ele>
        <time>2022-04-19T12:39:51.117Z</time>
      </trkpt>
      <trkpt lat="48.3395" lon="2.73539">
        <ele>92</ele>
        <time>2022-04-19T12:39:55.119Z</time>
      </trkpt>
      <trkpt lat="48.33957" lon="2.73539">
        <ele>92</ele>
        <time>2022-04-19T12:40:00.105Z</time>
      </trkpt>
      <trkpt lat="48.33962" lon="2.73542">
        <ele>94</ele>
        <time>2022-04-19T12:40:05.112Z</time>
      </trkpt>
      <trkpt lat="48.33969" lon="2.73542">
        <ele>94</ele>
        <time>2022-04-19T12:40:10.109Z</time>
      </trkpt>
      <trkpt lat="48.33973" lon="2.73541">
        <ele>93</ele>
        <time>2022-04-19T12:40:14.106Z</time>
      </trkpt>
      <trkpt lat="48.33973" lon="2.73542">
        <ele>94</ele>
        <time>2022-04-19T12:40:19.106Z</time>
      </trkpt>
      <trkpt lat="48.3397" lon="2.73534">
        <ele>93</ele>
        <time>2022-04-19T12:40:24.103Z</time>
      </trkpt>
      <trkpt lat="48.33969" lon="2.7353">
        <ele>93</ele>
        <time>2022-04-19T12:40:28.108Z</time>
      </trkpt>
      <trkpt lat="48.33969" lon="2.73526">
        <ele>93</ele>
        <time>2022-04-19T12:40:33.106Z</time>
      </trkpt>
      <trkpt lat="48.33969" lon="2.73526">
        <ele>93</ele>
        <time>2022-04-19T12:40:38.113Z</time>
      </trkpt>
      <trkpt lat="48.33968" lon="2.73525">
        <ele>93</ele>
        <time>2022-04-19T12:40:42.113Z</time>
      </trkpt>
      <trkpt lat="48.33969" lon="2.73524">
        <ele>93</ele>
        <time>2022-04-19T12:40:47.110Z</time>
      </trkpt>
      <trkpt lat="48.3397" lon="2.73516">
        <ele>93</ele>
        <time>2022-04-19T12:40:52.206Z</time>
      </trkpt>
      <trkpt lat="48.3397" lon="2.73507">
        <ele>93</ele>
        <time>2022-04-19T12:40:57.105Z</time>
      </trkpt>
      <trkpt lat="48.33969" lon="2.73497">
        <ele>93</ele>
        <time>2022-04-19T12:41:02.101Z</time>
      </trkpt>
      <trkpt lat="48.33971" lon="2.73491">
        <ele>93</ele>
        <time>2022-04-19T12:41:06.118Z</time>
      </trkpt>
      <trkpt lat="48.33974" lon="2.73487">
        <ele>93</ele>
        <time>2022-04-19T12:41:11.106Z</time>
      </trkpt>
      <trkpt lat="48.33979" lon="2.73487">
        <ele>93</ele>
        <time>2022-04-19T12:41:16.115Z</time>
      </trkpt>
      <trkpt lat="48.33985" lon="2.73487">
        <ele>93</ele>
        <time>2022-04-19T12:41:21.103Z</time>
      </trkpt>
      <trkpt lat="48.33991" lon="2.73488">
        <ele>94</ele>
        <time>2022-04-19T12:41:25.111Z</time>
      </trkpt>
      <trkpt lat="48.33999" lon="2.73487">
        <ele>94</ele>
        <time>2022-04-19T12:41:30.106Z</time>
      </trkpt>
      <trkpt lat="48.34005" lon="2.73486">
        <ele>93</ele>
        <time>2022-04-19T12:41:35.112Z</time>
      </trkpt>
      <trkpt lat="48.34011" lon="2.73485">
        <ele>93</ele>
        <time>2022-04-19T12:41:39.114Z</time>
      </trkpt>
      <trkpt lat="48.34017" lon="2.73484">
        <ele>95</ele>
        <time>2022-04-19T12:41:44.161Z</time>
      </trkpt>
      <trkpt lat="48.34024" lon="2.73482">
        <ele>95</ele>
        <time>2022-04-19T12:41:49.118Z</time>
      </trkpt>
      <trkpt lat="48.34031" lon="2.7348">
        <ele>95</ele>
        <time>2022-04-19T12:41:54.111Z</time>
      </trkpt>
      <trkpt lat="48.34037" lon="2.73479">
        <ele>95</ele>
        <time>2022-04-19T12:41:58.115Z</time>
      </trkpt>
      <trkpt lat="48.34042" lon="2.73478">
        <ele>95</ele>
        <time>2022-04-19T12:42:02.118Z</time>
      </trkpt>
      <trkpt lat="48.34048" lon="2.73477">
        <ele>95</ele>
        <time>2022-04-19T12:42:06.126Z</time>
      </trkpt>
      <trkpt lat="48.34055" lon="2.73476">
        <ele>95</ele>
        <time>2022-04-19T12:42:11.119Z</time>
      </trkpt>
      <trkpt lat="48.34061" lon="2.73475">
        <ele>95</ele>
        <time>2022-04-19T12:42:16.111Z</time>
      </trkpt>
      <trkpt lat="48.34068" lon="2.73473">
        <ele>95</ele>
        <time>2022-04-19T12:42:21.116Z</time>
      </trkpt>
      <trkpt lat="48.34075" lon="2.7347">
        <ele>96</ele>
        <time>2022-04-19T12:42:26.107Z</time>
      </trkpt>
      <trkpt lat="48.3408" lon="2.73469">
        <ele>96</ele>
        <time>2022-04-19T12:42:30.113Z</time>
      </trkpt>
      <trkpt lat="48.34085" lon="2.73471">
        <ele>96</ele>
        <time>2022-04-19T12:42:34.117Z</time>
      </trkpt>
      <trkpt lat="48.34085" lon="2.73472">
        <ele>96</ele>
        <time>2022-04-19T12:42:38.116Z</time>
      </trkpt>
      <trkpt lat="48.34087" lon="2.7347">
        <ele>96</ele>
        <time>2022-04-19T12:42:43.120Z</time>
      </trkpt>
      <trkpt lat="48.34093" lon="2.73467">
        <ele>96</ele>
        <time>2022-04-19T12:42:48.111Z</time>
      </trkpt>
      <trkpt lat="48.34097" lon="2.73464">
        <ele>96</ele>
        <time>2022-04-19T12:42:52.125Z</time>
      </trkpt>
      <trkpt lat="48.34112" lon="2.73457">
        <ele>97</ele>
        <time>2022-04-19T12:43:22.113Z</time>
      </trkpt>
      <trkpt lat="48.34117" lon="2.73458">
        <ele>97</ele>
        <time>2022-04-19T12:43:26.114Z</time>
      </trkpt>
      <trkpt lat="48.34123" lon="2.73458">
        <ele>98</ele>
        <time>2022-04-19T12:43:31.113Z</time>
      </trkpt>
      <trkpt lat="48.3413" lon="2.73457">
        <ele>100</ele>
        <time>2022-04-19T12:43:36.117Z</time>
      </trkpt>
      <trkpt lat="48.34136" lon="2.73456">
        <ele>100</ele>
        <time>2022-04-19T12:43:41.117Z</time>
      </trkpt>
      <trkpt lat="48.34142" lon="2.73456">
        <ele>100</ele>
        <time>2022-04-19T12:43:45.111Z</time>
      </trkpt>
      <trkpt lat="48.34147" lon="2.73455">
        <ele>100</ele>
        <time>2022-04-19T12:43:49.112Z</time>
      </trkpt>
      <trkpt lat="48.34153" lon="2.73453">
        <ele>104</ele>
        <time>2022-04-19T12:43:54.113Z</time>
      </trkpt>
      <trkpt lat="48.34159" lon="2.73452">
        <ele>104</ele>
        <time>2022-04-19T12:43:59.111Z</time>
      </trkpt>
      <trkpt lat="48.34165" lon="2.73451">
        <ele>104</ele>
        <time>2022-04-19T12:44:03.120Z</time>
      </trkpt>
      <trkpt lat="48.34171" lon="2.73449">
        <ele>104</ele>
        <time>2022-04-19T12:44:08.111Z</time>
      </trkpt>
      <trkpt lat="48.3418" lon="2.73446">
        <ele>104</ele>
        <time>2022-04-19T12:44:13.116Z</time>
      </trkpt>
      <trkpt lat="48.34186" lon="2.73443">
        <ele>106</ele>
        <time>2022-04-19T12:44:18.113Z</time>
      </trkpt>
      <trkpt lat="48.34193" lon="2.73442">
        <ele>106</ele>
        <time>2022-04-19T12:44:23.118Z</time>
      </trkpt>
      <trkpt lat="48.342" lon="2.7344">
        <ele>106</ele>
        <time>2022-04-19T12:44:28.107Z</time>
      </trkpt>
      <trkpt lat="48.34207" lon="2.73439">
        <ele>106</ele>
        <time>2022-04-19T12:44:33.124Z</time>
      </trkpt>
      <trkpt lat="48.34213" lon="2.73441">
        <ele>105</ele>
        <time>2022-04-19T12:44:37.127Z</time>
      </trkpt>
      <trkpt lat="48.34221" lon="2.73442">
        <ele>105</ele>
        <time>2022-04-19T12:44:42.114Z</time>
      </trkpt>
      <trkpt lat="48.34227" lon="2.73442">
        <ele>105</ele>
        <time>2022-04-19T12:44:46.113Z</time>
      </trkpt>
      <trkpt lat="48.34233" lon="2.73444">
        <ele>105</ele>
        <time>2022-04-19T12:44:51.121Z</time>
      </trkpt>
      <trkpt lat="48.3424" lon="2.73445">
        <ele>105</ele>
        <time>2022-04-19T12:44:56.117Z</time>
      </trkpt>
      <trkpt lat="48.34246" lon="2.73449">
        <ele>105</ele>
        <time>2022-04-19T12:45:01.110Z</time>
      </trkpt>
      <trkpt lat="48.34253" lon="2.73451">
        <ele>105</ele>
        <time>2022-04-19T12:45:06.112Z</time>
      </trkpt>
      <trkpt lat="48.34259" lon="2.73453">
        <ele>105</ele>
        <time>2022-04-19T12:45:10.127Z</time>
      </trkpt>
      <trkpt lat="48.34266" lon="2.73455">
        <ele>105</ele>
        <time>2022-04-19T12:45:15.116Z</time>
      </trkpt>
      <trkpt lat="48.34273" lon="2.7346">
        <ele>106</ele>
        <time>2022-04-19T12:45:20.110Z</time>
      </trkpt>
      <trkpt lat="48.34279" lon="2.73461">
        <ele>106</ele>
        <time>2022-04-19T12:45:24.114Z</time>
      </trkpt>
      <trkpt lat="48.34284" lon="2.73463">
        <ele>106</ele>
        <time>2022-04-19T12:45:28.115Z</time>
      </trkpt>
      <trkpt lat="48.34291" lon="2.73466">
        <ele>106</ele>
        <time>2022-04-19T12:45:33.117Z</time>
      </trkpt>
      <trkpt lat="48.34299" lon="2.73471">
        <ele>109</ele>
        <time>2022-04-19T12:45:38.110Z</time>
      </trkpt>
      <trkpt lat="48.34305" lon="2.73475">
        <ele>109</ele>
        <time>2022-04-19T12:45:42.110Z</time>
      </trkpt>
      <trkpt lat="48.34312" lon="2.73478">
        <ele>109</ele>
        <time>2022-04-19T12:45:47.115Z</time>
      </trkpt>
      <trkpt lat="48.34318" lon="2.7348">
        <ele>109</ele>
        <time>2022-04-19T12:45:51.116Z</time>
      </trkpt>
      <trkpt lat="48.34325" lon="2.73483">
        <ele>111</ele>
        <time>2022-04-19T12:45:56.108Z</time>
      </trkpt>
      <trkpt lat="48.34331" lon="2.73485">
        <ele>111</ele>
        <time>2022-04-19T12:46:00.111Z</time>
      </trkpt>
      <trkpt lat="48.34338" lon="2.73486">
        <ele>111</ele>
        <time>2022-04-19T12:46:05.117Z</time>
      </trkpt>
      <trkpt lat="48.34345" lon="2.73488">
        <ele>112</ele>
        <time>2022-04-19T12:46:10.112Z</time>
      </trkpt>
      <trkpt lat="48.34351" lon="2.7349">
        <ele>114</ele>
        <time>2022-04-19T12:46:15.116Z</time>
      </trkpt>
      <trkpt lat="48.34356" lon="2.73492">
        <ele>114</ele>
        <time>2022-04-19T12:46:19.114Z</time>
      </trkpt>
      <trkpt lat="48.34363" lon="2.73495">
        <ele>114</ele>
        <time>2022-04-19T12:46:24.108Z</time>
      </trkpt>
      <trkpt lat="48.34368" lon="2.73497">
        <ele>114</ele>
        <time>2022-04-19T12:46:28.111Z</time>
      </trkpt>
      <trkpt lat="48.34374" lon="2.73499">
        <ele>114</ele>
        <time>2022-04-19T12:46:33.115Z</time>
      </trkpt>
      <trkpt lat="48.3438" lon="2.73501">
        <ele>118</ele>
        <time>2022-04-19T12:46:38.114Z</time>
      </trkpt>
      <trkpt lat="48.34386" lon="2.73502">
        <ele>118</ele>
        <time>2022-04-19T12:46:43.110Z</time>
      </trkpt>
      <trkpt lat="48.34392" lon="2.73505">
        <ele>118</ele>
        <time>2022-04-19T12:46:47.115Z</time>
      </trkpt>
      <trkpt lat="48.34419" lon="2.73519">
        <ele>122</ele>
        <time>2022-04-19T12:47:48.108Z</time>
      </trkpt>
      <trkpt lat="48.34419" lon="2.73519">
        <ele>122</ele>
        <time>2022-04-19T12:47:52.114Z</time>
      </trkpt>
      <trkpt lat="48.34419" lon="2.73519">
        <ele>122</ele>
        <time>2022-04-19T12:47:56.109Z</time>
      </trkpt>
      <trkpt lat="48.34421" lon="2.7352">
        <ele>122</ele>
        <time>2022-04-19T12:48:01.106Z</time>
      </trkpt>
      <trkpt lat="48.34425" lon="2.7352">
        <ele>122</ele>
        <time>2022-04-19T12:48:05.111Z</time>
      </trkpt>
      <trkpt lat="48.34432" lon="2.73523">
        <ele>126</ele>
        <time>2022-04-19T12:48:10.116Z</time>
      </trkpt>
      <trkpt lat="48.34439" lon="2.73527">
        <ele>126</ele>
        <time>2022-04-19T12:48:15.114Z</time>
      </trkpt>
      <trkpt lat="48.34445" lon="2.7353">
        <ele>126</ele>
        <time>2022-04-19T12:48:20.124Z</time>
      </trkpt>
      <trkpt lat="48.34451" lon="2.73533">
        <ele>126</ele>
        <time>2022-04-19T12:48:25.115Z</time>
      </trkpt>
      <trkpt lat="48.34455" lon="2.73536">
        <ele>126</ele>
        <time>2022-04-19T12:48:29.113Z</time>
      </trkpt>
      <trkpt lat="48.34461" lon="2.73538">
        <ele>129</ele>
        <time>2022-04-19T12:48:34.123Z</time>
      </trkpt>
      <trkpt lat="48.34456" lon="2.73547">
        <ele>127</ele>
        <time>2022-04-19T12:48:38.108Z</time>
      </trkpt>
      <trkpt lat="48.34453" lon="2.73553">
        <ele>127</ele>
        <time>2022-04-19T12:48:43.118Z</time>
      </trkpt>
      <trkpt lat="48.34457" lon="2.73557">
        <ele>127</ele>
        <time>2022-04-19T12:48:47.120Z</time>
      </trkpt>
      <trkpt lat="48.3446" lon="2.73565">
        <ele>130</ele>
        <time>2022-04-19T12:48:52.107Z</time>
      </trkpt>
      <trkpt lat="48.34463" lon="2.73572">
        <ele>130</ele>
        <time>2022-04-19T12:48:57.115Z</time>
      </trkpt>
      <trkpt lat="48.34467" lon="2.73581">
        <ele>130</ele>
        <time>2022-04-19T12:49:02.121Z</time>
      </trkpt>
      <trkpt lat="48.34469" lon="2.73587">
        <ele>130</ele>
        <time>2022-04-19T12:49:06.125Z</time>
      </trkpt>
      <trkpt lat="48.34473" lon="2.73595">
        <ele>130</ele>
        <time>2022-04-19T12:49:11.117Z</time>
      </trkpt>
      <trkpt lat="48.34475" lon="2.736">
        <ele>130</ele>
        <time>2022-04-19T12:49:15.116Z</time>
      </trkpt>
      <trkpt lat="48.34479" lon="2.73607">
        <ele>130</ele>
        <time>2022-04-19T12:49:20.115Z</time>
      </trkpt>
      <trkpt lat="48.34484" lon="2.73615">
        <ele>130</ele>
        <time>2022-04-19T12:49:25.115Z</time>
      </trkpt>
      <trkpt lat="48.34487" lon="2.73621">
        <ele>131</ele>
        <time>2022-04-19T12:49:29.109Z</time>
      </trkpt>
      <trkpt lat="48.34491" lon="2.73626">
        <ele>133</ele>
        <time>2022-04-19T12:49:33.113Z</time>
      </trkpt>
      <trkpt lat="48.34494" lon="2.73633">
        <ele>133</ele>
        <time>2022-04-19T12:49:37.118Z</time>
      </trkpt>
      <trkpt lat="48.34498" lon="2.7364">
        <ele>133</ele>
        <time>2022-04-19T12:49:42.114Z</time>
      </trkpt>
      <trkpt lat="48.34502" lon="2.73646">
        <ele>133</ele>
        <time>2022-04-19T12:49:46.115Z</time>
      </trkpt>
      <trkpt lat="48.34507" lon="2.73652">
        <ele>133</ele>
        <time>2022-04-19T12:49:51.116Z</time>
      </trkpt>
      <trkpt lat="48.34511" lon="2.73658">
        <ele>135</ele>
        <time>2022-04-19T12:49:55.118Z</time>
      </trkpt>
      <trkpt lat="48.34515" lon="2.73664">
        <ele>136</ele>
        <time>2022-04-19T12:49:59.126Z</time>
      </trkpt>
      <trkpt lat="48.3452" lon="2.73671">
        <ele>136</ele>
        <time>2022-04-19T12:50:04.104Z</time>
      </trkpt>
      <trkpt lat="48.34526" lon="2.73678">
        <ele>136</ele>
        <time>2022-04-19T12:50:09.107Z</time>
      </trkpt>
      <trkpt lat="48.3453" lon="2.73684">
        <ele>135</ele>
        <time>2022-04-19T12:50:13.106Z</time>
      </trkpt>
      <trkpt lat="48.34534" lon="2.73691">
        <ele>135</ele>
        <time>2022-04-19T12:50:17.112Z</time>
      </trkpt>
      <trkpt lat="48.34539" lon="2.73696">
        <ele>135</ele>
        <time>2022-04-19T12:50:22.111Z</time>
      </trkpt>
      <trkpt lat="48.34544" lon="2.73704">
        <ele>135</ele>
        <time>2022-04-19T12:50:27.110Z</time>
      </trkpt>
      <trkpt lat="48.34548" lon="2.7371">
        <ele>134</ele>
        <time>2022-04-19T12:50:31.113Z</time>
      </trkpt>
      <trkpt lat="48.34553" lon="2.73717">
        <ele>134</ele>
        <time>2022-04-19T12:50:36.127Z</time>
      </trkpt>
      <trkpt lat="48.34559" lon="2.73723">
        <ele>134</ele>
        <time>2022-04-19T12:50:41.113Z</time>
      </trkpt>
      <trkpt lat="48.34564" lon="2.73729">
        <ele>134</ele>
        <time>2022-04-19T12:50:45.115Z</time>
      </trkpt>
      <trkpt lat="48.34567" lon="2.73736">
        <ele>134</ele>
        <time>2022-04-19T12:50:50.112Z</time>
      </trkpt>
      <trkpt lat="48.34571" lon="2.73733">
        <ele>134</ele>
        <time>2022-04-19T12:52:06.116Z</time>
      </trkpt>
      <trkpt lat="48.34571" lon="2.73733">
        <ele>134</ele>
        <time>2022-04-19T12:52:11.105Z</time>
      </trkpt>
      <trkpt lat="48.34571" lon="2.73733">
        <ele>134</ele>
        <time>2022-04-19T12:52:15.112Z</time>
      </trkpt>
      <trkpt lat="48.34572" lon="2.73736">
        <ele>134</ele>
        <time>2022-04-19T12:52:20.108Z</time>
      </trkpt>
      <trkpt lat="48.34577" lon="2.73745">
        <ele>134</ele>
        <time>2022-04-19T12:52:25.104Z</time>
      </trkpt>
      <trkpt lat="48.3458" lon="2.73753">
        <ele>134</ele>
        <time>2022-04-19T12:52:30.103Z</time>
      </trkpt>
      <trkpt lat="48.34581" lon="2.73761">
        <ele>134</ele>
        <time>2022-04-19T12:52:34.104Z</time>
      </trkpt>
      <trkpt lat="48.34581" lon="2.73771">
        <ele>134</ele>
        <time>2022-04-19T12:52:38.104Z</time>
      </trkpt>
      <trkpt lat="48.3458" lon="2.73777">
        <ele>134</ele>
        <time>2022-04-19T12:52:42.106Z</time>
      </trkpt>
      <trkpt lat="48.34584" lon="2.73787">
        <ele>134</ele>
        <time>2022-04-19T12:52:47.102Z</time>
      </trkpt>
      <trkpt lat="48.34585" lon="2.73796">
        <ele>135</ele>
        <time>2022-04-19T12:52:51.102Z</time>
      </trkpt>
      <trkpt lat="48.34586" lon="2.73804">
        <ele>135</ele>
        <time>2022-04-19T12:52:55.108Z</time>
      </trkpt>
      <trkpt lat="48.34587" lon="2.73815">
        <ele>135</ele>
        <time>2022-04-19T12:53:00.103Z</time>
      </trkpt>
      <trkpt lat="48.34588" lon="2.73825">
        <ele>134</ele>
        <time>2022-04-19T12:53:05.108Z</time>
      </trkpt>
      <trkpt lat="48.3459" lon="2.73838">
        <ele>134</ele>
        <time>2022-04-19T12:53:10.114Z</time>
      </trkpt>
      <trkpt lat="48.34593" lon="2.73848">
        <ele>133</ele>
        <time>2022-04-19T12:53:15.114Z</time>
      </trkpt>
      <trkpt lat="48.34595" lon="2.73857">
        <ele>133</ele>
        <time>2022-04-19T12:53:20.112Z</time>
      </trkpt>
      <trkpt lat="48.34597" lon="2.73867">
        <ele>133</ele>
        <time>2022-04-19T12:53:25.116Z</time>
      </trkpt>
      <trkpt lat="48.34598" lon="2.73876">
        <ele>135</ele>
        <time>2022-04-19T12:53:29.123Z</time>
      </trkpt>
      <trkpt lat="48.34601" lon="2.73888">
        <ele>135</ele>
        <time>2022-04-19T12:53:34.111Z</time>
      </trkpt>
      <trkpt lat="48.34602" lon="2.739">
        <ele>135</ele>
        <time>2022-04-19T12:53:38.124Z</time>
      </trkpt>
      <trkpt lat="48.34604" lon="2.73912">
        <ele>136</ele>
        <time>2022-04-19T12:53:43.117Z</time>
      </trkpt>
      <trkpt lat="48.34606" lon="2.73925">
        <ele>136</ele>
        <time>2022-04-19T12:53:48.118Z</time>
      </trkpt>
      <trkpt lat="48.34609" lon="2.73934">
        <ele>137</ele>
        <time>2022-04-19T12:53:52.115Z</time>
      </trkpt>
      <trkpt lat="48.3461" lon="2.73946">
        <ele>137</ele>
        <time>2022-04-19T12:53:57.115Z</time>
      </trkpt>
      <trkpt lat="48.34614" lon="2.73957">
        <ele>137</ele>
        <time>2022-04-19T12:54:02.108Z</time>
      </trkpt>
      <trkpt lat="48.34616" lon="2.73968">
        <ele>138</ele>
        <time>2022-04-19T12:54:07.114Z</time>
      </trkpt>
      <trkpt lat="48.3462" lon="2.73979">
        <ele>138</ele>
        <time>2022-04-19T12:54:12.107Z</time>
      </trkpt>
      <trkpt lat="48.34622" lon="2.73991">
        <ele>138</ele>
        <time>2022-04-19T12:54:17.118Z</time>
      </trkpt>
      <trkpt lat="48.34623" lon="2.74002">
        <ele>138</ele>
        <time>2022-04-19T12:54:22.112Z</time>
      </trkpt>
      <trkpt lat="48.34625" lon="2.74012">
        <ele>138</ele>
        <time>2022-04-19T12:54:27.118Z</time>
      </trkpt>
      <trkpt lat="48.34625" lon="2.74022">
        <ele>136</ele>
        <time>2022-04-19T12:54:31.119Z</time>
      </trkpt>
      <trkpt lat="48.34626" lon="2.74033">
        <ele>136</ele>
        <time>2022-04-19T12:54:36.114Z</time>
      </trkpt>
      <trkpt lat="48.3463" lon="2.74038">
        <ele>136</ele>
        <time>2022-04-19T12:54:40.113Z</time>
      </trkpt>
      <trkpt lat="48.34638" lon="2.74037">
        <ele>136</ele>
        <time>2022-04-19T12:54:45.112Z</time>
      </trkpt>
      <trkpt lat="48.34646" lon="2.74032">
        <ele>136</ele>
        <time>2022-04-19T12:54:50.113Z</time>
      </trkpt>
      <trkpt lat="48.34651" lon="2.74029">
        <ele>136</ele>
        <time>2022-04-19T12:54:54.117Z</time>
      </trkpt>
      <trkpt lat="48.34654" lon="2.74026">
        <ele>135</ele>
        <time>2022-04-19T12:54:58.132Z</time>
      </trkpt>
      <trkpt lat="48.34658" lon="2.74021">
        <ele>135</ele>
        <time>2022-04-19T12:55:03.112Z</time>
      </trkpt>
      <trkpt lat="48.34664" lon="2.74015">
        <ele>135</ele>
        <time>2022-04-19T12:55:08.109Z</time>
      </trkpt>
      <trkpt lat="48.34668" lon="2.74009">
        <ele>136</ele>
        <time>2022-04-19T12:55:12.115Z</time>
      </trkpt>
      <trkpt lat="48.34674" lon="2.73999">
        <ele>136</ele>
        <time>2022-04-19T12:55:17.112Z</time>
      </trkpt>
      <trkpt lat="48.34678" lon="2.73992">
        <ele>136</ele>
        <time>2022-04-19T12:55:21.120Z</time>
      </trkpt>
      <trkpt lat="48.34682" lon="2.73982">
        <ele>136</ele>
        <time>2022-04-19T12:55:26.113Z</time>
      </trkpt>
      <trkpt lat="48.34687" lon="2.73973">
        <ele>136</ele>
        <time>2022-04-19T12:55:31.107Z</time>
      </trkpt>
      <trkpt lat="48.34692" lon="2.73964">
        <ele>136</ele>
        <time>2022-04-19T12:55:36.112Z</time>
      </trkpt>
      <trkpt lat="48.34697" lon="2.73956">
        <ele>135</ele>
        <time>2022-04-19T12:55:41.111Z</time>
      </trkpt>
      <trkpt lat="48.34702" lon="2.7395">
        <ele>135</ele>
        <time>2022-04-19T12:55:45.105Z</time>
      </trkpt>
      <trkpt lat="48.34708" lon="2.73943">
        <ele>135</ele>
        <time>2022-04-19T12:55:50.112Z</time>
      </trkpt>
      <trkpt lat="48.34712" lon="2.73936">
        <ele>137</ele>
        <time>2022-04-19T12:56:18.111Z</time>
      </trkpt>
      <trkpt lat="48.34712" lon="2.73939">
        <ele>137</ele>
        <time>2022-04-19T12:56:22.114Z</time>
      </trkpt>
      <trkpt lat="48.34711" lon="2.73948">
        <ele>137</ele>
        <time>2022-04-19T12:56:27.110Z</time>
      </trkpt>
      <trkpt lat="48.34714" lon="2.73955">
        <ele>137</ele>
        <time>2022-04-19T12:56:31.113Z</time>
      </trkpt>
      <trkpt lat="48.34718" lon="2.73962">
        <ele>137</ele>
        <time>2022-04-19T12:56:36.113Z</time>
      </trkpt>
      <trkpt lat="48.34722" lon="2.73967">
        <ele>137</ele>
        <time>2022-04-19T12:56:40.113Z</time>
      </trkpt>
      <trkpt lat="48.34724" lon="2.73973">
        <ele>137</ele>
        <time>2022-04-19T12:56:44.113Z</time>
      </trkpt>
      <trkpt lat="48.34725" lon="2.73982">
        <ele>137</ele>
        <time>2022-04-19T12:56:49.115Z</time>
      </trkpt>
      <trkpt lat="48.34728" lon="2.7399">
        <ele>138</ele>
        <time>2022-04-19T12:56:54.119Z</time>
      </trkpt>
      <trkpt lat="48.34732" lon="2.73998">
        <ele>138</ele>
        <time>2022-04-19T12:56:59.106Z</time>
      </trkpt>
      <trkpt lat="48.34728" lon="2.73996">
        <ele>138</ele>
        <time>2022-04-19T12:57:03.122Z</time>
      </trkpt>
      <trkpt lat="48.34743" lon="2.73987">
        <ele>139</ele>
        <time>2022-04-19T12:57:08.104Z</time>
      </trkpt>
      <trkpt lat="48.34747" lon="2.73982">
        <ele>140</ele>
        <time>2022-04-19T12:57:12.113Z</time>
      </trkpt>
      <trkpt lat="48.34752" lon="2.73976">
        <ele>140</ele>
        <time>2022-04-19T12:57:17.117Z</time>
      </trkpt>
      <trkpt lat="48.34758" lon="2.73972">
        <ele>140</ele>
        <time>2022-04-19T12:57:21.121Z</time>
      </trkpt>
      <trkpt lat="48.34763" lon="2.73965">
        <ele>140</ele>
        <time>2022-04-19T12:57:26.112Z</time>
      </trkpt>
      <trkpt lat="48.34768" lon="2.73962">
        <ele>143</ele>
        <time>2022-04-19T12:57:30.116Z</time>
      </trkpt>
      <trkpt lat="48.34772" lon="2.73957">
        <ele>145</ele>
        <time>2022-04-19T12:57:35.119Z</time>
      </trkpt>
      <trkpt lat="48.34777" lon="2.73951">
        <ele>145</ele>
        <time>2022-04-19T12:57:40.115Z</time>
      </trkpt>
      <trkpt lat="48.34784" lon="2.73945">
        <ele>145</ele>
        <time>2022-04-19T12:57:45.116Z</time>
      </trkpt>
      <trkpt lat="48.34789" lon="2.7394">
        <ele>145</ele>
        <time>2022-04-19T12:57:49.111Z</time>
      </trkpt>
      <trkpt lat="48.34796" lon="2.73934">
        <ele>147</ele>
        <time>2022-04-19T12:57:54.113Z</time>
      </trkpt>
      <trkpt lat="48.34802" lon="2.73927">
        <ele>147</ele>
        <time>2022-04-19T12:57:59.117Z</time>
      </trkpt>
      <trkpt lat="48.34809" lon="2.73923">
        <ele>147</ele>
        <time>2022-04-19T12:58:04.110Z</time>
      </trkpt>
      <trkpt lat="48.34816" lon="2.73917">
        <ele>147</ele>
        <time>2022-04-19T12:58:09.118Z</time>
      </trkpt>
      <trkpt lat="48.34822" lon="2.7391">
        <ele>146</ele>
        <time>2022-04-19T12:58:14.109Z</time>
      </trkpt>
      <trkpt lat="48.34828" lon="2.73903">
        <ele>146</ele>
        <time>2022-04-19T12:58:19.111Z</time>
      </trkpt>
      <trkpt lat="48.34833" lon="2.73897">
        <ele>146</ele>
        <time>2022-04-19T12:58:24.116Z</time>
      </trkpt>
      <trkpt lat="48.34839" lon="2.73892">
        <ele>146</ele>
        <time>2022-04-19T12:58:29.115Z</time>
      </trkpt>
      <trkpt lat="48.34845" lon="2.73885">
        <ele>146</ele>
        <time>2022-04-19T12:58:34.124Z</time>
      </trkpt>
      <trkpt lat="48.34852" lon="2.7388">
        <ele>144</ele>
        <time>2022-04-19T12:58:39.117Z</time>
      </trkpt>
      <trkpt lat="48.34857" lon="2.73875">
        <ele>144</ele>
        <time>2022-04-19T12:58:43.114Z</time>
      </trkpt>
      <trkpt lat="48.34862" lon="2.7387">
        <ele>144</ele>
        <time>2022-04-19T12:58:47.127Z</time>
      </trkpt>
      <trkpt lat="48.34869" lon="2.73865">
        <ele>144</ele>
        <time>2022-04-19T12:58:52.122Z</time>
      </trkpt>
      <trkpt lat="48.34876" lon="2.7386">
        <ele>143</ele>
        <time>2022-04-19T12:58:57.116Z</time>
      </trkpt>
      <trkpt lat="48.34882" lon="2.73855">
        <ele>143</ele>
        <time>2022-04-19T12:59:02.117Z</time>
      </trkpt>
      <trkpt lat="48.34889" lon="2.73851">
        <ele>143</ele>
        <time>2022-04-19T12:59:07.103Z</time>
      </trkpt>
      <trkpt lat="48.34895" lon="2.73847">
        <ele>142</ele>
        <time>2022-04-19T12:59:11.114Z</time>
      </trkpt>
      <trkpt lat="48.34902" lon="2.73843">
        <ele>142</ele>
        <time>2022-04-19T12:59:16.112Z</time>
      </trkpt>
      <trkpt lat="48.34909" lon="2.73839">
        <ele>142</ele>
        <time>2022-04-19T12:59:21.111Z</time>
      </trkpt>
      <trkpt lat="48.34914" lon="2.73836">
        <ele>142</ele>
        <time>2022-04-19T12:59:25.113Z</time>
      </trkpt>
      <trkpt lat="48.3492" lon="2.73831">
        <ele>142</ele>
        <time>2022-04-19T12:59:30.116Z</time>
      </trkpt>
      <trkpt lat="48.34926" lon="2.73828">
        <ele>142</ele>
        <time>2022-04-19T12:59:34.118Z</time>
      </trkpt>
      <trkpt lat="48.34933" lon="2.73823">
        <ele>143</ele>
        <time>2022-04-19T12:59:39.108Z</time>
      </trkpt>
      <trkpt lat="48.34938" lon="2.7382">
        <ele>143</ele>
        <time>2022-04-19T12:59:43.115Z</time>
      </trkpt>
      <trkpt lat="48.34945" lon="2.73815">
        <ele>141</ele>
        <time>2022-04-19T12:59:48.113Z</time>
      </trkpt>
      <trkpt lat="48.3495" lon="2.73812">
        <ele>141</ele>
        <time>2022-04-19T12:59:52.117Z</time>
      </trkpt>
      <trkpt lat="48.34957" lon="2.73806">
        <ele>141</ele>
        <time>2022-04-19T12:59:57.107Z</time>
      </trkpt>
      <trkpt lat="48.34963" lon="2.73803">
        <ele>141</ele>
        <time>2022-04-19T13:00:02.102Z</time>
      </trkpt>
      <trkpt lat="48.34968" lon="2.73798">
        <ele>141</ele>
        <time>2022-04-19T13:00:06.111Z</time>
      </trkpt>
      <trkpt lat="48.34974" lon="2.73796">
        <ele>141</ele>
        <time>2022-04-19T13:00:10.111Z</time>
      </trkpt>
      <trkpt lat="48.34979" lon="2.73791">
        <ele>139</ele>
        <time>2022-04-19T13:00:14.117Z</time>
      </trkpt>
      <trkpt lat="48.34986" lon="2.73786">
        <ele>137</ele>
        <time>2022-04-19T13:00:19.116Z</time>
      </trkpt>
      <trkpt lat="48.34992" lon="2.7378">
        <ele>137</ele>
        <time>2022-04-19T13:00:24.108Z</time>
      </trkpt>
      <trkpt lat="48.34997" lon="2.73774">
        <ele>137</ele>
        <time>2022-04-19T13:00:28.114Z</time>
      </trkpt>
      <trkpt lat="48.35002" lon="2.73769">
        <ele>137</ele>
        <time>2022-04-19T13:00:32.113Z</time>
      </trkpt>
      <trkpt lat="48.35008" lon="2.73763">
        <ele>136</ele>
        <time>2022-04-19T13:00:37.115Z</time>
      </trkpt>
      <trkpt lat="48.35013" lon="2.73758">
        <ele>136</ele>
        <time>2022-04-19T13:00:41.117Z</time>
      </trkpt>
      <trkpt lat="48.35018" lon="2.73753">
        <ele>135</ele>
        <time>2022-04-19T13:00:45.112Z</time>
      </trkpt>
      <trkpt lat="48.35024" lon="2.73747">
        <ele>135</ele>
        <time>2022-04-19T13:00:50.119Z</time>
      </trkpt>
      <trkpt lat="48.35028" lon="2.73739">
        <ele>135</ele>
        <time>2022-04-19T13:00:55.113Z</time>
      </trkpt>
      <trkpt lat="48.35033" lon="2.73733">
        <ele>135</ele>
        <time>2022-04-19T13:00:59.115Z</time>
      </trkpt>
      <trkpt lat="48.35038" lon="2.73725">
        <ele>135</ele>
        <time>2022-04-19T13:01:04.115Z</time>
      </trkpt>
      <trkpt lat="48.35044" lon="2.73719">
        <ele>137</ele>
        <time>2022-04-19T13:01:09.114Z</time>
      </trkpt>
      <trkpt lat="48.3505" lon="2.73712">
        <ele>137</ele>
        <time>2022-04-19T13:01:14.111Z</time>
      </trkpt>
      <trkpt lat="48.35054" lon="2.73705">
        <ele>138</ele>
        <time>2022-04-19T13:01:18.127Z</time>
      </trkpt>
      <trkpt lat="48.3506" lon="2.73699">
        <ele>138</ele>
        <time>2022-04-19T13:01:23.113Z</time>
      </trkpt>
      <trkpt lat="48.35064" lon="2.73692">
        <ele>138</ele>
        <time>2022-04-19T13:01:27.117Z</time>
      </trkpt>
      <trkpt lat="48.35069" lon="2.73684">
        <ele>138</ele>
        <time>2022-04-19T13:01:32.119Z</time>
      </trkpt>
      <trkpt lat="48.3507" lon="2.73673">
        <ele>138</ele>
        <time>2022-04-19T13:01:37.103Z</time>
      </trkpt>
      <trkpt lat="48.35072" lon="2.73665">
        <ele>138</ele>
        <time>2022-04-19T13:01:41.106Z</time>
      </trkpt>
      <trkpt lat="48.35075" lon="2.7366">
        <ele>138</ele>
        <time>2022-04-19T13:01:45.107Z</time>
      </trkpt>
      <trkpt lat="48.35079" lon="2.73653">
        <ele>136</ele>
        <time>2022-04-19T13:01:49.112Z</time>
      </trkpt>
      <trkpt lat="48.35081" lon="2.73642">
        <ele>136</ele>
        <time>2022-04-19T13:01:54.105Z</time>
      </trkpt>
      <trkpt lat="48.35085" lon="2.73636">
        <ele>136</ele>
        <time>2022-04-19T13:01:58.109Z</time>
      </trkpt>
      <trkpt lat="48.35089" lon="2.73628">
        <ele>136</ele>
        <time>2022-04-19T13:02:03.115Z</time>
      </trkpt>
      <trkpt lat="48.3509" lon="2.7362">
        <ele>134</ele>
        <time>2022-04-19T13:02:07.115Z</time>
      </trkpt>
      <trkpt lat="48.35085" lon="2.73611">
        <ele>134</ele>
        <time>2022-04-19T13:04:08.119Z</time>
      </trkpt>
      <trkpt lat="48.35088" lon="2.73601">
        <ele>134</ele>
        <time>2022-04-19T13:04:13.105Z</time>
      </trkpt>
      <trkpt lat="48.35091" lon="2.73593">
        <ele>134</ele>
        <time>2022-04-19T13:04:17.115Z</time>
      </trkpt>
      <trkpt lat="48.35093" lon="2.73586">
        <ele>134</ele>
        <time>2022-04-19T13:04:21.110Z</time>
      </trkpt>
      <trkpt lat="48.35096" lon="2.73578">
        <ele>134</ele>
        <time>2022-04-19T13:04:25.114Z</time>
      </trkpt>
      <trkpt lat="48.35097" lon="2.73567">
        <ele>133</ele>
        <time>2022-04-19T13:04:30.110Z</time>
      </trkpt>
      <trkpt lat="48.35099" lon="2.73559">
        <ele>127</ele>
        <time>2022-04-19T13:04:34.128Z</time>
      </trkpt>
      <trkpt lat="48.35102" lon="2.73549">
        <ele>127</ele>
        <time>2022-04-19T13:04:39.113Z</time>
      </trkpt>
      <trkpt lat="48.35103" lon="2.7354">
        <ele>125</ele>
        <time>2022-04-19T13:04:43.119Z</time>
      </trkpt>
      <trkpt lat="48.35105" lon="2.73529">
        <ele>125</ele>
        <time>2022-04-19T13:04:48.108Z</time>
      </trkpt>
      <trkpt lat="48.35106" lon="2.73518">
        <ele>125</ele>
        <time>2022-04-19T13:04:53.118Z</time>
      </trkpt>
      <trkpt lat="48.35107" lon="2.73507">
        <ele>124</ele>
        <time>2022-04-19T13:04:58.106Z</time>
      </trkpt>
      <trkpt lat="48.35108" lon="2.73499">
        <ele>124</ele>
        <time>2022-04-19T13:05:02.109Z</time>
      </trkpt>
      <trkpt lat="48.3511" lon="2.73489">
        <ele>124</ele>
        <time>2022-04-19T13:05:07.099Z</time>
      </trkpt>
      <trkpt lat="48.35111" lon="2.73481">
        <ele>123</ele>
        <time>2022-04-19T13:05:11.118Z</time>
      </trkpt>
      <trkpt lat="48.35112" lon="2.73471">
        <ele>123</ele>
        <time>2022-04-19T13:05:16.111Z</time>
      </trkpt>
      <trkpt lat="48.35114" lon="2.73464">
        <ele>123</ele>
        <time>2022-04-19T13:05:20.108Z</time>
      </trkpt>
      <trkpt lat="48.35116" lon="2.73456">
        <ele>124</ele>
        <time>2022-04-19T13:05:25.119Z</time>
      </trkpt>
      <trkpt lat="48.35118" lon="2.73449">
        <ele>124</ele>
        <time>2022-04-19T13:05:29.112Z</time>
      </trkpt>
      <trkpt lat="48.3512" lon="2.73439">
        <ele>124</ele>
        <time>2022-04-19T13:05:34.111Z</time>
      </trkpt>
      <trkpt lat="48.35122" lon="2.73431">
        <ele>125</ele>
        <time>2022-04-19T13:05:38.111Z</time>
      </trkpt>
      <trkpt lat="48.35129" lon="2.7342">
        <ele>118</ele>
        <time>2022-04-19T13:06:15.110Z</time>
      </trkpt>
      <trkpt lat="48.3513" lon="2.73418">
        <ele>118</ele>
        <time>2022-04-19T13:06:20.110Z</time>
      </trkpt>
      <trkpt lat="48.35132" lon="2.73417">
        <ele>118</ele>
        <time>2022-04-19T13:06:25.114Z</time>
      </trkpt>
      <trkpt lat="48.35138" lon="2.73414">
        <ele>118</ele>
        <time>2022-04-19T13:06:30.107Z</time>
      </trkpt>
      <trkpt lat="48.35141" lon="2.73411">
        <ele>118</ele>
        <time>2022-04-19T13:06:35.115Z</time>
      </trkpt>
      <trkpt lat="48.35143" lon="2.73412">
        <ele>118</ele>
        <time>2022-04-19T13:06:39.125Z</time>
      </trkpt>
      <trkpt lat="48.35149" lon="2.73416">
        <ele>118</ele>
        <time>2022-04-19T13:06:44.122Z</time>
      </trkpt>
      <trkpt lat="48.35151" lon="2.73422">
        <ele>118</ele>
        <time>2022-04-19T13:06:49.114Z</time>
      </trkpt>
      <trkpt lat="48.3516" lon="2.73425">
        <ele>115</ele>
        <time>2022-04-19T13:06:54.118Z</time>
      </trkpt>
      <trkpt lat="48.35164" lon="2.73434">
        <ele>116</ele>
        <time>2022-04-19T13:06:59.121Z</time>
      </trkpt>
      <trkpt lat="48.35167" lon="2.73443">
        <ele>116</ele>
        <time>2022-04-19T13:07:04.104Z</time>
      </trkpt>
      <trkpt lat="48.35168" lon="2.73448">
        <ele>116</ele>
        <time>2022-04-19T13:07:08.109Z</time>
      </trkpt>
      <trkpt lat="48.35169" lon="2.73454">
        <ele>116</ele>
        <time>2022-04-19T13:07:12.110Z</time>
      </trkpt>
      <trkpt lat="48.35175" lon="2.7346">
        <ele>115</ele>
        <time>2022-04-19T13:07:17.116Z</time>
      </trkpt>
      <trkpt lat="48.35178" lon="2.73465">
        <ele>115</ele>
        <time>2022-04-19T13:07:22.115Z</time>
      </trkpt>
      <trkpt lat="48.35182" lon="2.73473">
        <ele>118</ele>
        <time>2022-04-19T13:07:27.114Z</time>
      </trkpt>
      <trkpt lat="48.35185" lon="2.7348">
        <ele>118</ele>
        <time>2022-04-19T13:07:31.107Z</time>
      </trkpt>
      <trkpt lat="48.35187" lon="2.73487">
        <ele>118</ele>
        <time>2022-04-19T13:07:35.119Z</time>
      </trkpt>
      <trkpt lat="48.35189" lon="2.73495">
        <ele>118</ele>
        <time>2022-04-19T13:07:40.124Z</time>
      </trkpt>
      <trkpt lat="48.35193" lon="2.73498">
        <ele>118</ele>
        <time>2022-04-19T13:07:44.118Z</time>
      </trkpt>
      <trkpt lat="48.35199" lon="2.735">
        <ele>118</ele>
        <time>2022-04-19T13:07:49.110Z</time>
      </trkpt>
      <trkpt lat="48.35203" lon="2.73504">
        <ele>118</ele>
        <time>2022-04-19T13:07:54.115Z</time>
      </trkpt>
      <trkpt lat="48.35208" lon="2.73507">
        <ele>118</ele>
        <time>2022-04-19T13:07:58.108Z</time>
      </trkpt>
      <trkpt lat="48.35208" lon="2.73515">
        <ele>118</ele>
        <time>2022-04-19T13:08:03.112Z</time>
      </trkpt>
      <trkpt lat="48.35211" lon="2.73522">
        <ele>126</ele>
        <time>2022-04-19T13:08:08.110Z</time>
      </trkpt>
      <trkpt lat="48.35213" lon="2.73527">
        <ele>126</ele>
        <time>2022-04-19T13:08:12.116Z</time>
      </trkpt>
      <trkpt lat="48.35217" lon="2.73533">
        <ele>126</ele>
        <time>2022-04-19T13:08:17.120Z</time>
      </trkpt>
      <trkpt lat="48.35219" lon="2.73538">
        <ele>126</ele>
        <time>2022-04-19T13:08:21.129Z</time>
      </trkpt>
      <trkpt lat="48.35223" lon="2.73544">
        <ele>125</ele>
        <time>2022-04-19T13:08:26.112Z</time>
      </trkpt>
      <trkpt lat="48.35225" lon="2.73552">
        <ele>125</ele>
        <time>2022-04-19T13:08:31.106Z</time>
      </trkpt>
      <trkpt lat="48.35224" lon="2.73559">
        <ele>125</ele>
        <time>2022-04-19T13:08:35.123Z</time>
      </trkpt>
      <trkpt lat="48.35222" lon="2.73567">
        <ele>125</ele>
        <time>2022-04-19T13:08:40.120Z</time>
      </trkpt>
      <trkpt lat="48.35221" lon="2.73574">
        <ele>124</ele>
        <time>2022-04-19T13:08:44.133Z</time>
      </trkpt>
      <trkpt lat="48.35222" lon="2.73582">
        <ele>124</ele>
        <time>2022-04-19T13:08:49.121Z</time>
      </trkpt>
      <trkpt lat="48.35226" lon="2.73589">
        <ele>124</ele>
        <time>2022-04-19T13:08:54.115Z</time>
      </trkpt>
      <trkpt lat="48.35228" lon="2.73595">
        <ele>124</ele>
        <time>2022-04-19T13:08:59.111Z</time>
      </trkpt>
      <trkpt lat="48.35229" lon="2.73597">
        <ele>125</ele>
        <time>2022-04-19T13:09:04.111Z</time>
      </trkpt>
      <trkpt lat="48.3523" lon="2.73598">
        <ele>125</ele>
        <time>2022-04-19T13:09:08.120Z</time>
      </trkpt>
      <trkpt lat="48.35233" lon="2.73599">
        <ele>125</ele>
        <time>2022-04-19T13:09:13.109Z</time>
      </trkpt>
      <trkpt lat="48.35236" lon="2.73599">
        <ele>128</ele>
        <time>2022-04-19T13:09:17.113Z</time>
      </trkpt>
      <trkpt lat="48.35242" lon="2.73601">
        <ele>128</ele>
        <time>2022-04-19T13:09:22.109Z</time>
      </trkpt>
      <trkpt lat="48.35248" lon="2.73604">
        <ele>128</ele>
        <time>2022-04-19T13:09:26.117Z</time>
      </trkpt>
      <trkpt lat="48.35255" lon="2.73602">
        <ele>128</ele>
        <time>2022-04-19T13:09:31.118Z</time>
      </trkpt>
      <trkpt lat="48.3526" lon="2.73602">
        <ele>128</ele>
        <time>2022-04-19T13:09:35.119Z</time>
      </trkpt>
      <trkpt lat="48.35267" lon="2.73602">
        <ele>130</ele>
        <time>2022-04-19T13:09:40.120Z</time>
      </trkpt>
      <trkpt lat="48.35273" lon="2.73604">
        <ele>130</ele>
        <time>2022-04-19T13:09:45.114Z</time>
      </trkpt>
      <trkpt lat="48.35278" lon="2.73607">
        <ele>130</ele>
        <time>2022-04-19T13:09:49.112Z</time>
      </trkpt>
      <trkpt lat="48.35282" lon="2.73615">
        <ele>130</ele>
        <time>2022-04-19T13:09:54.110Z</time>
      </trkpt>
      <trkpt lat="48.35286" lon="2.73622">
        <ele>130</ele>
        <time>2022-04-19T13:09:58.112Z</time>
      </trkpt>
      <trkpt lat="48.35287" lon="2.73633">
        <ele>130</ele>
        <time>2022-04-19T13:10:03.118Z</time>
      </trkpt>
      <trkpt lat="48.35287" lon="2.73644">
        <ele>130</ele>
        <time>2022-04-19T13:10:08.112Z</time>
      </trkpt>
      <trkpt lat="48.35286" lon="2.73653">
        <ele>130</ele>
        <time>2022-04-19T13:10:13.120Z</time>
      </trkpt>
      <trkpt lat="48.35285" lon="2.73664">
        <ele>130</ele>
        <time>2022-04-19T13:10:18.117Z</time>
      </trkpt>
      <trkpt lat="48.35286" lon="2.73674">
        <ele>130</ele>
        <time>2022-04-19T13:10:23.114Z</time>
      </trkpt>
      <trkpt lat="48.35285" lon="2.73684">
        <ele>131</ele>
        <time>2022-04-19T13:10:28.115Z</time>
      </trkpt>
      <trkpt lat="48.35286" lon="2.73693">
        <ele>131</ele>
        <time>2022-04-19T13:10:33.113Z</time>
      </trkpt>
      <trkpt lat="48.35288" lon="2.73701">
        <ele>131</ele>
        <time>2022-04-19T13:10:37.109Z</time>
      </trkpt>
      <trkpt lat="48.3529" lon="2.73709">
        <ele>132</ele>
        <time>2022-04-19T13:10:41.118Z</time>
      </trkpt>
      <trkpt lat="48.35292" lon="2.73719">
        <ele>134</ele>
        <time>2022-04-19T13:10:46.105Z</time>
      </trkpt>
      <trkpt lat="48.35295" lon="2.73727">
        <ele>134</ele>
        <time>2022-04-19T13:10:51.113Z</time>
      </trkpt>
      <trkpt lat="48.35297" lon="2.73735">
        <ele>134</ele>
        <time>2022-04-19T13:10:55.114Z</time>
      </trkpt>
      <trkpt lat="48.35299" lon="2.73745">
        <ele>134</ele>
        <time>2022-04-19T13:11:00.108Z</time>
      </trkpt>
      <trkpt lat="48.353" lon="2.73751">
        <ele>134</ele>
        <time>2022-04-19T13:11:04.109Z</time>
      </trkpt>
      <trkpt lat="48.35304" lon="2.7376">
        <ele>134</ele>
        <time>2022-04-19T13:11:09.116Z</time>
      </trkpt>
      <trkpt lat="48.35308" lon="2.73767">
        <ele>134</ele>
        <time>2022-04-19T13:11:14.115Z</time>
      </trkpt>
      <trkpt lat="48.35313" lon="2.73775">
        <ele>134</ele>
        <time>2022-04-19T13:11:19.113Z</time>
      </trkpt>
      <trkpt lat="48.35316" lon="2.7378">
        <ele>134</ele>
        <time>2022-04-19T13:11:23.116Z</time>
      </trkpt>
      <trkpt lat="48.35322" lon="2.73784">
        <ele>133</ele>
        <time>2022-04-19T13:11:28.113Z</time>
      </trkpt>
      <trkpt lat="48.35326" lon="2.73788">
        <ele>133</ele>
        <time>2022-04-19T13:11:32.108Z</time>
      </trkpt>
      <trkpt lat="48.35331" lon="2.73791">
        <ele>133</ele>
        <time>2022-04-19T13:11:36.125Z</time>
      </trkpt>
      <trkpt lat="48.35336" lon="2.73795">
        <ele>133</ele>
        <time>2022-04-19T13:11:41.106Z</time>
      </trkpt>
      <trkpt lat="48.35339" lon="2.73789">
        <ele>133</ele>
        <time>2022-04-19T13:11:45.116Z</time>
      </trkpt>
      <trkpt lat="48.35344" lon="2.73789">
        <ele>133</ele>
        <time>2022-04-19T13:11:50.114Z</time>
      </trkpt>
      <trkpt lat="48.35344" lon="2.73797">
        <ele>133</ele>
        <time>2022-04-19T13:11:54.113Z</time>
      </trkpt>
      <trkpt lat="48.35349" lon="2.738">
        <ele>130</ele>
        <time>2022-04-19T13:11:59.119Z</time>
      </trkpt>
      <trkpt lat="48.35356" lon="2.73801">
        <ele>130</ele>
        <time>2022-04-19T13:12:04.117Z</time>
      </trkpt>
      <trkpt lat="48.35362" lon="2.73804">
        <ele>130</ele>
        <time>2022-04-19T13:12:09.108Z</time>
      </trkpt>
      <trkpt lat="48.35366" lon="2.73805">
        <ele>130</ele>
        <time>2022-04-19T13:12:14.109Z</time>
      </trkpt>
      <trkpt lat="48.35372" lon="2.73806">
        <ele>130</ele>
        <time>2022-04-19T13:12:19.113Z</time>
      </trkpt>
      <trkpt lat="48.35377" lon="2.73805">
        <ele>128</ele>
        <time>2022-04-19T13:12:23.119Z</time>
      </trkpt>
      <trkpt lat="48.35383" lon="2.73804">
        <ele>128</ele>
        <time>2022-04-19T13:12:28.112Z</time>
      </trkpt>
      <trkpt lat="48.3539" lon="2.73804">
        <ele>128</ele>
        <time>2022-04-19T13:12:33.110Z</time>
      </trkpt>
      <trkpt lat="48.35396" lon="2.73805">
        <ele>128</ele>
        <time>2022-04-19T13:12:38.116Z</time>
      </trkpt>
      <trkpt lat="48.35404" lon="2.73807">
        <ele>127</ele>
        <time>2022-04-19T13:12:43.101Z</time>
      </trkpt>
      <trkpt lat="48.35408" lon="2.7381">
        <ele>127</ele>
        <time>2022-04-19T13:12:47.111Z</time>
      </trkpt>
      <trkpt lat="48.35415" lon="2.73813">
        <ele>127</ele>
        <time>2022-04-19T13:12:52.106Z</time>
      </trkpt>
      <trkpt lat="48.35419" lon="2.73811">
        <ele>127</ele>
        <time>2022-04-19T13:12:56.119Z</time>
      </trkpt>
      <trkpt lat="48.35426" lon="2.73807">
        <ele>127</ele>
        <time>2022-04-19T13:13:01.115Z</time>
      </trkpt>
      <trkpt lat="48.35432" lon="2.73806">
        <ele>129</ele>
        <time>2022-04-19T13:13:06.112Z</time>
      </trkpt>
      <trkpt lat="48.35439" lon="2.73806">
        <ele>129</ele>
        <time>2022-04-19T13:13:11.116Z</time>
      </trkpt>
      <trkpt lat="48.35446" lon="2.73804">
        <ele>129</ele>
        <time>2022-04-19T13:13:16.130Z</time>
      </trkpt>
      <trkpt lat="48.35453" lon="2.73802">
        <ele>129</ele>
        <time>2022-04-19T13:13:21.114Z</time>
      </trkpt>
      <trkpt lat="48.35457" lon="2.73797">
        <ele>129</ele>
        <time>2022-04-19T13:13:25.119Z</time>
      </trkpt>
      <trkpt lat="48.35462" lon="2.73789">
        <ele>130</ele>
        <time>2022-04-19T13:13:30.111Z</time>
      </trkpt>
      <trkpt lat="48.35466" lon="2.73784">
        <ele>130</ele>
        <time>2022-04-19T13:13:34.111Z</time>
      </trkpt>
      <trkpt lat="48.35468" lon="2.73776">
        <ele>130</ele>
        <time>2022-04-19T13:13:39.107Z</time>
      </trkpt>
      <trkpt lat="48.3547" lon="2.7377">
        <ele>130</ele>
        <time>2022-04-19T13:13:43.114Z</time>
      </trkpt>
      <trkpt lat="48.3547" lon="2.73763">
        <ele>130</ele>
        <time>2022-04-19T13:13:48.110Z</time>
      </trkpt>
      <trkpt lat="48.35472" lon="2.73754">
        <ele>130</ele>
        <time>2022-04-19T13:13:53.111Z</time>
      </trkpt>
      <trkpt lat="48.35473" lon="2.73747">
        <ele>130</ele>
        <time>2022-04-19T13:13:57.124Z</time>
      </trkpt>
      <trkpt lat="48.35475" lon="2.73739">
        <ele>130</ele>
        <time>2022-04-19T13:14:02.110Z</time>
      </trkpt>
      <trkpt lat="48.35478" lon="2.73737">
        <ele>130</ele>
        <time>2022-04-19T13:14:06.119Z</time>
      </trkpt>
      <trkpt lat="48.35479" lon="2.73747">
        <ele>130</ele>
        <time>2022-04-19T13:14:11.110Z</time>
      </trkpt>
      <trkpt lat="48.35483" lon="2.73754">
        <ele>130</ele>
        <time>2022-04-19T13:14:16.107Z</time>
      </trkpt>
      <trkpt lat="48.35486" lon="2.73759">
        <ele>130</ele>
        <time>2022-04-19T13:14:20.112Z</time>
      </trkpt>
      <trkpt lat="48.3549" lon="2.73759">
        <ele>133</ele>
        <time>2022-04-19T13:14:25.113Z</time>
      </trkpt>
      <trkpt lat="48.35494" lon="2.73759">
        <ele>133</ele>
        <time>2022-04-19T13:14:30.127Z</time>
      </trkpt>
      <trkpt lat="48.35498" lon="2.73758">
        <ele>133</ele>
        <time>2022-04-19T13:14:35.109Z</time>
      </trkpt>
      <trkpt lat="48.35502" lon="2.73759">
        <ele>133</ele>
        <time>2022-04-19T13:14:39.117Z</time>
      </trkpt>
      <trkpt lat="48.35507" lon="2.73759">
        <ele>133</ele>
        <time>2022-04-19T13:14:43.129Z</time>
      </trkpt>
      <trkpt lat="48.35514" lon="2.73759">
        <ele>133</ele>
        <time>2022-04-19T13:14:48.109Z</time>
      </trkpt>
      <trkpt lat="48.35518" lon="2.73759">
        <ele>137</ele>
        <time>2022-04-19T13:14:52.114Z</time>
      </trkpt>
      <trkpt lat="48.35522" lon="2.73761">
        <ele>137</ele>
        <time>2022-04-19T13:14:56.135Z</time>
      </trkpt>
      <trkpt lat="48.35527" lon="2.73764">
        <ele>137</ele>
        <time>2022-04-19T13:15:01.115Z</time>
      </trkpt>
      <trkpt lat="48.35531" lon="2.73767">
        <ele>137</ele>
        <time>2022-04-19T13:15:05.118Z</time>
      </trkpt>
      <trkpt lat="48.35537" lon="2.73771">
        <ele>137</ele>
        <time>2022-04-19T13:15:10.103Z</time>
      </trkpt>
      <trkpt lat="48.35542" lon="2.73774">
        <ele>137</ele>
        <time>2022-04-19T13:15:14.105Z</time>
      </trkpt>
      <trkpt lat="48.35553" lon="2.73781">
        <ele>137</ele>
        <time>2022-04-19T13:15:50.105Z</time>
      </trkpt>
      <trkpt lat="48.35553" lon="2.73781">
        <ele>137</ele>
        <time>2022-04-19T13:15:55.108Z</time>
      </trkpt>
      <trkpt lat="48.35553" lon="2.73782">
        <ele>137</ele>
        <time>2022-04-19T13:16:00.110Z</time>
      </trkpt>
      <trkpt lat="48.35554" lon="2.73783">
        <ele>137</ele>
        <time>2022-04-19T13:16:05.115Z</time>
      </trkpt>
      <trkpt lat="48.35558" lon="2.73788">
        <ele>137</ele>
        <time>2022-04-19T13:16:09.118Z</time>
      </trkpt>
      <trkpt lat="48.35563" lon="2.73796">
        <ele>138</ele>
        <time>2022-04-19T13:16:14.106Z</time>
      </trkpt>
      <trkpt lat="48.35569" lon="2.73799">
        <ele>138</ele>
        <time>2022-04-19T13:16:18.115Z</time>
      </trkpt>
      <trkpt lat="48.35575" lon="2.73803">
        <ele>138</ele>
        <time>2022-04-19T13:16:23.109Z</time>
      </trkpt>
      <trkpt lat="48.3558" lon="2.73809">
        <ele>138</ele>
        <time>2022-04-19T13:16:27.117Z</time>
      </trkpt>
      <trkpt lat="48.35586" lon="2.73813">
        <ele>138</ele>
        <time>2022-04-19T13:16:32.103Z</time>
      </trkpt>
      <trkpt lat="48.35591" lon="2.73818">
        <ele>138</ele>
        <time>2022-04-19T13:16:36.114Z</time>
      </trkpt>
      <trkpt lat="48.35598" lon="2.73821">
        <ele>137</ele>
        <time>2022-04-19T13:16:41.111Z</time>
      </trkpt>
      <trkpt lat="48.35604" lon="2.73814">
        <ele>137</ele>
        <time>2022-04-19T13:16:46.115Z</time>
      </trkpt>
      <trkpt lat="48.35607" lon="2.73807">
        <ele>137</ele>
        <time>2022-04-19T13:16:50.107Z</time>
      </trkpt>
      <trkpt lat="48.3561" lon="2.738">
        <ele>137</ele>
        <time>2022-04-19T13:16:54.122Z</time>
      </trkpt>
      <trkpt lat="48.35613" lon="2.73793">
        <ele>137</ele>
        <time>2022-04-19T13:16:58.109Z</time>
      </trkpt>
      <trkpt lat="48.35617" lon="2.73785">
        <ele>137</ele>
        <time>2022-04-19T13:17:03.113Z</time>
      </trkpt>
      <trkpt lat="48.35621" lon="2.73778">
        <ele>137</ele>
        <time>2022-04-19T13:17:07.122Z</time>
      </trkpt>
      <trkpt lat="48.35625" lon="2.73771">
        <ele>137</ele>
        <time>2022-04-19T13:17:12.119Z</time>
      </trkpt>
      <trkpt lat="48.3563" lon="2.73763">
        <ele>136</ele>
        <time>2022-04-19T13:17:17.117Z</time>
      </trkpt>
      <trkpt lat="48.35636" lon="2.73757">
        <ele>136</ele>
        <time>2022-04-19T13:17:22.110Z</time>
      </trkpt>
      <trkpt lat="48.3564" lon="2.73752">
        <ele>136</ele>
        <time>2022-04-19T13:17:26.228Z</time>
      </trkpt>
      <trkpt lat="48.35645" lon="2.73744">
        <ele>136</ele>
        <time>2022-04-19T13:17:31.115Z</time>
      </trkpt>
      <trkpt lat="48.3565" lon="2.73738">
        <ele>136</ele>
        <time>2022-04-19T13:17:35.130Z</time>
      </trkpt>
      <trkpt lat="48.35655" lon="2.73729">
        <ele>135</ele>
        <time>2022-04-19T13:17:40.123Z</time>
      </trkpt>
      <trkpt lat="48.3566" lon="2.73724">
        <ele>135</ele>
        <time>2022-04-19T13:17:45.117Z</time>
      </trkpt>
      <trkpt lat="48.35666" lon="2.73716">
        <ele>135</ele>
        <time>2022-04-19T13:17:50.109Z</time>
      </trkpt>
      <trkpt lat="48.35672" lon="2.7371">
        <ele>135</ele>
        <time>2022-04-19T13:17:55.117Z</time>
      </trkpt>
      <trkpt lat="48.35678" lon="2.73703">
        <ele>135</ele>
        <time>2022-04-19T13:18:00.127Z</time>
      </trkpt>
      <trkpt lat="48.35682" lon="2.73694">
        <ele>135</ele>
        <time>2022-04-19T13:18:05.117Z</time>
      </trkpt>
      <trkpt lat="48.35683" lon="2.73683">
        <ele>135</ele>
        <time>2022-04-19T13:18:10.108Z</time>
      </trkpt>
      <trkpt lat="48.35682" lon="2.73675">
        <ele>136</ele>
        <time>2022-04-19T13:18:14.113Z</time>
      </trkpt>
      <trkpt lat="48.35681" lon="2.73668">
        <ele>136</ele>
        <time>2022-04-19T13:18:18.110Z</time>
      </trkpt>
      <trkpt lat="48.3568" lon="2.73658">
        <ele>136</ele>
        <time>2022-04-19T13:18:23.111Z</time>
      </trkpt>
      <trkpt lat="48.35677" lon="2.73649">
        <ele>135</ele>
        <time>2022-04-19T13:18:28.113Z</time>
      </trkpt>
      <trkpt lat="48.35673" lon="2.73641">
        <ele>135</ele>
        <time>2022-04-19T13:18:33.118Z</time>
      </trkpt>
      <trkpt lat="48.3567" lon="2.73636">
        <ele>135</ele>
        <time>2022-04-19T13:18:37.111Z</time>
      </trkpt>
      <trkpt lat="48.35667" lon="2.73627">
        <ele>135</ele>
        <time>2022-04-19T13:18:42.125Z</time>
      </trkpt>
      <trkpt lat="48.35666" lon="2.73618">
        <ele>134</ele>
        <time>2022-04-19T13:18:47.110Z</time>
      </trkpt>
      <trkpt lat="48.35663" lon="2.73611">
        <ele>134</ele>
        <time>2022-04-19T13:18:52.112Z</time>
      </trkpt>
      <trkpt lat="48.35662" lon="2.73604">
        <ele>134</ele>
        <time>2022-04-19T13:18:56.116Z</time>
      </trkpt>
      <trkpt lat="48.35658" lon="2.73599">
        <ele>134</ele>
        <time>2022-04-19T13:19:01.118Z</time>
      </trkpt>
      <trkpt lat="48.35652" lon="2.73596">
        <ele>133</ele>
        <time>2022-04-19T13:19:06.112Z</time>
      </trkpt>
      <trkpt lat="48.35651" lon="2.73588">
        <ele>133</ele>
        <time>2022-04-19T13:19:10.115Z</time>
      </trkpt>
      <trkpt lat="48.35649" lon="2.7358">
        <ele>133</ele>
        <time>2022-04-19T13:19:15.121Z</time>
      </trkpt>
      <trkpt lat="48.35646" lon="2.73573">
        <ele>133</ele>
        <time>2022-04-19T13:19:20.106Z</time>
      </trkpt>
      <trkpt lat="48.35644" lon="2.73563">
        <ele>132</ele>
        <time>2022-04-19T13:19:25.111Z</time>
      </trkpt>
      <trkpt lat="48.35643" lon="2.73553">
        <ele>132</ele>
        <time>2022-04-19T13:19:30.111Z</time>
      </trkpt>
      <trkpt lat="48.35643" lon="2.73544">
        <ele>132</ele>
        <time>2022-04-19T13:19:34.114Z</time>
      </trkpt>
      <trkpt lat="48.35643" lon="2.73534">
        <ele>130</ele>
        <time>2022-04-19T13:19:39.116Z</time>
      </trkpt>
      <trkpt lat="48.35642" lon="2.73526">
        <ele>130</ele>
        <time>2022-04-19T13:19:43.123Z</time>
      </trkpt>
      <trkpt lat="48.3564" lon="2.73516">
        <ele>130</ele>
        <time>2022-04-19T13:19:48.103Z</time>
      </trkpt>
      <trkpt lat="48.35637" lon="2.73508">
        <ele>129</ele>
        <time>2022-04-19T13:19:52.113Z</time>
      </trkpt>
      <trkpt lat="48.35635" lon="2.73498">
        <ele>129</ele>
        <time>2022-04-19T13:19:57.107Z</time>
      </trkpt>
      <trkpt lat="48.35632" lon="2.73488">
        <ele>129</ele>
        <time>2022-04-19T13:20:02.121Z</time>
      </trkpt>
      <trkpt lat="48.3563" lon="2.73477">
        <ele>129</ele>
        <time>2022-04-19T13:20:07.114Z</time>
      </trkpt>
      <trkpt lat="48.35627" lon="2.73469">
        <ele>129</ele>
        <time>2022-04-19T13:20:11.115Z</time>
      </trkpt>
      <trkpt lat="48.35621" lon="2.73461">
        <ele>129</ele>
        <time>2022-04-19T13:20:16.116Z</time>
      </trkpt>
      <trkpt lat="48.35616" lon="2.73456">
        <ele>130</ele>
        <time>2022-04-19T13:20:20.115Z</time>
      </trkpt>
      <trkpt lat="48.35609" lon="2.73453">
        <ele>130</ele>
        <time>2022-04-19T13:20:25.117Z</time>
      </trkpt>
      <trkpt lat="48.356" lon="2.73454">
        <ele>130</ele>
        <time>2022-04-19T13:20:30.110Z</time>
      </trkpt>
      <trkpt lat="48.35594" lon="2.73454">
        <ele>130</ele>
        <time>2022-04-19T13:20:34.131Z</time>
      </trkpt>
      <trkpt lat="48.35587" lon="2.73453">
        <ele>130</ele>
        <time>2022-04-19T13:20:39.120Z</time>
      </trkpt>
      <trkpt lat="48.35582" lon="2.73451">
        <ele>130</ele>
        <time>2022-04-19T13:20:43.118Z</time>
      </trkpt>
      <trkpt lat="48.35584" lon="2.73442">
        <ele>130</ele>
        <time>2022-04-19T13:20:48.107Z</time>
      </trkpt>
      <trkpt lat="48.35588" lon="2.73437">
        <ele>130</ele>
        <time>2022-04-19T13:20:52.108Z</time>
      </trkpt>
      <trkpt lat="48.35591" lon="2.73431">
        <ele>130</ele>
        <time>2022-04-19T13:20:57.117Z</time>
      </trkpt>
      <trkpt lat="48.35593" lon="2.73427">
        <ele>133</ele>
        <time>2022-04-19T13:21:02.107Z</time>
      </trkpt>
      <trkpt lat="48.35598" lon="2.73425">
        <ele>132</ele>
        <time>2022-04-19T13:21:07.113Z</time>
      </trkpt>
      <trkpt lat="48.35602" lon="2.7342">
        <ele>132</ele>
        <time>2022-04-19T13:21:11.118Z</time>
      </trkpt>
      <trkpt lat="48.35604" lon="2.73412">
        <ele>132</ele>
        <time>2022-04-19T13:21:16.110Z</time>
      </trkpt>
      <trkpt lat="48.35606" lon="2.73405">
        <ele>132</ele>
        <time>2022-04-19T13:21:20.113Z</time>
      </trkpt>
      <trkpt lat="48.35605" lon="2.73402">
        <ele>134</ele>
        <time>2022-04-19T13:21:25.106Z</time>
      </trkpt>
      <trkpt lat="48.35598" lon="2.73397">
        <ele>134</ele>
        <time>2022-04-19T13:21:43.107Z</time>
      </trkpt>
      <trkpt lat="48.35601" lon="2.73391">
        <ele>134</ele>
        <time>2022-04-19T13:21:48.111Z</time>
      </trkpt>
      <trkpt lat="48.35604" lon="2.73386">
        <ele>134</ele>
        <time>2022-04-19T13:21:52.111Z</time>
      </trkpt>
      <trkpt lat="48.35606" lon="2.7338">
        <ele>134</ele>
        <time>2022-04-19T13:21:56.126Z</time>
      </trkpt>
      <trkpt lat="48.35604" lon="2.73373">
        <ele>135</ele>
        <time>2022-04-19T13:22:01.109Z</time>
      </trkpt>
      <trkpt lat="48.356" lon="2.73374">
        <ele>135</ele>
        <time>2022-04-19T13:22:05.111Z</time>
      </trkpt>
      <trkpt lat="48.35597" lon="2.73379">
        <ele>136</ele>
        <time>2022-04-19T13:22:10.110Z</time>
      </trkpt>
      <trkpt lat="48.35591" lon="2.73383">
        <ele>136</ele>
        <time>2022-04-19T13:22:15.128Z</time>
      </trkpt>
      <trkpt lat="48.35586" lon="2.73382">
        <ele>136</ele>
        <time>2022-04-19T13:22:20.113Z</time>
      </trkpt>
      <trkpt lat="48.35582" lon="2.73382">
        <ele>136</ele>
        <time>2022-04-19T13:22:24.110Z</time>
      </trkpt>
      <trkpt lat="48.35576" lon="2.7338">
        <ele>136</ele>
        <time>2022-04-19T13:22:29.107Z</time>
      </trkpt>
      <trkpt lat="48.3557" lon="2.73382">
        <ele>136</ele>
        <time>2022-04-19T13:22:34.115Z</time>
      </trkpt>
      <trkpt lat="48.35564" lon="2.73378">
        <ele>133</ele>
        <time>2022-04-19T13:22:39.110Z</time>
      </trkpt>
      <trkpt lat="48.35558" lon="2.73375">
        <ele>133</ele>
        <time>2022-04-19T13:22:44.111Z</time>
      </trkpt>
      <trkpt lat="48.35553" lon="2.73372">
        <ele>135</ele>
        <time>2022-04-19T13:22:48.123Z</time>
      </trkpt>
      <trkpt lat="48.35547" lon="2.73367">
        <ele>135</ele>
        <time>2022-04-19T13:22:53.115Z</time>
      </trkpt>
      <trkpt lat="48.35543" lon="2.7336">
        <ele>135</ele>
        <time>2022-04-19T13:22:58.114Z</time>
      </trkpt>
      <trkpt lat="48.3554" lon="2.73352">
        <ele>133</ele>
        <time>2022-04-19T13:23:03.113Z</time>
      </trkpt>
      <trkpt lat="48.3554" lon="2.73343">
        <ele>132</ele>
        <time>2022-04-19T13:23:08.104Z</time>
      </trkpt>
      <trkpt lat="48.35543" lon="2.73336">
        <ele>136</ele>
        <time>2022-04-19T13:23:13.114Z</time>
      </trkpt>
      <trkpt lat="48.35544" lon="2.73327">
        <ele>136</ele>
        <time>2022-04-19T13:23:18.100Z</time>
      </trkpt>
      <trkpt lat="48.35541" lon="2.73324">
        <ele>132</ele>
        <time>2022-04-19T13:23:42.101Z</time>
      </trkpt>
      <trkpt lat="48.35544" lon="2.73328">
        <ele>136</ele>
        <time>2022-04-19T13:23:46.110Z</time>
      </trkpt>
      <trkpt lat="48.35551" lon="2.73329">
        <ele>136</ele>
        <time>2022-04-19T13:23:51.107Z</time>
      </trkpt>
      <trkpt lat="48.35558" lon="2.73326">
        <ele>136</ele>
        <time>2022-04-19T13:23:56.112Z</time>
      </trkpt>
      <trkpt lat="48.35562" lon="2.73321">
        <ele>136</ele>
        <time>2022-04-19T13:24:00.110Z</time>
      </trkpt>
      <trkpt lat="48.35562" lon="2.73311">
        <ele>136</ele>
        <time>2022-04-19T13:24:05.115Z</time>
      </trkpt>
      <trkpt lat="48.35562" lon="2.73301">
        <ele>136</ele>
        <time>2022-04-19T13:24:10.106Z</time>
      </trkpt>
      <trkpt lat="48.35561" lon="2.73292">
        <ele>136</ele>
        <time>2022-04-19T13:24:14.113Z</time>
      </trkpt>
      <trkpt lat="48.35559" lon="2.73284">
        <ele>136</ele>
        <time>2022-04-19T13:24:18.115Z</time>
      </trkpt>
      <trkpt lat="48.35558" lon="2.73277">
        <ele>136</ele>
        <time>2022-04-19T13:24:22.126Z</time>
      </trkpt>
      <trkpt lat="48.35554" lon="2.73269">
        <ele>136</ele>
        <time>2022-04-19T13:24:27.112Z</time>
      </trkpt>
      <trkpt lat="48.3555" lon="2.73263">
        <ele>135</ele>
        <time>2022-04-19T13:24:32.107Z</time>
      </trkpt>
      <trkpt lat="48.3555" lon="2.73262">
        <ele>135</ele>
        <time>2022-04-19T13:24:37.109Z</time>
      </trkpt>
      <trkpt lat="48.35545" lon="2.7325">
        <ele>135</ele>
        <time>2022-04-19T13:25:10.107Z</time>
      </trkpt>
      <trkpt lat="48.35549" lon="2.73245">
        <ele>135</ele>
        <time>2022-04-19T13:25:15.104Z</time>
      </trkpt>
      <trkpt lat="48.35552" lon="2.73239">
        <ele>135</ele>
        <time>2022-04-19T13:25:19.105Z</time>
      </trkpt>
      <trkpt lat="48.35557" lon="2.73233">
        <ele>134</ele>
        <time>2022-04-19T13:25:24.123Z</time>
      </trkpt>
      <trkpt lat="48.3556" lon="2.73226">
        <ele>134</ele>
        <time>2022-04-19T13:25:29.105Z</time>
      </trkpt>
      <trkpt lat="48.35564" lon="2.73219">
        <ele>134</ele>
        <time>2022-04-19T13:25:34.112Z</time>
      </trkpt>
      <trkpt lat="48.3557" lon="2.73212">
        <ele>139</ele>
        <time>2022-04-19T13:25:39.113Z</time>
      </trkpt>
      <trkpt lat="48.35573" lon="2.73205">
        <ele>136</ele>
        <time>2022-04-19T13:25:43.105Z</time>
      </trkpt>
      <trkpt lat="48.35572" lon="2.73195">
        <ele>136</ele>
        <time>2022-04-19T13:25:48.114Z</time>
      </trkpt>
      <trkpt lat="48.35574" lon="2.73187">
        <ele>136</ele>
        <time>2022-04-19T13:25:53.109Z</time>
      </trkpt>
      <trkpt lat="48.35576" lon="2.73178">
        <ele>135</ele>
        <time>2022-04-19T13:25:58.111Z</time>
      </trkpt>
      <trkpt lat="48.35578" lon="2.73168">
        <ele>135</ele>
        <time>2022-04-19T13:26:03.106Z</time>
      </trkpt>
      <trkpt lat="48.35582" lon="2.73159">
        <ele>135</ele>
        <time>2022-04-19T13:26:08.101Z</time>
      </trkpt>
      <trkpt lat="48.35587" lon="2.73151">
        <ele>133</ele>
        <time>2022-04-19T13:26:13.121Z</time>
      </trkpt>
      <trkpt lat="48.35591" lon="2.73146">
        <ele>133</ele>
        <time>2022-04-19T13:26:17.125Z</time>
      </trkpt>
      <trkpt lat="48.35595" lon="2.73136">
        <ele>133</ele>
        <time>2022-04-19T13:26:22.107Z</time>
      </trkpt>
      <trkpt lat="48.35593" lon="2.73125">
        <ele>132</ele>
        <time>2022-04-19T13:26:27.121Z</time>
      </trkpt>
      <trkpt lat="48.35589" lon="2.73117">
        <ele>132</ele>
        <time>2022-04-19T13:26:32.106Z</time>
      </trkpt>
      <trkpt lat="48.35585" lon="2.73111">
        <ele>132</ele>
        <time>2022-04-19T13:26:36.106Z</time>
      </trkpt>
      <trkpt lat="48.35583" lon="2.73102">
        <ele>132</ele>
        <time>2022-04-19T13:26:41.115Z</time>
      </trkpt>
      <trkpt lat="48.35587" lon="2.73096">
        <ele>129</ele>
        <time>2022-04-19T13:26:46.111Z</time>
      </trkpt>
      <trkpt lat="48.35592" lon="2.73095">
        <ele>129</ele>
        <time>2022-04-19T13:26:50.115Z</time>
      </trkpt>
      <trkpt lat="48.35598" lon="2.73097">
        <ele>133</ele>
        <time>2022-04-19T13:26:55.114Z</time>
      </trkpt>
      <trkpt lat="48.35604" lon="2.73098">
        <ele>134</ele>
        <time>2022-04-19T13:27:00.114Z</time>
      </trkpt>
      <trkpt lat="48.3561" lon="2.73096">
        <ele>133</ele>
        <time>2022-04-19T13:27:05.112Z</time>
      </trkpt>
      <trkpt lat="48.35613" lon="2.731">
        <ele>134</ele>
        <time>2022-04-19T13:27:09.111Z</time>
      </trkpt>
      <trkpt lat="48.35618" lon="2.73106">
        <ele>134</ele>
        <time>2022-04-19T13:27:14.114Z</time>
      </trkpt>
      <trkpt lat="48.35625" lon="2.7311">
        <ele>134</ele>
        <time>2022-04-19T13:27:19.120Z</time>
      </trkpt>
      <trkpt lat="48.35632" lon="2.73114">
        <ele>135</ele>
        <time>2022-04-19T13:27:24.113Z</time>
      </trkpt>
      <trkpt lat="48.35637" lon="2.73113">
        <ele>135</ele>
        <time>2022-04-19T13:27:28.118Z</time>
      </trkpt>
      <trkpt lat="48.35643" lon="2.73109">
        <ele>135</ele>
        <time>2022-04-19T13:27:33.115Z</time>
      </trkpt>
      <trkpt lat="48.35648" lon="2.73103">
        <ele>135</ele>
        <time>2022-04-19T13:27:37.116Z</time>
      </trkpt>
      <trkpt lat="48.35652" lon="2.73099">
        <ele>135</ele>
        <time>2022-04-19T13:27:41.112Z</time>
      </trkpt>
      <trkpt lat="48.35655" lon="2.73089">
        <ele>135</ele>
        <time>2022-04-19T13:27:46.112Z</time>
      </trkpt>
      <trkpt lat="48.35657" lon="2.73081">
        <ele>135</ele>
        <time>2022-04-19T13:27:50.110Z</time>
      </trkpt>
      <trkpt lat="48.35659" lon="2.73074">
        <ele>135</ele>
        <time>2022-04-19T13:27:54.114Z</time>
      </trkpt>
      <trkpt lat="48.3566" lon="2.73065">
        <ele>135</ele>
        <time>2022-04-19T13:27:58.126Z</time>
      </trkpt>
      <trkpt lat="48.35663" lon="2.73058">
        <ele>135</ele>
        <time>2022-04-19T13:28:03.111Z</time>
      </trkpt>
      <trkpt lat="48.35668" lon="2.73054">
        <ele>135</ele>
        <time>2022-04-19T13:28:08.106Z</time>
      </trkpt>
      <trkpt lat="48.35672" lon="2.73051">
        <ele>135</ele>
        <time>2022-04-19T13:28:12.118Z</time>
      </trkpt>
      <trkpt lat="48.35678" lon="2.73048">
        <ele>135</ele>
        <time>2022-04-19T13:28:17.106Z</time>
      </trkpt>
      <trkpt lat="48.35686" lon="2.73045">
        <ele>135</ele>
        <time>2022-04-19T13:28:30.108Z</time>
      </trkpt>
      <trkpt lat="48.35688" lon="2.73041">
        <ele>135</ele>
        <time>2022-04-19T13:28:34.114Z</time>
      </trkpt>
      <trkpt lat="48.35694" lon="2.73038">
        <ele>135</ele>
        <time>2022-04-19T13:28:39.118Z</time>
      </trkpt>
      <trkpt lat="48.35698" lon="2.73036">
        <ele>135</ele>
        <time>2022-04-19T13:28:43.119Z</time>
      </trkpt>
      <trkpt lat="48.35701" lon="2.73032">
        <ele>135</ele>
        <time>2022-04-19T13:28:48.114Z</time>
      </trkpt>
      <trkpt lat="48.35706" lon="2.73033">
        <ele>135</ele>
        <time>2022-04-19T13:28:53.103Z</time>
      </trkpt>
      <trkpt lat="48.35707" lon="2.73038">
        <ele>135</ele>
        <time>2022-04-19T13:28:57.108Z</time>
      </trkpt>
      <trkpt lat="48.35708" lon="2.73044">
        <ele>135</ele>
        <time>2022-04-19T13:29:02.107Z</time>
      </trkpt>
      <trkpt lat="48.35706" lon="2.7305">
        <ele>135</ele>
        <time>2022-04-19T13:29:07.114Z</time>
      </trkpt>
      <trkpt lat="48.35706" lon="2.73057">
        <ele>135</ele>
        <time>2022-04-19T13:29:11.120Z</time>
      </trkpt>
      <trkpt lat="48.35703" lon="2.73063">
        <ele>135</ele>
        <time>2022-04-19T13:29:16.113Z</time>
      </trkpt>
      <trkpt lat="48.357" lon="2.73067">
        <ele>135</ele>
        <time>2022-04-19T13:29:20.105Z</time>
      </trkpt>
      <trkpt lat="48.35696" lon="2.73072">
        <ele>134</ele>
        <time>2022-04-19T13:29:25.113Z</time>
      </trkpt>
      <trkpt lat="48.35692" lon="2.73076">
        <ele>134</ele>
        <time>2022-04-19T13:29:29.115Z</time>
      </trkpt>
      <trkpt lat="48.35687" lon="2.73077">
        <ele>134</ele>
        <time>2022-04-19T13:29:34.107Z</time>
      </trkpt>
      <trkpt lat="48.35687" lon="2.73082">
        <ele>134</ele>
        <time>2022-04-19T13:29:39.108Z</time>
      </trkpt>
      <trkpt lat="48.35686" lon="2.73084">
        <ele>134</ele>
        <time>2022-04-19T13:29:43.108Z</time>
      </trkpt>
      <trkpt lat="48.35685" lon="2.7309">
        <ele>134</ele>
        <time>2022-04-19T13:29:48.113Z</time>
      </trkpt>
      <trkpt lat="48.35687" lon="2.73101">
        <ele>134</ele>
        <time>2022-04-19T13:30:34.107Z</time>
      </trkpt>
      <trkpt lat="48.35687" lon="2.73102">
        <ele>134</ele>
        <time>2022-04-19T13:30:39.099Z</time>
      </trkpt>
      <trkpt lat="48.35688" lon="2.73102">
        <ele>134</ele>
        <time>2022-04-19T13:30:44.112Z</time>
      </trkpt>
      <trkpt lat="48.3569" lon="2.73099">
        <ele>134</ele>
        <time>2022-04-19T13:30:48.105Z</time>
      </trkpt>
      <trkpt lat="48.35695" lon="2.73094">
        <ele>134</ele>
        <time>2022-04-19T13:30:53.112Z</time>
      </trkpt>
      <trkpt lat="48.357" lon="2.73094">
        <ele>134</ele>
        <time>2022-04-19T13:30:58.106Z</time>
      </trkpt>
      <trkpt lat="48.35705" lon="2.73095">
        <ele>134</ele>
        <time>2022-04-19T13:31:02.122Z</time>
      </trkpt>
      <trkpt lat="48.3571" lon="2.73099">
        <ele>129</ele>
        <time>2022-04-19T13:31:07.108Z</time>
      </trkpt>
      <trkpt lat="48.35712" lon="2.73106">
        <ele>129</ele>
        <time>2022-04-19T13:31:12.112Z</time>
      </trkpt>
      <trkpt lat="48.35718" lon="2.73109">
        <ele>129</ele>
        <time>2022-04-19T13:31:16.115Z</time>
      </trkpt>
      <trkpt lat="48.35721" lon="2.73117">
        <ele>129</ele>
        <time>2022-04-19T13:31:21.110Z</time>
      </trkpt>
      <trkpt lat="48.35721" lon="2.73126">
        <ele>128</ele>
        <time>2022-04-19T13:31:26.097Z</time>
      </trkpt>
      <trkpt lat="48.35721" lon="2.73134">
        <ele>128</ele>
        <time>2022-04-19T13:31:31.109Z</time>
      </trkpt>
      <trkpt lat="48.35721" lon="2.73139">
        <ele>128</ele>
        <time>2022-04-19T13:31:36.112Z</time>
      </trkpt>
      <trkpt lat="48.35721" lon="2.73142">
        <ele>128</ele>
        <time>2022-04-19T13:31:41.113Z</time>
      </trkpt>
      <trkpt lat="48.3572" lon="2.73151">
        <ele>128</ele>
        <time>2022-04-19T13:31:46.109Z</time>
      </trkpt>
      <trkpt lat="48.35718" lon="2.73158">
        <ele>128</ele>
        <time>2022-04-19T13:31:51.110Z</time>
      </trkpt>
      <trkpt lat="48.35723" lon="2.73168">
        <ele>128</ele>
        <time>2022-04-19T13:32:14.108Z</time>
      </trkpt>
      <trkpt lat="48.35728" lon="2.73171">
        <ele>128</ele>
        <time>2022-04-19T13:32:18.109Z</time>
      </trkpt>
      <trkpt lat="48.35732" lon="2.73174">
        <ele>128</ele>
        <time>2022-04-19T13:32:23.109Z</time>
      </trkpt>
      <trkpt lat="48.35734" lon="2.73176">
        <ele>128</ele>
        <time>2022-04-19T13:32:27.111Z</time>
      </trkpt>
      <trkpt lat="48.35734" lon="2.73181">
        <ele>128</ele>
        <time>2022-04-19T13:32:31.124Z</time>
      </trkpt>
      <trkpt lat="48.35737" lon="2.73184">
        <ele>119</ele>
        <time>2022-04-19T13:32:36.112Z</time>
      </trkpt>
      <trkpt lat="48.35737" lon="2.7319">
        <ele>119</ele>
        <time>2022-04-19T13:32:41.120Z</time>
      </trkpt>
      <trkpt lat="48.3574" lon="2.73189">
        <ele>119</ele>
        <time>2022-04-19T13:32:45.120Z</time>
      </trkpt>
      <trkpt lat="48.35736" lon="2.73198">
        <ele>119</ele>
        <time>2022-04-19T13:32:50.107Z</time>
      </trkpt>
      <trkpt lat="48.35734" lon="2.73207">
        <ele>128</ele>
        <time>2022-04-19T13:32:55.115Z</time>
      </trkpt>
      <trkpt lat="48.3574" lon="2.73214">
        <ele>118</ele>
        <time>2022-04-19T13:33:00.106Z</time>
      </trkpt>
      <trkpt lat="48.35745" lon="2.73221">
        <ele>118</ele>
        <time>2022-04-19T13:33:05.116Z</time>
      </trkpt>
      <trkpt lat="48.35749" lon="2.73228">
        <ele>118</ele>
        <time>2022-04-19T13:33:10.103Z</time>
      </trkpt>
      <trkpt lat="48.35754" lon="2.7323">
        <ele>118</ele>
        <time>2022-04-19T13:33:14.108Z</time>
      </trkpt>
      <trkpt lat="48.3576" lon="2.73231">
        <ele>118</ele>
        <time>2022-04-19T13:33:19.106Z</time>
      </trkpt>
      <trkpt lat="48.35767" lon="2.7323">
        <ele>111</ele>
        <time>2022-04-19T13:33:24.107Z</time>
      </trkpt>
      <trkpt lat="48.35771" lon="2.7323">
        <ele>111</ele>
        <time>2022-04-19T13:33:28.116Z</time>
      </trkpt>
      <trkpt lat="48.35777" lon="2.7323">
        <ele>111</ele>
        <time>2022-04-19T13:33:33.116Z</time>
      </trkpt>
      <trkpt lat="48.35782" lon="2.73234">
        <ele>111</ele>
        <time>2022-04-19T13:33:38.114Z</time>
      </trkpt>
      <trkpt lat="48.35785" lon="2.7324">
        <ele>111</ele>
        <time>2022-04-19T13:33:42.123Z</time>
      </trkpt>
      <trkpt lat="48.3579" lon="2.7324">
        <ele>111</ele>
        <time>2022-04-19T13:33:47.112Z</time>
      </trkpt>
      <trkpt lat="48.35797" lon="2.73244">
        <ele>105</ele>
        <time>2022-04-19T13:33:56.107Z</time>
      </trkpt>
      <trkpt lat="48.35797" lon="2.73243">
        <ele>105</ele>
        <time>2022-04-19T13:34:01.108Z</time>
      </trkpt>
      <trkpt lat="48.35797" lon="2.73244">
        <ele>105</ele>
        <time>2022-04-19T13:34:06.121Z</time>
      </trkpt>
      <trkpt lat="48.35801" lon="2.73246">
        <ele>105</ele>
        <time>2022-04-19T13:34:10.127Z</time>
      </trkpt>
      <trkpt lat="48.35805" lon="2.73244">
        <ele>105</ele>
        <time>2022-04-19T13:34:15.100Z</time>
      </trkpt>
      <trkpt lat="48.35805" lon="2.73244">
        <ele>105</ele>
        <time>2022-04-19T13:34:19.105Z</time>
      </trkpt>
      <trkpt lat="48.35809" lon="2.73246">
        <ele>105</ele>
        <time>2022-04-19T13:34:23.113Z</time>
      </trkpt>
      <trkpt lat="48.35813" lon="2.73248">
        <ele>105</ele>
        <time>2022-04-19T13:34:27.133Z</time>
      </trkpt>
      <trkpt lat="48.35819" lon="2.73249">
        <ele>105</ele>
        <time>2022-04-19T13:34:32.115Z</time>
      </trkpt>
      <trkpt lat="48.35824" lon="2.73248">
        <ele>101</ele>
        <time>2022-04-19T13:34:37.114Z</time>
      </trkpt>
      <trkpt lat="48.35828" lon="2.73249">
        <ele>101</ele>
        <time>2022-04-19T13:34:41.114Z</time>
      </trkpt>
      <trkpt lat="48.35832" lon="2.73246">
        <ele>101</ele>
        <time>2022-04-19T13:34:46.108Z</time>
      </trkpt>
      <trkpt lat="48.35836" lon="2.73247">
        <ele>101</ele>
        <time>2022-04-19T13:34:50.104Z</time>
      </trkpt>
      <trkpt lat="48.35838" lon="2.7325">
        <ele>101</ele>
        <time>2022-04-19T13:34:55.121Z</time>
      </trkpt>
      <trkpt lat="48.35841" lon="2.73255">
        <ele>101</ele>
        <time>2022-04-19T13:35:00.108Z</time>
      </trkpt>
      <trkpt lat="48.35845" lon="2.73252">
        <ele>101</ele>
        <time>2022-04-19T13:35:05.114Z</time>
      </trkpt>
      <trkpt lat="48.35847" lon="2.73244">
        <ele>101</ele>
        <time>2022-04-19T13:35:10.107Z</time>
      </trkpt>
      <trkpt lat="48.3585" lon="2.73244">
        <ele>99</ele>
        <time>2022-04-19T13:35:14.109Z</time>
      </trkpt>
      <trkpt lat="48.35855" lon="2.73243">
        <ele>99</ele>
        <time>2022-04-19T13:35:18.117Z</time>
      </trkpt>
      <trkpt lat="48.3586" lon="2.73243">
        <ele>99</ele>
        <time>2022-04-19T13:35:22.114Z</time>
      </trkpt>
      <trkpt lat="48.35867" lon="2.73245">
        <ele>99</ele>
        <time>2022-04-19T13:35:27.112Z</time>
      </trkpt>
      <trkpt lat="48.35873" lon="2.73244">
        <ele>99</ele>
        <time>2022-04-19T13:35:32.110Z</time>
      </trkpt>
      <trkpt lat="48.35876" lon="2.73241">
        <ele>98</ele>
        <time>2022-04-19T13:35:37.103Z</time>
      </trkpt>
      <trkpt lat="48.35876" lon="2.73239">
        <ele>98</ele>
        <time>2022-04-19T13:35:42.108Z</time>
      </trkpt>
      <trkpt lat="48.35876" lon="2.73238">
        <ele>98</ele>
        <time>2022-04-19T13:35:46.105Z</time>
      </trkpt>
      <trkpt lat="48.35875" lon="2.73231">
        <ele>98</ele>
        <time>2022-04-19T13:35:51.107Z</time>
      </trkpt>
      <trkpt lat="48.35874" lon="2.73225">
        <ele>98</ele>
        <time>2022-04-19T13:35:55.105Z</time>
      </trkpt>
      <trkpt lat="48.3587" lon="2.73217">
        <ele>98</ele>
        <time>2022-04-19T13:36:00.102Z</time>
      </trkpt>
      <trkpt lat="48.35874" lon="2.73202">
        <ele>97</ele>
        <time>2022-04-19T13:36:05.103Z</time>
      </trkpt>
      <trkpt lat="48.35874" lon="2.73192">
        <ele>97</ele>
        <time>2022-04-19T13:36:09.106Z</time>
      </trkpt>
      <trkpt lat="48.35873" lon="2.73184">
        <ele>97</ele>
        <time>2022-04-19T13:36:13.116Z</time>
      </trkpt>
      <trkpt lat="48.35872" lon="2.73173">
        <ele>96</ele>
        <time>2022-04-19T13:36:18.104Z</time>
      </trkpt>
      <trkpt lat="48.35871" lon="2.73164">
        <ele>96</ele>
        <time>2022-04-19T13:36:22.106Z</time>
      </trkpt>
      <trkpt lat="48.35869" lon="2.73153">
        <ele>95</ele>
        <time>2022-04-19T13:36:27.106Z</time>
      </trkpt>
      <trkpt lat="48.35868" lon="2.73142">
        <ele>95</ele>
        <time>2022-04-19T13:36:32.102Z</time>
      </trkpt>
      <trkpt lat="48.35867" lon="2.73132">
        <ele>95</ele>
        <time>2022-04-19T13:36:37.104Z</time>
      </trkpt>
      <trkpt lat="48.35867" lon="2.73121">
        <ele>95</ele>
        <time>2022-04-19T13:36:42.104Z</time>
      </trkpt>
      <trkpt lat="48.35866" lon="2.73113">
        <ele>95</ele>
        <time>2022-04-19T13:36:46.103Z</time>
      </trkpt>
      <trkpt lat="48.35865" lon="2.73102">
        <ele>95</ele>
        <time>2022-04-19T13:36:51.105Z</time>
      </trkpt>
      <trkpt lat="48.35864" lon="2.73093">
        <ele>96</ele>
        <time>2022-04-19T13:36:55.106Z</time>
      </trkpt>
      <trkpt lat="48.35863" lon="2.73083">
        <ele>96</ele>
        <time>2022-04-19T13:37:00.104Z</time>
      </trkpt>
      <trkpt lat="48.35861" lon="2.73073">
        <ele>96</ele>
        <time>2022-04-19T13:37:05.108Z</time>
      </trkpt>
      <trkpt lat="48.35862" lon="2.73064">
        <ele>97</ele>
        <time>2022-04-19T13:37:09.110Z</time>
      </trkpt>
      <trkpt lat="48.35862" lon="2.73052">
        <ele>97</ele>
        <time>2022-04-19T13:37:14.115Z</time>
      </trkpt>
      <trkpt lat="48.35862" lon="2.73041">
        <ele>97</ele>
        <time>2022-04-19T13:37:19.105Z</time>
      </trkpt>
      <trkpt lat="48.3586" lon="2.7303">
        <ele>97</ele>
        <time>2022-04-19T13:37:24.105Z</time>
      </trkpt>
      <trkpt lat="48.35858" lon="2.73021">
        <ele>97</ele>
        <time>2022-04-19T13:37:28.112Z</time>
      </trkpt>
      <trkpt lat="48.35857" lon="2.73011">
        <ele>96</ele>
        <time>2022-04-19T13:37:33.110Z</time>
      </trkpt>
      <trkpt lat="48.35856" lon="2.73003">
        <ele>96</ele>
        <time>2022-04-19T13:37:37.106Z</time>
      </trkpt>
      <trkpt lat="48.35857" lon="2.7299">
        <ele>96</ele>
        <time>2022-04-19T13:37:42.104Z</time>
      </trkpt>
      <trkpt lat="48.35857" lon="2.72979">
        <ele>95</ele>
        <time>2022-04-19T13:37:47.109Z</time>
      </trkpt>
      <trkpt lat="48.35858" lon="2.72968">
        <ele>95</ele>
        <time>2022-04-19T13:37:51.104Z</time>
      </trkpt>
      <trkpt lat="48.35856" lon="2.72957">
        <ele>94</ele>
        <time>2022-04-19T13:37:56.113Z</time>
      </trkpt>
      <trkpt lat="48.35855" lon="2.72946">
        <ele>94</ele>
        <time>2022-04-19T13:38:01.112Z</time>
      </trkpt>
      <trkpt lat="48.35854" lon="2.72934">
        <ele>94</ele>
        <time>2022-04-19T13:38:06.111Z</time>
      </trkpt>
      <trkpt lat="48.35853" lon="2.72922">
        <ele>95</ele>
        <time>2022-04-19T13:38:11.113Z</time>
      </trkpt>
      <trkpt lat="48.35851" lon="2.72913">
        <ele>95</ele>
        <time>2022-04-19T13:38:15.105Z</time>
      </trkpt>
      <trkpt lat="48.3585" lon="2.72902">
        <ele>94</ele>
        <time>2022-04-19T13:38:20.108Z</time>
      </trkpt>
      <trkpt lat="48.35847" lon="2.72892">
        <ele>94</ele>
        <time>2022-04-19T13:38:25.110Z</time>
      </trkpt>
      <trkpt lat="48.35846" lon="2.72883">
        <ele>93</ele>
        <time>2022-04-19T13:38:29.105Z</time>
      </trkpt>
      <trkpt lat="48.35844" lon="2.72873">
        <ele>93</ele>
        <time>2022-04-19T13:38:34.111Z</time>
      </trkpt>
      <trkpt lat="48.35843" lon="2.72862">
        <ele>93</ele>
        <time>2022-04-19T13:38:39.114Z</time>
      </trkpt>
      <trkpt lat="48.35842" lon="2.72851">
        <ele>93</ele>
        <time>2022-04-19T13:38:44.109Z</time>
      </trkpt>
      <trkpt lat="48.35841" lon="2.72842">
        <ele>93</ele>
        <time>2022-04-19T13:38:48.110Z</time>
      </trkpt>
      <trkpt lat="48.35839" lon="2.72832">
        <ele>93</ele>
        <time>2022-04-19T13:38:53.114Z</time>
      </trkpt>
      <trkpt lat="48.35839" lon="2.72823">
        <ele>93</ele>
        <time>2022-04-19T13:38:57.114Z</time>
      </trkpt>
      <trkpt lat="48.35838" lon="2.72812">
        <ele>93</ele>
        <time>2022-04-19T13:39:02.115Z</time>
      </trkpt>
      <trkpt lat="48.35837" lon="2.728">
        <ele>93</ele>
        <time>2022-04-19T13:39:07.109Z</time>
      </trkpt>
      <trkpt lat="48.35835" lon="2.7279">
        <ele>93</ele>
        <time>2022-04-19T13:39:12.115Z</time>
      </trkpt>
      <trkpt lat="48.35834" lon="2.72782">
        <ele>93</ele>
        <time>2022-04-19T13:39:16.113Z</time>
      </trkpt>
      <trkpt lat="48.35833" lon="2.72771">
        <ele>93</ele>
        <time>2022-04-19T13:39:21.114Z</time>
      </trkpt>
      <trkpt lat="48.35833" lon="2.72759">
        <ele>94</ele>
        <time>2022-04-19T13:39:26.115Z</time>
      </trkpt>
      <trkpt lat="48.35833" lon="2.72748">
        <ele>94</ele>
        <time>2022-04-19T13:39:31.113Z</time>
      </trkpt>
      <trkpt lat="48.35831" lon="2.72736">
        <ele>95</ele>
        <time>2022-04-19T13:39:36.119Z</time>
      </trkpt>
      <trkpt lat="48.35831" lon="2.72726">
        <ele>95</ele>
        <time>2022-04-19T13:39:40.123Z</time>
      </trkpt>
      <trkpt lat="48.3583" lon="2.72715">
        <ele>95</ele>
        <time>2022-04-19T13:39:45.116Z</time>
      </trkpt>
      <trkpt lat="48.35831" lon="2.72705">
        <ele>94</ele>
        <time>2022-04-19T13:39:50.113Z</time>
      </trkpt>
      <trkpt lat="48.35831" lon="2.72693">
        <ele>94</ele>
        <time>2022-04-19T13:39:55.105Z</time>
      </trkpt>
      <trkpt lat="48.3583" lon="2.72682">
        <ele>94</ele>
        <time>2022-04-19T13:40:00.108Z</time>
      </trkpt>
      <trkpt lat="48.35829" lon="2.72671">
        <ele>94</ele>
        <time>2022-04-19T13:40:05.114Z</time>
      </trkpt>
      <trkpt lat="48.35828" lon="2.72662">
        <ele>94</ele>
        <time>2022-04-19T13:40:09.110Z</time>
      </trkpt>
      <trkpt lat="48.35828" lon="2.72651">
        <ele>94</ele>
        <time>2022-04-19T13:40:14.109Z</time>
      </trkpt>
      <trkpt lat="48.35828" lon="2.72642">
        <ele>94</ele>
        <time>2022-04-19T13:40:18.114Z</time>
      </trkpt>
      <trkpt lat="48.3583" lon="2.72635">
        <ele>94</ele>
        <time>2022-04-19T13:40:22.108Z</time>
      </trkpt>
      <trkpt lat="48.35834" lon="2.72628">
        <ele>94</ele>
        <time>2022-04-19T13:40:27.106Z</time>
      </trkpt>
      <trkpt lat="48.35838" lon="2.72626">
        <ele>94</ele>
        <time>2022-04-19T13:40:32.107Z</time>
      </trkpt>
      <trkpt lat="48.35843" lon="2.72626">
        <ele>94</ele>
        <time>2022-04-19T13:40:36.107Z</time>
      </trkpt>
      <trkpt lat="48.35848" lon="2.72628">
        <ele>93</ele>
        <time>2022-04-19T13:40:40.115Z</time>
      </trkpt>
      <trkpt lat="48.35855" lon="2.72633">
        <ele>93</ele>
        <time>2022-04-19T13:40:45.110Z</time>
      </trkpt>
      <trkpt lat="48.35862" lon="2.72634">
        <ele>93</ele>
        <time>2022-04-19T13:40:50.116Z</time>
      </trkpt>
      <trkpt lat="48.35869" lon="2.72636">
        <ele>93</ele>
        <time>2022-04-19T13:40:55.108Z</time>
      </trkpt>
      <trkpt lat="48.35875" lon="2.72635">
        <ele>94</ele>
        <time>2022-04-19T13:40:59.125Z</time>
      </trkpt>
      <trkpt lat="48.35883" lon="2.72636">
        <ele>94</ele>
        <time>2022-04-19T13:41:04.112Z</time>
      </trkpt>
      <trkpt lat="48.3589" lon="2.72637">
        <ele>94</ele>
        <time>2022-04-19T13:41:09.113Z</time>
      </trkpt>
      <trkpt lat="48.35897" lon="2.72639">
        <ele>94</ele>
        <time>2022-04-19T13:41:14.114Z</time>
      </trkpt>
      <trkpt lat="48.35905" lon="2.7264">
        <ele>94</ele>
        <time>2022-04-19T13:41:19.106Z</time>
      </trkpt>
      <trkpt lat="48.35913" lon="2.72639">
        <ele>94</ele>
        <time>2022-04-19T13:41:24.118Z</time>
      </trkpt>
      <trkpt lat="48.35919" lon="2.72639">
        <ele>94</ele>
        <time>2022-04-19T13:41:28.110Z</time>
      </trkpt>
      <trkpt lat="48.35927" lon="2.72639">
        <ele>94</ele>
        <time>2022-04-19T13:41:33.103Z</time>
      </trkpt>
      <trkpt lat="48.35935" lon="2.72639">
        <ele>93</ele>
        <time>2022-04-19T13:41:38.109Z</time>
      </trkpt>
      <trkpt lat="48.3594" lon="2.7264">
        <ele>93</ele>
        <time>2022-04-19T13:41:42.117Z</time>
      </trkpt>
      <trkpt lat="48.35948" lon="2.7264">
        <ele>93</ele>
        <time>2022-04-19T13:41:47.109Z</time>
      </trkpt>
      <trkpt lat="48.35954" lon="2.72642">
        <ele>93</ele>
        <time>2022-04-19T13:41:51.118Z</time>
      </trkpt>
      <trkpt lat="48.35962" lon="2.72643">
        <ele>92</ele>
        <time>2022-04-19T13:41:56.104Z</time>
      </trkpt>
      <trkpt lat="48.35968" lon="2.72644">
        <ele>92</ele>
        <time>2022-04-19T13:42:00.114Z</time>
      </trkpt>
      <trkpt lat="48.35975" lon="2.72644">
        <ele>92</ele>
        <time>2022-04-19T13:42:05.122Z</time>
      </trkpt>
      <trkpt lat="48.35982" lon="2.72646">
        <ele>92</ele>
        <time>2022-04-19T13:42:10.114Z</time>
      </trkpt>
      <trkpt lat="48.35989" lon="2.72646">
        <ele>91</ele>
        <time>2022-04-19T13:42:15.114Z</time>
      </trkpt>
      <trkpt lat="48.35997" lon="2.72647">
        <ele>91</ele>
        <time>2022-04-19T13:42:20.112Z</time>
      </trkpt>
      <trkpt lat="48.36002" lon="2.72647">
        <ele>91</ele>
        <time>2022-04-19T13:42:24.116Z</time>
      </trkpt>
      <trkpt lat="48.3601" lon="2.72648">
        <ele>91</ele>
        <time>2022-04-19T13:42:29.101Z</time>
      </trkpt>
      <trkpt lat="48.36016" lon="2.72648">
        <ele>92</ele>
        <time>2022-04-19T13:42:33.111Z</time>
      </trkpt>
      <trkpt lat="48.36023" lon="2.72647">
        <ele>92</ele>
        <time>2022-04-19T13:42:38.114Z</time>
      </trkpt>
      <trkpt lat="48.36029" lon="2.72647">
        <ele>92</ele>
        <time>2022-04-19T13:42:42.107Z</time>
      </trkpt>
      <trkpt lat="48.36036" lon="2.72648">
        <ele>92</ele>
        <time>2022-04-19T13:42:46.107Z</time>
      </trkpt>
      <trkpt lat="48.36044" lon="2.7265">
        <ele>94</ele>
        <time>2022-04-19T13:42:51.110Z</time>
      </trkpt>
      <trkpt lat="48.36051" lon="2.7265">
        <ele>94</ele>
        <time>2022-04-19T13:42:56.113Z</time>
      </trkpt>
      <trkpt lat="48.36058" lon="2.72649">
        <ele>94</ele>
        <time>2022-04-19T13:43:01.106Z</time>
      </trkpt>
      <trkpt lat="48.36064" lon="2.7265">
        <ele>94</ele>
        <time>2022-04-19T13:43:05.107Z</time>
      </trkpt>
      <trkpt lat="48.36069" lon="2.72651">
        <ele>94</ele>
        <time>2022-04-19T13:43:09.110Z</time>
      </trkpt>
      <trkpt lat="48.36075" lon="2.72651">
        <ele>94</ele>
        <time>2022-04-19T13:43:13.116Z</time>
      </trkpt>
      <trkpt lat="48.36081" lon="2.72652">
        <ele>94</ele>
        <time>2022-04-19T13:43:17.110Z</time>
      </trkpt>
      <trkpt lat="48.36088" lon="2.72653">
        <ele>94</ele>
        <time>2022-04-19T13:43:22.104Z</time>
      </trkpt>
      <trkpt lat="48.36094" lon="2.72652">
        <ele>94</ele>
        <time>2022-04-19T13:43:26.108Z</time>
      </trkpt>
      <trkpt lat="48.361" lon="2.72652">
        <ele>93</ele>
        <time>2022-04-19T13:43:30.116Z</time>
      </trkpt>
      <trkpt lat="48.36107" lon="2.72653">
        <ele>93</ele>
        <time>2022-04-19T13:43:35.109Z</time>
      </trkpt>
      <trkpt lat="48.36115" lon="2.72654">
        <ele>92</ele>
        <time>2022-04-19T13:43:40.108Z</time>
      </trkpt>
      <trkpt lat="48.36121" lon="2.72655">
        <ele>92</ele>
        <time>2022-04-19T13:43:44.115Z</time>
      </trkpt>
      <trkpt lat="48.36126" lon="2.72656">
        <ele>93</ele>
        <time>2022-04-19T13:43:48.105Z</time>
      </trkpt>
      <trkpt lat="48.36133" lon="2.72658">
        <ele>93</ele>
        <time>2022-04-19T13:43:53.115Z</time>
      </trkpt>
      <trkpt lat="48.3614" lon="2.72658">
        <ele>93</ele>
        <time>2022-04-19T13:43:58.112Z</time>
      </trkpt>
      <trkpt lat="48.36148" lon="2.72659">
        <ele>93</ele>
        <time>2022-04-19T13:44:03.114Z</time>
      </trkpt>
      <trkpt lat="48.36156" lon="2.7266">
        <ele>93</ele>
        <time>2022-04-19T13:44:08.107Z</time>
      </trkpt>
      <trkpt lat="48.36162" lon="2.72661">
        <ele>93</ele>
        <time>2022-04-19T13:44:12.112Z</time>
      </trkpt>
      <trkpt lat="48.36169" lon="2.72662">
        <ele>93</ele>
        <time>2022-04-19T13:44:17.106Z</time>
      </trkpt>
      <trkpt lat="48.36175" lon="2.72662">
        <ele>93</ele>
        <time>2022-04-19T13:44:21.112Z</time>
      </trkpt>
      <trkpt lat="48.36181" lon="2.72661">
        <ele>92</ele>
        <time>2022-04-19T13:44:25.115Z</time>
      </trkpt>
      <trkpt lat="48.36189" lon="2.72662">
        <ele>92</ele>
        <time>2022-04-19T13:44:30.111Z</time>
      </trkpt>
      <trkpt lat="48.36197" lon="2.72663">
        <ele>92</ele>
        <time>2022-04-19T13:44:35.104Z</time>
      </trkpt>
      <trkpt lat="48.36202" lon="2.72663">
        <ele>92</ele>
        <time>2022-04-19T13:44:39.109Z</time>
      </trkpt>
      <trkpt lat="48.36208" lon="2.72663">
        <ele>92</ele>
        <time>2022-04-19T13:44:43.103Z</time>
      </trkpt>
      <trkpt lat="48.36215" lon="2.72664">
        <ele>92</ele>
        <time>2022-04-19T13:44:47.102Z</time>
      </trkpt>
      <trkpt lat="48.36222" lon="2.72664">
        <ele>92</ele>
        <time>2022-04-19T13:44:52.111Z</time>
      </trkpt>
      <trkpt lat="48.36228" lon="2.72665">
        <ele>92</ele>
        <time>2022-04-19T13:44:56.112Z</time>
      </trkpt>
      <trkpt lat="48.36236" lon="2.72666">
        <ele>92</ele>
        <time>2022-04-19T13:45:01.111Z</time>
      </trkpt>
      <trkpt lat="48.36244" lon="2.72665">
        <ele>94</ele>
        <time>2022-04-19T13:45:06.108Z</time>
      </trkpt>
      <trkpt lat="48.3625" lon="2.72666">
        <ele>94</ele>
        <time>2022-04-19T13:45:10.111Z</time>
      </trkpt>
      <trkpt lat="48.36257" lon="2.72667">
        <ele>94</ele>
        <time>2022-04-19T13:45:14.116Z</time>
      </trkpt>
      <trkpt lat="48.36264" lon="2.72667">
        <ele>94</ele>
        <time>2022-04-19T13:45:19.108Z</time>
      </trkpt>
      <trkpt lat="48.36271" lon="2.72668">
        <ele>94</ele>
        <time>2022-04-19T13:45:23.119Z</time>
      </trkpt>
      <trkpt lat="48.36276" lon="2.72669">
        <ele>94</ele>
        <time>2022-04-19T13:45:27.134Z</time>
      </trkpt>
      <trkpt lat="48.36284" lon="2.72671">
        <ele>94</ele>
        <time>2022-04-19T13:45:32.110Z</time>
      </trkpt>
      <trkpt lat="48.36293" lon="2.7267">
        <ele>94</ele>
        <time>2022-04-19T13:45:37.106Z</time>
      </trkpt>
      <trkpt lat="48.363" lon="2.72671">
        <ele>94</ele>
        <time>2022-04-19T13:45:42.110Z</time>
      </trkpt>
      <trkpt lat="48.36308" lon="2.72671">
        <ele>94</ele>
        <time>2022-04-19T13:45:47.112Z</time>
      </trkpt>
      <trkpt lat="48.36317" lon="2.7267">
        <ele>94</ele>
        <time>2022-04-19T13:45:52.105Z</time>
      </trkpt>
      <trkpt lat="48.36324" lon="2.7267">
        <ele>95</ele>
        <time>2022-04-19T13:45:56.121Z</time>
      </trkpt>
      <trkpt lat="48.36331" lon="2.72671">
        <ele>95</ele>
        <time>2022-04-19T13:46:01.118Z</time>
      </trkpt>
      <trkpt lat="48.36338" lon="2.72672">
        <ele>95</ele>
        <time>2022-04-19T13:46:06.115Z</time>
      </trkpt>
      <trkpt lat="48.36345" lon="2.72673">
        <ele>95</ele>
        <time>2022-04-19T13:46:11.114Z</time>
      </trkpt>
      <trkpt lat="48.36353" lon="2.72674">
        <ele>96</ele>
        <time>2022-04-19T13:46:16.113Z</time>
      </trkpt>
      <trkpt lat="48.36359" lon="2.72675">
        <ele>96</ele>
        <time>2022-04-19T13:46:20.110Z</time>
      </trkpt>
      <trkpt lat="48.36366" lon="2.72676">
        <ele>96</ele>
        <time>2022-04-19T13:46:25.119Z</time>
      </trkpt>
      <trkpt lat="48.36374" lon="2.72677">
        <ele>96</ele>
        <time>2022-04-19T13:46:30.111Z</time>
      </trkpt>
      <trkpt lat="48.3638" lon="2.72677">
        <ele>96</ele>
        <time>2022-04-19T13:46:34.110Z</time>
      </trkpt>
      <trkpt lat="48.36387" lon="2.72679">
        <ele>96</ele>
        <time>2022-04-19T13:46:39.114Z</time>
      </trkpt>
      <trkpt lat="48.36393" lon="2.72679">
        <ele>96</ele>
        <time>2022-04-19T13:46:43.114Z</time>
      </trkpt>
      <trkpt lat="48.364" lon="2.7268">
        <ele>96</ele>
        <time>2022-04-19T13:46:48.117Z</time>
      </trkpt>
      <trkpt lat="48.36406" lon="2.7268">
        <ele>93</ele>
        <time>2022-04-19T13:46:52.113Z</time>
      </trkpt>
      <trkpt lat="48.36412" lon="2.7268">
        <ele>93</ele>
        <time>2022-04-19T13:46:56.121Z</time>
      </trkpt>
      <trkpt lat="48.3642" lon="2.7268">
        <ele>93</ele>
        <time>2022-04-19T13:47:01.116Z</time>
      </trkpt>
      <trkpt lat="48.36425" lon="2.72678">
        <ele>93</ele>
        <time>2022-04-19T13:47:06.102Z</time>
      </trkpt>
      <trkpt lat="48.3643" lon="2.72678">
        <ele>93</ele>
        <time>2022-04-19T13:47:10.100Z</time>
      </trkpt>
      <trkpt lat="48.36437" lon="2.72679">
        <ele>90</ele>
        <time>2022-04-19T13:47:15.102Z</time>
      </trkpt>
      <trkpt lat="48.36444" lon="2.72679">
        <ele>90</ele>
        <time>2022-04-19T13:47:20.106Z</time>
      </trkpt>
      <trkpt lat="48.3645" lon="2.7268">
        <ele>90</ele>
        <time>2022-04-19T13:47:24.105Z</time>
      </trkpt>
      <trkpt lat="48.36457" lon="2.72681">
        <ele>90</ele>
        <time>2022-04-19T13:47:29.104Z</time>
      </trkpt>
      <trkpt lat="48.36463" lon="2.72684">
        <ele>91</ele>
        <time>2022-04-19T13:47:33.108Z</time>
      </trkpt>
      <trkpt lat="48.3647" lon="2.72686">
        <ele>91</ele>
        <time>2022-04-19T13:47:38.107Z</time>
      </trkpt>
      <trkpt lat="48.36475" lon="2.72691">
        <ele>91</ele>
        <time>2022-04-19T13:47:42.108Z</time>
      </trkpt>
      <trkpt lat="48.3648" lon="2.72692">
        <ele>91</ele>
        <time>2022-04-19T13:47:46.104Z</time>
      </trkpt>
      <trkpt lat="48.36487" lon="2.72694">
        <ele>92</ele>
        <time>2022-04-19T13:47:51.104Z</time>
      </trkpt>
      <trkpt lat="48.36492" lon="2.72694">
        <ele>92</ele>
        <time>2022-04-19T13:47:55.103Z</time>
      </trkpt>
      <trkpt lat="48.36499" lon="2.72695">
        <ele>92</ele>
        <time>2022-04-19T13:48:00.101Z</time>
      </trkpt>
      <trkpt lat="48.36506" lon="2.72695">
        <ele>92</ele>
        <time>2022-04-19T13:48:04.108Z</time>
      </trkpt>
      <trkpt lat="48.36513" lon="2.72694">
        <ele>92</ele>
        <time>2022-04-19T13:48:09.111Z</time>
      </trkpt>
      <trkpt lat="48.36519" lon="2.72695">
        <ele>93</ele>
        <time>2022-04-19T13:48:14.111Z</time>
      </trkpt>
      <trkpt lat="48.36525" lon="2.72698">
        <ele>93</ele>
        <time>2022-04-19T13:48:18.115Z</time>
      </trkpt>
      <trkpt lat="48.36532" lon="2.72699">
        <ele>93</ele>
        <time>2022-04-19T13:48:23.109Z</time>
      </trkpt>
      <trkpt lat="48.36538" lon="2.72703">
        <ele>93</ele>
        <time>2022-04-19T13:48:27.115Z</time>
      </trkpt>
      <trkpt lat="48.36544" lon="2.72708">
        <ele>93</ele>
        <time>2022-04-19T13:48:32.110Z</time>
      </trkpt>
      <trkpt lat="48.3655" lon="2.72711">
        <ele>93</ele>
        <time>2022-04-19T13:48:36.104Z</time>
      </trkpt>
      <trkpt lat="48.36556" lon="2.72718">
        <ele>93</ele>
        <time>2022-04-19T13:48:41.123Z</time>
      </trkpt>
      <trkpt lat="48.36562" lon="2.72723">
        <ele>93</ele>
        <time>2022-04-19T13:48:46.113Z</time>
      </trkpt>
      <trkpt lat="48.36566" lon="2.72728">
        <ele>93</ele>
        <time>2022-04-19T13:48:50.114Z</time>
      </trkpt>
      <trkpt lat="48.36571" lon="2.72734">
        <ele>94</ele>
        <time>2022-04-19T13:48:55.114Z</time>
      </trkpt>
      <trkpt lat="48.36577" lon="2.72742">
        <ele>94</ele>
        <time>2022-04-19T13:49:00.118Z</time>
      </trkpt>
      <trkpt lat="48.36582" lon="2.72746">
        <ele>94</ele>
        <time>2022-04-19T13:49:04.114Z</time>
      </trkpt>
      <trkpt lat="48.36586" lon="2.72752">
        <ele>94</ele>
        <time>2022-04-19T13:49:08.124Z</time>
      </trkpt>
      <trkpt lat="48.36592" lon="2.72758">
        <ele>94</ele>
        <time>2022-04-19T13:49:13.135Z</time>
      </trkpt>
      <trkpt lat="48.36597" lon="2.72764">
        <ele>95</ele>
        <time>2022-04-19T13:49:18.109Z</time>
      </trkpt>
      <trkpt lat="48.36602" lon="2.72769">
        <ele>95</ele>
        <time>2022-04-19T13:49:22.120Z</time>
      </trkpt>
      <trkpt lat="48.36607" lon="2.72774">
        <ele>95</ele>
        <time>2022-04-19T13:49:26.121Z</time>
      </trkpt>
      <trkpt lat="48.36613" lon="2.7278">
        <ele>95</ele>
        <time>2022-04-19T13:49:31.113Z</time>
      </trkpt>
      <trkpt lat="48.36618" lon="2.72787">
        <ele>95</ele>
        <time>2022-04-19T13:49:35.122Z</time>
      </trkpt>
      <trkpt lat="48.36624" lon="2.72794">
        <ele>95</ele>
        <time>2022-04-19T13:49:40.114Z</time>
      </trkpt>
      <trkpt lat="48.36631" lon="2.728">
        <ele>95</ele>
        <time>2022-04-19T13:49:45.122Z</time>
      </trkpt>
      <trkpt lat="48.36636" lon="2.72805">
        <ele>95</ele>
        <time>2022-04-19T13:49:49.117Z</time>
      </trkpt>
      <trkpt lat="48.3664" lon="2.7281">
        <ele>95</ele>
        <time>2022-04-19T13:49:53.136Z</time>
      </trkpt>
      <trkpt lat="48.36646" lon="2.72818">
        <ele>95</ele>
        <time>2022-04-19T13:49:58.116Z</time>
      </trkpt>
      <trkpt lat="48.36652" lon="2.72826">
        <ele>96</ele>
        <time>2022-04-19T13:50:03.117Z</time>
      </trkpt>
      <trkpt lat="48.36656" lon="2.72833">
        <ele>95</ele>
        <time>2022-04-19T13:50:07.130Z</time>
      </trkpt>
      <trkpt lat="48.36662" lon="2.72842">
        <ele>95</ele>
        <time>2022-04-19T13:50:12.116Z</time>
      </trkpt>
      <trkpt lat="48.36669" lon="2.72848">
        <ele>97</ele>
        <time>2022-04-19T13:50:17.128Z</time>
      </trkpt>
      <trkpt lat="48.36675" lon="2.72856">
        <ele>97</ele>
        <time>2022-04-19T13:50:22.115Z</time>
      </trkpt>
      <trkpt lat="48.36681" lon="2.72862">
        <ele>95</ele>
        <time>2022-04-19T13:50:27.125Z</time>
      </trkpt>
      <trkpt lat="48.36686" lon="2.72868">
        <ele>95</ele>
        <time>2022-04-19T13:50:31.125Z</time>
      </trkpt>
      <trkpt lat="48.36692" lon="2.72874">
        <ele>95</ele>
        <time>2022-04-19T13:50:36.118Z</time>
      </trkpt>
      <trkpt lat="48.36696" lon="2.7288">
        <ele>96</ele>
        <time>2022-04-19T13:50:40.118Z</time>
      </trkpt>
      <trkpt lat="48.36702" lon="2.72887">
        <ele>96</ele>
        <time>2022-04-19T13:50:45.116Z</time>
      </trkpt>
      <trkpt lat="48.36708" lon="2.72891">
        <ele>96</ele>
        <time>2022-04-19T13:50:49.125Z</time>
      </trkpt>
      <trkpt lat="48.36712" lon="2.72898">
        <ele>94</ele>
        <time>2022-04-19T13:50:53.125Z</time>
      </trkpt>
      <trkpt lat="48.36717" lon="2.72906">
        <ele>95</ele>
        <time>2022-04-19T13:50:58.121Z</time>
      </trkpt>
      <trkpt lat="48.36723" lon="2.72911">
        <ele>95</ele>
        <time>2022-04-19T13:51:02.124Z</time>
      </trkpt>
      <trkpt lat="48.36727" lon="2.72918">
        <ele>95</ele>
        <time>2022-04-19T13:51:06.117Z</time>
      </trkpt>
      <trkpt lat="48.36733" lon="2.72925">
        <ele>95</ele>
        <time>2022-04-19T13:51:11.126Z</time>
      </trkpt>
      <trkpt lat="48.36737" lon="2.7293">
        <ele>95</ele>
        <time>2022-04-19T13:51:15.126Z</time>
      </trkpt>
      <trkpt lat="48.36744" lon="2.72938">
        <ele>95</ele>
        <time>2022-04-19T13:51:20.119Z</time>
      </trkpt>
      <trkpt lat="48.36749" lon="2.72943">
        <ele>95</ele>
        <time>2022-04-19T13:51:25.126Z</time>
      </trkpt>
      <trkpt lat="48.36753" lon="2.72948">
        <ele>95</ele>
        <time>2022-04-19T13:51:29.130Z</time>
      </trkpt>
      <trkpt lat="48.36758" lon="2.72956">
        <ele>95</ele>
        <time>2022-04-19T13:51:34.126Z</time>
      </trkpt>
      <trkpt lat="48.36764" lon="2.72962">
        <ele>95</ele>
        <time>2022-04-19T13:51:39.133Z</time>
      </trkpt>
      <trkpt lat="48.3677" lon="2.72967">
        <ele>95</ele>
        <time>2022-04-19T13:51:43.125Z</time>
      </trkpt>
      <trkpt lat="48.36776" lon="2.72974">
        <ele>95</ele>
        <time>2022-04-19T13:51:48.114Z</time>
      </trkpt>
      <trkpt lat="48.3678" lon="2.7298">
        <ele>95</ele>
        <time>2022-04-19T13:51:52.121Z</time>
      </trkpt>
      <trkpt lat="48.36785" lon="2.72985">
        <ele>95</ele>
        <time>2022-04-19T13:51:56.133Z</time>
      </trkpt>
      <trkpt lat="48.3679" lon="2.72992">
        <ele>95</ele>
        <time>2022-04-19T13:52:01.120Z</time>
      </trkpt>
      <trkpt lat="48.36796" lon="2.72998">
        <ele>94</ele>
        <time>2022-04-19T13:52:06.128Z</time>
      </trkpt>
      <trkpt lat="48.368" lon="2.73008">
        <ele>94</ele>
        <time>2022-04-19T13:52:11.126Z</time>
      </trkpt>
      <trkpt lat="48.36806" lon="2.73015">
        <ele>95</ele>
        <time>2022-04-19T13:52:16.116Z</time>
      </trkpt>
      <trkpt lat="48.36812" lon="2.7302">
        <ele>95</ele>
        <time>2022-04-19T13:52:20.117Z</time>
      </trkpt>
      <trkpt lat="48.36818" lon="2.73026">
        <ele>95</ele>
        <time>2022-04-19T13:52:25.124Z</time>
      </trkpt>
      <trkpt lat="48.36823" lon="2.73032">
        <ele>92</ele>
        <time>2022-04-19T13:52:29.125Z</time>
      </trkpt>
      <trkpt lat="48.3683" lon="2.73039">
        <ele>92</ele>
        <time>2022-04-19T13:52:34.124Z</time>
      </trkpt>
      <trkpt lat="48.36836" lon="2.73046">
        <ele>94</ele>
        <time>2022-04-19T13:52:39.126Z</time>
      </trkpt>
      <trkpt lat="48.36843" lon="2.73052">
        <ele>94</ele>
        <time>2022-04-19T13:52:44.124Z</time>
      </trkpt>
      <trkpt lat="48.3685" lon="2.73059">
        <ele>91</ele>
        <time>2022-04-19T13:52:49.118Z</time>
      </trkpt>
      <trkpt lat="48.36855" lon="2.73063">
        <ele>91</ele>
        <time>2022-04-19T13:52:53.113Z</time>
      </trkpt>
      <trkpt lat="48.36862" lon="2.7307">
        <ele>92</ele>
        <time>2022-04-19T13:52:57.122Z</time>
      </trkpt>
      <trkpt lat="48.36866" lon="2.73076">
        <ele>92</ele>
        <time>2022-04-19T13:53:01.119Z</time>
      </trkpt>
      <trkpt lat="48.36872" lon="2.73082">
        <ele>92</ele>
        <time>2022-04-19T13:53:06.121Z</time>
      </trkpt>
      <trkpt lat="48.36877" lon="2.73088">
        <ele>88</ele>
        <time>2022-04-19T13:53:11.114Z</time>
      </trkpt>
      <trkpt lat="48.36882" lon="2.73093">
        <ele>88</ele>
        <time>2022-04-19T13:53:15.113Z</time>
      </trkpt>
      <trkpt lat="48.36887" lon="2.73098">
        <ele>90</ele>
        <time>2022-04-19T13:53:19.116Z</time>
      </trkpt>
      <trkpt lat="48.36893" lon="2.73106">
        <ele>90</ele>
        <time>2022-04-19T13:53:24.121Z</time>
      </trkpt>
      <trkpt lat="48.36899" lon="2.73113">
        <ele>90</ele>
        <time>2022-04-19T13:53:29.118Z</time>
      </trkpt>
      <trkpt lat="48.36905" lon="2.73119">
        <ele>90</ele>
        <time>2022-04-19T13:53:34.124Z</time>
      </trkpt>
      <trkpt lat="48.3691" lon="2.73124">
        <ele>90</ele>
        <time>2022-04-19T13:53:38.140Z</time>
      </trkpt>
      <trkpt lat="48.36915" lon="2.73132">
        <ele>92</ele>
        <time>2022-04-19T13:53:43.118Z</time>
      </trkpt>
      <trkpt lat="48.36922" lon="2.73139">
        <ele>92</ele>
        <time>2022-04-19T13:53:48.117Z</time>
      </trkpt>
      <trkpt lat="48.36928" lon="2.73145">
        <ele>92</ele>
        <time>2022-04-19T13:53:53.114Z</time>
      </trkpt>
      <trkpt lat="48.36933" lon="2.7315">
        <ele>92</ele>
        <time>2022-04-19T13:53:57.116Z</time>
      </trkpt>
      <trkpt lat="48.36938" lon="2.73155">
        <ele>94</ele>
        <time>2022-04-19T13:54:01.124Z</time>
      </trkpt>
      <trkpt lat="48.36944" lon="2.73162">
        <ele>94</ele>
        <time>2022-04-19T13:54:06.143Z</time>
      </trkpt>
      <trkpt lat="48.3695" lon="2.73168">
        <ele>94</ele>
        <time>2022-04-19T13:54:11.124Z</time>
      </trkpt>
      <trkpt lat="48.36955" lon="2.73174">
        <ele>94</ele>
        <time>2022-04-19T13:54:16.124Z</time>
      </trkpt>
      <trkpt lat="48.36962" lon="2.73179">
        <ele>93</ele>
        <time>2022-04-19T13:54:21.116Z</time>
      </trkpt>
      <trkpt lat="48.36969" lon="2.73186">
        <ele>96</ele>
        <time>2022-04-19T13:54:26.122Z</time>
      </trkpt>
      <trkpt lat="48.36976" lon="2.73192">
        <ele>96</ele>
        <time>2022-04-19T13:54:31.116Z</time>
      </trkpt>
      <trkpt lat="48.36981" lon="2.73197">
        <ele>96</ele>
        <time>2022-04-19T13:54:35.123Z</time>
      </trkpt>
      <trkpt lat="48.36988" lon="2.73204">
        <ele>92</ele>
        <time>2022-04-19T13:54:40.115Z</time>
      </trkpt>
      <trkpt lat="48.36995" lon="2.7321">
        <ele>93</ele>
        <time>2022-04-19T13:54:45.114Z</time>
      </trkpt>
      <trkpt lat="48.37" lon="2.73216">
        <ele>93</ele>
        <time>2022-04-19T13:54:49.121Z</time>
      </trkpt>
      <trkpt lat="48.37006" lon="2.73222">
        <ele>93</ele>
        <time>2022-04-19T13:54:54.115Z</time>
      </trkpt>
      <trkpt lat="48.37011" lon="2.73228">
        <ele>93</ele>
        <time>2022-04-19T13:54:58.117Z</time>
      </trkpt>
      <trkpt lat="48.37017" lon="2.73234">
        <ele>89</ele>
        <time>2022-04-19T13:55:03.114Z</time>
      </trkpt>
      <trkpt lat="48.37022" lon="2.7324">
        <ele>90</ele>
        <time>2022-04-19T13:55:07.115Z</time>
      </trkpt>
      <trkpt lat="48.37027" lon="2.73245">
        <ele>90</ele>
        <time>2022-04-19T13:55:11.113Z</time>
      </trkpt>
      <trkpt lat="48.37033" lon="2.7325">
        <ele>90</ele>
        <time>2022-04-19T13:55:15.116Z</time>
      </trkpt>
      <trkpt lat="48.37041" lon="2.73254">
        <ele>90</ele>
        <time>2022-04-19T13:55:20.116Z</time>
      </trkpt>
      <trkpt lat="48.37046" lon="2.7326">
        <ele>90</ele>
        <time>2022-04-19T13:55:24.124Z</time>
      </trkpt>
      <trkpt lat="48.37052" lon="2.73267">
        <ele>90</ele>
        <time>2022-04-19T13:55:29.114Z</time>
      </trkpt>
      <trkpt lat="48.37058" lon="2.73273">
        <ele>90</ele>
        <time>2022-04-19T13:55:34.115Z</time>
      </trkpt>
      <trkpt lat="48.37062" lon="2.73278">
        <ele>90</ele>
        <time>2022-04-19T13:55:38.116Z</time>
      </trkpt>
      <trkpt lat="48.37065" lon="2.7328">
        <ele>90</ele>
        <time>2022-04-19T13:55:43.112Z</time>
      </trkpt>
      <trkpt lat="48.37065" lon="2.7328">
        <ele>90</ele>
        <time>2022-04-19T13:55:48.126Z</time>
      </trkpt>
      <trkpt lat="48.37068" lon="2.73283">
        <ele>90</ele>
        <time>2022-04-19T13:55:52.239Z</time>
      </trkpt>
      <trkpt lat="48.37074" lon="2.73288">
        <ele>92</ele>
        <time>2022-04-19T13:55:57.121Z</time>
      </trkpt>
      <trkpt lat="48.3708" lon="2.73293">
        <ele>92</ele>
        <time>2022-04-19T13:56:02.115Z</time>
      </trkpt>
      <trkpt lat="48.37086" lon="2.73298">
        <ele>92</ele>
        <time>2022-04-19T13:56:07.116Z</time>
      </trkpt>
      <trkpt lat="48.37092" lon="2.73303">
        <ele>92</ele>
        <time>2022-04-19T13:56:12.113Z</time>
      </trkpt>
      <trkpt lat="48.37097" lon="2.73307">
        <ele>92</ele>
        <time>2022-04-19T13:56:16.116Z</time>
      </trkpt>
      <trkpt lat="48.37103" lon="2.73312">
        <ele>96</ele>
        <time>2022-04-19T13:56:21.121Z</time>
      </trkpt>
      <trkpt lat="48.37109" lon="2.73318">
        <ele>96</ele>
        <time>2022-04-19T13:56:26.112Z</time>
      </trkpt>
      <trkpt lat="48.37116" lon="2.73323">
        <ele>96</ele>
        <time>2022-04-19T13:56:31.125Z</time>
      </trkpt>
      <trkpt lat="48.37122" lon="2.73327">
        <ele>96</ele>
        <time>2022-04-19T13:56:36.115Z</time>
      </trkpt>
      <trkpt lat="48.37128" lon="2.73331">
        <ele>99</ele>
        <time>2022-04-19T13:56:41.116Z</time>
      </trkpt>
      <trkpt lat="48.37134" lon="2.73337">
        <ele>99</ele>
        <time>2022-04-19T13:56:46.117Z</time>
      </trkpt>
      <trkpt lat="48.37139" lon="2.7334">
        <ele>99</ele>
        <time>2022-04-19T13:56:51.123Z</time>
      </trkpt>
      <trkpt lat="48.37145" lon="2.73346">
        <ele>99</ele>
        <time>2022-04-19T13:56:56.114Z</time>
      </trkpt>
      <trkpt lat="48.3715" lon="2.7335">
        <ele>99</ele>
        <time>2022-04-19T13:57:01.124Z</time>
      </trkpt>
      <trkpt lat="48.37156" lon="2.73354">
        <ele>100</ele>
        <time>2022-04-19T13:57:06.122Z</time>
      </trkpt>
      <trkpt lat="48.37162" lon="2.73358">
        <ele>100</ele>
        <time>2022-04-19T13:57:10.126Z</time>
      </trkpt>
      <trkpt lat="48.37168" lon="2.73363">
        <ele>100</ele>
        <time>2022-04-19T13:57:15.123Z</time>
      </trkpt>
      <trkpt lat="48.37175" lon="2.73368">
        <ele>100</ele>
        <time>2022-04-19T13:57:20.117Z</time>
      </trkpt>
      <trkpt lat="48.3718" lon="2.73372">
        <ele>100</ele>
        <time>2022-04-19T13:57:24.125Z</time>
      </trkpt>
      <trkpt lat="48.37186" lon="2.73377">
        <ele>100</ele>
        <time>2022-04-19T13:57:29.120Z</time>
      </trkpt>
      <trkpt lat="48.37192" lon="2.73382">
        <ele>100</ele>
        <time>2022-04-19T13:57:34.116Z</time>
      </trkpt>
      <trkpt lat="48.37197" lon="2.73386">
        <ele>100</ele>
        <time>2022-04-19T13:57:38.121Z</time>
      </trkpt>
      <trkpt lat="48.37201" lon="2.73388">
        <ele>100</ele>
        <time>2022-04-19T13:57:43.131Z</time>
      </trkpt>
      <trkpt lat="48.37208" lon="2.73392">
        <ele>98</ele>
        <time>2022-04-19T13:57:48.118Z</time>
      </trkpt>
      <trkpt lat="48.37214" lon="2.73394">
        <ele>98</ele>
        <time>2022-04-19T13:57:52.124Z</time>
      </trkpt>
      <trkpt lat="48.3722" lon="2.73401">
        <ele>98</ele>
        <time>2022-04-19T13:57:57.117Z</time>
      </trkpt>
      <trkpt lat="48.37225" lon="2.73405">
        <ele>98</ele>
        <time>2022-04-19T13:58:01.117Z</time>
      </trkpt>
      <trkpt lat="48.37231" lon="2.73414">
        <ele>98</ele>
        <time>2022-04-19T13:58:06.125Z</time>
      </trkpt>
      <trkpt lat="48.37238" lon="2.73421">
        <ele>98</ele>
        <time>2022-04-19T13:58:11.116Z</time>
      </trkpt>
      <trkpt lat="48.37244" lon="2.73427">
        <ele>98</ele>
        <time>2022-04-19T13:58:15.117Z</time>
      </trkpt>
      <trkpt lat="48.37251" lon="2.73438">
        <ele>98</ele>
        <time>2022-04-19T13:58:20.122Z</time>
      </trkpt>
      <trkpt lat="48.37255" lon="2.73446">
        <ele>98</ele>
        <time>2022-04-19T13:58:24.123Z</time>
      </trkpt>
      <trkpt lat="48.3726" lon="2.73454">
        <ele>98</ele>
        <time>2022-04-19T13:58:29.112Z</time>
      </trkpt>
      <trkpt lat="48.37265" lon="2.73462">
        <ele>98</ele>
        <time>2022-04-19T13:58:34.115Z</time>
      </trkpt>
      <trkpt lat="48.37271" lon="2.73471">
        <ele>98</ele>
        <time>2022-04-19T13:58:39.125Z</time>
      </trkpt>
      <trkpt lat="48.37277" lon="2.73477">
        <ele>98</ele>
        <time>2022-04-19T13:58:44.125Z</time>
      </trkpt>
      <trkpt lat="48.37283" lon="2.73485">
        <ele>98</ele>
        <time>2022-04-19T13:58:49.122Z</time>
      </trkpt>
      <trkpt lat="48.37288" lon="2.7349">
        <ele>99</ele>
        <time>2022-04-19T13:58:54.117Z</time>
      </trkpt>
      <trkpt lat="48.37292" lon="2.73496">
        <ele>97</ele>
        <time>2022-04-19T13:58:58.125Z</time>
      </trkpt>
      <trkpt lat="48.37298" lon="2.73503">
        <ele>97</ele>
        <time>2022-04-19T13:59:03.126Z</time>
      </trkpt>
      <trkpt lat="48.37304" lon="2.73508">
        <ele>97</ele>
        <time>2022-04-19T13:59:08.123Z</time>
      </trkpt>
      <trkpt lat="48.37308" lon="2.73515">
        <ele>98</ele>
        <time>2022-04-19T13:59:12.122Z</time>
      </trkpt>
      <trkpt lat="48.37314" lon="2.73523">
        <ele>98</ele>
        <time>2022-04-19T13:59:17.124Z</time>
      </trkpt>
      <trkpt lat="48.37319" lon="2.73532">
        <ele>98</ele>
        <time>2022-04-19T13:59:22.123Z</time>
      </trkpt>
      <trkpt lat="48.37325" lon="2.73539">
        <ele>96</ele>
        <time>2022-04-19T13:59:27.124Z</time>
      </trkpt>
      <trkpt lat="48.3733" lon="2.73547">
        <ele>97</ele>
        <time>2022-04-19T13:59:32.121Z</time>
      </trkpt>
      <trkpt lat="48.37337" lon="2.73553">
        <ele>97</ele>
        <time>2022-04-19T13:59:37.118Z</time>
      </trkpt>
      <trkpt lat="48.37342" lon="2.73561">
        <ele>97</ele>
        <time>2022-04-19T13:59:42.116Z</time>
      </trkpt>
      <trkpt lat="48.37349" lon="2.73567">
        <ele>95</ele>
        <time>2022-04-19T13:59:47.122Z</time>
      </trkpt>
      <trkpt lat="48.37353" lon="2.73573">
        <ele>96</ele>
        <time>2022-04-19T13:59:51.125Z</time>
      </trkpt>
      <trkpt lat="48.37357" lon="2.73578">
        <ele>96</ele>
        <time>2022-04-19T13:59:55.122Z</time>
      </trkpt>
      <trkpt lat="48.37358" lon="2.7359">
        <ele>96</ele>
        <time>2022-04-19T14:00:00.119Z</time>
      </trkpt>
      <trkpt lat="48.37364" lon="2.73598">
        <ele>97</ele>
        <time>2022-04-19T14:00:05.125Z</time>
      </trkpt>
      <trkpt lat="48.3737" lon="2.73605">
        <ele>97</ele>
        <time>2022-04-19T14:00:10.117Z</time>
      </trkpt>
      <trkpt lat="48.37376" lon="2.73612">
        <ele>96</ele>
        <time>2022-04-19T14:00:15.123Z</time>
      </trkpt>
      <trkpt lat="48.37382" lon="2.7362">
        <ele>96</ele>
        <time>2022-04-19T14:00:20.117Z</time>
      </trkpt>
      <trkpt lat="48.37388" lon="2.73628">
        <ele>96</ele>
        <time>2022-04-19T14:00:25.124Z</time>
      </trkpt>
      <trkpt lat="48.37395" lon="2.73634">
        <ele>96</ele>
        <time>2022-04-19T14:00:30.121Z</time>
      </trkpt>
      <trkpt lat="48.37401" lon="2.73642">
        <ele>96</ele>
        <time>2022-04-19T14:00:35.121Z</time>
      </trkpt>
      <trkpt lat="48.37406" lon="2.73647">
        <ele>94</ele>
        <time>2022-04-19T14:00:39.120Z</time>
      </trkpt>
      <trkpt lat="48.37413" lon="2.73654">
        <ele>95</ele>
        <time>2022-04-19T14:00:44.122Z</time>
      </trkpt>
      <trkpt lat="48.37419" lon="2.73663">
        <ele>95</ele>
        <time>2022-04-19T14:00:49.119Z</time>
      </trkpt>
      <trkpt lat="48.37426" lon="2.73669">
        <ele>95</ele>
        <time>2022-04-19T14:00:54.121Z</time>
      </trkpt>
      <trkpt lat="48.37432" lon="2.73677">
        <ele>93</ele>
        <time>2022-04-19T14:00:59.124Z</time>
      </trkpt>
      <trkpt lat="48.37438" lon="2.73685">
        <ele>93</ele>
        <time>2022-04-19T14:01:04.119Z</time>
      </trkpt>
      <trkpt lat="48.37444" lon="2.73693">
        <ele>93</ele>
        <time>2022-04-19T14:01:09.124Z</time>
      </trkpt>
      <trkpt lat="48.3745" lon="2.73701">
        <ele>93</ele>
        <time>2022-04-19T14:01:14.117Z</time>
      </trkpt>
      <trkpt lat="48.37456" lon="2.73709">
        <ele>94</ele>
        <time>2022-04-19T14:01:19.126Z</time>
      </trkpt>
      <trkpt lat="48.37462" lon="2.73717">
        <ele>90</ele>
        <time>2022-04-19T14:01:24.123Z</time>
      </trkpt>
      <trkpt lat="48.37469" lon="2.73724">
        <ele>90</ele>
        <time>2022-04-19T14:01:29.117Z</time>
      </trkpt>
      <trkpt lat="48.37476" lon="2.73733">
        <ele>90</ele>
        <time>2022-04-19T14:01:34.116Z</time>
      </trkpt>
      <trkpt lat="48.37482" lon="2.7374">
        <ele>91</ele>
        <time>2022-04-19T14:01:39.121Z</time>
      </trkpt>
      <trkpt lat="48.37487" lon="2.73747">
        <ele>88</ele>
        <time>2022-04-19T14:01:44.126Z</time>
      </trkpt>
      <trkpt lat="48.37491" lon="2.73752">
        <ele>88</ele>
        <time>2022-04-19T14:01:48.124Z</time>
      </trkpt>
      <trkpt lat="48.37496" lon="2.7376">
        <ele>88</ele>
        <time>2022-04-19T14:01:53.130Z</time>
      </trkpt>
      <trkpt lat="48.37502" lon="2.73766">
        <ele>88</ele>
        <time>2022-04-19T14:01:58.117Z</time>
      </trkpt>
      <trkpt lat="48.37507" lon="2.73773">
        <ele>88</ele>
        <time>2022-04-19T14:02:03.129Z</time>
      </trkpt>
      <trkpt lat="48.37512" lon="2.73779">
        <ele>88</ele>
        <time>2022-04-19T14:02:08.125Z</time>
      </trkpt>
      <trkpt lat="48.37517" lon="2.73785">
        <ele>89</ele>
        <time>2022-04-19T14:02:12.126Z</time>
      </trkpt>
      <trkpt lat="48.37522" lon="2.73793">
        <ele>89</ele>
        <time>2022-04-19T14:02:17.126Z</time>
      </trkpt>
      <trkpt lat="48.37528" lon="2.738">
        <ele>89</ele>
        <time>2022-04-19T14:02:22.121Z</time>
      </trkpt>
      <trkpt lat="48.37532" lon="2.73806">
        <ele>89</ele>
        <time>2022-04-19T14:02:26.126Z</time>
      </trkpt>
      <trkpt lat="48.37538" lon="2.73813">
        <ele>89</ele>
        <time>2022-04-19T14:02:31.119Z</time>
      </trkpt>
      <trkpt lat="48.37543" lon="2.73822">
        <ele>92</ele>
        <time>2022-04-19T14:02:36.123Z</time>
      </trkpt>
      <trkpt lat="48.37548" lon="2.73829">
        <ele>92</ele>
        <time>2022-04-19T14:02:41.117Z</time>
      </trkpt>
      <trkpt lat="48.37554" lon="2.73835">
        <ele>92</ele>
        <time>2022-04-19T14:02:45.127Z</time>
      </trkpt>
      <trkpt lat="48.37559" lon="2.73839">
        <ele>92</ele>
        <time>2022-04-19T14:02:49.133Z</time>
      </trkpt>
      <trkpt lat="48.37564" lon="2.73846">
        <ele>92</ele>
        <time>2022-04-19T14:02:54.126Z</time>
      </trkpt>
      <trkpt lat="48.37569" lon="2.73854">
        <ele>92</ele>
        <time>2022-04-19T14:02:59.113Z</time>
      </trkpt>
      <trkpt lat="48.37574" lon="2.73859">
        <ele>93</ele>
        <time>2022-04-19T14:03:03.125Z</time>
      </trkpt>
      <trkpt lat="48.37579" lon="2.73867">
        <ele>93</ele>
        <time>2022-04-19T14:03:08.120Z</time>
      </trkpt>
      <trkpt lat="48.37583" lon="2.73876">
        <ele>93</ele>
        <time>2022-04-19T14:03:13.119Z</time>
      </trkpt>
      <trkpt lat="48.37589" lon="2.73885">
        <ele>93</ele>
        <time>2022-04-19T14:03:18.118Z</time>
      </trkpt>
      <trkpt lat="48.37595" lon="2.73892">
        <ele>93</ele>
        <time>2022-04-19T14:03:23.116Z</time>
      </trkpt>
      <trkpt lat="48.376" lon="2.73898">
        <ele>92</ele>
        <time>2022-04-19T14:03:27.116Z</time>
      </trkpt>
      <trkpt lat="48.37606" lon="2.73906">
        <ele>92</ele>
        <time>2022-04-19T14:03:32.118Z</time>
      </trkpt>
      <trkpt lat="48.3761" lon="2.73912">
        <ele>92</ele>
        <time>2022-04-19T14:03:37.119Z</time>
      </trkpt>
      <trkpt lat="48.37615" lon="2.73917">
        <ele>92</ele>
        <time>2022-04-19T14:03:42.126Z</time>
      </trkpt>
      <trkpt lat="48.3762" lon="2.73925">
        <ele>92</ele>
        <time>2022-04-19T14:03:47.122Z</time>
      </trkpt>
      <trkpt lat="48.37625" lon="2.73933">
        <ele>91</ele>
        <time>2022-04-19T14:03:52.124Z</time>
      </trkpt>
    </trkseg>
  </trk>
</gpx>